<?xml version="1.0" encoding="UTF-8" standalone="no" ?>
<gpx xmlns="http://www.topografix.com/GPX/1/1" xmlns:gpxtpx="http://www.garmin.com/xmlschemas/TrackPointExtension/v1" creator="OruxMaps v.7.0.2" version="1.1" xmlns:xsi="http://www.w3.org/2001/XMLSchema-instance" xsi:schemaLocation="http://www.topografix.com/GPX/1/1 http://www.topografix.com/GPX/1/1/gpx.xsd">
<metadata>
<name><![CDATA[Puig de Sant Salvador Mallorca 14.10.2016]]></name>
<link href="http://www.oruxmaps.com">
<text>OruxMaps</text>
</link>
<time>2016-10-14T07:21:01Z</time><bounds maxlat="39.7656059" maxlon="3.2247297" minlat="39.4546346" minlon="3.0285348"/>
</metadata>
<trk>
<name><![CDATA[Puig de Sant Salvador Mallorca 14.10.2016]]></name>
<desc><![CDATA[<p>Startzeit: 10/14/2016 09:21<br/>Zielzeit: 10/14/2016 15:57<br/>Strecke: 108,7 km (06:35)<br/>Bewegungszeit: 04:52<br/>Ø-Geschwindigkeit: 16,47 km/h<br/>Netto-Geschwindigkeit: 22,28 km/h<br/>Max. Geschwindigkeit: 54,36 km/h<br/>Minimale Höhe: -47 m<br/>Maximale Höhe: 486 m<br/>Steig-Geschw.: 872,4 m/h<br/>Sink-Geschw.: -813,9 m/h<br/>Aufstieg: 2357 m<br/>Abstieg: -2385 m<br/>Steigzeit: 02:42<br/>Sinkzeit: 02:55<br/></p><hr align="center" width="480" style="height: 2px; width: 517px"/>]]></desc>
<type>Fahrrad/ Strasse</type>
<extensions>
<om:oruxmapsextensions xmlns:om="http://www.oruxmaps.com/oruxmapsextensions/1/0">
<om:ext type="TYPE" subtype="0">8</om:ext>
<om:ext type="DIFFICULTY">0</om:ext>
</om:oruxmapsextensions>
</extensions>
<trkseg>
<trkpt lat="39.7654598" lon="3.1478896">
<ele>6.38</ele>
<time>2016-10-14T07:21:01Z</time>
</trkpt>
<trkpt lat="39.7656059" lon="3.1480706">
<ele>24.46</ele>
<time>2016-10-14T07:21:07Z</time>
</trkpt>
<trkpt lat="39.7655209" lon="3.1482964">
<ele>13.39</ele>
<time>2016-10-14T07:30:13Z</time>
</trkpt>
<trkpt lat="39.7653454" lon="3.1484745">
<ele>15.67</ele>
<time>2016-10-14T07:30:18Z</time>
</trkpt>
<trkpt lat="39.7651970" lon="3.1486363">
<ele>16.59</ele>
<time>2016-10-14T07:30:22Z</time>
</trkpt>
<trkpt lat="39.7650363" lon="3.1488111">
<ele>13.69</ele>
<time>2016-10-14T07:30:26Z</time>
</trkpt>
<trkpt lat="39.7648924" lon="3.1489682">
<ele>12.55</ele>
<time>2016-10-14T07:30:30Z</time>
</trkpt>
<trkpt lat="39.7647171" lon="3.1491674">
<ele>9.77</ele>
<time>2016-10-14T07:30:35Z</time>
</trkpt>
<trkpt lat="39.7645631" lon="3.1493664">
<ele>10.40</ele>
<time>2016-10-14T07:30:40Z</time>
</trkpt>
<trkpt lat="39.7644195" lon="3.1495261">
<ele>11.22</ele>
<time>2016-10-14T07:30:44Z</time>
</trkpt>
<trkpt lat="39.7642482" lon="3.1496885">
<ele>12.25</ele>
<time>2016-10-14T07:30:49Z</time>
</trkpt>
<trkpt lat="39.7640830" lon="3.1498678">
<ele>16.26</ele>
<time>2016-10-14T07:30:54Z</time>
</trkpt>
<trkpt lat="39.7639530" lon="3.1500309">
<ele>18.72</ele>
<time>2016-10-14T07:30:58Z</time>
</trkpt>
<trkpt lat="39.7637788" lon="3.1502250">
<ele>20.48</ele>
<time>2016-10-14T07:31:03Z</time>
</trkpt>
<trkpt lat="39.7636129" lon="3.1503989">
<ele>19.48</ele>
<time>2016-10-14T07:31:07Z</time>
</trkpt>
<trkpt lat="39.7634582" lon="3.1505438">
<ele>19.68</ele>
<time>2016-10-14T07:31:11Z</time>
</trkpt>
<trkpt lat="39.7633102" lon="3.1506957">
<ele>21.08</ele>
<time>2016-10-14T07:31:15Z</time>
</trkpt>
<trkpt lat="39.7631516" lon="3.1508638">
<ele>23.56</ele>
<time>2016-10-14T07:31:19Z</time>
</trkpt>
<trkpt lat="39.7630104" lon="3.1510369">
<ele>22.75</ele>
<time>2016-10-14T07:31:23Z</time>
</trkpt>
<trkpt lat="39.7628456" lon="3.1511941">
<ele>19.25</ele>
<time>2016-10-14T07:31:28Z</time>
</trkpt>
<trkpt lat="39.7626908" lon="3.1513494">
<ele>19.29</ele>
<time>2016-10-14T07:31:32Z</time>
</trkpt>
<trkpt lat="39.7625072" lon="3.1515054">
<ele>18.54</ele>
<time>2016-10-14T07:31:36Z</time>
</trkpt>
<trkpt lat="39.7623278" lon="3.1516764">
<ele>18.65</ele>
<time>2016-10-14T07:31:40Z</time>
</trkpt>
<trkpt lat="39.7621921" lon="3.1518364">
<ele>21.99</ele>
<time>2016-10-14T07:31:44Z</time>
</trkpt>
<trkpt lat="39.7620270" lon="3.1520243">
<ele>24.33</ele>
<time>2016-10-14T07:31:49Z</time>
</trkpt>
<trkpt lat="39.7618690" lon="3.1522113">
<ele>24.28</ele>
<time>2016-10-14T07:31:53Z</time>
</trkpt>
<trkpt lat="39.7617072" lon="3.1523970">
<ele>24.34</ele>
<time>2016-10-14T07:31:57Z</time>
</trkpt>
<trkpt lat="39.7615335" lon="3.1525673">
<ele>22.87</ele>
<time>2016-10-14T07:32:01Z</time>
</trkpt>
<trkpt lat="39.7613706" lon="3.1527205">
<ele>22.47</ele>
<time>2016-10-14T07:32:05Z</time>
</trkpt>
<trkpt lat="39.7612101" lon="3.1528764">
<ele>23.87</ele>
<time>2016-10-14T07:32:09Z</time>
</trkpt>
<trkpt lat="39.7610428" lon="3.1530546">
<ele>25.87</ele>
<time>2016-10-14T07:32:13Z</time>
</trkpt>
<trkpt lat="39.7608939" lon="3.1532268">
<ele>26.50</ele>
<time>2016-10-14T07:32:17Z</time>
</trkpt>
<trkpt lat="39.7607649" lon="3.1534023">
<ele>27.04</ele>
<time>2016-10-14T07:32:21Z</time>
</trkpt>
<trkpt lat="39.7606230" lon="3.1535819">
<ele>26.41</ele>
<time>2016-10-14T07:32:25Z</time>
</trkpt>
<trkpt lat="39.7604452" lon="3.1537843">
<ele>26.18</ele>
<time>2016-10-14T07:32:29Z</time>
</trkpt>
<trkpt lat="39.7602785" lon="3.1539531">
<ele>27.87</ele>
<time>2016-10-14T07:32:33Z</time>
</trkpt>
<trkpt lat="39.7601316" lon="3.1541050">
<ele>27.64</ele>
<time>2016-10-14T07:32:37Z</time>
</trkpt>
<trkpt lat="39.7599573" lon="3.1542707">
<ele>27.30</ele>
<time>2016-10-14T07:32:41Z</time>
</trkpt>
<trkpt lat="39.7597946" lon="3.1544523">
<ele>28.71</ele>
<time>2016-10-14T07:32:45Z</time>
</trkpt>
<trkpt lat="39.7596164" lon="3.1546276">
<ele>32.85</ele>
<time>2016-10-14T07:32:49Z</time>
</trkpt>
<trkpt lat="39.7594467" lon="3.1548001">
<ele>35.20</ele>
<time>2016-10-14T07:32:53Z</time>
</trkpt>
<trkpt lat="39.7592772" lon="3.1549830">
<ele>35.48</ele>
<time>2016-10-14T07:32:57Z</time>
</trkpt>
<trkpt lat="39.7591027" lon="3.1551641">
<ele>35.52</ele>
<time>2016-10-14T07:33:01Z</time>
</trkpt>
<trkpt lat="39.7589357" lon="3.1553321">
<ele>35.15</ele>
<time>2016-10-14T07:33:05Z</time>
</trkpt>
<trkpt lat="39.7587774" lon="3.1555016">
<ele>35.76</ele>
<time>2016-10-14T07:33:09Z</time>
</trkpt>
<trkpt lat="39.7586344" lon="3.1556743">
<ele>35.43</ele>
<time>2016-10-14T07:33:13Z</time>
</trkpt>
<trkpt lat="39.7584791" lon="3.1558340">
<ele>35.25</ele>
<time>2016-10-14T07:33:17Z</time>
</trkpt>
<trkpt lat="39.7583319" lon="3.1559842">
<ele>34.39</ele>
<time>2016-10-14T07:33:21Z</time>
</trkpt>
<trkpt lat="39.7581707" lon="3.1561616">
<ele>35.14</ele>
<time>2016-10-14T07:33:25Z</time>
</trkpt>
<trkpt lat="39.7580030" lon="3.1563543">
<ele>34.24</ele>
<time>2016-10-14T07:33:29Z</time>
</trkpt>
<trkpt lat="39.7578703" lon="3.1565131">
<ele>33.52</ele>
<time>2016-10-14T07:33:32Z</time>
</trkpt>
<trkpt lat="39.7577299" lon="3.1566674">
<ele>31.29</ele>
<time>2016-10-14T07:33:35Z</time>
</trkpt>
<trkpt lat="39.7575560" lon="3.1568203">
<ele>28.73</ele>
<time>2016-10-14T07:33:38Z</time>
</trkpt>
<trkpt lat="39.7573725" lon="3.1569407">
<ele>28.45</ele>
<time>2016-10-14T07:33:41Z</time>
</trkpt>
<trkpt lat="39.7571941" lon="3.1569747">
<ele>26.75</ele>
<time>2016-10-14T07:33:47Z</time>
</trkpt>
<trkpt lat="39.7570144" lon="3.1571098">
<ele>24.23</ele>
<time>2016-10-14T07:33:51Z</time>
</trkpt>
<trkpt lat="39.7569404" lon="3.1573798">
<ele>23.92</ele>
<time>2016-10-14T07:33:54Z</time>
</trkpt>
<trkpt lat="39.7567894" lon="3.1576432">
<ele>24.46</ele>
<time>2016-10-14T07:33:57Z</time>
</trkpt>
<trkpt lat="39.7565824" lon="3.1578616">
<ele>25.87</ele>
<time>2016-10-14T07:34:00Z</time>
</trkpt>
<trkpt lat="39.7564294" lon="3.1580197">
<ele>27.67</ele>
<time>2016-10-14T07:34:02Z</time>
</trkpt>
<trkpt lat="39.7562237" lon="3.1582306">
<ele>30.48</ele>
<time>2016-10-14T07:34:05Z</time>
</trkpt>
<trkpt lat="39.7560193" lon="3.1584439">
<ele>31.99</ele>
<time>2016-10-14T07:34:08Z</time>
</trkpt>
<trkpt lat="39.7558363" lon="3.1586423">
<ele>31.46</ele>
<time>2016-10-14T07:34:11Z</time>
</trkpt>
<trkpt lat="39.7556578" lon="3.1588110">
<ele>29.68</ele>
<time>2016-10-14T07:34:14Z</time>
</trkpt>
<trkpt lat="39.7554877" lon="3.1589734">
<ele>28.29</ele>
<time>2016-10-14T07:34:17Z</time>
</trkpt>
<trkpt lat="39.7553074" lon="3.1591531">
<ele>27.78</ele>
<time>2016-10-14T07:34:20Z</time>
</trkpt>
<trkpt lat="39.7551236" lon="3.1593410">
<ele>26.94</ele>
<time>2016-10-14T07:34:23Z</time>
</trkpt>
<trkpt lat="39.7549551" lon="3.1595291">
<ele>26.51</ele>
<time>2016-10-14T07:34:26Z</time>
</trkpt>
<trkpt lat="39.7547824" lon="3.1597186">
<ele>26.15</ele>
<time>2016-10-14T07:34:29Z</time>
</trkpt>
<trkpt lat="39.7546164" lon="3.1599040">
<ele>25.96</ele>
<time>2016-10-14T07:34:32Z</time>
</trkpt>
<trkpt lat="39.7544469" lon="3.1600916">
<ele>26.22</ele>
<time>2016-10-14T07:34:35Z</time>
</trkpt>
<trkpt lat="39.7542749" lon="3.1602745">
<ele>26.90</ele>
<time>2016-10-14T07:34:38Z</time>
</trkpt>
<trkpt lat="39.7540944" lon="3.1604545">
<ele>26.58</ele>
<time>2016-10-14T07:34:41Z</time>
</trkpt>
<trkpt lat="39.7539219" lon="3.1606252">
<ele>25.18</ele>
<time>2016-10-14T07:34:44Z</time>
</trkpt>
<trkpt lat="39.7537427" lon="3.1608032">
<ele>23.83</ele>
<time>2016-10-14T07:34:47Z</time>
</trkpt>
<trkpt lat="39.7535737" lon="3.1609760">
<ele>23.73</ele>
<time>2016-10-14T07:34:50Z</time>
</trkpt>
<trkpt lat="39.7534064" lon="3.1611436">
<ele>23.36</ele>
<time>2016-10-14T07:34:53Z</time>
</trkpt>
<trkpt lat="39.7532443" lon="3.1613133">
<ele>23.54</ele>
<time>2016-10-14T07:34:56Z</time>
</trkpt>
<trkpt lat="39.7530649" lon="3.1614954">
<ele>22.02</ele>
<time>2016-10-14T07:34:59Z</time>
</trkpt>
<trkpt lat="39.7528702" lon="3.1617099">
<ele>20.81</ele>
<time>2016-10-14T07:35:02Z</time>
</trkpt>
<trkpt lat="39.7526617" lon="3.1619293">
<ele>20.05</ele>
<time>2016-10-14T07:35:05Z</time>
</trkpt>
<trkpt lat="39.7525060" lon="3.1620749">
<ele>19.37</ele>
<time>2016-10-14T07:35:07Z</time>
</trkpt>
<trkpt lat="39.7523421" lon="3.1622107">
<ele>18.79</ele>
<time>2016-10-14T07:35:09Z</time>
</trkpt>
<trkpt lat="39.7521639" lon="3.1623442">
<ele>18.52</ele>
<time>2016-10-14T07:35:11Z</time>
</trkpt>
<trkpt lat="39.7519996" lon="3.1624618">
<ele>18.31</ele>
<time>2016-10-14T07:35:12Z</time>
</trkpt>
<trkpt lat="39.7518272" lon="3.1625794">
<ele>19.18</ele>
<time>2016-10-14T07:35:14Z</time>
</trkpt>
<trkpt lat="39.7515884" lon="3.1627327">
<ele>21.01</ele>
<time>2016-10-14T07:35:17Z</time>
</trkpt>
<trkpt lat="39.7513646" lon="3.1628684">
<ele>22.26</ele>
<time>2016-10-14T07:35:20Z</time>
</trkpt>
<trkpt lat="39.7511350" lon="3.1630151">
<ele>20.87</ele>
<time>2016-10-14T07:35:23Z</time>
</trkpt>
<trkpt lat="39.7509038" lon="3.1631601">
<ele>17.92</ele>
<time>2016-10-14T07:35:26Z</time>
</trkpt>
<trkpt lat="39.7507337" lon="3.1632705">
<ele>16.31</ele>
<time>2016-10-14T07:35:28Z</time>
</trkpt>
<trkpt lat="39.7505562" lon="3.1633860">
<ele>15.44</ele>
<time>2016-10-14T07:35:30Z</time>
</trkpt>
<trkpt lat="39.7503856" lon="3.1634883">
<ele>14.30</ele>
<time>2016-10-14T07:35:32Z</time>
</trkpt>
<trkpt lat="39.7502127" lon="3.1635971">
<ele>13.08</ele>
<time>2016-10-14T07:35:34Z</time>
</trkpt>
<trkpt lat="39.7500283" lon="3.1637149">
<ele>12.37</ele>
<time>2016-10-14T07:35:36Z</time>
</trkpt>
<trkpt lat="39.7498324" lon="3.1638442">
<ele>12.83</ele>
<time>2016-10-14T07:35:38Z</time>
</trkpt>
<trkpt lat="39.7496592" lon="3.1639489">
<ele>13.35</ele>
<time>2016-10-14T07:35:40Z</time>
</trkpt>
<trkpt lat="39.7494445" lon="3.1640763">
<ele>12.60</ele>
<time>2016-10-14T07:35:43Z</time>
</trkpt>
<trkpt lat="39.7492532" lon="3.1641985">
<ele>12.31</ele>
<time>2016-10-14T07:35:46Z</time>
</trkpt>
<trkpt lat="39.7490670" lon="3.1643060">
<ele>14.99</ele>
<time>2016-10-14T07:35:49Z</time>
</trkpt>
<trkpt lat="39.7488938" lon="3.1643989">
<ele>17.30</ele>
<time>2016-10-14T07:35:52Z</time>
</trkpt>
<trkpt lat="39.7487247" lon="3.1645159">
<ele>19.94</ele>
<time>2016-10-14T07:35:56Z</time>
</trkpt>
<trkpt lat="39.7485414" lon="3.1646412">
<ele>19.98</ele>
<time>2016-10-14T07:36:01Z</time>
</trkpt>
<trkpt lat="39.7483755" lon="3.1647559">
<ele>19.33</ele>
<time>2016-10-14T07:36:06Z</time>
</trkpt>
<trkpt lat="39.7481997" lon="3.1648699">
<ele>18.21</ele>
<time>2016-10-14T07:36:11Z</time>
</trkpt>
<trkpt lat="39.7480161" lon="3.1649929">
<ele>19.80</ele>
<time>2016-10-14T07:36:16Z</time>
</trkpt>
<trkpt lat="39.7478478" lon="3.1651194">
<ele>23.02</ele>
<time>2016-10-14T07:36:21Z</time>
</trkpt>
<trkpt lat="39.7476737" lon="3.1652441">
<ele>22.63</ele>
<time>2016-10-14T07:36:26Z</time>
</trkpt>
<trkpt lat="39.7474716" lon="3.1653711">
<ele>22.13</ele>
<time>2016-10-14T07:36:31Z</time>
</trkpt>
<trkpt lat="39.7473002" lon="3.1654746">
<ele>24.21</ele>
<time>2016-10-14T07:36:35Z</time>
</trkpt>
<trkpt lat="39.7471000" lon="3.1655973">
<ele>26.34</ele>
<time>2016-10-14T07:36:40Z</time>
</trkpt>
<trkpt lat="39.7469169" lon="3.1657343">
<ele>27.83</ele>
<time>2016-10-14T07:36:45Z</time>
</trkpt>
<trkpt lat="39.7467291" lon="3.1658653">
<ele>28.13</ele>
<time>2016-10-14T07:36:50Z</time>
</trkpt>
<trkpt lat="39.7465413" lon="3.1659914">
<ele>27.62</ele>
<time>2016-10-14T07:36:55Z</time>
</trkpt>
<trkpt lat="39.7463425" lon="3.1661210">
<ele>29.80</ele>
<time>2016-10-14T07:37:00Z</time>
</trkpt>
<trkpt lat="39.7461812" lon="3.1662374">
<ele>31.20</ele>
<time>2016-10-14T07:37:04Z</time>
</trkpt>
<trkpt lat="39.7460132" lon="3.1663408">
<ele>34.49</ele>
<time>2016-10-14T07:37:08Z</time>
</trkpt>
<trkpt lat="39.7458380" lon="3.1664387">
<ele>37.47</ele>
<time>2016-10-14T07:37:12Z</time>
</trkpt>
<trkpt lat="39.7456587" lon="3.1665551">
<ele>38.51</ele>
<time>2016-10-14T07:37:16Z</time>
</trkpt>
<trkpt lat="39.7454769" lon="3.1666839">
<ele>39.71</ele>
<time>2016-10-14T07:37:20Z</time>
</trkpt>
<trkpt lat="39.7453032" lon="3.1668188">
<ele>39.22</ele>
<time>2016-10-14T07:37:24Z</time>
</trkpt>
<trkpt lat="39.7451080" lon="3.1669631">
<ele>40.12</ele>
<time>2016-10-14T07:37:28Z</time>
</trkpt>
<trkpt lat="39.7449159" lon="3.1671022">
<ele>40.73</ele>
<time>2016-10-14T07:37:32Z</time>
</trkpt>
<trkpt lat="39.7447217" lon="3.1672427">
<ele>40.09</ele>
<time>2016-10-14T07:37:36Z</time>
</trkpt>
<trkpt lat="39.7445051" lon="3.1673723">
<ele>38.92</ele>
<time>2016-10-14T07:37:40Z</time>
</trkpt>
<trkpt lat="39.7443340" lon="3.1674841">
<ele>39.33</ele>
<time>2016-10-14T07:37:43Z</time>
</trkpt>
<trkpt lat="39.7441494" lon="3.1676199">
<ele>40.14</ele>
<time>2016-10-14T07:37:47Z</time>
</trkpt>
<trkpt lat="39.7439322" lon="3.1677635">
<ele>40.13</ele>
<time>2016-10-14T07:37:51Z</time>
</trkpt>
<trkpt lat="39.7437719" lon="3.1678794">
<ele>40.19</ele>
<time>2016-10-14T07:37:54Z</time>
</trkpt>
<trkpt lat="39.7436109" lon="3.1679874">
<ele>39.87</ele>
<time>2016-10-14T07:37:57Z</time>
</trkpt>
<trkpt lat="39.7434033" lon="3.1681182">
<ele>41.26</ele>
<time>2016-10-14T07:38:01Z</time>
</trkpt>
<trkpt lat="39.7432273" lon="3.1682183">
<ele>41.30</ele>
<time>2016-10-14T07:38:04Z</time>
</trkpt>
<trkpt lat="39.7430596" lon="3.1683246">
<ele>41.13</ele>
<time>2016-10-14T07:38:07Z</time>
</trkpt>
<trkpt lat="39.7428912" lon="3.1684372">
<ele>40.72</ele>
<time>2016-10-14T07:38:10Z</time>
</trkpt>
<trkpt lat="39.7426851" lon="3.1685760">
<ele>38.65</ele>
<time>2016-10-14T07:38:14Z</time>
</trkpt>
<trkpt lat="39.7424818" lon="3.1686973">
<ele>35.91</ele>
<time>2016-10-14T07:38:18Z</time>
</trkpt>
<trkpt lat="39.7422701" lon="3.1688257">
<ele>34.95</ele>
<time>2016-10-14T07:38:22Z</time>
</trkpt>
<trkpt lat="39.7420593" lon="3.1689482">
<ele>33.80</ele>
<time>2016-10-14T07:38:26Z</time>
</trkpt>
<trkpt lat="39.7418409" lon="3.1690833">
<ele>33.87</ele>
<time>2016-10-14T07:38:30Z</time>
</trkpt>
<trkpt lat="39.7416783" lon="3.1691836">
<ele>33.02</ele>
<time>2016-10-14T07:38:33Z</time>
</trkpt>
<trkpt lat="39.7414747" lon="3.1693253">
<ele>31.11</ele>
<time>2016-10-14T07:38:37Z</time>
</trkpt>
<trkpt lat="39.7412779" lon="3.1694609">
<ele>32.78</ele>
<time>2016-10-14T07:38:41Z</time>
</trkpt>
<trkpt lat="39.7410821" lon="3.1696054">
<ele>34.19</ele>
<time>2016-10-14T07:38:45Z</time>
</trkpt>
<trkpt lat="39.7408830" lon="3.1697351">
<ele>35.40</ele>
<time>2016-10-14T07:38:49Z</time>
</trkpt>
<trkpt lat="39.7406849" lon="3.1698780">
<ele>37.34</ele>
<time>2016-10-14T07:38:53Z</time>
</trkpt>
<trkpt lat="39.7404795" lon="3.1700327">
<ele>40.25</ele>
<time>2016-10-14T07:38:57Z</time>
</trkpt>
<trkpt lat="39.7403230" lon="3.1701610">
<ele>43.07</ele>
<time>2016-10-14T07:39:00Z</time>
</trkpt>
<trkpt lat="39.7401359" lon="3.1703409">
<ele>44.20</ele>
<time>2016-10-14T07:39:04Z</time>
</trkpt>
<trkpt lat="39.7399719" lon="3.1705006">
<ele>45.60</ele>
<time>2016-10-14T07:39:07Z</time>
</trkpt>
<trkpt lat="39.7398253" lon="3.1706592">
<ele>46.65</ele>
<time>2016-10-14T07:39:10Z</time>
</trkpt>
<trkpt lat="39.7396597" lon="3.1708698">
<ele>44.01</ele>
<time>2016-10-14T07:39:14Z</time>
</trkpt>
<trkpt lat="39.7395250" lon="3.1710572">
<ele>40.98</ele>
<time>2016-10-14T07:39:17Z</time>
</trkpt>
<trkpt lat="39.7393953" lon="3.1712525">
<ele>38.73</ele>
<time>2016-10-14T07:39:20Z</time>
</trkpt>
<trkpt lat="39.7392821" lon="3.1714419">
<ele>36.56</ele>
<time>2016-10-14T07:39:23Z</time>
</trkpt>
<trkpt lat="39.7391510" lon="3.1716902">
<ele>34.27</ele>
<time>2016-10-14T07:39:27Z</time>
</trkpt>
<trkpt lat="39.7390274" lon="3.1719380">
<ele>31.82</ele>
<time>2016-10-14T07:39:31Z</time>
</trkpt>
<trkpt lat="39.7389152" lon="3.1721996">
<ele>29.24</ele>
<time>2016-10-14T07:39:35Z</time>
</trkpt>
<trkpt lat="39.7388151" lon="3.1724332">
<ele>30.10</ele>
<time>2016-10-14T07:39:38Z</time>
</trkpt>
<trkpt lat="39.7387020" lon="3.1726883">
<ele>28.92</ele>
<time>2016-10-14T07:39:42Z</time>
</trkpt>
<trkpt lat="39.7386080" lon="3.1729053">
<ele>27.75</ele>
<time>2016-10-14T07:39:45Z</time>
</trkpt>
<trkpt lat="39.7385071" lon="3.1731594">
<ele>27.58</ele>
<time>2016-10-14T07:39:49Z</time>
</trkpt>
<trkpt lat="39.7383933" lon="3.1734282">
<ele>27.73</ele>
<time>2016-10-14T07:39:53Z</time>
</trkpt>
<trkpt lat="39.7382777" lon="3.1737088">
<ele>26.65</ele>
<time>2016-10-14T07:39:57Z</time>
</trkpt>
<trkpt lat="39.7381883" lon="3.1739375">
<ele>25.22</ele>
<time>2016-10-14T07:40:00Z</time>
</trkpt>
<trkpt lat="39.7380909" lon="3.1741710">
<ele>25.65</ele>
<time>2016-10-14T07:40:03Z</time>
</trkpt>
<trkpt lat="39.7379743" lon="3.1744249">
<ele>28.44</ele>
<time>2016-10-14T07:40:06Z</time>
</trkpt>
<trkpt lat="39.7378645" lon="3.1746654">
<ele>30.33</ele>
<time>2016-10-14T07:40:09Z</time>
</trkpt>
<trkpt lat="39.7377574" lon="3.1749157">
<ele>33.26</ele>
<time>2016-10-14T07:40:12Z</time>
</trkpt>
<trkpt lat="39.7376576" lon="3.1751395">
<ele>34.14</ele>
<time>2016-10-14T07:40:15Z</time>
</trkpt>
<trkpt lat="39.7375597" lon="3.1753486">
<ele>33.56</ele>
<time>2016-10-14T07:40:18Z</time>
</trkpt>
<trkpt lat="39.7374530" lon="3.1755719">
<ele>32.04</ele>
<time>2016-10-14T07:40:21Z</time>
</trkpt>
<trkpt lat="39.7373428" lon="3.1758054">
<ele>31.67</ele>
<time>2016-10-14T07:40:24Z</time>
</trkpt>
<trkpt lat="39.7372278" lon="3.1760779">
<ele>30.46</ele>
<time>2016-10-14T07:40:28Z</time>
</trkpt>
<trkpt lat="39.7371436" lon="3.1762926">
<ele>29.74</ele>
<time>2016-10-14T07:40:31Z</time>
</trkpt>
<trkpt lat="39.7370559" lon="3.1765070">
<ele>29.70</ele>
<time>2016-10-14T07:40:34Z</time>
</trkpt>
<trkpt lat="39.7369610" lon="3.1767106">
<ele>29.60</ele>
<time>2016-10-14T07:40:37Z</time>
</trkpt>
<trkpt lat="39.7368664" lon="3.1769159">
<ele>28.67</ele>
<time>2016-10-14T07:40:40Z</time>
</trkpt>
<trkpt lat="39.7367784" lon="3.1771261">
<ele>28.17</ele>
<time>2016-10-14T07:40:43Z</time>
</trkpt>
<trkpt lat="39.7366837" lon="3.1773400">
<ele>28.63</ele>
<time>2016-10-14T07:40:46Z</time>
</trkpt>
<trkpt lat="39.7365643" lon="3.1775975">
<ele>29.12</ele>
<time>2016-10-14T07:40:50Z</time>
</trkpt>
<trkpt lat="39.7364697" lon="3.1778053">
<ele>29.61</ele>
<time>2016-10-14T07:40:53Z</time>
</trkpt>
<trkpt lat="39.7363781" lon="3.1780076">
<ele>29.98</ele>
<time>2016-10-14T07:40:56Z</time>
</trkpt>
<trkpt lat="39.7362856" lon="3.1782148">
<ele>30.22</ele>
<time>2016-10-14T07:40:59Z</time>
</trkpt>
<trkpt lat="39.7361947" lon="3.1784230">
<ele>30.49</ele>
<time>2016-10-14T07:41:02Z</time>
</trkpt>
<trkpt lat="39.7360832" lon="3.1786936">
<ele>29.76</ele>
<time>2016-10-14T07:41:06Z</time>
</trkpt>
<trkpt lat="39.7359787" lon="3.1789562">
<ele>29.63</ele>
<time>2016-10-14T07:41:10Z</time>
</trkpt>
<trkpt lat="39.7358805" lon="3.1791769">
<ele>31.32</ele>
<time>2016-10-14T07:41:13Z</time>
</trkpt>
<trkpt lat="39.7357866" lon="3.1793825">
<ele>32.78</ele>
<time>2016-10-14T07:41:16Z</time>
</trkpt>
<trkpt lat="39.7356688" lon="3.1796486">
<ele>32.13</ele>
<time>2016-10-14T07:41:20Z</time>
</trkpt>
<trkpt lat="39.7355530" lon="3.1799185">
<ele>30.21</ele>
<time>2016-10-14T07:41:24Z</time>
</trkpt>
<trkpt lat="39.7354390" lon="3.1801832">
<ele>28.96</ele>
<time>2016-10-14T07:41:28Z</time>
</trkpt>
<trkpt lat="39.7353274" lon="3.1804497">
<ele>28.89</ele>
<time>2016-10-14T07:41:32Z</time>
</trkpt>
<trkpt lat="39.7352328" lon="3.1806613">
<ele>30.15</ele>
<time>2016-10-14T07:41:35Z</time>
</trkpt>
<trkpt lat="39.7351385" lon="3.1808708">
<ele>30.88</ele>
<time>2016-10-14T07:41:38Z</time>
</trkpt>
<trkpt lat="39.7350423" lon="3.1810931">
<ele>31.06</ele>
<time>2016-10-14T07:41:41Z</time>
</trkpt>
<trkpt lat="39.7349539" lon="3.1813019">
<ele>31.30</ele>
<time>2016-10-14T07:41:44Z</time>
</trkpt>
<trkpt lat="39.7348681" lon="3.1815085">
<ele>31.61</ele>
<time>2016-10-14T07:41:47Z</time>
</trkpt>
<trkpt lat="39.7347794" lon="3.1817167">
<ele>31.17</ele>
<time>2016-10-14T07:41:50Z</time>
</trkpt>
<trkpt lat="39.7346720" lon="3.1819600">
<ele>30.89</ele>
<time>2016-10-14T07:41:54Z</time>
</trkpt>
<trkpt lat="39.7345817" lon="3.1821661">
<ele>31.33</ele>
<time>2016-10-14T07:41:57Z</time>
</trkpt>
<trkpt lat="39.7344610" lon="3.1824407">
<ele>31.39</ele>
<time>2016-10-14T07:42:01Z</time>
</trkpt>
<trkpt lat="39.7343743" lon="3.1826477">
<ele>31.12</ele>
<time>2016-10-14T07:42:04Z</time>
</trkpt>
<trkpt lat="39.7342822" lon="3.1828491">
<ele>31.32</ele>
<time>2016-10-14T07:42:07Z</time>
</trkpt>
<trkpt lat="39.7341926" lon="3.1830555">
<ele>31.86</ele>
<time>2016-10-14T07:42:10Z</time>
</trkpt>
<trkpt lat="39.7340958" lon="3.1832604">
<ele>33.23</ele>
<time>2016-10-14T07:42:13Z</time>
</trkpt>
<trkpt lat="39.7340057" lon="3.1834663">
<ele>34.72</ele>
<time>2016-10-14T07:42:16Z</time>
</trkpt>
<trkpt lat="39.7338916" lon="3.1837239">
<ele>35.97</ele>
<time>2016-10-14T07:42:20Z</time>
</trkpt>
<trkpt lat="39.7337845" lon="3.1839810">
<ele>35.16</ele>
<time>2016-10-14T07:42:24Z</time>
</trkpt>
<trkpt lat="39.7336960" lon="3.1841910">
<ele>34.39</ele>
<time>2016-10-14T07:42:27Z</time>
</trkpt>
<trkpt lat="39.7335727" lon="3.1844415">
<ele>32.96</ele>
<time>2016-10-14T07:42:31Z</time>
</trkpt>
<trkpt lat="39.7334465" lon="3.1847052">
<ele>31.68</ele>
<time>2016-10-14T07:42:35Z</time>
</trkpt>
<trkpt lat="39.7333281" lon="3.1849701">
<ele>32.54</ele>
<time>2016-10-14T07:42:39Z</time>
</trkpt>
<trkpt lat="39.7332344" lon="3.1851844">
<ele>33.48</ele>
<time>2016-10-14T07:42:42Z</time>
</trkpt>
<trkpt lat="39.7331201" lon="3.1854554">
<ele>34.66</ele>
<time>2016-10-14T07:42:46Z</time>
</trkpt>
<trkpt lat="39.7330255" lon="3.1856752">
<ele>36.24</ele>
<time>2016-10-14T07:42:49Z</time>
</trkpt>
<trkpt lat="39.7329364" lon="3.1858894">
<ele>37.90</ele>
<time>2016-10-14T07:42:52Z</time>
</trkpt>
<trkpt lat="39.7328440" lon="3.1861067">
<ele>38.11</ele>
<time>2016-10-14T07:42:55Z</time>
</trkpt>
<trkpt lat="39.7327531" lon="3.1863181">
<ele>37.48</ele>
<time>2016-10-14T07:42:58Z</time>
</trkpt>
<trkpt lat="39.7326561" lon="3.1865390">
<ele>36.36</ele>
<time>2016-10-14T07:43:01Z</time>
</trkpt>
<trkpt lat="39.7325509" lon="3.1867587">
<ele>35.28</ele>
<time>2016-10-14T07:43:04Z</time>
</trkpt>
<trkpt lat="39.7324471" lon="3.1869815">
<ele>34.45</ele>
<time>2016-10-14T07:43:07Z</time>
</trkpt>
<trkpt lat="39.7323520" lon="3.1872018">
<ele>34.15</ele>
<time>2016-10-14T07:43:10Z</time>
</trkpt>
<trkpt lat="39.7322519" lon="3.1874322">
<ele>33.88</ele>
<time>2016-10-14T07:43:13Z</time>
</trkpt>
<trkpt lat="39.7321537" lon="3.1876634">
<ele>33.78</ele>
<time>2016-10-14T07:43:16Z</time>
</trkpt>
<trkpt lat="39.7320500" lon="3.1878849">
<ele>35.01</ele>
<time>2016-10-14T07:43:20Z</time>
</trkpt>
<trkpt lat="39.7319310" lon="3.1881457">
<ele>36.07</ele>
<time>2016-10-14T07:43:24Z</time>
</trkpt>
<trkpt lat="39.7318372" lon="3.1883550">
<ele>35.06</ele>
<time>2016-10-14T07:43:27Z</time>
</trkpt>
<trkpt lat="39.7317405" lon="3.1885563">
<ele>33.99</ele>
<time>2016-10-14T07:43:30Z</time>
</trkpt>
<trkpt lat="39.7316292" lon="3.1888195">
<ele>33.78</ele>
<time>2016-10-14T07:43:34Z</time>
</trkpt>
<trkpt lat="39.7315033" lon="3.1890748">
<ele>35.94</ele>
<time>2016-10-14T07:43:38Z</time>
</trkpt>
<trkpt lat="39.7313705" lon="3.1893445">
<ele>38.81</ele>
<time>2016-10-14T07:43:42Z</time>
</trkpt>
<trkpt lat="39.7312540" lon="3.1895871">
<ele>39.86</ele>
<time>2016-10-14T07:43:46Z</time>
</trkpt>
<trkpt lat="39.7311418" lon="3.1898372">
<ele>41.71</ele>
<time>2016-10-14T07:43:50Z</time>
</trkpt>
<trkpt lat="39.7310240" lon="3.1900832">
<ele>40.75</ele>
<time>2016-10-14T07:43:54Z</time>
</trkpt>
<trkpt lat="39.7309057" lon="3.1903345">
<ele>40.54</ele>
<time>2016-10-14T07:43:58Z</time>
</trkpt>
<trkpt lat="39.7308164" lon="3.1905384">
<ele>39.73</ele>
<time>2016-10-14T07:44:01Z</time>
</trkpt>
<trkpt lat="39.7307231" lon="3.1907485">
<ele>38.01</ele>
<time>2016-10-14T07:44:04Z</time>
</trkpt>
<trkpt lat="39.7306094" lon="3.1910073">
<ele>36.61</ele>
<time>2016-10-14T07:44:08Z</time>
</trkpt>
<trkpt lat="39.7304988" lon="3.1912650">
<ele>37.61</ele>
<time>2016-10-14T07:44:12Z</time>
</trkpt>
<trkpt lat="39.7303679" lon="3.1915344">
<ele>39.27</ele>
<time>2016-10-14T07:44:16Z</time>
</trkpt>
<trkpt lat="39.7302722" lon="3.1917350">
<ele>39.95</ele>
<time>2016-10-14T07:44:19Z</time>
</trkpt>
<trkpt lat="39.7301492" lon="3.1920007">
<ele>40.05</ele>
<time>2016-10-14T07:44:23Z</time>
</trkpt>
<trkpt lat="39.7300363" lon="3.1922708">
<ele>39.90</ele>
<time>2016-10-14T07:44:27Z</time>
</trkpt>
<trkpt lat="39.7299566" lon="3.1924863">
<ele>40.13</ele>
<time>2016-10-14T07:44:30Z</time>
</trkpt>
<trkpt lat="39.7298617" lon="3.1927573">
<ele>39.99</ele>
<time>2016-10-14T07:44:34Z</time>
</trkpt>
<trkpt lat="39.7297630" lon="3.1930154">
<ele>39.50</ele>
<time>2016-10-14T07:44:38Z</time>
</trkpt>
<trkpt lat="39.7296605" lon="3.1932789">
<ele>40.55</ele>
<time>2016-10-14T07:44:42Z</time>
</trkpt>
<trkpt lat="39.7295388" lon="3.1935480">
<ele>40.70</ele>
<time>2016-10-14T07:44:46Z</time>
</trkpt>
<trkpt lat="39.7294336" lon="3.1937771">
<ele>40.63</ele>
<time>2016-10-14T07:44:49Z</time>
</trkpt>
<trkpt lat="39.7293202" lon="3.1940279">
<ele>39.43</ele>
<time>2016-10-14T07:44:52Z</time>
</trkpt>
<trkpt lat="39.7292043" lon="3.1942973">
<ele>38.18</ele>
<time>2016-10-14T07:44:55Z</time>
</trkpt>
<trkpt lat="39.7290826" lon="3.1945752">
<ele>37.32</ele>
<time>2016-10-14T07:44:58Z</time>
</trkpt>
<trkpt lat="39.7289374" lon="3.1948765">
<ele>35.35</ele>
<time>2016-10-14T07:45:01Z</time>
</trkpt>
<trkpt lat="39.7288388" lon="3.1950892">
<ele>34.41</ele>
<time>2016-10-14T07:45:03Z</time>
</trkpt>
<trkpt lat="39.7287488" lon="3.1952934">
<ele>33.62</ele>
<time>2016-10-14T07:45:05Z</time>
</trkpt>
<trkpt lat="39.7286213" lon="3.1956029">
<ele>32.94</ele>
<time>2016-10-14T07:45:08Z</time>
</trkpt>
<trkpt lat="39.7284881" lon="3.1959238">
<ele>32.43</ele>
<time>2016-10-14T07:45:11Z</time>
</trkpt>
<trkpt lat="39.7283973" lon="3.1961424">
<ele>32.40</ele>
<time>2016-10-14T07:45:13Z</time>
</trkpt>
<trkpt lat="39.7282775" lon="3.1964373">
<ele>30.68</ele>
<time>2016-10-14T07:45:16Z</time>
</trkpt>
<trkpt lat="39.7281531" lon="3.1967401">
<ele>28.27</ele>
<time>2016-10-14T07:45:19Z</time>
</trkpt>
<trkpt lat="39.7280582" lon="3.1969655">
<ele>27.17</ele>
<time>2016-10-14T07:45:21Z</time>
</trkpt>
<trkpt lat="39.7279700" lon="3.1971807">
<ele>27.09</ele>
<time>2016-10-14T07:45:23Z</time>
</trkpt>
<trkpt lat="39.7278806" lon="3.1973957">
<ele>27.56</ele>
<time>2016-10-14T07:45:25Z</time>
</trkpt>
<trkpt lat="39.7277866" lon="3.1976205">
<ele>28.83</ele>
<time>2016-10-14T07:45:27Z</time>
</trkpt>
<trkpt lat="39.7276841" lon="3.1978605">
<ele>29.84</ele>
<time>2016-10-14T07:45:29Z</time>
</trkpt>
<trkpt lat="39.7275817" lon="3.1980750">
<ele>29.06</ele>
<time>2016-10-14T07:45:31Z</time>
</trkpt>
<trkpt lat="39.7274784" lon="3.1982962">
<ele>28.10</ele>
<time>2016-10-14T07:45:33Z</time>
</trkpt>
<trkpt lat="39.7273736" lon="3.1985301">
<ele>27.76</ele>
<time>2016-10-14T07:45:35Z</time>
</trkpt>
<trkpt lat="39.7272498" lon="3.1987578">
<ele>27.51</ele>
<time>2016-10-14T07:45:37Z</time>
</trkpt>
<trkpt lat="39.7270779" lon="3.1989299">
<ele>26.81</ele>
<time>2016-10-14T07:45:39Z</time>
</trkpt>
<trkpt lat="39.7268861" lon="3.1990363">
<ele>27.11</ele>
<time>2016-10-14T07:45:41Z</time>
</trkpt>
<trkpt lat="39.7266835" lon="3.1990947">
<ele>27.49</ele>
<time>2016-10-14T07:45:43Z</time>
</trkpt>
<trkpt lat="39.7264885" lon="3.1990806">
<ele>28.40</ele>
<time>2016-10-14T07:45:45Z</time>
</trkpt>
<trkpt lat="39.7262943" lon="3.1990573">
<ele>28.77</ele>
<time>2016-10-14T07:45:47Z</time>
</trkpt>
<trkpt lat="39.7260927" lon="3.1990228">
<ele>28.03</ele>
<time>2016-10-14T07:45:49Z</time>
</trkpt>
<trkpt lat="39.7258933" lon="3.1989861">
<ele>26.81</ele>
<time>2016-10-14T07:45:51Z</time>
</trkpt>
<trkpt lat="39.7256992" lon="3.1989510">
<ele>25.11</ele>
<time>2016-10-14T07:45:53Z</time>
</trkpt>
<trkpt lat="39.7255014" lon="3.1989168">
<ele>22.46</ele>
<time>2016-10-14T07:45:55Z</time>
</trkpt>
<trkpt lat="39.7253003" lon="3.1988784">
<ele>19.85</ele>
<time>2016-10-14T07:45:57Z</time>
</trkpt>
<trkpt lat="39.7250517" lon="3.1988460">
<ele>17.21</ele>
<time>2016-10-14T07:46:00Z</time>
</trkpt>
<trkpt lat="39.7248224" lon="3.1988995">
<ele>14.91</ele>
<time>2016-10-14T07:46:03Z</time>
</trkpt>
<trkpt lat="39.7246109" lon="3.1990929">
<ele>14.16</ele>
<time>2016-10-14T07:46:06Z</time>
</trkpt>
<trkpt lat="39.7245135" lon="3.1993091">
<ele>13.95</ele>
<time>2016-10-14T07:46:08Z</time>
</trkpt>
<trkpt lat="39.7244939" lon="3.1996525">
<ele>12.22</ele>
<time>2016-10-14T07:46:11Z</time>
</trkpt>
<trkpt lat="39.7245513" lon="3.1998869">
<ele>11.58</ele>
<time>2016-10-14T07:46:13Z</time>
</trkpt>
<trkpt lat="39.7246870" lon="3.2000928">
<ele>10.98</ele>
<time>2016-10-14T07:46:15Z</time>
</trkpt>
<trkpt lat="39.7248419" lon="3.2002536">
<ele>10.02</ele>
<time>2016-10-14T07:46:17Z</time>
</trkpt>
<trkpt lat="39.7250135" lon="3.2004187">
<ele>10.18</ele>
<time>2016-10-14T07:46:19Z</time>
</trkpt>
<trkpt lat="39.7251672" lon="3.2005474">
<ele>9.38</ele>
<time>2016-10-14T07:46:21Z</time>
</trkpt>
<trkpt lat="39.7253607" lon="3.2007115">
<ele>7.54</ele>
<time>2016-10-14T07:46:24Z</time>
</trkpt>
<trkpt lat="39.7255321" lon="3.2008573">
<ele>8.41</ele>
<time>2016-10-14T07:46:28Z</time>
</trkpt>
<trkpt lat="39.7256988" lon="3.2009754">
<ele>11.25</ele>
<time>2016-10-14T07:46:33Z</time>
</trkpt>
<trkpt lat="39.7258602" lon="3.2011161">
<ele>14.01</ele>
<time>2016-10-14T07:46:38Z</time>
</trkpt>
<trkpt lat="39.7260314" lon="3.2012693">
<ele>13.86</ele>
<time>2016-10-14T07:46:43Z</time>
</trkpt>
<trkpt lat="39.7262082" lon="3.2014243">
<ele>14.18</ele>
<time>2016-10-14T07:46:50Z</time>
</trkpt>
<trkpt lat="39.7263515" lon="3.2015849">
<ele>14.83</ele>
<time>2016-10-14T07:46:56Z</time>
</trkpt>
<trkpt lat="39.7264747" lon="3.2017854">
<ele>15.21</ele>
<time>2016-10-14T07:47:01Z</time>
</trkpt>
<trkpt lat="39.7265871" lon="3.2020118">
<ele>16.81</ele>
<time>2016-10-14T07:47:06Z</time>
</trkpt>
<trkpt lat="39.7266428" lon="3.2022558">
<ele>20.97</ele>
<time>2016-10-14T07:47:11Z</time>
</trkpt>
<trkpt lat="39.7266508" lon="3.2025293">
<ele>21.21</ele>
<time>2016-10-14T07:47:16Z</time>
</trkpt>
<trkpt lat="39.7265901" lon="3.2027802">
<ele>22.10</ele>
<time>2016-10-14T07:47:21Z</time>
</trkpt>
<trkpt lat="39.7265013" lon="3.2030224">
<ele>23.63</ele>
<time>2016-10-14T07:47:25Z</time>
</trkpt>
<trkpt lat="39.7263884" lon="3.2032793">
<ele>24.13</ele>
<time>2016-10-14T07:47:29Z</time>
</trkpt>
<trkpt lat="39.7262644" lon="3.2035250">
<ele>25.24</ele>
<time>2016-10-14T07:47:33Z</time>
</trkpt>
<trkpt lat="39.7261690" lon="3.2037287">
<ele>25.02</ele>
<time>2016-10-14T07:47:36Z</time>
</trkpt>
<trkpt lat="39.7260802" lon="3.2039441">
<ele>23.36</ele>
<time>2016-10-14T07:47:39Z</time>
</trkpt>
<trkpt lat="39.7259810" lon="3.2041840">
<ele>22.67</ele>
<time>2016-10-14T07:47:42Z</time>
</trkpt>
<trkpt lat="39.7258954" lon="3.2044153">
<ele>22.65</ele>
<time>2016-10-14T07:47:45Z</time>
</trkpt>
<trkpt lat="39.7258048" lon="3.2046577">
<ele>22.42</ele>
<time>2016-10-14T07:47:48Z</time>
</trkpt>
<trkpt lat="39.7257168" lon="3.2048864">
<ele>22.80</ele>
<time>2016-10-14T07:47:51Z</time>
</trkpt>
<trkpt lat="39.7256264" lon="3.2051132">
<ele>23.26</ele>
<time>2016-10-14T07:47:54Z</time>
</trkpt>
<trkpt lat="39.7255308" lon="3.2053640">
<ele>21.75</ele>
<time>2016-10-14T07:47:58Z</time>
</trkpt>
<trkpt lat="39.7254277" lon="3.2056020">
<ele>23.39</ele>
<time>2016-10-14T07:48:02Z</time>
</trkpt>
<trkpt lat="39.7253341" lon="3.2058166">
<ele>24.90</ele>
<time>2016-10-14T07:48:06Z</time>
</trkpt>
<trkpt lat="39.7252436" lon="3.2060353">
<ele>24.91</ele>
<time>2016-10-14T07:48:10Z</time>
</trkpt>
<trkpt lat="39.7251511" lon="3.2062759">
<ele>24.28</ele>
<time>2016-10-14T07:48:14Z</time>
</trkpt>
<trkpt lat="39.7250467" lon="3.2065186">
<ele>25.94</ele>
<time>2016-10-14T07:48:18Z</time>
</trkpt>
<trkpt lat="39.7249595" lon="3.2067547">
<ele>27.82</ele>
<time>2016-10-14T07:48:22Z</time>
</trkpt>
<trkpt lat="39.7248695" lon="3.2069865">
<ele>28.08</ele>
<time>2016-10-14T07:48:26Z</time>
</trkpt>
<trkpt lat="39.7247764" lon="3.2072244">
<ele>27.58</ele>
<time>2016-10-14T07:48:30Z</time>
</trkpt>
<trkpt lat="39.7246668" lon="3.2074766">
<ele>28.32</ele>
<time>2016-10-14T07:48:35Z</time>
</trkpt>
<trkpt lat="39.7245694" lon="3.2077256">
<ele>28.29</ele>
<time>2016-10-14T07:48:40Z</time>
</trkpt>
<trkpt lat="39.7244876" lon="3.2079538">
<ele>28.40</ele>
<time>2016-10-14T07:48:44Z</time>
</trkpt>
<trkpt lat="39.7244156" lon="3.2081859">
<ele>28.17</ele>
<time>2016-10-14T07:48:48Z</time>
</trkpt>
<trkpt lat="39.7243295" lon="3.2084436">
<ele>27.29</ele>
<time>2016-10-14T07:48:52Z</time>
</trkpt>
<trkpt lat="39.7242350" lon="3.2086696">
<ele>28.42</ele>
<time>2016-10-14T07:48:56Z</time>
</trkpt>
<trkpt lat="39.7241148" lon="3.2088873">
<ele>33.26</ele>
<time>2016-10-14T07:49:00Z</time>
</trkpt>
<trkpt lat="39.7239876" lon="3.2090841">
<ele>38.29</ele>
<time>2016-10-14T07:49:04Z</time>
</trkpt>
<trkpt lat="39.7238613" lon="3.2093069">
<ele>40.69</ele>
<time>2016-10-14T07:49:08Z</time>
</trkpt>
<trkpt lat="39.7237144" lon="3.2095122">
<ele>37.49</ele>
<time>2016-10-14T07:49:13Z</time>
</trkpt>
<trkpt lat="39.7235590" lon="3.2096869">
<ele>37.45</ele>
<time>2016-10-14T07:49:17Z</time>
</trkpt>
<trkpt lat="39.7233873" lon="3.2098532">
<ele>37.98</ele>
<time>2016-10-14T07:49:21Z</time>
</trkpt>
<trkpt lat="39.7231867" lon="3.2100333">
<ele>40.99</ele>
<time>2016-10-14T07:49:25Z</time>
</trkpt>
<trkpt lat="39.7230275" lon="3.2101642">
<ele>43.31</ele>
<time>2016-10-14T07:49:28Z</time>
</trkpt>
<trkpt lat="39.7228602" lon="3.2102972">
<ele>44.74</ele>
<time>2016-10-14T07:49:31Z</time>
</trkpt>
<trkpt lat="39.7226972" lon="3.2104295">
<ele>45.73</ele>
<time>2016-10-14T07:49:34Z</time>
</trkpt>
<trkpt lat="39.7225292" lon="3.2105578">
<ele>44.76</ele>
<time>2016-10-14T07:49:37Z</time>
</trkpt>
<trkpt lat="39.7223628" lon="3.2106905">
<ele>43.80</ele>
<time>2016-10-14T07:49:40Z</time>
</trkpt>
<trkpt lat="39.7222102" lon="3.2108210">
<ele>43.08</ele>
<time>2016-10-14T07:49:43Z</time>
</trkpt>
<trkpt lat="39.7220092" lon="3.2109858">
<ele>42.18</ele>
<time>2016-10-14T07:49:47Z</time>
</trkpt>
<trkpt lat="39.7218514" lon="3.2111052">
<ele>43.99</ele>
<time>2016-10-14T07:49:50Z</time>
</trkpt>
<trkpt lat="39.7216895" lon="3.2112313">
<ele>45.30</ele>
<time>2016-10-14T07:49:53Z</time>
</trkpt>
<trkpt lat="39.7215328" lon="3.2113568">
<ele>46.24</ele>
<time>2016-10-14T07:49:56Z</time>
</trkpt>
<trkpt lat="39.7213704" lon="3.2114827">
<ele>48.28</ele>
<time>2016-10-14T07:49:59Z</time>
</trkpt>
<trkpt lat="39.7212131" lon="3.2116074">
<ele>49.95</ele>
<time>2016-10-14T07:50:02Z</time>
</trkpt>
<trkpt lat="39.7210195" lon="3.2117677">
<ele>49.54</ele>
<time>2016-10-14T07:50:06Z</time>
</trkpt>
<trkpt lat="39.7208351" lon="3.2119311">
<ele>48.56</ele>
<time>2016-10-14T07:50:10Z</time>
</trkpt>
<trkpt lat="39.7206408" lon="3.2120933">
<ele>48.68</ele>
<time>2016-10-14T07:50:14Z</time>
</trkpt>
<trkpt lat="39.7204560" lon="3.2122490">
<ele>48.84</ele>
<time>2016-10-14T07:50:18Z</time>
</trkpt>
<trkpt lat="39.7202621" lon="3.2124084">
<ele>48.54</ele>
<time>2016-10-14T07:50:22Z</time>
</trkpt>
<trkpt lat="39.7200720" lon="3.2125658">
<ele>49.16</ele>
<time>2016-10-14T07:50:26Z</time>
</trkpt>
<trkpt lat="39.7198743" lon="3.2127210">
<ele>49.61</ele>
<time>2016-10-14T07:50:30Z</time>
</trkpt>
<trkpt lat="39.7196853" lon="3.2128820">
<ele>49.92</ele>
<time>2016-10-14T07:50:34Z</time>
</trkpt>
<trkpt lat="39.7194947" lon="3.2130476">
<ele>49.72</ele>
<time>2016-10-14T07:50:38Z</time>
</trkpt>
<trkpt lat="39.7192979" lon="3.2132130">
<ele>49.14</ele>
<time>2016-10-14T07:50:42Z</time>
</trkpt>
<trkpt lat="39.7191421" lon="3.2133470">
<ele>49.52</ele>
<time>2016-10-14T07:50:45Z</time>
</trkpt>
<trkpt lat="39.7189427" lon="3.2135149">
<ele>50.53</ele>
<time>2016-10-14T07:50:49Z</time>
</trkpt>
<trkpt lat="39.7187545" lon="3.2136701">
<ele>51.18</ele>
<time>2016-10-14T07:50:53Z</time>
</trkpt>
<trkpt lat="39.7185579" lon="3.2138348">
<ele>51.03</ele>
<time>2016-10-14T07:50:57Z</time>
</trkpt>
<trkpt lat="39.7183573" lon="3.2140004">
<ele>50.87</ele>
<time>2016-10-14T07:51:01Z</time>
</trkpt>
<trkpt lat="39.7181602" lon="3.2141678">
<ele>50.40</ele>
<time>2016-10-14T07:51:05Z</time>
</trkpt>
<trkpt lat="39.7179603" lon="3.2143274">
<ele>50.68</ele>
<time>2016-10-14T07:51:09Z</time>
</trkpt>
<trkpt lat="39.7177678" lon="3.2144915">
<ele>50.62</ele>
<time>2016-10-14T07:51:13Z</time>
</trkpt>
<trkpt lat="39.7175818" lon="3.2146584">
<ele>48.44</ele>
<time>2016-10-14T07:51:17Z</time>
</trkpt>
<trkpt lat="39.7173876" lon="3.2148256">
<ele>49.22</ele>
<time>2016-10-14T07:51:21Z</time>
</trkpt>
<trkpt lat="39.7171889" lon="3.2149930">
<ele>49.78</ele>
<time>2016-10-14T07:51:25Z</time>
</trkpt>
<trkpt lat="39.7169940" lon="3.2151614">
<ele>50.56</ele>
<time>2016-10-14T07:51:28Z</time>
</trkpt>
<trkpt lat="39.7168038" lon="3.2153281">
<ele>51.30</ele>
<time>2016-10-14T07:51:32Z</time>
</trkpt>
<trkpt lat="39.7166090" lon="3.2154933">
<ele>52.12</ele>
<time>2016-10-14T07:51:36Z</time>
</trkpt>
<trkpt lat="39.7164205" lon="3.2156523">
<ele>52.80</ele>
<time>2016-10-14T07:51:40Z</time>
</trkpt>
<trkpt lat="39.7162276" lon="3.2158104">
<ele>52.32</ele>
<time>2016-10-14T07:51:44Z</time>
</trkpt>
<trkpt lat="39.7160765" lon="3.2159404">
<ele>52.22</ele>
<time>2016-10-14T07:51:47Z</time>
</trkpt>
<trkpt lat="39.7159204" lon="3.2160684">
<ele>52.75</ele>
<time>2016-10-14T07:51:50Z</time>
</trkpt>
<trkpt lat="39.7157196" lon="3.2162286">
<ele>53.70</ele>
<time>2016-10-14T07:51:54Z</time>
</trkpt>
<trkpt lat="39.7155186" lon="3.2163887">
<ele>54.75</ele>
<time>2016-10-14T07:51:58Z</time>
</trkpt>
<trkpt lat="39.7153260" lon="3.2165462">
<ele>55.15</ele>
<time>2016-10-14T07:52:02Z</time>
</trkpt>
<trkpt lat="39.7151752" lon="3.2166829">
<ele>53.73</ele>
<time>2016-10-14T07:52:05Z</time>
</trkpt>
<trkpt lat="39.7150028" lon="3.2168391">
<ele>52.05</ele>
<time>2016-10-14T07:52:09Z</time>
</trkpt>
<trkpt lat="39.7148054" lon="3.2170083">
<ele>51.69</ele>
<time>2016-10-14T07:52:13Z</time>
</trkpt>
<trkpt lat="39.7146133" lon="3.2171828">
<ele>52.29</ele>
<time>2016-10-14T07:52:17Z</time>
</trkpt>
<trkpt lat="39.7144244" lon="3.2173441">
<ele>53.18</ele>
<time>2016-10-14T07:52:21Z</time>
</trkpt>
<trkpt lat="39.7142272" lon="3.2175056">
<ele>53.76</ele>
<time>2016-10-14T07:52:25Z</time>
</trkpt>
<trkpt lat="39.7140311" lon="3.2176608">
<ele>53.46</ele>
<time>2016-10-14T07:52:29Z</time>
</trkpt>
<trkpt lat="39.7138459" lon="3.2178143">
<ele>51.78</ele>
<time>2016-10-14T07:52:33Z</time>
</trkpt>
<trkpt lat="39.7136370" lon="3.2179760">
<ele>52.50</ele>
<time>2016-10-14T07:52:37Z</time>
</trkpt>
<trkpt lat="39.7134791" lon="3.2180989">
<ele>54.15</ele>
<time>2016-10-14T07:52:40Z</time>
</trkpt>
<trkpt lat="39.7132829" lon="3.2182550">
<ele>55.33</ele>
<time>2016-10-14T07:52:44Z</time>
</trkpt>
<trkpt lat="39.7130814" lon="3.2184127">
<ele>56.93</ele>
<time>2016-10-14T07:52:48Z</time>
</trkpt>
<trkpt lat="39.7129211" lon="3.2185375">
<ele>57.93</ele>
<time>2016-10-14T07:52:51Z</time>
</trkpt>
<trkpt lat="39.7127676" lon="3.2186616">
<ele>57.93</ele>
<time>2016-10-14T07:52:54Z</time>
</trkpt>
<trkpt lat="39.7125845" lon="3.2188144">
<ele>57.96</ele>
<time>2016-10-14T07:52:58Z</time>
</trkpt>
<trkpt lat="39.7123967" lon="3.2189807">
<ele>57.64</ele>
<time>2016-10-14T07:53:02Z</time>
</trkpt>
<trkpt lat="39.7122120" lon="3.2191423">
<ele>55.48</ele>
<time>2016-10-14T07:53:06Z</time>
</trkpt>
<trkpt lat="39.7120354" lon="3.2193176">
<ele>51.92</ele>
<time>2016-10-14T07:53:10Z</time>
</trkpt>
<trkpt lat="39.7118730" lon="3.2195009">
<ele>49.71</ele>
<time>2016-10-14T07:53:14Z</time>
</trkpt>
<trkpt lat="39.7117030" lon="3.2197050">
<ele>48.94</ele>
<time>2016-10-14T07:53:18Z</time>
</trkpt>
<trkpt lat="39.7115612" lon="3.2199005">
<ele>48.05</ele>
<time>2016-10-14T07:53:22Z</time>
</trkpt>
<trkpt lat="39.7114120" lon="3.2201319">
<ele>44.81</ele>
<time>2016-10-14T07:53:26Z</time>
</trkpt>
<trkpt lat="39.7112901" lon="3.2203111">
<ele>45.13</ele>
<time>2016-10-14T07:53:29Z</time>
</trkpt>
<trkpt lat="39.7111708" lon="3.2204943">
<ele>46.12</ele>
<time>2016-10-14T07:53:32Z</time>
</trkpt>
<trkpt lat="39.7110553" lon="3.2206846">
<ele>46.58</ele>
<time>2016-10-14T07:53:35Z</time>
</trkpt>
<trkpt lat="39.7109127" lon="3.2209122">
<ele>46.20</ele>
<time>2016-10-14T07:53:39Z</time>
</trkpt>
<trkpt lat="39.7107955" lon="3.2210957">
<ele>45.84</ele>
<time>2016-10-14T07:53:42Z</time>
</trkpt>
<trkpt lat="39.7106366" lon="3.2213276">
<ele>44.98</ele>
<time>2016-10-14T07:53:46Z</time>
</trkpt>
<trkpt lat="39.7104998" lon="3.2215201">
<ele>45.31</ele>
<time>2016-10-14T07:53:49Z</time>
</trkpt>
<trkpt lat="39.7103688" lon="3.2217112">
<ele>45.51</ele>
<time>2016-10-14T07:53:52Z</time>
</trkpt>
<trkpt lat="39.7102470" lon="3.2218967">
<ele>45.29</ele>
<time>2016-10-14T07:53:55Z</time>
</trkpt>
<trkpt lat="39.7100845" lon="3.2221324">
<ele>46.52</ele>
<time>2016-10-14T07:53:59Z</time>
</trkpt>
<trkpt lat="39.7099596" lon="3.2223067">
<ele>47.37</ele>
<time>2016-10-14T07:54:02Z</time>
</trkpt>
<trkpt lat="39.7097912" lon="3.2225126">
<ele>48.26</ele>
<time>2016-10-14T07:54:06Z</time>
</trkpt>
<trkpt lat="39.7096482" lon="3.2226667">
<ele>50.92</ele>
<time>2016-10-14T07:54:09Z</time>
</trkpt>
<trkpt lat="39.7094836" lon="3.2228154">
<ele>50.52</ele>
<time>2016-10-14T07:54:12Z</time>
</trkpt>
<trkpt lat="39.7092813" lon="3.2229680">
<ele>49.03</ele>
<time>2016-10-14T07:54:16Z</time>
</trkpt>
<trkpt lat="39.7091064" lon="3.2230515">
<ele>46.35</ele>
<time>2016-10-14T07:54:19Z</time>
</trkpt>
<trkpt lat="39.7089122" lon="3.2231084">
<ele>43.50</ele>
<time>2016-10-14T07:54:22Z</time>
</trkpt>
<trkpt lat="39.7087019" lon="3.2231543">
<ele>41.43</ele>
<time>2016-10-14T07:54:25Z</time>
</trkpt>
<trkpt lat="39.7085037" lon="3.2231617">
<ele>40.53</ele>
<time>2016-10-14T07:54:28Z</time>
</trkpt>
<trkpt lat="39.7082978" lon="3.2231494">
<ele>40.52</ele>
<time>2016-10-14T07:54:31Z</time>
</trkpt>
<trkpt lat="39.7080892" lon="3.2231183">
<ele>41.98</ele>
<time>2016-10-14T07:54:34Z</time>
</trkpt>
<trkpt lat="39.7078723" lon="3.2230943">
<ele>43.58</ele>
<time>2016-10-14T07:54:37Z</time>
</trkpt>
<trkpt lat="39.7076506" lon="3.2230676">
<ele>44.60</ele>
<time>2016-10-14T07:54:40Z</time>
</trkpt>
<trkpt lat="39.7074263" lon="3.2230233">
<ele>44.64</ele>
<time>2016-10-14T07:54:43Z</time>
</trkpt>
<trkpt lat="39.7072015" lon="3.2230008">
<ele>42.36</ele>
<time>2016-10-14T07:54:46Z</time>
</trkpt>
<trkpt lat="39.7069388" lon="3.2230287">
<ele>39.73</ele>
<time>2016-10-14T07:54:49Z</time>
</trkpt>
<trkpt lat="39.7067553" lon="3.2230766">
<ele>38.53</ele>
<time>2016-10-14T07:54:51Z</time>
</trkpt>
<trkpt lat="39.7065741" lon="3.2231545">
<ele>37.65</ele>
<time>2016-10-14T07:54:53Z</time>
</trkpt>
<trkpt lat="39.7063939" lon="3.2232640">
<ele>37.71</ele>
<time>2016-10-14T07:54:55Z</time>
</trkpt>
<trkpt lat="39.7062205" lon="3.2234044">
<ele>37.51</ele>
<time>2016-10-14T07:54:57Z</time>
</trkpt>
<trkpt lat="39.7060499" lon="3.2235715">
<ele>37.21</ele>
<time>2016-10-14T07:54:59Z</time>
</trkpt>
<trkpt lat="39.7058925" lon="3.2237475">
<ele>36.32</ele>
<time>2016-10-14T07:55:01Z</time>
</trkpt>
<trkpt lat="39.7057447" lon="3.2239183">
<ele>35.18</ele>
<time>2016-10-14T07:55:03Z</time>
</trkpt>
<trkpt lat="39.7055987" lon="3.2240847">
<ele>33.94</ele>
<time>2016-10-14T07:55:05Z</time>
</trkpt>
<trkpt lat="39.7054544" lon="3.2242478">
<ele>33.15</ele>
<time>2016-10-14T07:55:07Z</time>
</trkpt>
<trkpt lat="39.7052948" lon="3.2244118">
<ele>32.29</ele>
<time>2016-10-14T07:55:09Z</time>
</trkpt>
<trkpt lat="39.7051221" lon="3.2245554">
<ele>31.74</ele>
<time>2016-10-14T07:55:11Z</time>
</trkpt>
<trkpt lat="39.7049291" lon="3.2246361">
<ele>30.94</ele>
<time>2016-10-14T07:55:13Z</time>
</trkpt>
<trkpt lat="39.7047220" lon="3.2247021">
<ele>28.93</ele>
<time>2016-10-14T07:55:15Z</time>
</trkpt>
<trkpt lat="39.7045156" lon="3.2247264">
<ele>26.37</ele>
<time>2016-10-14T07:55:17Z</time>
</trkpt>
<trkpt lat="39.7043224" lon="3.2247198">
<ele>24.65</ele>
<time>2016-10-14T07:55:19Z</time>
</trkpt>
<trkpt lat="39.7041217" lon="3.2246984">
<ele>23.33</ele>
<time>2016-10-14T07:55:21Z</time>
</trkpt>
<trkpt lat="39.7039144" lon="3.2246876">
<ele>22.29</ele>
<time>2016-10-14T07:55:23Z</time>
</trkpt>
<trkpt lat="39.7037218" lon="3.2247119">
<ele>21.06</ele>
<time>2016-10-14T07:55:25Z</time>
</trkpt>
<trkpt lat="39.7034528" lon="3.2247297">
<ele>19.25</ele>
<time>2016-10-14T07:55:28Z</time>
</trkpt>
<trkpt lat="39.7032628" lon="3.2246847">
<ele>17.40</ele>
<time>2016-10-14T07:55:30Z</time>
</trkpt>
<trkpt lat="39.7030776" lon="3.2246296">
<ele>15.30</ele>
<time>2016-10-14T07:55:32Z</time>
</trkpt>
<trkpt lat="39.7028898" lon="3.2245850">
<ele>13.18</ele>
<time>2016-10-14T07:55:34Z</time>
</trkpt>
<trkpt lat="39.7026334" lon="3.2245597">
<ele>10.35</ele>
<time>2016-10-14T07:55:37Z</time>
</trkpt>
<trkpt lat="39.7023922" lon="3.2245419">
<ele>9.59</ele>
<time>2016-10-14T07:55:40Z</time>
</trkpt>
<trkpt lat="39.7021603" lon="3.2245053">
<ele>10.04</ele>
<time>2016-10-14T07:55:43Z</time>
</trkpt>
<trkpt lat="39.7019834" lon="3.2244532">
<ele>12.45</ele>
<time>2016-10-14T07:55:46Z</time>
</trkpt>
<trkpt lat="39.7017891" lon="3.2243376">
<ele>13.60</ele>
<time>2016-10-14T07:55:50Z</time>
</trkpt>
<trkpt lat="39.7016162" lon="3.2242045">
<ele>13.95</ele>
<time>2016-10-14T07:55:55Z</time>
</trkpt>
<trkpt lat="39.7014680" lon="3.2240375">
<ele>13.90</ele>
<time>2016-10-14T07:56:01Z</time>
</trkpt>
<trkpt lat="39.7013289" lon="3.2238788">
<ele>13.94</ele>
<time>2016-10-14T07:56:07Z</time>
</trkpt>
<trkpt lat="39.7011828" lon="3.2237088">
<ele>13.97</ele>
<time>2016-10-14T07:56:13Z</time>
</trkpt>
<trkpt lat="39.7010411" lon="3.2235639">
<ele>14.33</ele>
<time>2016-10-14T07:56:19Z</time>
</trkpt>
<trkpt lat="39.7008967" lon="3.2234071">
<ele>15.26</ele>
<time>2016-10-14T07:56:24Z</time>
</trkpt>
<trkpt lat="39.7007493" lon="3.2232418">
<ele>15.74</ele>
<time>2016-10-14T07:56:30Z</time>
</trkpt>
<trkpt lat="39.7005994" lon="3.2230584">
<ele>16.41</ele>
<time>2016-10-14T07:56:36Z</time>
</trkpt>
<trkpt lat="39.7004641" lon="3.2228597">
<ele>17.31</ele>
<time>2016-10-14T07:56:43Z</time>
</trkpt>
<trkpt lat="39.7003751" lon="3.2226519">
<ele>18.39</ele>
<time>2016-10-14T07:56:49Z</time>
</trkpt>
<trkpt lat="39.7003414" lon="3.2224082">
<ele>19.44</ele>
<time>2016-10-14T07:56:55Z</time>
</trkpt>
<trkpt lat="39.7003633" lon="3.2221644">
<ele>20.34</ele>
<time>2016-10-14T07:57:00Z</time>
</trkpt>
<trkpt lat="39.7004193" lon="3.2219190">
<ele>21.53</ele>
<time>2016-10-14T07:57:06Z</time>
</trkpt>
<trkpt lat="39.7004821" lon="3.2216540">
<ele>22.85</ele>
<time>2016-10-14T07:57:12Z</time>
</trkpt>
<trkpt lat="39.7005479" lon="3.2214099">
<ele>24.21</ele>
<time>2016-10-14T07:57:18Z</time>
</trkpt>
<trkpt lat="39.7005968" lon="3.2211669">
<ele>25.73</ele>
<time>2016-10-14T07:57:24Z</time>
</trkpt>
<trkpt lat="39.7006623" lon="3.2209054">
<ele>27.00</ele>
<time>2016-10-14T07:57:30Z</time>
</trkpt>
<trkpt lat="39.7007092" lon="3.2206794">
<ele>31.26</ele>
<time>2016-10-14T07:57:35Z</time>
</trkpt>
<trkpt lat="39.7007690" lon="3.2204270">
<ele>35.62</ele>
<time>2016-10-14T07:57:40Z</time>
</trkpt>
<trkpt lat="39.7008345" lon="3.2201827">
<ele>37.05</ele>
<time>2016-10-14T07:57:45Z</time>
</trkpt>
<trkpt lat="39.7008872" lon="3.2199413">
<ele>36.95</ele>
<time>2016-10-14T07:57:50Z</time>
</trkpt>
<trkpt lat="39.7009346" lon="3.2196726">
<ele>37.27</ele>
<time>2016-10-14T07:57:56Z</time>
</trkpt>
<trkpt lat="39.7009973" lon="3.2194283">
<ele>39.68</ele>
<time>2016-10-14T07:58:01Z</time>
</trkpt>
<trkpt lat="39.7010492" lon="3.2191827">
<ele>40.69</ele>
<time>2016-10-14T07:58:06Z</time>
</trkpt>
<trkpt lat="39.7010947" lon="3.2189169">
<ele>41.07</ele>
<time>2016-10-14T07:58:11Z</time>
</trkpt>
<trkpt lat="39.7011439" lon="3.2186548">
<ele>41.52</ele>
<time>2016-10-14T07:58:16Z</time>
</trkpt>
<trkpt lat="39.7011938" lon="3.2183748">
<ele>43.62</ele>
<time>2016-10-14T07:58:22Z</time>
</trkpt>
<trkpt lat="39.7012465" lon="3.2181184">
<ele>44.50</ele>
<time>2016-10-14T07:58:27Z</time>
</trkpt>
<trkpt lat="39.7012905" lon="3.2178803">
<ele>45.79</ele>
<time>2016-10-14T07:58:32Z</time>
</trkpt>
<trkpt lat="39.7013463" lon="3.2176457">
<ele>46.69</ele>
<time>2016-10-14T07:58:37Z</time>
</trkpt>
<trkpt lat="39.7013934" lon="3.2173982">
<ele>46.80</ele>
<time>2016-10-14T07:58:42Z</time>
</trkpt>
<trkpt lat="39.7014372" lon="3.2171452">
<ele>47.59</ele>
<time>2016-10-14T07:58:47Z</time>
</trkpt>
<trkpt lat="39.7014828" lon="3.2168688">
<ele>48.03</ele>
<time>2016-10-14T07:58:52Z</time>
</trkpt>
<trkpt lat="39.7015325" lon="3.2166081">
<ele>46.98</ele>
<time>2016-10-14T07:58:57Z</time>
</trkpt>
<trkpt lat="39.7015688" lon="3.2163629">
<ele>46.80</ele>
<time>2016-10-14T07:59:02Z</time>
</trkpt>
<trkpt lat="39.7016063" lon="3.2161249">
<ele>48.96</ele>
<time>2016-10-14T07:59:07Z</time>
</trkpt>
<trkpt lat="39.7016424" lon="3.2158753">
<ele>51.96</ele>
<time>2016-10-14T07:59:12Z</time>
</trkpt>
<trkpt lat="39.7016779" lon="3.2156215">
<ele>53.39</ele>
<time>2016-10-14T07:59:17Z</time>
</trkpt>
<trkpt lat="39.7017292" lon="3.2153558">
<ele>53.63</ele>
<time>2016-10-14T07:59:22Z</time>
</trkpt>
<trkpt lat="39.7017799" lon="3.2151101">
<ele>53.22</ele>
<time>2016-10-14T07:59:27Z</time>
</trkpt>
<trkpt lat="39.7018384" lon="3.2148767">
<ele>52.68</ele>
<time>2016-10-14T07:59:32Z</time>
</trkpt>
<trkpt lat="39.7018993" lon="3.2146249">
<ele>55.14</ele>
<time>2016-10-14T07:59:39Z</time>
</trkpt>
<trkpt lat="39.7019516" lon="3.2143743">
<ele>56.51</ele>
<time>2016-10-14T07:59:44Z</time>
</trkpt>
<trkpt lat="39.7019963" lon="3.2141308">
<ele>56.45</ele>
<time>2016-10-14T07:59:49Z</time>
</trkpt>
<trkpt lat="39.7020514" lon="3.2138940">
<ele>56.21</ele>
<time>2016-10-14T07:59:54Z</time>
</trkpt>
<trkpt lat="39.7021026" lon="3.2136487">
<ele>55.97</ele>
<time>2016-10-14T07:59:59Z</time>
</trkpt>
<trkpt lat="39.7021508" lon="3.2134195">
<ele>55.65</ele>
<time>2016-10-14T08:00:04Z</time>
</trkpt>
<trkpt lat="39.7021830" lon="3.2131844">
<ele>55.58</ele>
<time>2016-10-14T08:00:09Z</time>
</trkpt>
<trkpt lat="39.7021518" lon="3.2128977">
<ele>57.65</ele>
<time>2016-10-14T08:00:15Z</time>
</trkpt>
<trkpt lat="39.7020775" lon="3.2126811">
<ele>60.32</ele>
<time>2016-10-14T08:00:19Z</time>
</trkpt>
<trkpt lat="39.7019587" lon="3.2124480">
<ele>60.55</ele>
<time>2016-10-14T08:00:24Z</time>
</trkpt>
<trkpt lat="39.7018474" lon="3.2122636">
<ele>60.85</ele>
<time>2016-10-14T08:00:28Z</time>
</trkpt>
<trkpt lat="39.7017285" lon="3.2120849">
<ele>59.84</ele>
<time>2016-10-14T08:00:32Z</time>
</trkpt>
<trkpt lat="39.7015845" lon="3.2118741">
<ele>59.52</ele>
<time>2016-10-14T08:00:37Z</time>
</trkpt>
<trkpt lat="39.7014400" lon="3.2116557">
<ele>62.31</ele>
<time>2016-10-14T08:00:42Z</time>
</trkpt>
<trkpt lat="39.7013022" lon="3.2114247">
<ele>65.58</ele>
<time>2016-10-14T08:00:47Z</time>
</trkpt>
<trkpt lat="39.7011716" lon="3.2112312">
<ele>65.66</ele>
<time>2016-10-14T08:00:51Z</time>
</trkpt>
<trkpt lat="39.7010341" lon="3.2110067">
<ele>66.40</ele>
<time>2016-10-14T08:00:56Z</time>
</trkpt>
<trkpt lat="39.7009134" lon="3.2108150">
<ele>67.69</ele>
<time>2016-10-14T08:01:00Z</time>
</trkpt>
<trkpt lat="39.7007861" lon="3.2106178">
<ele>66.78</ele>
<time>2016-10-14T08:01:04Z</time>
</trkpt>
<trkpt lat="39.7006406" lon="3.2103940">
<ele>67.16</ele>
<time>2016-10-14T08:01:09Z</time>
</trkpt>
<trkpt lat="39.7005157" lon="3.2101843">
<ele>65.63</ele>
<time>2016-10-14T08:01:14Z</time>
</trkpt>
<trkpt lat="39.7003820" lon="3.2099760">
<ele>65.08</ele>
<time>2016-10-14T08:01:19Z</time>
</trkpt>
<trkpt lat="39.7002400" lon="3.2097518">
<ele>67.65</ele>
<time>2016-10-14T08:01:24Z</time>
</trkpt>
<trkpt lat="39.7001160" lon="3.2095468">
<ele>68.04</ele>
<time>2016-10-14T08:01:28Z</time>
</trkpt>
<trkpt lat="39.7000017" lon="3.2093616">
<ele>67.64</ele>
<time>2016-10-14T08:01:32Z</time>
</trkpt>
<trkpt lat="39.6998826" lon="3.2091697">
<ele>68.24</ele>
<time>2016-10-14T08:01:37Z</time>
</trkpt>
<trkpt lat="39.6997538" lon="3.2089885">
<ele>69.42</ele>
<time>2016-10-14T08:01:42Z</time>
</trkpt>
<trkpt lat="39.6996051" lon="3.2087895">
<ele>70.79</ele>
<time>2016-10-14T08:01:48Z</time>
</trkpt>
<trkpt lat="39.6994784" lon="3.2085784">
<ele>72.35</ele>
<time>2016-10-14T08:01:53Z</time>
</trkpt>
<trkpt lat="39.6993404" lon="3.2083595">
<ele>73.84</ele>
<time>2016-10-14T08:01:58Z</time>
</trkpt>
<trkpt lat="39.6992048" lon="3.2081564">
<ele>73.96</ele>
<time>2016-10-14T08:02:03Z</time>
</trkpt>
<trkpt lat="39.6990722" lon="3.2079688">
<ele>74.62</ele>
<time>2016-10-14T08:02:08Z</time>
</trkpt>
<trkpt lat="39.6989421" lon="3.2077857">
<ele>75.32</ele>
<time>2016-10-14T08:02:13Z</time>
</trkpt>
<trkpt lat="39.6988214" lon="3.2075895">
<ele>75.08</ele>
<time>2016-10-14T08:02:18Z</time>
</trkpt>
<trkpt lat="39.6986897" lon="3.2073941">
<ele>76.19</ele>
<time>2016-10-14T08:02:23Z</time>
</trkpt>
<trkpt lat="39.6985554" lon="3.2071709">
<ele>78.26</ele>
<time>2016-10-14T08:02:28Z</time>
</trkpt>
<trkpt lat="39.6984461" lon="3.2069576">
<ele>79.77</ele>
<time>2016-10-14T08:02:33Z</time>
</trkpt>
<trkpt lat="39.6983240" lon="3.2067376">
<ele>82.11</ele>
<time>2016-10-14T08:02:38Z</time>
</trkpt>
<trkpt lat="39.6982066" lon="3.2064996">
<ele>84.74</ele>
<time>2016-10-14T08:02:43Z</time>
</trkpt>
<trkpt lat="39.6980768" lon="3.2062822">
<ele>85.43</ele>
<time>2016-10-14T08:02:48Z</time>
</trkpt>
<trkpt lat="39.6979532" lon="3.2060500">
<ele>87.00</ele>
<time>2016-10-14T08:02:53Z</time>
</trkpt>
<trkpt lat="39.6978571" lon="3.2058441">
<ele>86.54</ele>
<time>2016-10-14T08:02:57Z</time>
</trkpt>
<trkpt lat="39.6977435" lon="3.2055971">
<ele>84.09</ele>
<time>2016-10-14T08:03:01Z</time>
</trkpt>
<trkpt lat="39.6976436" lon="3.2054022">
<ele>82.58</ele>
<time>2016-10-14T08:03:04Z</time>
</trkpt>
<trkpt lat="39.6975055" lon="3.2051471">
<ele>82.54</ele>
<time>2016-10-14T08:03:08Z</time>
</trkpt>
<trkpt lat="39.6973984" lon="3.2049371">
<ele>82.24</ele>
<time>2016-10-14T08:03:11Z</time>
</trkpt>
<trkpt lat="39.6972951" lon="3.2047269">
<ele>80.95</ele>
<time>2016-10-14T08:03:14Z</time>
</trkpt>
<trkpt lat="39.6971990" lon="3.2045102">
<ele>80.14</ele>
<time>2016-10-14T08:03:17Z</time>
</trkpt>
<trkpt lat="39.6971110" lon="3.2042971">
<ele>80.48</ele>
<time>2016-10-14T08:03:20Z</time>
</trkpt>
<trkpt lat="39.6970078" lon="3.2040158">
<ele>80.58</ele>
<time>2016-10-14T08:03:24Z</time>
</trkpt>
<trkpt lat="39.6969294" lon="3.2037994">
<ele>80.80</ele>
<time>2016-10-14T08:03:27Z</time>
</trkpt>
<trkpt lat="39.6968520" lon="3.2035834">
<ele>81.15</ele>
<time>2016-10-14T08:03:30Z</time>
</trkpt>
<trkpt lat="39.6967718" lon="3.2033635">
<ele>81.57</ele>
<time>2016-10-14T08:03:33Z</time>
</trkpt>
<trkpt lat="39.6966688" lon="3.2030883">
<ele>82.47</ele>
<time>2016-10-14T08:03:37Z</time>
</trkpt>
<trkpt lat="39.6965872" lon="3.2028739">
<ele>83.11</ele>
<time>2016-10-14T08:03:40Z</time>
</trkpt>
<trkpt lat="39.6965043" lon="3.2026457">
<ele>83.42</ele>
<time>2016-10-14T08:03:43Z</time>
</trkpt>
<trkpt lat="39.6964249" lon="3.2024199">
<ele>83.80</ele>
<time>2016-10-14T08:03:46Z</time>
</trkpt>
<trkpt lat="39.6963581" lon="3.2021898">
<ele>83.98</ele>
<time>2016-10-14T08:03:49Z</time>
</trkpt>
<trkpt lat="39.6963025" lon="3.2019641">
<ele>83.45</ele>
<time>2016-10-14T08:03:52Z</time>
</trkpt>
<trkpt lat="39.6962410" lon="3.2017191">
<ele>82.59</ele>
<time>2016-10-14T08:03:55Z</time>
</trkpt>
<trkpt lat="39.6961789" lon="3.2014761">
<ele>81.50</ele>
<time>2016-10-14T08:03:58Z</time>
</trkpt>
<trkpt lat="39.6961141" lon="3.2012359">
<ele>81.03</ele>
<time>2016-10-14T08:04:01Z</time>
</trkpt>
<trkpt lat="39.6960534" lon="3.2010033">
<ele>80.53</ele>
<time>2016-10-14T08:04:04Z</time>
</trkpt>
<trkpt lat="39.6959946" lon="3.2007767">
<ele>80.23</ele>
<time>2016-10-14T08:04:07Z</time>
</trkpt>
<trkpt lat="39.6959190" lon="3.2004877">
<ele>81.13</ele>
<time>2016-10-14T08:04:11Z</time>
</trkpt>
<trkpt lat="39.6958513" lon="3.2002637">
<ele>82.38</ele>
<time>2016-10-14T08:04:14Z</time>
</trkpt>
<trkpt lat="39.6957783" lon="3.2000123">
<ele>82.33</ele>
<time>2016-10-14T08:04:17Z</time>
</trkpt>
<trkpt lat="39.6957138" lon="3.1997091">
<ele>81.45</ele>
<time>2016-10-14T08:04:20Z</time>
</trkpt>
<trkpt lat="39.6957187" lon="3.1993609">
<ele>80.09</ele>
<time>2016-10-14T08:04:23Z</time>
</trkpt>
<trkpt lat="39.6957321" lon="3.1990156">
<ele>78.36</ele>
<time>2016-10-14T08:04:26Z</time>
</trkpt>
<trkpt lat="39.6956530" lon="3.1987966">
<ele>75.97</ele>
<time>2016-10-14T08:04:28Z</time>
</trkpt>
<trkpt lat="39.6955072" lon="3.1986157">
<ele>73.79</ele>
<time>2016-10-14T08:04:30Z</time>
</trkpt>
<trkpt lat="39.6953453" lon="3.1984817">
<ele>71.99</ele>
<time>2016-10-14T08:04:32Z</time>
</trkpt>
<trkpt lat="39.6951905" lon="3.1983560">
<ele>70.17</ele>
<time>2016-10-14T08:04:34Z</time>
</trkpt>
<trkpt lat="39.6950187" lon="3.1982220">
<ele>68.58</ele>
<time>2016-10-14T08:04:36Z</time>
</trkpt>
<trkpt lat="39.6948495" lon="3.1980927">
<ele>67.30</ele>
<time>2016-10-14T08:04:38Z</time>
</trkpt>
<trkpt lat="39.6946782" lon="3.1979628">
<ele>66.13</ele>
<time>2016-10-14T08:04:40Z</time>
</trkpt>
<trkpt lat="39.6945130" lon="3.1978401">
<ele>65.33</ele>
<time>2016-10-14T08:04:42Z</time>
</trkpt>
<trkpt lat="39.6943469" lon="3.1977238">
<ele>64.55</ele>
<time>2016-10-14T08:04:44Z</time>
</trkpt>
<trkpt lat="39.6941828" lon="3.1976092">
<ele>63.55</ele>
<time>2016-10-14T08:04:46Z</time>
</trkpt>
<trkpt lat="39.6940208" lon="3.1974954">
<ele>62.50</ele>
<time>2016-10-14T08:04:48Z</time>
</trkpt>
<trkpt lat="39.6937911" lon="3.1973323">
<ele>61.57</ele>
<time>2016-10-14T08:04:51Z</time>
</trkpt>
<trkpt lat="39.6935625" lon="3.1971676">
<ele>61.66</ele>
<time>2016-10-14T08:04:54Z</time>
</trkpt>
<trkpt lat="39.6933535" lon="3.1970153">
<ele>61.73</ele>
<time>2016-10-14T08:04:57Z</time>
</trkpt>
<trkpt lat="39.6931493" lon="3.1968731">
<ele>62.18</ele>
<time>2016-10-14T08:05:00Z</time>
</trkpt>
<trkpt lat="39.6929628" lon="3.1967381">
<ele>62.65</ele>
<time>2016-10-14T08:05:03Z</time>
</trkpt>
<trkpt lat="39.6927849" lon="3.1966126">
<ele>63.42</ele>
<time>2016-10-14T08:05:06Z</time>
</trkpt>
<trkpt lat="39.6926108" lon="3.1964900">
<ele>64.23</ele>
<time>2016-10-14T08:05:09Z</time>
</trkpt>
<trkpt lat="39.6924453" lon="3.1963649">
<ele>64.83</ele>
<time>2016-10-14T08:05:12Z</time>
</trkpt>
<trkpt lat="39.6922856" lon="3.1962522">
<ele>65.52</ele>
<time>2016-10-14T08:05:15Z</time>
</trkpt>
<trkpt lat="39.6920802" lon="3.1961162">
<ele>67.35</ele>
<time>2016-10-14T08:05:19Z</time>
</trkpt>
<trkpt lat="39.6919187" lon="3.1960052">
<ele>67.46</ele>
<time>2016-10-14T08:05:22Z</time>
</trkpt>
<trkpt lat="39.6917060" lon="3.1958468">
<ele>66.59</ele>
<time>2016-10-14T08:05:26Z</time>
</trkpt>
<trkpt lat="39.6915249" lon="3.1957063">
<ele>65.02</ele>
<time>2016-10-14T08:05:29Z</time>
</trkpt>
<trkpt lat="39.6913331" lon="3.1955658">
<ele>63.42</ele>
<time>2016-10-14T08:05:32Z</time>
</trkpt>
<trkpt lat="39.6911497" lon="3.1954395">
<ele>62.95</ele>
<time>2016-10-14T08:05:35Z</time>
</trkpt>
<trkpt lat="39.6909712" lon="3.1953140">
<ele>63.38</ele>
<time>2016-10-14T08:05:38Z</time>
</trkpt>
<trkpt lat="39.6907870" lon="3.1951840">
<ele>64.08</ele>
<time>2016-10-14T08:05:41Z</time>
</trkpt>
<trkpt lat="39.6906093" lon="3.1950664">
<ele>64.82</ele>
<time>2016-10-14T08:05:44Z</time>
</trkpt>
<trkpt lat="39.6904401" lon="3.1949524">
<ele>65.67</ele>
<time>2016-10-14T08:05:47Z</time>
</trkpt>
<trkpt lat="39.6902773" lon="3.1948396">
<ele>66.52</ele>
<time>2016-10-14T08:05:50Z</time>
</trkpt>
<trkpt lat="39.6900775" lon="3.1946907">
<ele>66.58</ele>
<time>2016-10-14T08:05:54Z</time>
</trkpt>
<trkpt lat="39.6898927" lon="3.1945505">
<ele>65.32</ele>
<time>2016-10-14T08:05:58Z</time>
</trkpt>
<trkpt lat="39.6897040" lon="3.1944047">
<ele>63.96</ele>
<time>2016-10-14T08:06:02Z</time>
</trkpt>
<trkpt lat="39.6895031" lon="3.1942674">
<ele>63.27</ele>
<time>2016-10-14T08:06:06Z</time>
</trkpt>
<trkpt lat="39.6893024" lon="3.1941389">
<ele>63.47</ele>
<time>2016-10-14T08:06:10Z</time>
</trkpt>
<trkpt lat="39.6891058" lon="3.1940181">
<ele>64.51</ele>
<time>2016-10-14T08:06:14Z</time>
</trkpt>
<trkpt lat="39.6889261" lon="3.1938793">
<ele>64.72</ele>
<time>2016-10-14T08:06:18Z</time>
</trkpt>
<trkpt lat="39.6887214" lon="3.1937417">
<ele>66.27</ele>
<time>2016-10-14T08:06:22Z</time>
</trkpt>
<trkpt lat="39.6885323" lon="3.1936066">
<ele>66.74</ele>
<time>2016-10-14T08:06:26Z</time>
</trkpt>
<trkpt lat="39.6883526" lon="3.1934719">
<ele>66.38</ele>
<time>2016-10-14T08:06:30Z</time>
</trkpt>
<trkpt lat="39.6881557" lon="3.1933351">
<ele>66.24</ele>
<time>2016-10-14T08:06:34Z</time>
</trkpt>
<trkpt lat="39.6879664" lon="3.1931936">
<ele>65.32</ele>
<time>2016-10-14T08:06:38Z</time>
</trkpt>
<trkpt lat="39.6877670" lon="3.1930520">
<ele>65.09</ele>
<time>2016-10-14T08:06:42Z</time>
</trkpt>
<trkpt lat="39.6875722" lon="3.1929061">
<ele>65.47</ele>
<time>2016-10-14T08:06:46Z</time>
</trkpt>
<trkpt lat="39.6873797" lon="3.1927763">
<ele>66.45</ele>
<time>2016-10-14T08:06:50Z</time>
</trkpt>
<trkpt lat="39.6871728" lon="3.1926376">
<ele>66.94</ele>
<time>2016-10-14T08:06:54Z</time>
</trkpt>
<trkpt lat="39.6869734" lon="3.1925066">
<ele>68.33</ele>
<time>2016-10-14T08:06:58Z</time>
</trkpt>
<trkpt lat="39.6867779" lon="3.1923606">
<ele>68.75</ele>
<time>2016-10-14T08:07:02Z</time>
</trkpt>
<trkpt lat="39.6865756" lon="3.1922061">
<ele>68.46</ele>
<time>2016-10-14T08:07:06Z</time>
</trkpt>
<trkpt lat="39.6863863" lon="3.1920651">
<ele>68.93</ele>
<time>2016-10-14T08:07:10Z</time>
</trkpt>
<trkpt lat="39.6862057" lon="3.1919303">
<ele>69.37</ele>
<time>2016-10-14T08:07:14Z</time>
</trkpt>
<trkpt lat="39.6860065" lon="3.1917943">
<ele>70.23</ele>
<time>2016-10-14T08:07:18Z</time>
</trkpt>
<trkpt lat="39.6858300" lon="3.1916719">
<ele>70.23</ele>
<time>2016-10-14T08:07:22Z</time>
</trkpt>
<trkpt lat="39.6856450" lon="3.1915352">
<ele>70.59</ele>
<time>2016-10-14T08:07:26Z</time>
</trkpt>
<trkpt lat="39.6854467" lon="3.1914005">
<ele>71.77</ele>
<time>2016-10-14T08:07:29Z</time>
</trkpt>
<trkpt lat="39.6852487" lon="3.1912569">
<ele>70.70</ele>
<time>2016-10-14T08:07:33Z</time>
</trkpt>
<trkpt lat="39.6850507" lon="3.1911105">
<ele>68.47</ele>
<time>2016-10-14T08:07:37Z</time>
</trkpt>
<trkpt lat="39.6848927" lon="3.1909606">
<ele>68.25</ele>
<time>2016-10-14T08:07:41Z</time>
</trkpt>
<trkpt lat="39.6847367" lon="3.1907602">
<ele>68.68</ele>
<time>2016-10-14T08:07:45Z</time>
</trkpt>
<trkpt lat="39.6845956" lon="3.1905476">
<ele>68.70</ele>
<time>2016-10-14T08:07:49Z</time>
</trkpt>
<trkpt lat="39.6844845" lon="3.1903609">
<ele>68.69</ele>
<time>2016-10-14T08:07:52Z</time>
</trkpt>
<trkpt lat="39.6843703" lon="3.1901695">
<ele>68.16</ele>
<time>2016-10-14T08:07:55Z</time>
</trkpt>
<trkpt lat="39.6842456" lon="3.1899568">
<ele>68.86</ele>
<time>2016-10-14T08:07:58Z</time>
</trkpt>
<trkpt lat="39.6841167" lon="3.1897519">
<ele>68.26</ele>
<time>2016-10-14T08:08:01Z</time>
</trkpt>
<trkpt lat="39.6839814" lon="3.1895678">
<ele>68.66</ele>
<time>2016-10-14T08:08:04Z</time>
</trkpt>
<trkpt lat="39.6838558" lon="3.1893716">
<ele>68.48</ele>
<time>2016-10-14T08:08:07Z</time>
</trkpt>
<trkpt lat="39.6837257" lon="3.1891703">
<ele>67.90</ele>
<time>2016-10-14T08:08:10Z</time>
</trkpt>
<trkpt lat="39.6835901" lon="3.1889678">
<ele>67.47</ele>
<time>2016-10-14T08:08:13Z</time>
</trkpt>
<trkpt lat="39.6834574" lon="3.1887678">
<ele>67.03</ele>
<time>2016-10-14T08:08:16Z</time>
</trkpt>
<trkpt lat="39.6833292" lon="3.1885725">
<ele>65.69</ele>
<time>2016-10-14T08:08:19Z</time>
</trkpt>
<trkpt lat="39.6832084" lon="3.1883927">
<ele>65.20</ele>
<time>2016-10-14T08:08:22Z</time>
</trkpt>
<trkpt lat="39.6830871" lon="3.1882158">
<ele>66.09</ele>
<time>2016-10-14T08:08:25Z</time>
</trkpt>
<trkpt lat="39.6829293" lon="3.1880234">
<ele>69.22</ele>
<time>2016-10-14T08:08:29Z</time>
</trkpt>
<trkpt lat="39.6827603" lon="3.1878376">
<ele>71.62</ele>
<time>2016-10-14T08:08:33Z</time>
</trkpt>
<trkpt lat="39.6825630" lon="3.1876920">
<ele>71.75</ele>
<time>2016-10-14T08:08:37Z</time>
</trkpt>
<trkpt lat="39.6823455" lon="3.1875890">
<ele>70.54</ele>
<time>2016-10-14T08:08:41Z</time>
</trkpt>
<trkpt lat="39.6821363" lon="3.1875042">
<ele>70.83</ele>
<time>2016-10-14T08:08:45Z</time>
</trkpt>
<trkpt lat="39.6819311" lon="3.1874205">
<ele>70.75</ele>
<time>2016-10-14T08:08:49Z</time>
</trkpt>
<trkpt lat="39.6817368" lon="3.1873373">
<ele>70.69</ele>
<time>2016-10-14T08:08:53Z</time>
</trkpt>
<trkpt lat="39.6815311" lon="3.1872459">
<ele>73.23</ele>
<time>2016-10-14T08:08:57Z</time>
</trkpt>
<trkpt lat="39.6813113" lon="3.1871474">
<ele>76.47</ele>
<time>2016-10-14T08:09:01Z</time>
</trkpt>
<trkpt lat="39.6811049" lon="3.1870541">
<ele>77.79</ele>
<time>2016-10-14T08:09:05Z</time>
</trkpt>
<trkpt lat="39.6809061" lon="3.1869627">
<ele>77.77</ele>
<time>2016-10-14T08:09:10Z</time>
</trkpt>
<trkpt lat="39.6807295" lon="3.1868853">
<ele>77.62</ele>
<time>2016-10-14T08:09:14Z</time>
</trkpt>
<trkpt lat="39.6805327" lon="3.1867980">
<ele>77.64</ele>
<time>2016-10-14T08:09:19Z</time>
</trkpt>
<trkpt lat="39.6803224" lon="3.1866991">
<ele>78.06</ele>
<time>2016-10-14T08:09:24Z</time>
</trkpt>
<trkpt lat="39.6801403" lon="3.1866092">
<ele>79.91</ele>
<time>2016-10-14T08:09:28Z</time>
</trkpt>
<trkpt lat="39.6799676" lon="3.1865358">
<ele>80.02</ele>
<time>2016-10-14T08:09:32Z</time>
</trkpt>
<trkpt lat="39.6797585" lon="3.1864521">
<ele>77.88</ele>
<time>2016-10-14T08:09:37Z</time>
</trkpt>
<trkpt lat="39.6795765" lon="3.1863650">
<ele>78.34</ele>
<time>2016-10-14T08:09:41Z</time>
</trkpt>
<trkpt lat="39.6794006" lon="3.1862822">
<ele>80.38</ele>
<time>2016-10-14T08:09:45Z</time>
</trkpt>
<trkpt lat="39.6791924" lon="3.1861975">
<ele>82.74</ele>
<time>2016-10-14T08:09:50Z</time>
</trkpt>
<trkpt lat="39.6789947" lon="3.1861221">
<ele>84.26</ele>
<time>2016-10-14T08:09:55Z</time>
</trkpt>
<trkpt lat="39.6787949" lon="3.1860326">
<ele>85.43</ele>
<time>2016-10-14T08:10:00Z</time>
</trkpt>
<trkpt lat="39.6786147" lon="3.1859369">
<ele>87.30</ele>
<time>2016-10-14T08:10:05Z</time>
</trkpt>
<trkpt lat="39.6784409" lon="3.1858589">
<ele>88.46</ele>
<time>2016-10-14T08:10:09Z</time>
</trkpt>
<trkpt lat="39.6782474" lon="3.1857672">
<ele>87.91</ele>
<time>2016-10-14T08:10:13Z</time>
</trkpt>
<trkpt lat="39.6780580" lon="3.1856751">
<ele>86.76</ele>
<time>2016-10-14T08:10:17Z</time>
</trkpt>
<trkpt lat="39.6778502" lon="3.1855678">
<ele>87.32</ele>
<time>2016-10-14T08:10:21Z</time>
</trkpt>
<trkpt lat="39.6776367" lon="3.1854584">
<ele>87.42</ele>
<time>2016-10-14T08:10:25Z</time>
</trkpt>
<trkpt lat="39.6774163" lon="3.1853696">
<ele>87.87</ele>
<time>2016-10-14T08:10:29Z</time>
</trkpt>
<trkpt lat="39.6771919" lon="3.1852745">
<ele>87.32</ele>
<time>2016-10-14T08:10:33Z</time>
</trkpt>
<trkpt lat="39.6769706" lon="3.1851814">
<ele>87.86</ele>
<time>2016-10-14T08:10:37Z</time>
</trkpt>
<trkpt lat="39.6767581" lon="3.1850855">
<ele>88.30</ele>
<time>2016-10-14T08:10:41Z</time>
</trkpt>
<trkpt lat="39.6765593" lon="3.1849887">
<ele>88.40</ele>
<time>2016-10-14T08:10:45Z</time>
</trkpt>
<trkpt lat="39.6763443" lon="3.1848866">
<ele>88.07</ele>
<time>2016-10-14T08:10:49Z</time>
</trkpt>
<trkpt lat="39.6761224" lon="3.1847884">
<ele>87.32</ele>
<time>2016-10-14T08:10:53Z</time>
</trkpt>
<trkpt lat="39.6759019" lon="3.1846917">
<ele>86.65</ele>
<time>2016-10-14T08:10:57Z</time>
</trkpt>
<trkpt lat="39.6756940" lon="3.1845899">
<ele>86.20</ele>
<time>2016-10-14T08:11:01Z</time>
</trkpt>
<trkpt lat="39.6754880" lon="3.1844996">
<ele>86.61</ele>
<time>2016-10-14T08:11:05Z</time>
</trkpt>
<trkpt lat="39.6752762" lon="3.1843964">
<ele>87.73</ele>
<time>2016-10-14T08:11:09Z</time>
</trkpt>
<trkpt lat="39.6751040" lon="3.1843102">
<ele>88.41</ele>
<time>2016-10-14T08:11:12Z</time>
</trkpt>
<trkpt lat="39.6748846" lon="3.1842014">
<ele>89.65</ele>
<time>2016-10-14T08:11:16Z</time>
</trkpt>
<trkpt lat="39.6747124" lon="3.1841246">
<ele>90.86</ele>
<time>2016-10-14T08:11:19Z</time>
</trkpt>
<trkpt lat="39.6744897" lon="3.1840248">
<ele>91.20</ele>
<time>2016-10-14T08:11:23Z</time>
</trkpt>
<trkpt lat="39.6742802" lon="3.1839250">
<ele>91.04</ele>
<time>2016-10-14T08:11:27Z</time>
</trkpt>
<trkpt lat="39.6740691" lon="3.1838280">
<ele>91.24</ele>
<time>2016-10-14T08:11:31Z</time>
</trkpt>
<trkpt lat="39.6738506" lon="3.1837270">
<ele>91.30</ele>
<time>2016-10-14T08:11:35Z</time>
</trkpt>
<trkpt lat="39.6736777" lon="3.1836532">
<ele>91.18</ele>
<time>2016-10-14T08:11:38Z</time>
</trkpt>
<trkpt lat="39.6734573" lon="3.1835550">
<ele>91.85</ele>
<time>2016-10-14T08:11:42Z</time>
</trkpt>
<trkpt lat="39.6732349" lon="3.1834485">
<ele>92.15</ele>
<time>2016-10-14T08:11:46Z</time>
</trkpt>
<trkpt lat="39.6730245" lon="3.1833517">
<ele>90.98</ele>
<time>2016-10-14T08:11:50Z</time>
</trkpt>
<trkpt lat="39.6728284" lon="3.1832651">
<ele>90.31</ele>
<time>2016-10-14T08:11:54Z</time>
</trkpt>
<trkpt lat="39.6726135" lon="3.1831664">
<ele>89.76</ele>
<time>2016-10-14T08:11:59Z</time>
</trkpt>
<trkpt lat="39.6724285" lon="3.1830855">
<ele>89.17</ele>
<time>2016-10-14T08:12:03Z</time>
</trkpt>
<trkpt lat="39.6722546" lon="3.1830127">
<ele>89.93</ele>
<time>2016-10-14T08:12:07Z</time>
</trkpt>
<trkpt lat="39.6720650" lon="3.1829329">
<ele>92.89</ele>
<time>2016-10-14T08:12:12Z</time>
</trkpt>
<trkpt lat="39.6718624" lon="3.1828364">
<ele>94.35</ele>
<time>2016-10-14T08:12:17Z</time>
</trkpt>
<trkpt lat="39.6716893" lon="3.1827468">
<ele>95.15</ele>
<time>2016-10-14T08:12:21Z</time>
</trkpt>
<trkpt lat="39.6715044" lon="3.1826561">
<ele>95.80</ele>
<time>2016-10-14T08:12:25Z</time>
</trkpt>
<trkpt lat="39.6713119" lon="3.1825727">
<ele>96.59</ele>
<time>2016-10-14T08:12:29Z</time>
</trkpt>
<trkpt lat="39.6711095" lon="3.1824706">
<ele>96.16</ele>
<time>2016-10-14T08:12:33Z</time>
</trkpt>
<trkpt lat="39.6709270" lon="3.1823829">
<ele>96.27</ele>
<time>2016-10-14T08:12:37Z</time>
</trkpt>
<trkpt lat="39.6707104" lon="3.1822796">
<ele>97.32</ele>
<time>2016-10-14T08:12:41Z</time>
</trkpt>
<trkpt lat="39.6705054" lon="3.1821835">
<ele>96.17</ele>
<time>2016-10-14T08:12:44Z</time>
</trkpt>
<trkpt lat="39.6703194" lon="3.1821058">
<ele>96.10</ele>
<time>2016-10-14T08:12:47Z</time>
</trkpt>
<trkpt lat="39.6701422" lon="3.1820296">
<ele>96.53</ele>
<time>2016-10-14T08:12:50Z</time>
</trkpt>
<trkpt lat="39.6699616" lon="3.1819543">
<ele>95.47</ele>
<time>2016-10-14T08:12:53Z</time>
</trkpt>
<trkpt lat="39.6697767" lon="3.1818704">
<ele>96.49</ele>
<time>2016-10-14T08:12:56Z</time>
</trkpt>
<trkpt lat="39.6695614" lon="3.1817603">
<ele>96.54</ele>
<time>2016-10-14T08:13:00Z</time>
</trkpt>
<trkpt lat="39.6693395" lon="3.1816523">
<ele>97.56</ele>
<time>2016-10-14T08:13:04Z</time>
</trkpt>
<trkpt lat="39.6691409" lon="3.1815599">
<ele>97.95</ele>
<time>2016-10-14T08:13:08Z</time>
</trkpt>
<trkpt lat="39.6689341" lon="3.1814827">
<ele>99.69</ele>
<time>2016-10-14T08:13:12Z</time>
</trkpt>
<trkpt lat="39.6687407" lon="3.1813963">
<ele>102.21</ele>
<time>2016-10-14T08:13:16Z</time>
</trkpt>
<trkpt lat="39.6685448" lon="3.1813062">
<ele>103.58</ele>
<time>2016-10-14T08:13:20Z</time>
</trkpt>
<trkpt lat="39.6683436" lon="3.1812108">
<ele>103.31</ele>
<time>2016-10-14T08:13:24Z</time>
</trkpt>
<trkpt lat="39.6681442" lon="3.1811146">
<ele>103.47</ele>
<time>2016-10-14T08:13:28Z</time>
</trkpt>
<trkpt lat="39.6679694" lon="3.1810372">
<ele>104.45</ele>
<time>2016-10-14T08:13:32Z</time>
</trkpt>
<trkpt lat="39.6677714" lon="3.1809470">
<ele>104.41</ele>
<time>2016-10-14T08:13:37Z</time>
</trkpt>
<trkpt lat="39.6675828" lon="3.1808563">
<ele>103.89</ele>
<time>2016-10-14T08:13:42Z</time>
</trkpt>
<trkpt lat="39.6674020" lon="3.1807810">
<ele>104.71</ele>
<time>2016-10-14T08:13:47Z</time>
</trkpt>
<trkpt lat="39.6672014" lon="3.1806822">
<ele>105.39</ele>
<time>2016-10-14T08:13:53Z</time>
</trkpt>
<trkpt lat="39.6670032" lon="3.1805915">
<ele>105.87</ele>
<time>2016-10-14T08:13:58Z</time>
</trkpt>
<trkpt lat="39.6668069" lon="3.1805057">
<ele>106.41</ele>
<time>2016-10-14T08:14:04Z</time>
</trkpt>
<trkpt lat="39.6666295" lon="3.1804303">
<ele>106.88</ele>
<time>2016-10-14T08:14:09Z</time>
</trkpt>
<trkpt lat="39.6664497" lon="3.1803422">
<ele>107.43</ele>
<time>2016-10-14T08:14:14Z</time>
</trkpt>
<trkpt lat="39.6662656" lon="3.1802473">
<ele>106.93</ele>
<time>2016-10-14T08:14:19Z</time>
</trkpt>
<trkpt lat="39.6660603" lon="3.1801540">
<ele>107.07</ele>
<time>2016-10-14T08:14:24Z</time>
</trkpt>
<trkpt lat="39.6658864" lon="3.1800792">
<ele>108.84</ele>
<time>2016-10-14T08:14:28Z</time>
</trkpt>
<trkpt lat="39.6656861" lon="3.1799942">
<ele>112.20</ele>
<time>2016-10-14T08:14:33Z</time>
</trkpt>
<trkpt lat="39.6654766" lon="3.1799073">
<ele>114.64</ele>
<time>2016-10-14T08:14:38Z</time>
</trkpt>
<trkpt lat="39.6652809" lon="3.1798194">
<ele>115.65</ele>
<time>2016-10-14T08:14:42Z</time>
</trkpt>
<trkpt lat="39.6651026" lon="3.1797378">
<ele>115.99</ele>
<time>2016-10-14T08:14:46Z</time>
</trkpt>
<trkpt lat="39.6649235" lon="3.1796568">
<ele>116.28</ele>
<time>2016-10-14T08:14:50Z</time>
</trkpt>
<trkpt lat="39.6647492" lon="3.1795710">
<ele>116.66</ele>
<time>2016-10-14T08:14:54Z</time>
</trkpt>
<trkpt lat="39.6645661" lon="3.1794734">
<ele>119.91</ele>
<time>2016-10-14T08:14:58Z</time>
</trkpt>
<trkpt lat="39.6643902" lon="3.1793850">
<ele>120.82</ele>
<time>2016-10-14T08:15:02Z</time>
</trkpt>
<trkpt lat="39.6642072" lon="3.1793117">
<ele>119.61</ele>
<time>2016-10-14T08:15:07Z</time>
</trkpt>
<trkpt lat="39.6640041" lon="3.1792208">
<ele>119.80</ele>
<time>2016-10-14T08:15:12Z</time>
</trkpt>
<trkpt lat="39.6638293" lon="3.1791441">
<ele>119.81</ele>
<time>2016-10-14T08:15:16Z</time>
</trkpt>
<trkpt lat="39.6636199" lon="3.1790520">
<ele>119.65</ele>
<time>2016-10-14T08:15:21Z</time>
</trkpt>
<trkpt lat="39.6634311" lon="3.1789720">
<ele>120.60</ele>
<time>2016-10-14T08:15:25Z</time>
</trkpt>
<trkpt lat="39.6632228" lon="3.1788766">
<ele>121.98</ele>
<time>2016-10-14T08:15:30Z</time>
</trkpt>
<trkpt lat="39.6630267" lon="3.1787951">
<ele>122.88</ele>
<time>2016-10-14T08:15:36Z</time>
</trkpt>
<trkpt lat="39.6628366" lon="3.1787080">
<ele>123.03</ele>
<time>2016-10-14T08:15:41Z</time>
</trkpt>
<trkpt lat="39.6626633" lon="3.1786378">
<ele>124.27</ele>
<time>2016-10-14T08:15:46Z</time>
</trkpt>
<trkpt lat="39.6624738" lon="3.1785495">
<ele>124.86</ele>
<time>2016-10-14T08:15:52Z</time>
</trkpt>
<trkpt lat="39.6622950" lon="3.1784721">
<ele>125.60</ele>
<time>2016-10-14T08:15:57Z</time>
</trkpt>
<trkpt lat="39.6621200" lon="3.1783860">
<ele>126.06</ele>
<time>2016-10-14T08:16:02Z</time>
</trkpt>
<trkpt lat="39.6619464" lon="3.1782992">
<ele>126.16</ele>
<time>2016-10-14T08:16:07Z</time>
</trkpt>
<trkpt lat="39.6617540" lon="3.1782045">
<ele>127.25</ele>
<time>2016-10-14T08:16:12Z</time>
</trkpt>
<trkpt lat="39.6615606" lon="3.1781035">
<ele>128.99</ele>
<time>2016-10-14T08:16:17Z</time>
</trkpt>
<trkpt lat="39.6613636" lon="3.1779315">
<ele>130.26</ele>
<time>2016-10-14T08:16:21Z</time>
</trkpt>
<trkpt lat="39.6612157" lon="3.1777598">
<ele>130.71</ele>
<time>2016-10-14T08:16:24Z</time>
</trkpt>
<trkpt lat="39.6610477" lon="3.1775592">
<ele>128.98</ele>
<time>2016-10-14T08:16:27Z</time>
</trkpt>
<trkpt lat="39.6608846" lon="3.1773420">
<ele>127.95</ele>
<time>2016-10-14T08:16:30Z</time>
</trkpt>
<trkpt lat="39.6607106" lon="3.1770976">
<ele>127.16</ele>
<time>2016-10-14T08:16:33Z</time>
</trkpt>
<trkpt lat="39.6605256" lon="3.1768555">
<ele>126.48</ele>
<time>2016-10-14T08:16:36Z</time>
</trkpt>
<trkpt lat="39.6603913" lon="3.1766921">
<ele>126.79</ele>
<time>2016-10-14T08:16:38Z</time>
</trkpt>
<trkpt lat="39.6602598" lon="3.1765314">
<ele>127.02</ele>
<time>2016-10-14T08:16:40Z</time>
</trkpt>
<trkpt lat="39.6601264" lon="3.1763688">
<ele>127.48</ele>
<time>2016-10-14T08:16:42Z</time>
</trkpt>
<trkpt lat="39.6599475" lon="3.1761512">
<ele>128.81</ele>
<time>2016-10-14T08:16:45Z</time>
</trkpt>
<trkpt lat="39.6597635" lon="3.1759229">
<ele>130.70</ele>
<time>2016-10-14T08:16:48Z</time>
</trkpt>
<trkpt lat="39.6596333" lon="3.1757567">
<ele>131.78</ele>
<time>2016-10-14T08:16:50Z</time>
</trkpt>
<trkpt lat="39.6595084" lon="3.1755839">
<ele>132.39</ele>
<time>2016-10-14T08:16:52Z</time>
</trkpt>
<trkpt lat="39.6593356" lon="3.1753559">
<ele>132.69</ele>
<time>2016-10-14T08:16:55Z</time>
</trkpt>
<trkpt lat="39.6591709" lon="3.1751329">
<ele>133.17</ele>
<time>2016-10-14T08:16:58Z</time>
</trkpt>
<trkpt lat="39.6590069" lon="3.1749161">
<ele>132.35</ele>
<time>2016-10-14T08:17:01Z</time>
</trkpt>
<trkpt lat="39.6588575" lon="3.1747316">
<ele>132.74</ele>
<time>2016-10-14T08:17:04Z</time>
</trkpt>
<trkpt lat="39.6587070" lon="3.1745344">
<ele>133.58</ele>
<time>2016-10-14T08:17:07Z</time>
</trkpt>
<trkpt lat="39.6585487" lon="3.1743192">
<ele>133.52</ele>
<time>2016-10-14T08:17:10Z</time>
</trkpt>
<trkpt lat="39.6583922" lon="3.1741110">
<ele>132.70</ele>
<time>2016-10-14T08:17:13Z</time>
</trkpt>
<trkpt lat="39.6582458" lon="3.1739017">
<ele>132.78</ele>
<time>2016-10-14T08:17:16Z</time>
</trkpt>
<trkpt lat="39.6580858" lon="3.1736839">
<ele>132.79</ele>
<time>2016-10-14T08:17:19Z</time>
</trkpt>
<trkpt lat="39.6579032" lon="3.1734781">
<ele>131.78</ele>
<time>2016-10-14T08:17:22Z</time>
</trkpt>
<trkpt lat="39.6577519" lon="3.1733348">
<ele>128.18</ele>
<time>2016-10-14T08:17:24Z</time>
</trkpt>
<trkpt lat="39.6575439" lon="3.1731589">
<ele>122.14</ele>
<time>2016-10-14T08:17:27Z</time>
</trkpt>
<trkpt lat="39.6573401" lon="3.1729980">
<ele>117.72</ele>
<time>2016-10-14T08:17:30Z</time>
</trkpt>
<trkpt lat="39.6571382" lon="3.1728392">
<ele>114.96</ele>
<time>2016-10-14T08:17:33Z</time>
</trkpt>
<trkpt lat="39.6569753" lon="3.1727109">
<ele>115.70</ele>
<time>2016-10-14T08:17:36Z</time>
</trkpt>
<trkpt lat="39.6568137" lon="3.1725814">
<ele>117.85</ele>
<time>2016-10-14T08:17:39Z</time>
</trkpt>
<trkpt lat="39.6566162" lon="3.1724266">
<ele>119.30</ele>
<time>2016-10-14T08:17:43Z</time>
</trkpt>
<trkpt lat="39.6564269" lon="3.1722760">
<ele>120.03</ele>
<time>2016-10-14T08:17:47Z</time>
</trkpt>
<trkpt lat="39.6562479" lon="3.1721193">
<ele>119.57</ele>
<time>2016-10-14T08:17:51Z</time>
</trkpt>
<trkpt lat="39.6560888" lon="3.1719963">
<ele>119.05</ele>
<time>2016-10-14T08:17:55Z</time>
</trkpt>
<trkpt lat="39.6559212" lon="3.1718650">
<ele>119.16</ele>
<time>2016-10-14T08:17:59Z</time>
</trkpt>
<trkpt lat="39.6557633" lon="3.1717292">
<ele>121.37</ele>
<time>2016-10-14T08:18:03Z</time>
</trkpt>
<trkpt lat="39.6555836" lon="3.1715931">
<ele>123.79</ele>
<time>2016-10-14T08:18:07Z</time>
</trkpt>
<trkpt lat="39.6554072" lon="3.1714588">
<ele>125.30</ele>
<time>2016-10-14T08:18:11Z</time>
</trkpt>
<trkpt lat="39.6552239" lon="3.1713234">
<ele>126.01</ele>
<time>2016-10-14T08:18:15Z</time>
</trkpt>
<trkpt lat="39.6550372" lon="3.1711816">
<ele>126.13</ele>
<time>2016-10-14T08:18:19Z</time>
</trkpt>
<trkpt lat="39.6548401" lon="3.1710216">
<ele>126.08</ele>
<time>2016-10-14T08:18:23Z</time>
</trkpt>
<trkpt lat="39.6546351" lon="3.1708578">
<ele>123.43</ele>
<time>2016-10-14T08:18:27Z</time>
</trkpt>
<trkpt lat="39.6544658" lon="3.1707137">
<ele>121.73</ele>
<time>2016-10-14T08:18:30Z</time>
</trkpt>
<trkpt lat="39.6542956" lon="3.1705605">
<ele>121.32</ele>
<time>2016-10-14T08:18:33Z</time>
</trkpt>
<trkpt lat="39.6541428" lon="3.1704351">
<ele>120.58</ele>
<time>2016-10-14T08:18:36Z</time>
</trkpt>
<trkpt lat="39.6539775" lon="3.1703048">
<ele>120.37</ele>
<time>2016-10-14T08:18:39Z</time>
</trkpt>
<trkpt lat="39.6538067" lon="3.1701728">
<ele>121.16</ele>
<time>2016-10-14T08:18:42Z</time>
</trkpt>
<trkpt lat="39.6535965" lon="3.1700024">
<ele>121.65</ele>
<time>2016-10-14T08:18:46Z</time>
</trkpt>
<trkpt lat="39.6534200" lon="3.1698639">
<ele>121.00</ele>
<time>2016-10-14T08:18:49Z</time>
</trkpt>
<trkpt lat="39.6532585" lon="3.1697341">
<ele>120.15</ele>
<time>2016-10-14T08:18:52Z</time>
</trkpt>
<trkpt lat="39.6531055" lon="3.1696027">
<ele>120.22</ele>
<time>2016-10-14T08:18:55Z</time>
</trkpt>
<trkpt lat="39.6529277" lon="3.1694611">
<ele>120.03</ele>
<time>2016-10-14T08:18:58Z</time>
</trkpt>
<trkpt lat="39.6527515" lon="3.1693226">
<ele>119.73</ele>
<time>2016-10-14T08:19:01Z</time>
</trkpt>
<trkpt lat="39.6525901" lon="3.1691849">
<ele>120.29</ele>
<time>2016-10-14T08:19:04Z</time>
</trkpt>
<trkpt lat="39.6524272" lon="3.1690472">
<ele>120.97</ele>
<time>2016-10-14T08:19:07Z</time>
</trkpt>
<trkpt lat="39.6522574" lon="3.1689204">
<ele>121.48</ele>
<time>2016-10-14T08:19:10Z</time>
</trkpt>
<trkpt lat="39.6520859" lon="3.1687935">
<ele>121.10</ele>
<time>2016-10-14T08:19:13Z</time>
</trkpt>
<trkpt lat="39.6519344" lon="3.1686649">
<ele>121.47</ele>
<time>2016-10-14T08:19:16Z</time>
</trkpt>
<trkpt lat="39.6517833" lon="3.1685352">
<ele>121.62</ele>
<time>2016-10-14T08:19:19Z</time>
</trkpt>
<trkpt lat="39.6516307" lon="3.1684085">
<ele>122.15</ele>
<time>2016-10-14T08:19:22Z</time>
</trkpt>
<trkpt lat="39.6514811" lon="3.1682784">
<ele>124.41</ele>
<time>2016-10-14T08:19:25Z</time>
</trkpt>
<trkpt lat="39.6512810" lon="3.1681201">
<ele>126.81</ele>
<time>2016-10-14T08:19:29Z</time>
</trkpt>
<trkpt lat="39.6511245" lon="3.1680045">
<ele>127.61</ele>
<time>2016-10-14T08:19:32Z</time>
</trkpt>
<trkpt lat="39.6509391" lon="3.1678568">
<ele>125.28</ele>
<time>2016-10-14T08:19:36Z</time>
</trkpt>
<trkpt lat="39.6507482" lon="3.1676901">
<ele>122.42</ele>
<time>2016-10-14T08:19:40Z</time>
</trkpt>
<trkpt lat="39.6505617" lon="3.1675365">
<ele>121.17</ele>
<time>2016-10-14T08:19:44Z</time>
</trkpt>
<trkpt lat="39.6503814" lon="3.1674069">
<ele>121.65</ele>
<time>2016-10-14T08:19:48Z</time>
</trkpt>
<trkpt lat="39.6501944" lon="3.1672587">
<ele>121.48</ele>
<time>2016-10-14T08:19:52Z</time>
</trkpt>
<trkpt lat="39.6499981" lon="3.1670847">
<ele>121.75</ele>
<time>2016-10-14T08:19:56Z</time>
</trkpt>
<trkpt lat="39.6498176" lon="3.1669436">
<ele>121.81</ele>
<time>2016-10-14T08:20:00Z</time>
</trkpt>
<trkpt lat="39.6496363" lon="3.1667956">
<ele>123.71</ele>
<time>2016-10-14T08:20:04Z</time>
</trkpt>
<trkpt lat="39.6494582" lon="3.1666432">
<ele>126.57</ele>
<time>2016-10-14T08:20:08Z</time>
</trkpt>
<trkpt lat="39.6492837" lon="3.1664812">
<ele>128.42</ele>
<time>2016-10-14T08:20:12Z</time>
</trkpt>
<trkpt lat="39.6490963" lon="3.1663187">
<ele>128.25</ele>
<time>2016-10-14T08:20:16Z</time>
</trkpt>
<trkpt lat="39.6489049" lon="3.1661520">
<ele>127.91</ele>
<time>2016-10-14T08:20:20Z</time>
</trkpt>
<trkpt lat="39.6487232" lon="3.1659930">
<ele>127.78</ele>
<time>2016-10-14T08:20:24Z</time>
</trkpt>
<trkpt lat="39.6485384" lon="3.1658244">
<ele>126.57</ele>
<time>2016-10-14T08:20:28Z</time>
</trkpt>
<trkpt lat="39.6483630" lon="3.1656625">
<ele>126.04</ele>
<time>2016-10-14T08:20:32Z</time>
</trkpt>
<trkpt lat="39.6481919" lon="3.1655125">
<ele>127.96</ele>
<time>2016-10-14T08:20:36Z</time>
</trkpt>
<trkpt lat="39.6480284" lon="3.1653684">
<ele>127.40</ele>
<time>2016-10-14T08:20:40Z</time>
</trkpt>
<trkpt lat="39.6478719" lon="3.1652170">
<ele>128.10</ele>
<time>2016-10-14T08:20:44Z</time>
</trkpt>
<trkpt lat="39.6477136" lon="3.1650668">
<ele>129.75</ele>
<time>2016-10-14T08:20:48Z</time>
</trkpt>
<trkpt lat="39.6475552" lon="3.1649256">
<ele>130.22</ele>
<time>2016-10-14T08:20:52Z</time>
</trkpt>
<trkpt lat="39.6473954" lon="3.1647905">
<ele>129.32</ele>
<time>2016-10-14T08:20:56Z</time>
</trkpt>
<trkpt lat="39.6472409" lon="3.1646550">
<ele>131.42</ele>
<time>2016-10-14T08:21:00Z</time>
</trkpt>
<trkpt lat="39.6470703" lon="3.1645070">
<ele>131.61</ele>
<time>2016-10-14T08:21:04Z</time>
</trkpt>
<trkpt lat="39.6469078" lon="3.1643626">
<ele>131.69</ele>
<time>2016-10-14T08:21:08Z</time>
</trkpt>
<trkpt lat="39.6467358" lon="3.1642206">
<ele>131.30</ele>
<time>2016-10-14T08:21:12Z</time>
</trkpt>
<trkpt lat="39.6465562" lon="3.1640728">
<ele>129.07</ele>
<time>2016-10-14T08:21:16Z</time>
</trkpt>
<trkpt lat="39.6463841" lon="3.1639168">
<ele>126.41</ele>
<time>2016-10-14T08:21:20Z</time>
</trkpt>
<trkpt lat="39.6462289" lon="3.1637766">
<ele>126.12</ele>
<time>2016-10-14T08:21:24Z</time>
</trkpt>
<trkpt lat="39.6460615" lon="3.1636196">
<ele>129.74</ele>
<time>2016-10-14T08:21:29Z</time>
</trkpt>
<trkpt lat="39.6459050" lon="3.1634671">
<ele>130.42</ele>
<time>2016-10-14T08:21:33Z</time>
</trkpt>
<trkpt lat="39.6457309" lon="3.1633067">
<ele>128.57</ele>
<time>2016-10-14T08:21:37Z</time>
</trkpt>
<trkpt lat="39.6455852" lon="3.1631617">
<ele>127.90</ele>
<time>2016-10-14T08:21:41Z</time>
</trkpt>
<trkpt lat="39.6454247" lon="3.1630149">
<ele>128.23</ele>
<time>2016-10-14T08:21:46Z</time>
</trkpt>
<trkpt lat="39.6452767" lon="3.1628486">
<ele>131.43</ele>
<time>2016-10-14T08:21:51Z</time>
</trkpt>
<trkpt lat="39.6451002" lon="3.1626815">
<ele>134.25</ele>
<time>2016-10-14T08:21:56Z</time>
</trkpt>
<trkpt lat="39.6449361" lon="3.1625217">
<ele>135.50</ele>
<time>2016-10-14T08:22:01Z</time>
</trkpt>
<trkpt lat="39.6447656" lon="3.1623418">
<ele>136.24</ele>
<time>2016-10-14T08:22:06Z</time>
</trkpt>
<trkpt lat="39.6446073" lon="3.1621903">
<ele>135.93</ele>
<time>2016-10-14T08:22:10Z</time>
</trkpt>
<trkpt lat="39.6444499" lon="3.1620306">
<ele>135.97</ele>
<time>2016-10-14T08:22:14Z</time>
</trkpt>
<trkpt lat="39.6443045" lon="3.1618845">
<ele>136.63</ele>
<time>2016-10-14T08:22:18Z</time>
</trkpt>
<trkpt lat="39.6441565" lon="3.1617310">
<ele>136.98</ele>
<time>2016-10-14T08:22:22Z</time>
</trkpt>
<trkpt lat="39.6440104" lon="3.1615829">
<ele>138.73</ele>
<time>2016-10-14T08:22:26Z</time>
</trkpt>
<trkpt lat="39.6438492" lon="3.1614187">
<ele>145.13</ele>
<time>2016-10-14T08:22:31Z</time>
</trkpt>
<trkpt lat="39.6436760" lon="3.1612318">
<ele>150.17</ele>
<time>2016-10-14T08:22:36Z</time>
</trkpt>
<trkpt lat="39.6435178" lon="3.1610590">
<ele>151.35</ele>
<time>2016-10-14T08:22:40Z</time>
</trkpt>
<trkpt lat="39.6433560" lon="3.1609001">
<ele>151.10</ele>
<time>2016-10-14T08:22:44Z</time>
</trkpt>
<trkpt lat="39.6431904" lon="3.1607384">
<ele>150.91</ele>
<time>2016-10-14T08:22:48Z</time>
</trkpt>
<trkpt lat="39.6430233" lon="3.1605726">
<ele>150.65</ele>
<time>2016-10-14T08:22:52Z</time>
</trkpt>
<trkpt lat="39.6428672" lon="3.1604086">
<ele>151.47</ele>
<time>2016-10-14T08:22:56Z</time>
</trkpt>
<trkpt lat="39.6427097" lon="3.1602607">
<ele>152.25</ele>
<time>2016-10-14T08:23:00Z</time>
</trkpt>
<trkpt lat="39.6425228" lon="3.1601170">
<ele>152.36</ele>
<time>2016-10-14T08:23:04Z</time>
</trkpt>
<trkpt lat="39.6423578" lon="3.1600205">
<ele>151.81</ele>
<time>2016-10-14T08:23:07Z</time>
</trkpt>
<trkpt lat="39.6421889" lon="3.1599343">
<ele>150.91</ele>
<time>2016-10-14T08:23:10Z</time>
</trkpt>
<trkpt lat="39.6419748" lon="3.1598345">
<ele>151.02</ele>
<time>2016-10-14T08:23:14Z</time>
</trkpt>
<trkpt lat="39.6417621" lon="3.1597203">
<ele>151.91</ele>
<time>2016-10-14T08:23:18Z</time>
</trkpt>
<trkpt lat="39.6415636" lon="3.1596126">
<ele>152.90</ele>
<time>2016-10-14T08:23:22Z</time>
</trkpt>
<trkpt lat="39.6413712" lon="3.1595155">
<ele>152.78</ele>
<time>2016-10-14T08:23:26Z</time>
</trkpt>
<trkpt lat="39.6411958" lon="3.1594233">
<ele>153.01</ele>
<time>2016-10-14T08:23:30Z</time>
</trkpt>
<trkpt lat="39.6410141" lon="3.1593287">
<ele>153.93</ele>
<time>2016-10-14T08:23:34Z</time>
</trkpt>
<trkpt lat="39.6408422" lon="3.1592374">
<ele>154.73</ele>
<time>2016-10-14T08:23:37Z</time>
</trkpt>
<trkpt lat="39.6406588" lon="3.1591286">
<ele>154.78</ele>
<time>2016-10-14T08:23:41Z</time>
</trkpt>
<trkpt lat="39.6404884" lon="3.1590299">
<ele>155.15</ele>
<time>2016-10-14T08:23:45Z</time>
</trkpt>
<trkpt lat="39.6402975" lon="3.1589282">
<ele>155.80</ele>
<time>2016-10-14T08:23:49Z</time>
</trkpt>
<trkpt lat="39.6400974" lon="3.1588195">
<ele>156.31</ele>
<time>2016-10-14T08:23:53Z</time>
</trkpt>
<trkpt lat="39.6398880" lon="3.1587038">
<ele>155.36</ele>
<time>2016-10-14T08:23:57Z</time>
</trkpt>
<trkpt lat="39.6396849" lon="3.1585883">
<ele>153.67</ele>
<time>2016-10-14T08:24:01Z</time>
</trkpt>
<trkpt lat="39.6394809" lon="3.1584765">
<ele>154.06</ele>
<time>2016-10-14T08:24:05Z</time>
</trkpt>
<trkpt lat="39.6392725" lon="3.1583681">
<ele>155.14</ele>
<time>2016-10-14T08:24:09Z</time>
</trkpt>
<trkpt lat="39.6390594" lon="3.1582516">
<ele>156.36</ele>
<time>2016-10-14T08:24:13Z</time>
</trkpt>
<trkpt lat="39.6388469" lon="3.1581335">
<ele>157.32</ele>
<time>2016-10-14T08:24:17Z</time>
</trkpt>
<trkpt lat="39.6386395" lon="3.1580115">
<ele>157.90</ele>
<time>2016-10-14T08:24:21Z</time>
</trkpt>
<trkpt lat="39.6384298" lon="3.1578912">
<ele>158.24</ele>
<time>2016-10-14T08:24:25Z</time>
</trkpt>
<trkpt lat="39.6382382" lon="3.1577880">
<ele>159.01</ele>
<time>2016-10-14T08:24:29Z</time>
</trkpt>
<trkpt lat="39.6380427" lon="3.1576874">
<ele>160.31</ele>
<time>2016-10-14T08:24:33Z</time>
</trkpt>
<trkpt lat="39.6378534" lon="3.1575839">
<ele>160.25</ele>
<time>2016-10-14T08:24:37Z</time>
</trkpt>
<trkpt lat="39.6376661" lon="3.1574903">
<ele>160.26</ele>
<time>2016-10-14T08:24:41Z</time>
</trkpt>
<trkpt lat="39.6374853" lon="3.1573893">
<ele>161.88</ele>
<time>2016-10-14T08:24:45Z</time>
</trkpt>
<trkpt lat="39.6373075" lon="3.1572813">
<ele>163.93</ele>
<time>2016-10-14T08:24:49Z</time>
</trkpt>
<trkpt lat="39.6371285" lon="3.1571841">
<ele>164.54</ele>
<time>2016-10-14T08:24:53Z</time>
</trkpt>
<trkpt lat="39.6369491" lon="3.1570952">
<ele>164.67</ele>
<time>2016-10-14T08:24:57Z</time>
</trkpt>
<trkpt lat="39.6367636" lon="3.1569948">
<ele>165.00</ele>
<time>2016-10-14T08:25:01Z</time>
</trkpt>
<trkpt lat="39.6365589" lon="3.1568800">
<ele>165.77</ele>
<time>2016-10-14T08:25:05Z</time>
</trkpt>
<trkpt lat="39.6363509" lon="3.1567660">
<ele>165.50</ele>
<time>2016-10-14T08:25:09Z</time>
</trkpt>
<trkpt lat="39.6361483" lon="3.1566501">
<ele>165.83</ele>
<time>2016-10-14T08:25:13Z</time>
</trkpt>
<trkpt lat="39.6359504" lon="3.1565381">
<ele>166.62</ele>
<time>2016-10-14T08:25:17Z</time>
</trkpt>
<trkpt lat="39.6357652" lon="3.1564436">
<ele>166.54</ele>
<time>2016-10-14T08:25:21Z</time>
</trkpt>
<trkpt lat="39.6355815" lon="3.1563387">
<ele>167.32</ele>
<time>2016-10-14T08:25:25Z</time>
</trkpt>
<trkpt lat="39.6353910" lon="3.1562248">
<ele>168.46</ele>
<time>2016-10-14T08:25:29Z</time>
</trkpt>
<trkpt lat="39.6351944" lon="3.1561018">
<ele>168.60</ele>
<time>2016-10-14T08:25:33Z</time>
</trkpt>
<trkpt lat="39.6350033" lon="3.1559700">
<ele>168.72</ele>
<time>2016-10-14T08:25:37Z</time>
</trkpt>
<trkpt lat="39.6348175" lon="3.1558187">
<ele>168.74</ele>
<time>2016-10-14T08:25:41Z</time>
</trkpt>
<trkpt lat="39.6346326" lon="3.1556629">
<ele>168.75</ele>
<time>2016-10-14T08:25:45Z</time>
</trkpt>
<trkpt lat="39.6344667" lon="3.1555202">
<ele>169.61</ele>
<time>2016-10-14T08:25:49Z</time>
</trkpt>
<trkpt lat="39.6343071" lon="3.1553880">
<ele>172.36</ele>
<time>2016-10-14T08:25:53Z</time>
</trkpt>
<trkpt lat="39.6341275" lon="3.1552267">
<ele>173.62</ele>
<time>2016-10-14T08:25:58Z</time>
</trkpt>
<trkpt lat="39.6339580" lon="3.1550865">
<ele>172.62</ele>
<time>2016-10-14T08:26:03Z</time>
</trkpt>
<trkpt lat="39.6337893" lon="3.1549537">
<ele>173.28</ele>
<time>2016-10-14T08:26:08Z</time>
</trkpt>
<trkpt lat="39.6336052" lon="3.1548215">
<ele>176.01</ele>
<time>2016-10-14T08:26:13Z</time>
</trkpt>
<trkpt lat="39.6334485" lon="3.1546999">
<ele>176.55</ele>
<time>2016-10-14T08:26:18Z</time>
</trkpt>
<trkpt lat="39.6332689" lon="3.1545728">
<ele>178.86</ele>
<time>2016-10-14T08:26:23Z</time>
</trkpt>
<trkpt lat="39.6331173" lon="3.1544365">
<ele>180.16</ele>
<time>2016-10-14T08:26:27Z</time>
</trkpt>
<trkpt lat="39.6329412" lon="3.1542892">
<ele>179.78</ele>
<time>2016-10-14T08:26:32Z</time>
</trkpt>
<trkpt lat="39.6327605" lon="3.1541377">
<ele>180.71</ele>
<time>2016-10-14T08:26:37Z</time>
</trkpt>
<trkpt lat="39.6326166" lon="3.1539609">
<ele>182.76</ele>
<time>2016-10-14T08:26:41Z</time>
</trkpt>
<trkpt lat="39.6324616" lon="3.1537876">
<ele>182.54</ele>
<time>2016-10-14T08:26:45Z</time>
</trkpt>
<trkpt lat="39.6323033" lon="3.1536210">
<ele>182.81</ele>
<time>2016-10-14T08:26:49Z</time>
</trkpt>
<trkpt lat="39.6321501" lon="3.1534262">
<ele>183.81</ele>
<time>2016-10-14T08:26:54Z</time>
</trkpt>
<trkpt lat="39.6320344" lon="3.1532280">
<ele>183.76</ele>
<time>2016-10-14T08:26:59Z</time>
</trkpt>
<trkpt lat="39.6318790" lon="3.1531101">
<ele>182.05</ele>
<time>2016-10-14T08:27:21Z</time>
</trkpt>
<trkpt lat="39.6320193" lon="3.1532994">
<ele>179.37</ele>
<time>2016-10-14T08:31:25Z</time>
</trkpt>
<trkpt lat="39.6321685" lon="3.1535042">
<ele>178.17</ele>
<time>2016-10-14T08:31:30Z</time>
</trkpt>
<trkpt lat="39.6323459" lon="3.1537100">
<ele>179.39</ele>
<time>2016-10-14T08:31:34Z</time>
</trkpt>
<trkpt lat="39.6325206" lon="3.1539136">
<ele>178.15</ele>
<time>2016-10-14T08:31:37Z</time>
</trkpt>
<trkpt lat="39.6326756" lon="3.1541077">
<ele>175.36</ele>
<time>2016-10-14T08:31:40Z</time>
</trkpt>
<trkpt lat="39.6328254" lon="3.1542689">
<ele>175.24</ele>
<time>2016-10-14T08:31:43Z</time>
</trkpt>
<trkpt lat="39.6330045" lon="3.1544309">
<ele>176.42</ele>
<time>2016-10-14T08:31:47Z</time>
</trkpt>
<trkpt lat="39.6332231" lon="3.1546158">
<ele>177.97</ele>
<time>2016-10-14T08:31:50Z</time>
</trkpt>
<trkpt lat="39.6334419" lon="3.1547929">
<ele>177.14</ele>
<time>2016-10-14T08:31:53Z</time>
</trkpt>
<trkpt lat="39.6336569" lon="3.1549675">
<ele>176.07</ele>
<time>2016-10-14T08:31:56Z</time>
</trkpt>
<trkpt lat="39.6338205" lon="3.1550957">
<ele>175.51</ele>
<time>2016-10-14T08:31:58Z</time>
</trkpt>
<trkpt lat="39.6339927" lon="3.1552305">
<ele>174.30</ele>
<time>2016-10-14T08:32:00Z</time>
</trkpt>
<trkpt lat="39.6341686" lon="3.1553747">
<ele>172.71</ele>
<time>2016-10-14T08:32:02Z</time>
</trkpt>
<trkpt lat="39.6343444" lon="3.1555209">
<ele>170.60</ele>
<time>2016-10-14T08:32:04Z</time>
</trkpt>
<trkpt lat="39.6345245" lon="3.1556697">
<ele>168.87</ele>
<time>2016-10-14T08:32:06Z</time>
</trkpt>
<trkpt lat="39.6347069" lon="3.1558145">
<ele>167.47</ele>
<time>2016-10-14T08:32:08Z</time>
</trkpt>
<trkpt lat="39.6348944" lon="3.1559608">
<ele>166.05</ele>
<time>2016-10-14T08:32:10Z</time>
</trkpt>
<trkpt lat="39.6350858" lon="3.1561093">
<ele>165.07</ele>
<time>2016-10-14T08:32:12Z</time>
</trkpt>
<trkpt lat="39.6352742" lon="3.1562448">
<ele>164.56</ele>
<time>2016-10-14T08:32:14Z</time>
</trkpt>
<trkpt lat="39.6354936" lon="3.1563804">
<ele>164.09</ele>
<time>2016-10-14T08:32:16Z</time>
</trkpt>
<trkpt lat="39.6357134" lon="3.1564985">
<ele>163.86</ele>
<time>2016-10-14T08:32:18Z</time>
</trkpt>
<trkpt lat="39.6359274" lon="3.1566105">
<ele>164.64</ele>
<time>2016-10-14T08:32:20Z</time>
</trkpt>
<trkpt lat="39.6361442" lon="3.1567202">
<ele>164.23</ele>
<time>2016-10-14T08:32:22Z</time>
</trkpt>
<trkpt lat="39.6363636" lon="3.1568248">
<ele>163.85</ele>
<time>2016-10-14T08:32:24Z</time>
</trkpt>
<trkpt lat="39.6365733" lon="3.1569402">
<ele>163.63</ele>
<time>2016-10-14T08:32:26Z</time>
</trkpt>
<trkpt lat="39.6367733" lon="3.1570514">
<ele>162.58</ele>
<time>2016-10-14T08:32:28Z</time>
</trkpt>
<trkpt lat="39.6369799" lon="3.1571610">
<ele>161.89</ele>
<time>2016-10-14T08:32:30Z</time>
</trkpt>
<trkpt lat="39.6371860" lon="3.1572719">
<ele>161.10</ele>
<time>2016-10-14T08:32:32Z</time>
</trkpt>
<trkpt lat="39.6373930" lon="3.1573744">
<ele>159.85</ele>
<time>2016-10-14T08:32:34Z</time>
</trkpt>
<trkpt lat="39.6375965" lon="3.1574882">
<ele>158.57</ele>
<time>2016-10-14T08:32:36Z</time>
</trkpt>
<trkpt lat="39.6377916" lon="3.1575971">
<ele>157.70</ele>
<time>2016-10-14T08:32:38Z</time>
</trkpt>
<trkpt lat="39.6379941" lon="3.1577074">
<ele>156.67</ele>
<time>2016-10-14T08:32:40Z</time>
</trkpt>
<trkpt lat="39.6381934" lon="3.1578171">
<ele>156.47</ele>
<time>2016-10-14T08:32:42Z</time>
</trkpt>
<trkpt lat="39.6384093" lon="3.1579332">
<ele>156.01</ele>
<time>2016-10-14T08:32:44Z</time>
</trkpt>
<trkpt lat="39.6386356" lon="3.1580614">
<ele>155.92</ele>
<time>2016-10-14T08:32:46Z</time>
</trkpt>
<trkpt lat="39.6388596" lon="3.1581814">
<ele>155.44</ele>
<time>2016-10-14T08:32:48Z</time>
</trkpt>
<trkpt lat="39.6390586" lon="3.1582957">
<ele>154.91</ele>
<time>2016-10-14T08:32:50Z</time>
</trkpt>
<trkpt lat="39.6392737" lon="3.1584112">
<ele>154.33</ele>
<time>2016-10-14T08:32:52Z</time>
</trkpt>
<trkpt lat="39.6394756" lon="3.1585286">
<ele>154.11</ele>
<time>2016-10-14T08:32:54Z</time>
</trkpt>
<trkpt lat="39.6396974" lon="3.1586528">
<ele>153.92</ele>
<time>2016-10-14T08:32:56Z</time>
</trkpt>
<trkpt lat="39.6399214" lon="3.1587759">
<ele>154.71</ele>
<time>2016-10-14T08:32:58Z</time>
</trkpt>
<trkpt lat="39.6401498" lon="3.1588956">
<ele>155.65</ele>
<time>2016-10-14T08:33:00Z</time>
</trkpt>
<trkpt lat="39.6403653" lon="3.1590052">
<ele>157.03</ele>
<time>2016-10-14T08:33:02Z</time>
</trkpt>
<trkpt lat="39.6405817" lon="3.1591201">
<ele>158.29</ele>
<time>2016-10-14T08:33:04Z</time>
</trkpt>
<trkpt lat="39.6407928" lon="3.1592376">
<ele>158.84</ele>
<time>2016-10-14T08:33:06Z</time>
</trkpt>
<trkpt lat="39.6409891" lon="3.1593396">
<ele>159.00</ele>
<time>2016-10-14T08:33:08Z</time>
</trkpt>
<trkpt lat="39.6411769" lon="3.1594441">
<ele>158.64</ele>
<time>2016-10-14T08:33:10Z</time>
</trkpt>
<trkpt lat="39.6413599" lon="3.1595574">
<ele>157.49</ele>
<time>2016-10-14T08:33:12Z</time>
</trkpt>
<trkpt lat="39.6415446" lon="3.1596655">
<ele>156.41</ele>
<time>2016-10-14T08:33:14Z</time>
</trkpt>
<trkpt lat="39.6417300" lon="3.1597675">
<ele>155.85</ele>
<time>2016-10-14T08:33:16Z</time>
</trkpt>
<trkpt lat="39.6419167" lon="3.1598642">
<ele>155.35</ele>
<time>2016-10-14T08:33:18Z</time>
</trkpt>
<trkpt lat="39.6421092" lon="3.1599620">
<ele>154.68</ele>
<time>2016-10-14T08:33:20Z</time>
</trkpt>
<trkpt lat="39.6422915" lon="3.1600595">
<ele>154.11</ele>
<time>2016-10-14T08:33:22Z</time>
</trkpt>
<trkpt lat="39.6424809" lon="3.1601597">
<ele>153.19</ele>
<time>2016-10-14T08:33:24Z</time>
</trkpt>
<trkpt lat="39.6427188" lon="3.1603126">
<ele>151.39</ele>
<time>2016-10-14T08:33:27Z</time>
</trkpt>
<trkpt lat="39.6429204" lon="3.1604971">
<ele>150.31</ele>
<time>2016-10-14T08:33:30Z</time>
</trkpt>
<trkpt lat="39.6431083" lon="3.1606912">
<ele>149.40</ele>
<time>2016-10-14T08:33:33Z</time>
</trkpt>
<trkpt lat="39.6432703" lon="3.1608586">
<ele>148.58</ele>
<time>2016-10-14T08:33:36Z</time>
</trkpt>
<trkpt lat="39.6434041" lon="3.1610228">
<ele>147.86</ele>
<time>2016-10-14T08:33:39Z</time>
</trkpt>
<trkpt lat="39.6433546" lon="3.1613014">
<ele>147.13</ele>
<time>2016-10-14T08:33:43Z</time>
</trkpt>
<trkpt lat="39.6432374" lon="3.1614813">
<ele>145.52</ele>
<time>2016-10-14T08:33:46Z</time>
</trkpt>
<trkpt lat="39.6431150" lon="3.1616847">
<ele>143.69</ele>
<time>2016-10-14T08:33:49Z</time>
</trkpt>
<trkpt lat="39.6429812" lon="3.1618902">
<ele>142.63</ele>
<time>2016-10-14T08:33:52Z</time>
</trkpt>
<trkpt lat="39.6428151" lon="3.1621258">
<ele>141.60</ele>
<time>2016-10-14T08:33:55Z</time>
</trkpt>
<trkpt lat="39.6426353" lon="3.1623691">
<ele>140.10</ele>
<time>2016-10-14T08:33:58Z</time>
</trkpt>
<trkpt lat="39.6425183" lon="3.1626116">
<ele>139.61</ele>
<time>2016-10-14T08:34:01Z</time>
</trkpt>
<trkpt lat="39.6424482" lon="3.1629053">
<ele>139.38</ele>
<time>2016-10-14T08:34:04Z</time>
</trkpt>
<trkpt lat="39.6423851" lon="3.1631906">
<ele>138.53</ele>
<time>2016-10-14T08:34:07Z</time>
</trkpt>
<trkpt lat="39.6423178" lon="3.1634840">
<ele>137.79</ele>
<time>2016-10-14T08:34:10Z</time>
</trkpt>
<trkpt lat="39.6422498" lon="3.1637727">
<ele>136.85</ele>
<time>2016-10-14T08:34:13Z</time>
</trkpt>
<trkpt lat="39.6421726" lon="3.1640478">
<ele>135.91</ele>
<time>2016-10-14T08:34:16Z</time>
</trkpt>
<trkpt lat="39.6420996" lon="3.1643001">
<ele>135.53</ele>
<time>2016-10-14T08:34:19Z</time>
</trkpt>
<trkpt lat="39.6420218" lon="3.1645158">
<ele>136.13</ele>
<time>2016-10-14T08:34:22Z</time>
</trkpt>
<trkpt lat="39.6419123" lon="3.1647731">
<ele>137.36</ele>
<time>2016-10-14T08:34:26Z</time>
</trkpt>
<trkpt lat="39.6418040" lon="3.1650135">
<ele>138.69</ele>
<time>2016-10-14T08:34:30Z</time>
</trkpt>
<trkpt lat="39.6416931" lon="3.1652808">
<ele>139.16</ele>
<time>2016-10-14T08:34:34Z</time>
</trkpt>
<trkpt lat="39.6415781" lon="3.1655434">
<ele>139.10</ele>
<time>2016-10-14T08:34:37Z</time>
</trkpt>
<trkpt lat="39.6414983" lon="3.1658409">
<ele>139.25</ele>
<time>2016-10-14T08:34:40Z</time>
</trkpt>
<trkpt lat="39.6415138" lon="3.1661456">
<ele>139.11</ele>
<time>2016-10-14T08:34:43Z</time>
</trkpt>
<trkpt lat="39.6415505" lon="3.1664739">
<ele>139.73</ele>
<time>2016-10-14T08:34:46Z</time>
</trkpt>
<trkpt lat="39.6415756" lon="3.1667124">
<ele>139.51</ele>
<time>2016-10-14T08:34:48Z</time>
</trkpt>
<trkpt lat="39.6416008" lon="3.1669638">
<ele>138.80</ele>
<time>2016-10-14T08:34:50Z</time>
</trkpt>
<trkpt lat="39.6416354" lon="3.1672515">
<ele>138.23</ele>
<time>2016-10-14T08:34:52Z</time>
</trkpt>
<trkpt lat="39.6416760" lon="3.1675395">
<ele>137.14</ele>
<time>2016-10-14T08:34:54Z</time>
</trkpt>
<trkpt lat="39.6417332" lon="3.1678227">
<ele>136.59</ele>
<time>2016-10-14T08:34:56Z</time>
</trkpt>
<trkpt lat="39.6418236" lon="3.1681062">
<ele>136.60</ele>
<time>2016-10-14T08:34:58Z</time>
</trkpt>
<trkpt lat="39.6419360" lon="3.1683880">
<ele>136.92</ele>
<time>2016-10-14T08:35:00Z</time>
</trkpt>
<trkpt lat="39.6420559" lon="3.1686778">
<ele>136.46</ele>
<time>2016-10-14T08:35:02Z</time>
</trkpt>
<trkpt lat="39.6421707" lon="3.1689592">
<ele>135.67</ele>
<time>2016-10-14T08:35:04Z</time>
</trkpt>
<trkpt lat="39.6422828" lon="3.1692304">
<ele>135.13</ele>
<time>2016-10-14T08:35:06Z</time>
</trkpt>
<trkpt lat="39.6423965" lon="3.1694895">
<ele>134.26</ele>
<time>2016-10-14T08:35:08Z</time>
</trkpt>
<trkpt lat="39.6425003" lon="3.1697235">
<ele>133.30</ele>
<time>2016-10-14T08:35:10Z</time>
</trkpt>
<trkpt lat="39.6425902" lon="3.1699382">
<ele>132.44</ele>
<time>2016-10-14T08:35:12Z</time>
</trkpt>
<trkpt lat="39.6426426" lon="3.1701749">
<ele>131.68</ele>
<time>2016-10-14T08:35:14Z</time>
</trkpt>
<trkpt lat="39.6425452" lon="3.1704813">
<ele>128.45</ele>
<time>2016-10-14T08:35:17Z</time>
</trkpt>
<trkpt lat="39.6424607" lon="3.1707068">
<ele>125.82</ele>
<time>2016-10-14T08:35:19Z</time>
</trkpt>
<trkpt lat="39.6423751" lon="3.1709358">
<ele>123.12</ele>
<time>2016-10-14T08:35:21Z</time>
</trkpt>
<trkpt lat="39.6422863" lon="3.1711861">
<ele>121.10</ele>
<time>2016-10-14T08:35:23Z</time>
</trkpt>
<trkpt lat="39.6422005" lon="3.1714432">
<ele>119.33</ele>
<time>2016-10-14T08:35:25Z</time>
</trkpt>
<trkpt lat="39.6421195" lon="3.1716988">
<ele>118.11</ele>
<time>2016-10-14T08:35:27Z</time>
</trkpt>
<trkpt lat="39.6420420" lon="3.1719417">
<ele>117.53</ele>
<time>2016-10-14T08:35:29Z</time>
</trkpt>
<trkpt lat="39.6420018" lon="3.1722732">
<ele>116.45</ele>
<time>2016-10-14T08:35:32Z</time>
</trkpt>
<trkpt lat="39.6420612" lon="3.1724959">
<ele>115.34</ele>
<time>2016-10-14T08:35:34Z</time>
</trkpt>
<trkpt lat="39.6421430" lon="3.1727633">
<ele>114.55</ele>
<time>2016-10-14T08:35:36Z</time>
</trkpt>
<trkpt lat="39.6422214" lon="3.1730042">
<ele>113.85</ele>
<time>2016-10-14T08:35:38Z</time>
</trkpt>
<trkpt lat="39.6423627" lon="3.1732111">
<ele>113.17</ele>
<time>2016-10-14T08:35:41Z</time>
</trkpt>
<trkpt lat="39.6425707" lon="3.1733061">
<ele>113.18</ele>
<time>2016-10-14T08:35:44Z</time>
</trkpt>
<trkpt lat="39.6427099" lon="3.1734576">
<ele>112.49</ele>
<time>2016-10-14T08:35:47Z</time>
</trkpt>
<trkpt lat="39.6427844" lon="3.1737161">
<ele>109.89</ele>
<time>2016-10-14T08:35:50Z</time>
</trkpt>
<trkpt lat="39.6427815" lon="3.1739529">
<ele>107.90</ele>
<time>2016-10-14T08:35:52Z</time>
</trkpt>
<trkpt lat="39.6427342" lon="3.1742179">
<ele>105.07</ele>
<time>2016-10-14T08:35:54Z</time>
</trkpt>
<trkpt lat="39.6426663" lon="3.1744630">
<ele>102.05</ele>
<time>2016-10-14T08:35:56Z</time>
</trkpt>
<trkpt lat="39.6425562" lon="3.1747643">
<ele>98.44</ele>
<time>2016-10-14T08:35:59Z</time>
</trkpt>
<trkpt lat="39.6423586" lon="3.1749523">
<ele>97.17</ele>
<time>2016-10-14T08:36:02Z</time>
</trkpt>
<trkpt lat="39.6421233" lon="3.1749510">
<ele>95.83</ele>
<time>2016-10-14T08:36:05Z</time>
</trkpt>
<trkpt lat="39.6419329" lon="3.1748676">
<ele>93.24</ele>
<time>2016-10-14T08:36:08Z</time>
</trkpt>
<trkpt lat="39.6419382" lon="3.1751149">
<ele>89.84</ele>
<time>2016-10-14T08:36:16Z</time>
</trkpt>
<trkpt lat="39.6417485" lon="3.1751925">
<ele>87.79</ele>
<time>2016-10-14T08:36:25Z</time>
</trkpt>
<trkpt lat="39.6415414" lon="3.1750732">
<ele>84.41</ele>
<time>2016-10-14T08:36:28Z</time>
</trkpt>
<trkpt lat="39.6413218" lon="3.1749501">
<ele>81.94</ele>
<time>2016-10-14T08:36:31Z</time>
</trkpt>
<trkpt lat="39.6410972" lon="3.1748436">
<ele>80.12</ele>
<time>2016-10-14T08:36:34Z</time>
</trkpt>
<trkpt lat="39.6409654" lon="3.1746612">
<ele>77.98</ele>
<time>2016-10-14T08:36:37Z</time>
</trkpt>
<trkpt lat="39.6407757" lon="3.1746313">
<ele>78.22</ele>
<time>2016-10-14T08:36:47Z</time>
</trkpt>
<trkpt lat="39.6407166" lon="3.1743978">
<ele>77.93</ele>
<time>2016-10-14T08:36:52Z</time>
</trkpt>
<trkpt lat="39.6406541" lon="3.1741389">
<ele>76.38</ele>
<time>2016-10-14T08:36:55Z</time>
</trkpt>
<trkpt lat="39.6405403" lon="3.1739325">
<ele>75.83</ele>
<time>2016-10-14T08:36:58Z</time>
</trkpt>
<trkpt lat="39.6403457" lon="3.1738447">
<ele>74.64</ele>
<time>2016-10-14T08:37:01Z</time>
</trkpt>
<trkpt lat="39.6401210" lon="3.1738939">
<ele>73.66</ele>
<time>2016-10-14T08:37:04Z</time>
</trkpt>
<trkpt lat="39.6399447" lon="3.1739895">
<ele>72.86</ele>
<time>2016-10-14T08:37:06Z</time>
</trkpt>
<trkpt lat="39.6397677" lon="3.1741080">
<ele>70.51</ele>
<time>2016-10-14T08:37:08Z</time>
</trkpt>
<trkpt lat="39.6395546" lon="3.1742139">
<ele>67.97</ele>
<time>2016-10-14T08:37:11Z</time>
</trkpt>
<trkpt lat="39.6393691" lon="3.1741533">
<ele>63.75</ele>
<time>2016-10-14T08:37:14Z</time>
</trkpt>
<trkpt lat="39.6392149" lon="3.1740182">
<ele>61.05</ele>
<time>2016-10-14T08:37:17Z</time>
</trkpt>
<trkpt lat="39.6390304" lon="3.1738111">
<ele>59.72</ele>
<time>2016-10-14T08:37:21Z</time>
</trkpt>
<trkpt lat="39.6388712" lon="3.1736106">
<ele>56.14</ele>
<time>2016-10-14T08:37:24Z</time>
</trkpt>
<trkpt lat="39.6387115" lon="3.1734213">
<ele>52.87</ele>
<time>2016-10-14T08:37:27Z</time>
</trkpt>
<trkpt lat="39.6385593" lon="3.1732371">
<ele>51.35</ele>
<time>2016-10-14T08:37:30Z</time>
</trkpt>
<trkpt lat="39.6384181" lon="3.1730608">
<ele>51.35</ele>
<time>2016-10-14T08:37:33Z</time>
</trkpt>
<trkpt lat="39.6382741" lon="3.1728945">
<ele>53.63</ele>
<time>2016-10-14T08:37:36Z</time>
</trkpt>
<trkpt lat="39.6380730" lon="3.1727091">
<ele>57.27</ele>
<time>2016-10-14T08:37:40Z</time>
</trkpt>
<trkpt lat="39.6379692" lon="3.1725046">
<ele>59.21</ele>
<time>2016-10-14T08:37:43Z</time>
</trkpt>
<trkpt lat="39.6378472" lon="3.1722957">
<ele>59.44</ele>
<time>2016-10-14T08:37:46Z</time>
</trkpt>
<trkpt lat="39.6376918" lon="3.1721171">
<ele>58.93</ele>
<time>2016-10-14T08:37:49Z</time>
</trkpt>
<trkpt lat="39.6375372" lon="3.1719719">
<ele>59.08</ele>
<time>2016-10-14T08:37:52Z</time>
</trkpt>
<trkpt lat="39.6373143" lon="3.1718509">
<ele>60.03</ele>
<time>2016-10-14T08:37:56Z</time>
</trkpt>
<trkpt lat="39.6371145" lon="3.1717684">
<ele>61.66</ele>
<time>2016-10-14T08:37:59Z</time>
</trkpt>
<trkpt lat="39.6369299" lon="3.1716501">
<ele>63.32</ele>
<time>2016-10-14T08:38:02Z</time>
</trkpt>
<trkpt lat="39.6367479" lon="3.1714744">
<ele>64.38</ele>
<time>2016-10-14T08:38:05Z</time>
</trkpt>
<trkpt lat="39.6365802" lon="3.1712952">
<ele>63.43</ele>
<time>2016-10-14T08:38:08Z</time>
</trkpt>
<trkpt lat="39.6364129" lon="3.1710868">
<ele>62.37</ele>
<time>2016-10-14T08:38:11Z</time>
</trkpt>
<trkpt lat="39.6362925" lon="3.1708809">
<ele>61.95</ele>
<time>2016-10-14T08:38:14Z</time>
</trkpt>
<trkpt lat="39.6361918" lon="3.1706301">
<ele>61.07</ele>
<time>2016-10-14T08:38:17Z</time>
</trkpt>
<trkpt lat="39.6361277" lon="3.1703957">
<ele>61.10</ele>
<time>2016-10-14T08:38:20Z</time>
</trkpt>
<trkpt lat="39.6360926" lon="3.1701167">
<ele>65.50</ele>
<time>2016-10-14T08:38:24Z</time>
</trkpt>
<trkpt lat="39.6360726" lon="3.1698678">
<ele>68.22</ele>
<time>2016-10-14T08:38:27Z</time>
</trkpt>
<trkpt lat="39.6360395" lon="3.1695689">
<ele>69.80</ele>
<time>2016-10-14T08:38:31Z</time>
</trkpt>
<trkpt lat="39.6359774" lon="3.1693405">
<ele>71.24</ele>
<time>2016-10-14T08:38:34Z</time>
</trkpt>
<trkpt lat="39.6358800" lon="3.1691272">
<ele>71.78</ele>
<time>2016-10-14T08:38:37Z</time>
</trkpt>
<trkpt lat="39.6357584" lon="3.1689256">
<ele>70.82</ele>
<time>2016-10-14T08:38:40Z</time>
</trkpt>
<trkpt lat="39.6356052" lon="3.1687090">
<ele>70.12</ele>
<time>2016-10-14T08:38:43Z</time>
</trkpt>
<trkpt lat="39.6354202" lon="3.1685406">
<ele>68.08</ele>
<time>2016-10-14T08:38:46Z</time>
</trkpt>
<trkpt lat="39.6352576" lon="3.1684014">
<ele>65.09</ele>
<time>2016-10-14T08:38:49Z</time>
</trkpt>
<trkpt lat="39.6350902" lon="3.1682588">
<ele>63.63</ele>
<time>2016-10-14T08:38:52Z</time>
</trkpt>
<trkpt lat="39.6349516" lon="3.1681039">
<ele>62.34</ele>
<time>2016-10-14T08:38:55Z</time>
</trkpt>
<trkpt lat="39.6348245" lon="3.1679253">
<ele>61.54</ele>
<time>2016-10-14T08:38:58Z</time>
</trkpt>
<trkpt lat="39.6346598" lon="3.1677143">
<ele>59.82</ele>
<time>2016-10-14T08:39:02Z</time>
</trkpt>
<trkpt lat="39.6344771" lon="3.1676037">
<ele>59.39</ele>
<time>2016-10-14T08:39:05Z</time>
</trkpt>
<trkpt lat="39.6342494" lon="3.1675094">
<ele>58.56</ele>
<time>2016-10-14T08:39:08Z</time>
</trkpt>
<trkpt lat="39.6340045" lon="3.1673921">
<ele>57.23</ele>
<time>2016-10-14T08:39:11Z</time>
</trkpt>
<trkpt lat="39.6338280" lon="3.1672947">
<ele>56.27</ele>
<time>2016-10-14T08:39:13Z</time>
</trkpt>
<trkpt lat="39.6336487" lon="3.1671926">
<ele>55.25</ele>
<time>2016-10-14T08:39:15Z</time>
</trkpt>
<trkpt lat="39.6334728" lon="3.1670924">
<ele>55.59</ele>
<time>2016-10-14T08:39:17Z</time>
</trkpt>
<trkpt lat="39.6332965" lon="3.1669891">
<ele>57.08</ele>
<time>2016-10-14T08:39:19Z</time>
</trkpt>
<trkpt lat="39.6331132" lon="3.1668943">
<ele>58.46</ele>
<time>2016-10-14T08:39:21Z</time>
</trkpt>
<trkpt lat="39.6329068" lon="3.1667863">
<ele>58.70</ele>
<time>2016-10-14T08:39:24Z</time>
</trkpt>
<trkpt lat="39.6327115" lon="3.1666386">
<ele>58.15</ele>
<time>2016-10-14T08:39:28Z</time>
</trkpt>
<trkpt lat="39.6325439" lon="3.1667357">
<ele>56.69</ele>
<time>2016-10-14T08:39:31Z</time>
</trkpt>
<trkpt lat="39.6323520" lon="3.1669463">
<ele>55.01</ele>
<time>2016-10-14T08:39:34Z</time>
</trkpt>
<trkpt lat="39.6322013" lon="3.1670836">
<ele>53.08</ele>
<time>2016-10-14T08:39:36Z</time>
</trkpt>
<trkpt lat="39.6320085" lon="3.1671998">
<ele>50.63</ele>
<time>2016-10-14T08:39:38Z</time>
</trkpt>
<trkpt lat="39.6318102" lon="3.1673058">
<ele>48.30</ele>
<time>2016-10-14T08:39:40Z</time>
</trkpt>
<trkpt lat="39.6316068" lon="3.1674067">
<ele>45.50</ele>
<time>2016-10-14T08:39:42Z</time>
</trkpt>
<trkpt lat="39.6314397" lon="3.1675093">
<ele>42.17</ele>
<time>2016-10-14T08:39:44Z</time>
</trkpt>
<trkpt lat="39.6312776" lon="3.1676430">
<ele>40.22</ele>
<time>2016-10-14T08:39:46Z</time>
</trkpt>
<trkpt lat="39.6311343" lon="3.1677843">
<ele>39.28</ele>
<time>2016-10-14T08:39:48Z</time>
</trkpt>
<trkpt lat="39.6309405" lon="3.1679121">
<ele>37.81</ele>
<time>2016-10-14T08:39:51Z</time>
</trkpt>
<trkpt lat="39.6307578" lon="3.1678634">
<ele>36.47</ele>
<time>2016-10-14T08:39:54Z</time>
</trkpt>
<trkpt lat="39.6305777" lon="3.1677985">
<ele>34.96</ele>
<time>2016-10-14T08:39:57Z</time>
</trkpt>
<trkpt lat="39.6304015" lon="3.1677197">
<ele>35.79</ele>
<time>2016-10-14T08:39:59Z</time>
</trkpt>
<trkpt lat="39.6302135" lon="3.1676469">
<ele>35.22</ele>
<time>2016-10-14T08:40:02Z</time>
</trkpt>
<trkpt lat="39.6300226" lon="3.1675841">
<ele>34.61</ele>
<time>2016-10-14T08:40:05Z</time>
</trkpt>
<trkpt lat="39.6297952" lon="3.1675940">
<ele>35.47</ele>
<time>2016-10-14T08:40:09Z</time>
</trkpt>
<trkpt lat="39.6296591" lon="3.1677551">
<ele>37.56</ele>
<time>2016-10-14T08:40:12Z</time>
</trkpt>
<trkpt lat="39.6295377" lon="3.1679714">
<ele>38.71</ele>
<time>2016-10-14T08:40:15Z</time>
</trkpt>
<trkpt lat="39.6294244" lon="3.1681808">
<ele>38.85</ele>
<time>2016-10-14T08:40:18Z</time>
</trkpt>
<trkpt lat="39.6293020" lon="3.1683920">
<ele>37.54</ele>
<time>2016-10-14T08:40:21Z</time>
</trkpt>
<trkpt lat="39.6291252" lon="3.1685278">
<ele>36.26</ele>
<time>2016-10-14T08:40:24Z</time>
</trkpt>
<trkpt lat="39.6289540" lon="3.1686486">
<ele>34.92</ele>
<time>2016-10-14T08:40:27Z</time>
</trkpt>
<trkpt lat="39.6287747" lon="3.1687659">
<ele>33.74</ele>
<time>2016-10-14T08:40:30Z</time>
</trkpt>
<trkpt lat="39.6286078" lon="3.1688752">
<ele>32.92</ele>
<time>2016-10-14T08:40:33Z</time>
</trkpt>
<trkpt lat="39.6283978" lon="3.1690093">
<ele>33.21</ele>
<time>2016-10-14T08:40:37Z</time>
</trkpt>
<trkpt lat="39.6282229" lon="3.1691252">
<ele>34.69</ele>
<time>2016-10-14T08:40:40Z</time>
</trkpt>
<trkpt lat="39.6280057" lon="3.1692628">
<ele>37.72</ele>
<time>2016-10-14T08:40:44Z</time>
</trkpt>
<trkpt lat="39.6278005" lon="3.1694116">
<ele>38.85</ele>
<time>2016-10-14T08:40:48Z</time>
</trkpt>
<trkpt lat="39.6275915" lon="3.1695637">
<ele>38.75</ele>
<time>2016-10-14T08:40:52Z</time>
</trkpt>
<trkpt lat="39.6274269" lon="3.1696730">
<ele>38.00</ele>
<time>2016-10-14T08:40:55Z</time>
</trkpt>
<trkpt lat="39.6272506" lon="3.1697872">
<ele>35.36</ele>
<time>2016-10-14T08:40:58Z</time>
</trkpt>
<trkpt lat="39.6270874" lon="3.1699001">
<ele>32.85</ele>
<time>2016-10-14T08:41:01Z</time>
</trkpt>
<trkpt lat="39.6269275" lon="3.1700159">
<ele>29.68</ele>
<time>2016-10-14T08:41:04Z</time>
</trkpt>
<trkpt lat="39.6267244" lon="3.1701717">
<ele>27.82</ele>
<time>2016-10-14T08:41:08Z</time>
</trkpt>
<trkpt lat="39.6265241" lon="3.1703234">
<ele>28.17</ele>
<time>2016-10-14T08:41:12Z</time>
</trkpt>
<trkpt lat="39.6263310" lon="3.1704610">
<ele>30.41</ele>
<time>2016-10-14T08:41:16Z</time>
</trkpt>
<trkpt lat="39.6261633" lon="3.1705713">
<ele>32.49</ele>
<time>2016-10-14T08:41:19Z</time>
</trkpt>
<trkpt lat="39.6259915" lon="3.1706812">
<ele>34.02</ele>
<time>2016-10-14T08:41:22Z</time>
</trkpt>
<trkpt lat="39.6258022" lon="3.1707982">
<ele>35.17</ele>
<time>2016-10-14T08:41:25Z</time>
</trkpt>
<trkpt lat="39.6256359" lon="3.1709099">
<ele>35.71</ele>
<time>2016-10-14T08:41:28Z</time>
</trkpt>
<trkpt lat="39.6254409" lon="3.1710380">
<ele>36.43</ele>
<time>2016-10-14T08:41:32Z</time>
</trkpt>
<trkpt lat="39.6252715" lon="3.1711458">
<ele>34.28</ele>
<time>2016-10-14T08:41:35Z</time>
</trkpt>
<trkpt lat="39.6250718" lon="3.1712807">
<ele>37.32</ele>
<time>2016-10-14T08:41:39Z</time>
</trkpt>
<trkpt lat="39.6249034" lon="3.1713870">
<ele>36.28</ele>
<time>2016-10-14T08:41:42Z</time>
</trkpt>
<trkpt lat="39.6247413" lon="3.1714960">
<ele>36.26</ele>
<time>2016-10-14T08:41:45Z</time>
</trkpt>
<trkpt lat="39.6245702" lon="3.1716088">
<ele>37.66</ele>
<time>2016-10-14T08:41:48Z</time>
</trkpt>
<trkpt lat="39.6244058" lon="3.1717191">
<ele>38.91</ele>
<time>2016-10-14T08:41:51Z</time>
</trkpt>
<trkpt lat="39.6242218" lon="3.1718749">
<ele>37.07</ele>
<time>2016-10-14T08:41:55Z</time>
</trkpt>
<trkpt lat="39.6240207" lon="3.1720132">
<ele>37.89</ele>
<time>2016-10-14T08:41:59Z</time>
</trkpt>
<trkpt lat="39.6238287" lon="3.1721495">
<ele>37.42</ele>
<time>2016-10-14T08:42:03Z</time>
</trkpt>
<trkpt lat="39.6236401" lon="3.1722866">
<ele>34.22</ele>
<time>2016-10-14T08:42:07Z</time>
</trkpt>
<trkpt lat="39.6234549" lon="3.1723990">
<ele>35.89</ele>
<time>2016-10-14T08:42:11Z</time>
</trkpt>
<trkpt lat="39.6232639" lon="3.1725234">
<ele>37.82</ele>
<time>2016-10-14T08:42:15Z</time>
</trkpt>
<trkpt lat="39.6230734" lon="3.1726510">
<ele>39.50</ele>
<time>2016-10-14T08:42:19Z</time>
</trkpt>
<trkpt lat="39.6229053" lon="3.1727720">
<ele>40.18</ele>
<time>2016-10-14T08:42:23Z</time>
</trkpt>
<trkpt lat="39.6227199" lon="3.1729133">
<ele>39.98</ele>
<time>2016-10-14T08:42:27Z</time>
</trkpt>
<trkpt lat="39.6225188" lon="3.1730567">
<ele>39.98</ele>
<time>2016-10-14T08:42:31Z</time>
</trkpt>
<trkpt lat="39.6223565" lon="3.1731643">
<ele>40.35</ele>
<time>2016-10-14T08:42:34Z</time>
</trkpt>
<trkpt lat="39.6221425" lon="3.1733010">
<ele>41.90</ele>
<time>2016-10-14T08:42:38Z</time>
</trkpt>
<trkpt lat="39.6219707" lon="3.1734080">
<ele>44.35</ele>
<time>2016-10-14T08:42:41Z</time>
</trkpt>
<trkpt lat="39.6217970" lon="3.1735217">
<ele>43.72</ele>
<time>2016-10-14T08:42:44Z</time>
</trkpt>
<trkpt lat="39.6216314" lon="3.1736280">
<ele>41.00</ele>
<time>2016-10-14T08:42:47Z</time>
</trkpt>
<trkpt lat="39.6214635" lon="3.1737386">
<ele>40.54</ele>
<time>2016-10-14T08:42:50Z</time>
</trkpt>
<trkpt lat="39.6212588" lon="3.1738788">
<ele>42.22</ele>
<time>2016-10-14T08:42:54Z</time>
</trkpt>
<trkpt lat="39.6210616" lon="3.1740201">
<ele>41.86</ele>
<time>2016-10-14T08:42:58Z</time>
</trkpt>
<trkpt lat="39.6208690" lon="3.1741467">
<ele>42.77</ele>
<time>2016-10-14T08:43:02Z</time>
</trkpt>
<trkpt lat="39.6206449" lon="3.1742813">
<ele>43.52</ele>
<time>2016-10-14T08:43:06Z</time>
</trkpt>
<trkpt lat="39.6204607" lon="3.1743960">
<ele>44.19</ele>
<time>2016-10-14T08:43:09Z</time>
</trkpt>
<trkpt lat="39.6202868" lon="3.1745059">
<ele>43.10</ele>
<time>2016-10-14T08:43:12Z</time>
</trkpt>
<trkpt lat="39.6201138" lon="3.1746208">
<ele>43.98</ele>
<time>2016-10-14T08:43:15Z</time>
</trkpt>
<trkpt lat="39.6199288" lon="3.1747476">
<ele>45.13</ele>
<time>2016-10-14T08:43:18Z</time>
</trkpt>
<trkpt lat="39.6197469" lon="3.1748749">
<ele>46.11</ele>
<time>2016-10-14T08:43:21Z</time>
</trkpt>
<trkpt lat="39.6195878" lon="3.1749852">
<ele>45.60</ele>
<time>2016-10-14T08:43:24Z</time>
</trkpt>
<trkpt lat="39.6194061" lon="3.1751070">
<ele>43.81</ele>
<time>2016-10-14T08:43:28Z</time>
</trkpt>
<trkpt lat="39.6192255" lon="3.1752311">
<ele>42.56</ele>
<time>2016-10-14T08:43:33Z</time>
</trkpt>
<trkpt lat="39.6190489" lon="3.1753546">
<ele>44.42</ele>
<time>2016-10-14T08:43:38Z</time>
</trkpt>
<trkpt lat="39.6188709" lon="3.1754766">
<ele>46.88</ele>
<time>2016-10-14T08:43:43Z</time>
</trkpt>
<trkpt lat="39.6186934" lon="3.1755860">
<ele>48.51</ele>
<time>2016-10-14T08:43:48Z</time>
</trkpt>
<trkpt lat="39.6184785" lon="3.1756066">
<ele>49.90</ele>
<time>2016-10-14T08:43:53Z</time>
</trkpt>
<trkpt lat="39.6182552" lon="3.1756190">
<ele>52.52</ele>
<time>2016-10-14T08:43:58Z</time>
</trkpt>
<trkpt lat="39.6180511" lon="3.1756179">
<ele>54.20</ele>
<time>2016-10-14T08:44:03Z</time>
</trkpt>
<trkpt lat="39.6178631" lon="3.1756328">
<ele>56.97</ele>
<time>2016-10-14T08:44:08Z</time>
</trkpt>
<trkpt lat="39.6176695" lon="3.1756469">
<ele>58.28</ele>
<time>2016-10-14T08:44:13Z</time>
</trkpt>
<trkpt lat="39.6174454" lon="3.1756474">
<ele>59.20</ele>
<time>2016-10-14T08:44:18Z</time>
</trkpt>
<trkpt lat="39.6172208" lon="3.1756371">
<ele>59.89</ele>
<time>2016-10-14T08:44:22Z</time>
</trkpt>
<trkpt lat="39.6170422" lon="3.1755282">
<ele>60.17</ele>
<time>2016-10-14T08:44:25Z</time>
</trkpt>
<trkpt lat="39.6168719" lon="3.1754249">
<ele>59.93</ele>
<time>2016-10-14T08:44:27Z</time>
</trkpt>
<trkpt lat="39.6166315" lon="3.1752693">
<ele>58.50</ele>
<time>2016-10-14T08:44:30Z</time>
</trkpt>
<trkpt lat="39.6164626" lon="3.1751616">
<ele>57.70</ele>
<time>2016-10-14T08:44:32Z</time>
</trkpt>
<trkpt lat="39.6162718" lon="3.1750407">
<ele>57.02</ele>
<time>2016-10-14T08:44:34Z</time>
</trkpt>
<trkpt lat="39.6160847" lon="3.1749203">
<ele>55.05</ele>
<time>2016-10-14T08:44:36Z</time>
</trkpt>
<trkpt lat="39.6158994" lon="3.1748071">
<ele>53.78</ele>
<time>2016-10-14T08:44:38Z</time>
</trkpt>
<trkpt lat="39.6157351" lon="3.1747063">
<ele>52.42</ele>
<time>2016-10-14T08:44:40Z</time>
</trkpt>
<trkpt lat="39.6155713" lon="3.1746072">
<ele>51.42</ele>
<time>2016-10-14T08:44:42Z</time>
</trkpt>
<trkpt lat="39.6153517" lon="3.1744783">
<ele>49.53</ele>
<time>2016-10-14T08:44:45Z</time>
</trkpt>
<trkpt lat="39.6151553" lon="3.1743560">
<ele>48.05</ele>
<time>2016-10-14T08:44:48Z</time>
</trkpt>
<trkpt lat="39.6149580" lon="3.1742295">
<ele>46.23</ele>
<time>2016-10-14T08:44:51Z</time>
</trkpt>
<trkpt lat="39.6147726" lon="3.1741172">
<ele>45.08</ele>
<time>2016-10-14T08:44:54Z</time>
</trkpt>
<trkpt lat="39.6145983" lon="3.1740082">
<ele>45.34</ele>
<time>2016-10-14T08:44:57Z</time>
</trkpt>
<trkpt lat="39.6144125" lon="3.1738903">
<ele>45.48</ele>
<time>2016-10-14T08:45:00Z</time>
</trkpt>
<trkpt lat="39.6142303" lon="3.1737790">
<ele>45.44</ele>
<time>2016-10-14T08:45:03Z</time>
</trkpt>
<trkpt lat="39.6140463" lon="3.1736679">
<ele>45.24</ele>
<time>2016-10-14T08:45:06Z</time>
</trkpt>
<trkpt lat="39.6138710" lon="3.1735585">
<ele>46.24</ele>
<time>2016-10-14T08:45:09Z</time>
</trkpt>
<trkpt lat="39.6136916" lon="3.1734545">
<ele>47.10</ele>
<time>2016-10-14T08:45:12Z</time>
</trkpt>
<trkpt lat="39.6135056" lon="3.1733449">
<ele>46.90</ele>
<time>2016-10-14T08:45:15Z</time>
</trkpt>
<trkpt lat="39.6133338" lon="3.1732375">
<ele>46.43</ele>
<time>2016-10-14T08:45:18Z</time>
</trkpt>
<trkpt lat="39.6131692" lon="3.1731393">
<ele>47.11</ele>
<time>2016-10-14T08:45:21Z</time>
</trkpt>
<trkpt lat="39.6130041" lon="3.1730317">
<ele>46.92</ele>
<time>2016-10-14T08:45:24Z</time>
</trkpt>
<trkpt lat="39.6128094" lon="3.1728863">
<ele>49.42</ele>
<time>2016-10-14T08:45:28Z</time>
</trkpt>
<trkpt lat="39.6126127" lon="3.1727488">
<ele>51.56</ele>
<time>2016-10-14T08:45:32Z</time>
</trkpt>
<trkpt lat="39.6124154" lon="3.1726141">
<ele>52.20</ele>
<time>2016-10-14T08:45:36Z</time>
</trkpt>
<trkpt lat="39.6122243" lon="3.1724869">
<ele>53.13</ele>
<time>2016-10-14T08:45:40Z</time>
</trkpt>
<trkpt lat="39.6120275" lon="3.1723433">
<ele>53.53</ele>
<time>2016-10-14T08:45:44Z</time>
</trkpt>
<trkpt lat="39.6118507" lon="3.1721993">
<ele>57.11</ele>
<time>2016-10-14T08:45:48Z</time>
</trkpt>
<trkpt lat="39.6116500" lon="3.1720441">
<ele>60.58</ele>
<time>2016-10-14T08:45:52Z</time>
</trkpt>
<trkpt lat="39.6114872" lon="3.1719231">
<ele>60.07</ele>
<time>2016-10-14T08:45:55Z</time>
</trkpt>
<trkpt lat="39.6113181" lon="3.1718006">
<ele>58.86</ele>
<time>2016-10-14T08:45:58Z</time>
</trkpt>
<trkpt lat="39.6111376" lon="3.1716850">
<ele>57.23</ele>
<time>2016-10-14T08:46:01Z</time>
</trkpt>
<trkpt lat="39.6109398" lon="3.1715973">
<ele>54.19</ele>
<time>2016-10-14T08:46:04Z</time>
</trkpt>
<trkpt lat="39.6107352" lon="3.1715307">
<ele>50.44</ele>
<time>2016-10-14T08:46:07Z</time>
</trkpt>
<trkpt lat="39.6105481" lon="3.1714508">
<ele>49.39</ele>
<time>2016-10-14T08:46:10Z</time>
</trkpt>
<trkpt lat="39.6103753" lon="3.1713597">
<ele>49.03</ele>
<time>2016-10-14T08:46:13Z</time>
</trkpt>
<trkpt lat="39.6102036" lon="3.1712581">
<ele>48.17</ele>
<time>2016-10-14T08:46:16Z</time>
</trkpt>
<trkpt lat="39.6100366" lon="3.1711578">
<ele>47.80</ele>
<time>2016-10-14T08:46:19Z</time>
</trkpt>
<trkpt lat="39.6098201" lon="3.1711009">
<ele>48.06</ele>
<time>2016-10-14T08:46:23Z</time>
</trkpt>
<trkpt lat="39.6096011" lon="3.1711235">
<ele>49.80</ele>
<time>2016-10-14T08:46:27Z</time>
</trkpt>
<trkpt lat="39.6094121" lon="3.1711586">
<ele>50.69</ele>
<time>2016-10-14T08:46:30Z</time>
</trkpt>
<trkpt lat="39.6092030" lon="3.1711976">
<ele>51.30</ele>
<time>2016-10-14T08:46:33Z</time>
</trkpt>
<trkpt lat="39.6089667" lon="3.1712475">
<ele>52.59</ele>
<time>2016-10-14T08:46:37Z</time>
</trkpt>
<trkpt lat="39.6087714" lon="3.1712785">
<ele>53.08</ele>
<time>2016-10-14T08:46:40Z</time>
</trkpt>
<trkpt lat="39.6085642" lon="3.1713119">
<ele>52.31</ele>
<time>2016-10-14T08:46:43Z</time>
</trkpt>
<trkpt lat="39.6083570" lon="3.1713444">
<ele>50.84</ele>
<time>2016-10-14T08:46:46Z</time>
</trkpt>
<trkpt lat="39.6081575" lon="3.1713801">
<ele>51.34</ele>
<time>2016-10-14T08:46:49Z</time>
</trkpt>
<trkpt lat="39.6079686" lon="3.1714147">
<ele>52.18</ele>
<time>2016-10-14T08:46:52Z</time>
</trkpt>
<trkpt lat="39.6077774" lon="3.1714520">
<ele>53.85</ele>
<time>2016-10-14T08:46:55Z</time>
</trkpt>
<trkpt lat="39.6075351" lon="3.1714814">
<ele>54.38</ele>
<time>2016-10-14T08:46:59Z</time>
</trkpt>
<trkpt lat="39.6073316" lon="3.1715029">
<ele>53.00</ele>
<time>2016-10-14T08:47:02Z</time>
</trkpt>
<trkpt lat="39.6071352" lon="3.1715270">
<ele>51.28</ele>
<time>2016-10-14T08:47:05Z</time>
</trkpt>
<trkpt lat="39.6069398" lon="3.1715472">
<ele>50.34</ele>
<time>2016-10-14T08:47:08Z</time>
</trkpt>
<trkpt lat="39.6067547" lon="3.1715710">
<ele>51.26</ele>
<time>2016-10-14T08:47:11Z</time>
</trkpt>
<trkpt lat="39.6065400" lon="3.1716142">
<ele>54.18</ele>
<time>2016-10-14T08:47:15Z</time>
</trkpt>
<trkpt lat="39.6063119" lon="3.1716606">
<ele>55.56</ele>
<time>2016-10-14T08:47:19Z</time>
</trkpt>
<trkpt lat="39.6061100" lon="3.1716963">
<ele>55.54</ele>
<time>2016-10-14T08:47:22Z</time>
</trkpt>
<trkpt lat="39.6059058" lon="3.1717240">
<ele>54.41</ele>
<time>2016-10-14T08:47:25Z</time>
</trkpt>
<trkpt lat="39.6056959" lon="3.1717554">
<ele>53.75</ele>
<time>2016-10-14T08:47:28Z</time>
</trkpt>
<trkpt lat="39.6054690" lon="3.1717911">
<ele>55.23</ele>
<time>2016-10-14T08:47:31Z</time>
</trkpt>
<trkpt lat="39.6052583" lon="3.1718264">
<ele>56.22</ele>
<time>2016-10-14T08:47:34Z</time>
</trkpt>
<trkpt lat="39.6050513" lon="3.1718808">
<ele>56.46</ele>
<time>2016-10-14T08:47:37Z</time>
</trkpt>
<trkpt lat="39.6048650" lon="3.1719595">
<ele>54.46</ele>
<time>2016-10-14T08:47:40Z</time>
</trkpt>
<trkpt lat="39.6046874" lon="3.1720576">
<ele>53.12</ele>
<time>2016-10-14T08:47:43Z</time>
</trkpt>
<trkpt lat="39.6044973" lon="3.1721659">
<ele>53.12</ele>
<time>2016-10-14T08:47:46Z</time>
</trkpt>
<trkpt lat="39.6043197" lon="3.1722751">
<ele>54.40</ele>
<time>2016-10-14T08:47:49Z</time>
</trkpt>
<trkpt lat="39.6041468" lon="3.1723848">
<ele>54.79</ele>
<time>2016-10-14T08:47:52Z</time>
</trkpt>
<trkpt lat="39.6039485" lon="3.1725139">
<ele>53.50</ele>
<time>2016-10-14T08:47:56Z</time>
</trkpt>
<trkpt lat="39.6037653" lon="3.1726246">
<ele>52.63</ele>
<time>2016-10-14T08:48:00Z</time>
</trkpt>
<trkpt lat="39.6035756" lon="3.1727359">
<ele>53.46</ele>
<time>2016-10-14T08:48:04Z</time>
</trkpt>
<trkpt lat="39.6033726" lon="3.1728485">
<ele>54.17</ele>
<time>2016-10-14T08:48:09Z</time>
</trkpt>
<trkpt lat="39.6031765" lon="3.1729598">
<ele>54.69</ele>
<time>2016-10-14T08:48:12Z</time>
</trkpt>
<trkpt lat="39.6029780" lon="3.1730626">
<ele>56.42</ele>
<time>2016-10-14T08:48:15Z</time>
</trkpt>
<trkpt lat="39.6028074" lon="3.1731551">
<ele>57.20</ele>
<time>2016-10-14T08:48:18Z</time>
</trkpt>
<trkpt lat="39.6026432" lon="3.1732575">
<ele>58.98</ele>
<time>2016-10-14T08:48:21Z</time>
</trkpt>
<trkpt lat="39.6024660" lon="3.1733627">
<ele>59.29</ele>
<time>2016-10-14T08:48:24Z</time>
</trkpt>
<trkpt lat="39.6022830" lon="3.1734613">
<ele>58.81</ele>
<time>2016-10-14T08:48:27Z</time>
</trkpt>
<trkpt lat="39.6020973" lon="3.1735665">
<ele>58.48</ele>
<time>2016-10-14T08:48:30Z</time>
</trkpt>
<trkpt lat="39.6019106" lon="3.1736776">
<ele>56.69</ele>
<time>2016-10-14T08:48:33Z</time>
</trkpt>
<trkpt lat="39.6017449" lon="3.1737728">
<ele>56.67</ele>
<time>2016-10-14T08:48:36Z</time>
</trkpt>
<trkpt lat="39.6015446" lon="3.1738793">
<ele>55.44</ele>
<time>2016-10-14T08:48:40Z</time>
</trkpt>
<trkpt lat="39.6013298" lon="3.1740071">
<ele>55.64</ele>
<time>2016-10-14T08:48:44Z</time>
</trkpt>
<trkpt lat="39.6011281" lon="3.1741341">
<ele>58.17</ele>
<time>2016-10-14T08:48:48Z</time>
</trkpt>
<trkpt lat="39.6009454" lon="3.1742474">
<ele>60.13</ele>
<time>2016-10-14T08:48:51Z</time>
</trkpt>
<trkpt lat="39.6007625" lon="3.1743616">
<ele>60.62</ele>
<time>2016-10-14T08:48:54Z</time>
</trkpt>
<trkpt lat="39.6005961" lon="3.1744579">
<ele>59.39</ele>
<time>2016-10-14T08:48:57Z</time>
</trkpt>
<trkpt lat="39.6004300" lon="3.1745586">
<ele>58.91</ele>
<time>2016-10-14T08:49:00Z</time>
</trkpt>
<trkpt lat="39.6002210" lon="3.1746781">
<ele>59.89</ele>
<time>2016-10-14T08:49:04Z</time>
</trkpt>
<trkpt lat="39.6000348" lon="3.1747772">
<ele>59.27</ele>
<time>2016-10-14T08:49:07Z</time>
</trkpt>
<trkpt lat="39.5998432" lon="3.1748862">
<ele>58.78</ele>
<time>2016-10-14T08:49:10Z</time>
</trkpt>
<trkpt lat="39.5996718" lon="3.1749980">
<ele>58.80</ele>
<time>2016-10-14T08:49:13Z</time>
</trkpt>
<trkpt lat="39.5994749" lon="3.1751279">
<ele>57.95</ele>
<time>2016-10-14T08:49:17Z</time>
</trkpt>
<trkpt lat="39.5992727" lon="3.1752597">
<ele>58.57</ele>
<time>2016-10-14T08:49:21Z</time>
</trkpt>
<trkpt lat="39.5990777" lon="3.1753522">
<ele>58.38</ele>
<time>2016-10-14T08:49:25Z</time>
</trkpt>
<trkpt lat="39.5988876" lon="3.1754289">
<ele>58.33</ele>
<time>2016-10-14T08:49:28Z</time>
</trkpt>
<trkpt lat="39.5987050" lon="3.1755064">
<ele>59.04</ele>
<time>2016-10-14T08:49:31Z</time>
</trkpt>
<trkpt lat="39.5985406" lon="3.1756632">
<ele>60.43</ele>
<time>2016-10-14T08:49:34Z</time>
</trkpt>
<trkpt lat="39.5983800" lon="3.1758783">
<ele>60.43</ele>
<time>2016-10-14T08:49:37Z</time>
</trkpt>
<trkpt lat="39.5982276" lon="3.1761179">
<ele>59.61</ele>
<time>2016-10-14T08:49:40Z</time>
</trkpt>
<trkpt lat="39.5981285" lon="3.1763795">
<ele>59.06</ele>
<time>2016-10-14T08:49:43Z</time>
</trkpt>
<trkpt lat="39.5980714" lon="3.1766692">
<ele>60.49</ele>
<time>2016-10-14T08:49:46Z</time>
</trkpt>
<trkpt lat="39.5980347" lon="3.1769588">
<ele>60.69</ele>
<time>2016-10-14T08:49:49Z</time>
</trkpt>
<trkpt lat="39.5980064" lon="3.1772625">
<ele>59.30</ele>
<time>2016-10-14T08:49:52Z</time>
</trkpt>
<trkpt lat="39.5979802" lon="3.1775200">
<ele>59.10</ele>
<time>2016-10-14T08:49:55Z</time>
</trkpt>
<trkpt lat="39.5979535" lon="3.1777655">
<ele>59.56</ele>
<time>2016-10-14T08:49:58Z</time>
</trkpt>
<trkpt lat="39.5979301" lon="3.1780682">
<ele>60.08</ele>
<time>2016-10-14T08:50:02Z</time>
</trkpt>
<trkpt lat="39.5978963" lon="3.1783584">
<ele>57.43</ele>
<time>2016-10-14T08:50:06Z</time>
</trkpt>
<trkpt lat="39.5978694" lon="3.1785998">
<ele>55.59</ele>
<time>2016-10-14T08:50:09Z</time>
</trkpt>
<trkpt lat="39.5978441" lon="3.1788472">
<ele>54.78</ele>
<time>2016-10-14T08:50:12Z</time>
</trkpt>
<trkpt lat="39.5978133" lon="3.1791208">
<ele>55.27</ele>
<time>2016-10-14T08:50:16Z</time>
</trkpt>
<trkpt lat="39.5977804" lon="3.1794175">
<ele>55.85</ele>
<time>2016-10-14T08:50:20Z</time>
</trkpt>
<trkpt lat="39.5977540" lon="3.1797092">
<ele>57.08</ele>
<time>2016-10-14T08:50:24Z</time>
</trkpt>
<trkpt lat="39.5977169" lon="3.1799692">
<ele>57.61</ele>
<time>2016-10-14T08:50:28Z</time>
</trkpt>
<trkpt lat="39.5975757" lon="3.1801843">
<ele>57.54</ele>
<time>2016-10-14T08:50:34Z</time>
</trkpt>
<trkpt lat="39.5973956" lon="3.1803463">
<ele>59.39</ele>
<time>2016-10-14T08:50:39Z</time>
</trkpt>
<trkpt lat="39.5972124" lon="3.1804980">
<ele>60.56</ele>
<time>2016-10-14T08:50:44Z</time>
</trkpt>
<trkpt lat="39.5970364" lon="3.1806312">
<ele>62.51</ele>
<time>2016-10-14T08:50:49Z</time>
</trkpt>
<trkpt lat="39.5968495" lon="3.1807694">
<ele>62.67</ele>
<time>2016-10-14T08:50:55Z</time>
</trkpt>
<trkpt lat="39.5967044" lon="3.1809077">
<ele>63.13</ele>
<time>2016-10-14T08:51:00Z</time>
</trkpt>
<trkpt lat="39.5965679" lon="3.1810715">
<ele>64.18</ele>
<time>2016-10-14T08:51:05Z</time>
</trkpt>
<trkpt lat="39.5964395" lon="3.1812568">
<ele>65.60</ele>
<time>2016-10-14T08:51:10Z</time>
</trkpt>
<trkpt lat="39.5963129" lon="3.1814577">
<ele>67.52</ele>
<time>2016-10-14T08:51:15Z</time>
</trkpt>
<trkpt lat="39.5962094" lon="3.1816637">
<ele>68.10</ele>
<time>2016-10-14T08:51:20Z</time>
</trkpt>
<trkpt lat="39.5961100" lon="3.1818676">
<ele>68.52</ele>
<time>2016-10-14T08:51:25Z</time>
</trkpt>
<trkpt lat="39.5959804" lon="3.1820399">
<ele>68.88</ele>
<time>2016-10-14T08:51:30Z</time>
</trkpt>
<trkpt lat="39.5958387" lon="3.1821981">
<ele>69.76</ele>
<time>2016-10-14T08:51:35Z</time>
</trkpt>
<trkpt lat="39.5957538" lon="3.1824396">
<ele>71.67</ele>
<time>2016-10-14T08:51:40Z</time>
</trkpt>
<trkpt lat="39.5957843" lon="3.1826751">
<ele>72.13</ele>
<time>2016-10-14T08:51:45Z</time>
</trkpt>
<trkpt lat="39.5957089" lon="3.1829442">
<ele>72.95</ele>
<time>2016-10-14T08:51:50Z</time>
</trkpt>
<trkpt lat="39.5955054" lon="3.1831105">
<ele>72.75</ele>
<time>2016-10-14T08:51:54Z</time>
</trkpt>
<trkpt lat="39.5953295" lon="3.1832329">
<ele>73.25</ele>
<time>2016-10-14T08:51:57Z</time>
</trkpt>
<trkpt lat="39.5951176" lon="3.1833669">
<ele>75.24</ele>
<time>2016-10-14T08:52:00Z</time>
</trkpt>
<trkpt lat="39.5949045" lon="3.1835148">
<ele>75.77</ele>
<time>2016-10-14T08:52:03Z</time>
</trkpt>
<trkpt lat="39.5946705" lon="3.1836808">
<ele>75.02</ele>
<time>2016-10-14T08:52:06Z</time>
</trkpt>
<trkpt lat="39.5944348" lon="3.1838309">
<ele>73.21</ele>
<time>2016-10-14T08:52:09Z</time>
</trkpt>
<trkpt lat="39.5942015" lon="3.1839759">
<ele>71.13</ele>
<time>2016-10-14T08:52:12Z</time>
</trkpt>
<trkpt lat="39.5939938" lon="3.1841131">
<ele>69.22</ele>
<time>2016-10-14T08:52:15Z</time>
</trkpt>
<trkpt lat="39.5938131" lon="3.1842438">
<ele>67.92</ele>
<time>2016-10-14T08:52:18Z</time>
</trkpt>
<trkpt lat="39.5936498" lon="3.1843688">
<ele>68.14</ele>
<time>2016-10-14T08:52:21Z</time>
</trkpt>
<trkpt lat="39.5934767" lon="3.1844929">
<ele>68.95</ele>
<time>2016-10-14T08:52:24Z</time>
</trkpt>
<trkpt lat="39.5932940" lon="3.1846211">
<ele>70.06</ele>
<time>2016-10-14T08:52:28Z</time>
</trkpt>
<trkpt lat="39.5931283" lon="3.1847281">
<ele>70.85</ele>
<time>2016-10-14T08:52:32Z</time>
</trkpt>
<trkpt lat="39.5929405" lon="3.1848588">
<ele>72.60</ele>
<time>2016-10-14T08:52:36Z</time>
</trkpt>
<trkpt lat="39.5927675" lon="3.1849867">
<ele>73.98</ele>
<time>2016-10-14T08:52:40Z</time>
</trkpt>
<trkpt lat="39.5925693" lon="3.1851300">
<ele>74.48</ele>
<time>2016-10-14T08:52:44Z</time>
</trkpt>
<trkpt lat="39.5924029" lon="3.1852313">
<ele>74.22</ele>
<time>2016-10-14T08:52:47Z</time>
</trkpt>
<trkpt lat="39.5922293" lon="3.1853453">
<ele>73.40</ele>
<time>2016-10-14T08:52:50Z</time>
</trkpt>
<trkpt lat="39.5920630" lon="3.1854604">
<ele>72.79</ele>
<time>2016-10-14T08:52:53Z</time>
</trkpt>
<trkpt lat="39.5918904" lon="3.1855795">
<ele>71.98</ele>
<time>2016-10-14T08:52:56Z</time>
</trkpt>
<trkpt lat="39.5917153" lon="3.1857098">
<ele>72.92</ele>
<time>2016-10-14T08:52:59Z</time>
</trkpt>
<trkpt lat="39.5915301" lon="3.1858473">
<ele>74.25</ele>
<time>2016-10-14T08:53:02Z</time>
</trkpt>
<trkpt lat="39.5913411" lon="3.1859823">
<ele>74.66</ele>
<time>2016-10-14T08:53:05Z</time>
</trkpt>
<trkpt lat="39.5911428" lon="3.1861306">
<ele>74.76</ele>
<time>2016-10-14T08:53:08Z</time>
</trkpt>
<trkpt lat="39.5909484" lon="3.1862775">
<ele>74.47</ele>
<time>2016-10-14T08:53:11Z</time>
</trkpt>
<trkpt lat="39.5907549" lon="3.1864143">
<ele>73.79</ele>
<time>2016-10-14T08:53:14Z</time>
</trkpt>
<trkpt lat="39.5905528" lon="3.1865450">
<ele>74.21</ele>
<time>2016-10-14T08:53:17Z</time>
</trkpt>
<trkpt lat="39.5903667" lon="3.1866825">
<ele>74.57</ele>
<time>2016-10-14T08:53:20Z</time>
</trkpt>
<trkpt lat="39.5901876" lon="3.1868327">
<ele>73.25</ele>
<time>2016-10-14T08:53:23Z</time>
</trkpt>
<trkpt lat="39.5900170" lon="3.1870089">
<ele>72.35</ele>
<time>2016-10-14T08:53:26Z</time>
</trkpt>
<trkpt lat="39.5898593" lon="3.1872000">
<ele>70.93</ele>
<time>2016-10-14T08:53:29Z</time>
</trkpt>
<trkpt lat="39.5897071" lon="3.1874313">
<ele>69.91</ele>
<time>2016-10-14T08:53:32Z</time>
</trkpt>
<trkpt lat="39.5895521" lon="3.1876601">
<ele>68.71</ele>
<time>2016-10-14T08:53:35Z</time>
</trkpt>
<trkpt lat="39.5893908" lon="3.1879021">
<ele>67.60</ele>
<time>2016-10-14T08:53:38Z</time>
</trkpt>
<trkpt lat="39.5892284" lon="3.1881477">
<ele>66.38</ele>
<time>2016-10-14T08:53:41Z</time>
</trkpt>
<trkpt lat="39.5890648" lon="3.1883897">
<ele>66.42</ele>
<time>2016-10-14T08:53:44Z</time>
</trkpt>
<trkpt lat="39.5889104" lon="3.1886020">
<ele>67.14</ele>
<time>2016-10-14T08:53:47Z</time>
</trkpt>
<trkpt lat="39.5887591" lon="3.1888024">
<ele>67.04</ele>
<time>2016-10-14T08:53:50Z</time>
</trkpt>
<trkpt lat="39.5886205" lon="3.1889925">
<ele>67.25</ele>
<time>2016-10-14T08:53:53Z</time>
</trkpt>
<trkpt lat="39.5884695" lon="3.1891875">
<ele>67.67</ele>
<time>2016-10-14T08:53:56Z</time>
</trkpt>
<trkpt lat="39.5883236" lon="3.1893833">
<ele>68.76</ele>
<time>2016-10-14T08:53:59Z</time>
</trkpt>
<trkpt lat="39.5881770" lon="3.1895818">
<ele>68.78</ele>
<time>2016-10-14T08:54:02Z</time>
</trkpt>
<trkpt lat="39.5880337" lon="3.1897857">
<ele>68.28</ele>
<time>2016-10-14T08:54:05Z</time>
</trkpt>
<trkpt lat="39.5878767" lon="3.1899941">
<ele>68.22</ele>
<time>2016-10-14T08:54:08Z</time>
</trkpt>
<trkpt lat="39.5877123" lon="3.1902077">
<ele>68.46</ele>
<time>2016-10-14T08:54:11Z</time>
</trkpt>
<trkpt lat="39.5875572" lon="3.1904107">
<ele>68.49</ele>
<time>2016-10-14T08:54:14Z</time>
</trkpt>
<trkpt lat="39.5874032" lon="3.1906059">
<ele>68.16</ele>
<time>2016-10-14T08:54:17Z</time>
</trkpt>
<trkpt lat="39.5872429" lon="3.1908006">
<ele>66.94</ele>
<time>2016-10-14T08:54:20Z</time>
</trkpt>
<trkpt lat="39.5870970" lon="3.1909773">
<ele>66.60</ele>
<time>2016-10-14T08:54:23Z</time>
</trkpt>
<trkpt lat="39.5869611" lon="3.1911554">
<ele>65.41</ele>
<time>2016-10-14T08:54:26Z</time>
</trkpt>
<trkpt lat="39.5868050" lon="3.1913724">
<ele>65.15</ele>
<time>2016-10-14T08:54:30Z</time>
</trkpt>
<trkpt lat="39.5866765" lon="3.1915407">
<ele>65.96</ele>
<time>2016-10-14T08:54:33Z</time>
</trkpt>
<trkpt lat="39.5864992" lon="3.1917465">
<ele>67.34</ele>
<time>2016-10-14T08:54:37Z</time>
</trkpt>
<trkpt lat="39.5863222" lon="3.1919564">
<ele>67.27</ele>
<time>2016-10-14T08:54:41Z</time>
</trkpt>
<trkpt lat="39.5861715" lon="3.1921418">
<ele>67.41</ele>
<time>2016-10-14T08:54:44Z</time>
</trkpt>
<trkpt lat="39.5860244" lon="3.1923420">
<ele>66.55</ele>
<time>2016-10-14T08:54:47Z</time>
</trkpt>
<trkpt lat="39.5858884" lon="3.1925354">
<ele>65.55</ele>
<time>2016-10-14T08:54:50Z</time>
</trkpt>
<trkpt lat="39.5857212" lon="3.1927546">
<ele>65.98</ele>
<time>2016-10-14T08:54:54Z</time>
</trkpt>
<trkpt lat="39.5855726" lon="3.1929028">
<ele>67.35</ele>
<time>2016-10-14T08:54:57Z</time>
</trkpt>
<trkpt lat="39.5854221" lon="3.1930416">
<ele>67.76</ele>
<time>2016-10-14T08:55:00Z</time>
</trkpt>
<trkpt lat="39.5852336" lon="3.1932065">
<ele>68.68</ele>
<time>2016-10-14T08:55:04Z</time>
</trkpt>
<trkpt lat="39.5850593" lon="3.1933762">
<ele>68.60</ele>
<time>2016-10-14T08:55:08Z</time>
</trkpt>
<trkpt lat="39.5849054" lon="3.1935491">
<ele>68.40</ele>
<time>2016-10-14T08:55:12Z</time>
</trkpt>
<trkpt lat="39.5847257" lon="3.1937231">
<ele>69.41</ele>
<time>2016-10-14T08:55:17Z</time>
</trkpt>
<trkpt lat="39.5845628" lon="3.1938571">
<ele>71.10</ele>
<time>2016-10-14T08:55:21Z</time>
</trkpt>
<trkpt lat="39.5843965" lon="3.1939974">
<ele>72.93</ele>
<time>2016-10-14T08:55:25Z</time>
</trkpt>
<trkpt lat="39.5842132" lon="3.1941493">
<ele>73.26</ele>
<time>2016-10-14T08:55:29Z</time>
</trkpt>
<trkpt lat="39.5840284" lon="3.1942940">
<ele>72.47</ele>
<time>2016-10-14T08:55:33Z</time>
</trkpt>
<trkpt lat="39.5838660" lon="3.1944255">
<ele>72.36</ele>
<time>2016-10-14T08:55:37Z</time>
</trkpt>
<trkpt lat="39.5836760" lon="3.1945771">
<ele>73.02</ele>
<time>2016-10-14T08:55:41Z</time>
</trkpt>
<trkpt lat="39.5834915" lon="3.1947283">
<ele>73.16</ele>
<time>2016-10-14T08:55:45Z</time>
</trkpt>
<trkpt lat="39.5833234" lon="3.1948788">
<ele>73.75</ele>
<time>2016-10-14T08:55:49Z</time>
</trkpt>
<trkpt lat="39.5831431" lon="3.1950158">
<ele>74.22</ele>
<time>2016-10-14T08:55:53Z</time>
</trkpt>
<trkpt lat="39.5829563" lon="3.1951246">
<ele>74.83</ele>
<time>2016-10-14T08:55:57Z</time>
</trkpt>
<trkpt lat="39.5827660" lon="3.1952415">
<ele>74.71</ele>
<time>2016-10-14T08:56:01Z</time>
</trkpt>
<trkpt lat="39.5825653" lon="3.1953539">
<ele>74.94</ele>
<time>2016-10-14T08:56:05Z</time>
</trkpt>
<trkpt lat="39.5823506" lon="3.1954777">
<ele>74.81</ele>
<time>2016-10-14T08:56:08Z</time>
</trkpt>
<trkpt lat="39.5821427" lon="3.1956089">
<ele>74.61</ele>
<time>2016-10-14T08:56:12Z</time>
</trkpt>
<trkpt lat="39.5819381" lon="3.1957586">
<ele>74.32</ele>
<time>2016-10-14T08:56:16Z</time>
</trkpt>
<trkpt lat="39.5817427" lon="3.1959158">
<ele>74.05</ele>
<time>2016-10-14T08:56:20Z</time>
</trkpt>
<trkpt lat="39.5815464" lon="3.1960757">
<ele>73.60</ele>
<time>2016-10-14T08:56:24Z</time>
</trkpt>
<trkpt lat="39.5813466" lon="3.1962297">
<ele>73.67</ele>
<time>2016-10-14T08:56:28Z</time>
</trkpt>
<trkpt lat="39.5811423" lon="3.1963784">
<ele>74.21</ele>
<time>2016-10-14T08:56:32Z</time>
</trkpt>
<trkpt lat="39.5809448" lon="3.1965318">
<ele>74.60</ele>
<time>2016-10-14T08:56:36Z</time>
</trkpt>
<trkpt lat="39.5807878" lon="3.1966562">
<ele>75.00</ele>
<time>2016-10-14T08:56:39Z</time>
</trkpt>
<trkpt lat="39.5806327" lon="3.1967825">
<ele>75.81</ele>
<time>2016-10-14T08:56:42Z</time>
</trkpt>
<trkpt lat="39.5804656" lon="3.1969182">
<ele>75.62</ele>
<time>2016-10-14T08:56:45Z</time>
</trkpt>
<trkpt lat="39.5802902" lon="3.1970802">
<ele>74.52</ele>
<time>2016-10-14T08:56:48Z</time>
</trkpt>
<trkpt lat="39.5801398" lon="3.1972318">
<ele>73.28</ele>
<time>2016-10-14T08:56:51Z</time>
</trkpt>
<trkpt lat="39.5799792" lon="3.1973917">
<ele>74.20</ele>
<time>2016-10-14T08:56:54Z</time>
</trkpt>
<trkpt lat="39.5798178" lon="3.1975794">
<ele>75.36</ele>
<time>2016-10-14T08:56:57Z</time>
</trkpt>
<trkpt lat="39.5796329" lon="3.1977493">
<ele>75.42</ele>
<time>2016-10-14T08:57:00Z</time>
</trkpt>
<trkpt lat="39.5794556" lon="3.1978981">
<ele>75.15</ele>
<time>2016-10-14T08:57:03Z</time>
</trkpt>
<trkpt lat="39.5792758" lon="3.1980634">
<ele>75.07</ele>
<time>2016-10-14T08:57:06Z</time>
</trkpt>
<trkpt lat="39.5791116" lon="3.1982131">
<ele>75.30</ele>
<time>2016-10-14T08:57:09Z</time>
</trkpt>
<trkpt lat="39.5789452" lon="3.1983715">
<ele>75.72</ele>
<time>2016-10-14T08:57:12Z</time>
</trkpt>
<trkpt lat="39.5787684" lon="3.1985412">
<ele>76.64</ele>
<time>2016-10-14T08:57:15Z</time>
</trkpt>
<trkpt lat="39.5785820" lon="3.1987097">
<ele>77.63</ele>
<time>2016-10-14T08:57:18Z</time>
</trkpt>
<trkpt lat="39.5784004" lon="3.1988739">
<ele>78.67</ele>
<time>2016-10-14T08:57:21Z</time>
</trkpt>
<trkpt lat="39.5782260" lon="3.1990521">
<ele>77.94</ele>
<time>2016-10-14T08:57:24Z</time>
</trkpt>
<trkpt lat="39.5780510" lon="3.1992133">
<ele>76.78</ele>
<time>2016-10-14T08:57:27Z</time>
</trkpt>
<trkpt lat="39.5778747" lon="3.1993656">
<ele>76.37</ele>
<time>2016-10-14T08:57:30Z</time>
</trkpt>
<trkpt lat="39.5777085" lon="3.1995019">
<ele>76.36</ele>
<time>2016-10-14T08:57:33Z</time>
</trkpt>
<trkpt lat="39.5775393" lon="3.1996663">
<ele>75.50</ele>
<time>2016-10-14T08:57:36Z</time>
</trkpt>
<trkpt lat="39.5773913" lon="3.1998217">
<ele>75.16</ele>
<time>2016-10-14T08:57:39Z</time>
</trkpt>
<trkpt lat="39.5772455" lon="3.1999734">
<ele>75.14</ele>
<time>2016-10-14T08:57:42Z</time>
</trkpt>
<trkpt lat="39.5771062" lon="3.2001277">
<ele>75.48</ele>
<time>2016-10-14T08:57:45Z</time>
</trkpt>
<trkpt lat="39.5769626" lon="3.2002950">
<ele>75.65</ele>
<time>2016-10-14T08:57:48Z</time>
</trkpt>
<trkpt lat="39.5768183" lon="3.2004716">
<ele>75.97</ele>
<time>2016-10-14T08:57:51Z</time>
</trkpt>
<trkpt lat="39.5766855" lon="3.2006413">
<ele>76.55</ele>
<time>2016-10-14T08:57:54Z</time>
</trkpt>
<trkpt lat="39.5765489" lon="3.2007970">
<ele>76.42</ele>
<time>2016-10-14T08:57:57Z</time>
</trkpt>
<trkpt lat="39.5763773" lon="3.2009866">
<ele>76.55</ele>
<time>2016-10-14T08:58:01Z</time>
</trkpt>
<trkpt lat="39.5762032" lon="3.2011733">
<ele>76.52</ele>
<time>2016-10-14T08:58:05Z</time>
</trkpt>
<trkpt lat="39.5760468" lon="3.2013461">
<ele>78.09</ele>
<time>2016-10-14T08:58:09Z</time>
</trkpt>
<trkpt lat="39.5758827" lon="3.2015235">
<ele>79.63</ele>
<time>2016-10-14T08:58:13Z</time>
</trkpt>
<trkpt lat="39.5757234" lon="3.2017068">
<ele>80.75</ele>
<time>2016-10-14T08:58:17Z</time>
</trkpt>
<trkpt lat="39.5755739" lon="3.2018956">
<ele>81.72</ele>
<time>2016-10-14T08:58:21Z</time>
</trkpt>
<trkpt lat="39.5754096" lon="3.2020797">
<ele>81.33</ele>
<time>2016-10-14T08:58:25Z</time>
</trkpt>
<trkpt lat="39.5752553" lon="3.2022438">
<ele>80.52</ele>
<time>2016-10-14T08:58:29Z</time>
</trkpt>
<trkpt lat="39.5751147" lon="3.2024070">
<ele>80.23</ele>
<time>2016-10-14T08:58:33Z</time>
</trkpt>
<trkpt lat="39.5749616" lon="3.2025853">
<ele>80.38</ele>
<time>2016-10-14T08:58:38Z</time>
</trkpt>
<trkpt lat="39.5747913" lon="3.2024507">
<ele>79.60</ele>
<time>2016-10-14T08:58:48Z</time>
</trkpt>
<trkpt lat="39.5746927" lon="3.2022097">
<ele>79.27</ele>
<time>2016-10-14T08:58:54Z</time>
</trkpt>
<trkpt lat="39.5746270" lon="3.2019878">
<ele>78.91</ele>
<time>2016-10-14T09:01:50Z</time>
</trkpt>
<trkpt lat="39.5745191" lon="3.2017659">
<ele>75.80</ele>
<time>2016-10-14T09:01:56Z</time>
</trkpt>
<trkpt lat="39.5744488" lon="3.2015114">
<ele>72.11</ele>
<time>2016-10-14T09:02:01Z</time>
</trkpt>
<trkpt lat="39.5742993" lon="3.2013396">
<ele>71.28</ele>
<time>2016-10-14T09:02:45Z</time>
</trkpt>
<trkpt lat="39.5741368" lon="3.2014988">
<ele>71.80</ele>
<time>2016-10-14T09:02:51Z</time>
</trkpt>
<trkpt lat="39.5739452" lon="3.2016183">
<ele>74.73</ele>
<time>2016-10-14T09:02:56Z</time>
</trkpt>
<trkpt lat="39.5737571" lon="3.2017392">
<ele>77.55</ele>
<time>2016-10-14T09:03:00Z</time>
</trkpt>
<trkpt lat="39.5735568" lon="3.2018621">
<ele>80.05</ele>
<time>2016-10-14T09:03:04Z</time>
</trkpt>
<trkpt lat="39.5733906" lon="3.2019721">
<ele>82.84</ele>
<time>2016-10-14T09:03:07Z</time>
</trkpt>
<trkpt lat="39.5731809" lon="3.2020939">
<ele>86.33</ele>
<time>2016-10-14T09:03:11Z</time>
</trkpt>
<trkpt lat="39.5730133" lon="3.2021834">
<ele>87.07</ele>
<time>2016-10-14T09:03:14Z</time>
</trkpt>
<trkpt lat="39.5728376" lon="3.2022712">
<ele>87.17</ele>
<time>2016-10-14T09:03:17Z</time>
</trkpt>
<trkpt lat="39.5726188" lon="3.2023764">
<ele>85.45</ele>
<time>2016-10-14T09:03:21Z</time>
</trkpt>
<trkpt lat="39.5724325" lon="3.2024767">
<ele>85.00</ele>
<time>2016-10-14T09:03:24Z</time>
</trkpt>
<trkpt lat="39.5722534" lon="3.2025773">
<ele>83.27</ele>
<time>2016-10-14T09:03:27Z</time>
</trkpt>
<trkpt lat="39.5720728" lon="3.2026824">
<ele>81.75</ele>
<time>2016-10-14T09:03:30Z</time>
</trkpt>
<trkpt lat="39.5718816" lon="3.2027790">
<ele>81.89</ele>
<time>2016-10-14T09:03:33Z</time>
</trkpt>
<trkpt lat="39.5717086" lon="3.2028793">
<ele>81.55</ele>
<time>2016-10-14T09:03:36Z</time>
</trkpt>
<trkpt lat="39.5715281" lon="3.2029772">
<ele>81.60</ele>
<time>2016-10-14T09:03:39Z</time>
</trkpt>
<trkpt lat="39.5713476" lon="3.2030387">
<ele>81.94</ele>
<time>2016-10-14T09:03:42Z</time>
</trkpt>
<trkpt lat="39.5711663" lon="3.2031712">
<ele>79.94</ele>
<time>2016-10-14T09:03:47Z</time>
</trkpt>
<trkpt lat="39.5710051" lon="3.2032883">
<ele>79.40</ele>
<time>2016-10-14T09:03:52Z</time>
</trkpt>
<trkpt lat="39.5708330" lon="3.2033882">
<ele>75.68</ele>
<time>2016-10-14T09:03:56Z</time>
</trkpt>
<trkpt lat="39.5706471" lon="3.2034958">
<ele>73.49</ele>
<time>2016-10-14T09:04:00Z</time>
</trkpt>
<trkpt lat="39.5704456" lon="3.2036242">
<ele>73.48</ele>
<time>2016-10-14T09:04:05Z</time>
</trkpt>
<trkpt lat="39.5702569" lon="3.2037264">
<ele>73.71</ele>
<time>2016-10-14T09:04:09Z</time>
</trkpt>
<trkpt lat="39.5700912" lon="3.2038225">
<ele>74.34</ele>
<time>2016-10-14T09:04:13Z</time>
</trkpt>
<trkpt lat="39.5699267" lon="3.2039300">
<ele>76.78</ele>
<time>2016-10-14T09:04:18Z</time>
</trkpt>
<trkpt lat="39.5697432" lon="3.2040460">
<ele>80.76</ele>
<time>2016-10-14T09:04:23Z</time>
</trkpt>
<trkpt lat="39.5695537" lon="3.2041503">
<ele>81.39</ele>
<time>2016-10-14T09:04:28Z</time>
</trkpt>
<trkpt lat="39.5693615" lon="3.2042782">
<ele>80.94</ele>
<time>2016-10-14T09:04:33Z</time>
</trkpt>
<trkpt lat="39.5691624" lon="3.2044100">
<ele>81.89</ele>
<time>2016-10-14T09:04:38Z</time>
</trkpt>
<trkpt lat="39.5689840" lon="3.2044875">
<ele>82.41</ele>
<time>2016-10-14T09:04:42Z</time>
</trkpt>
<trkpt lat="39.5687812" lon="3.2045795">
<ele>82.82</ele>
<time>2016-10-14T09:04:46Z</time>
</trkpt>
<trkpt lat="39.5685928" lon="3.2046765">
<ele>82.77</ele>
<time>2016-10-14T09:04:50Z</time>
</trkpt>
<trkpt lat="39.5684059" lon="3.2047878">
<ele>82.65</ele>
<time>2016-10-14T09:04:54Z</time>
</trkpt>
<trkpt lat="39.5682022" lon="3.2048956">
<ele>82.45</ele>
<time>2016-10-14T09:04:58Z</time>
</trkpt>
<trkpt lat="39.5679902" lon="3.2049687">
<ele>82.26</ele>
<time>2016-10-14T09:05:02Z</time>
</trkpt>
<trkpt lat="39.5678159" lon="3.2050812">
<ele>82.36</ele>
<time>2016-10-14T09:05:06Z</time>
</trkpt>
<trkpt lat="39.5676331" lon="3.2051835">
<ele>82.32</ele>
<time>2016-10-14T09:05:10Z</time>
</trkpt>
<trkpt lat="39.5674374" lon="3.2052771">
<ele>82.03</ele>
<time>2016-10-14T09:05:14Z</time>
</trkpt>
<trkpt lat="39.5672315" lon="3.2054012">
<ele>83.35</ele>
<time>2016-10-14T09:05:18Z</time>
</trkpt>
<trkpt lat="39.5670454" lon="3.2055383">
<ele>82.95</ele>
<time>2016-10-14T09:05:22Z</time>
</trkpt>
<trkpt lat="39.5668331" lon="3.2056532">
<ele>82.57</ele>
<time>2016-10-14T09:05:26Z</time>
</trkpt>
<trkpt lat="39.5666144" lon="3.2057631">
<ele>82.18</ele>
<time>2016-10-14T09:05:30Z</time>
</trkpt>
<trkpt lat="39.5663969" lon="3.2058929">
<ele>80.04</ele>
<time>2016-10-14T09:05:34Z</time>
</trkpt>
<trkpt lat="39.5661877" lon="3.2060254">
<ele>77.96</ele>
<time>2016-10-14T09:05:38Z</time>
</trkpt>
<trkpt lat="39.5659929" lon="3.2061602">
<ele>77.65</ele>
<time>2016-10-14T09:05:42Z</time>
</trkpt>
<trkpt lat="39.5657783" lon="3.2062729">
<ele>81.24</ele>
<time>2016-10-14T09:05:46Z</time>
</trkpt>
<trkpt lat="39.5655866" lon="3.2063742">
<ele>84.86</ele>
<time>2016-10-14T09:05:50Z</time>
</trkpt>
<trkpt lat="39.5653857" lon="3.2065015">
<ele>86.02</ele>
<time>2016-10-14T09:05:54Z</time>
</trkpt>
<trkpt lat="39.5651936" lon="3.2066090">
<ele>86.68</ele>
<time>2016-10-14T09:05:58Z</time>
</trkpt>
<trkpt lat="39.5650181" lon="3.2067243">
<ele>88.23</ele>
<time>2016-10-14T09:06:02Z</time>
</trkpt>
<trkpt lat="39.5648283" lon="3.2068472">
<ele>88.63</ele>
<time>2016-10-14T09:06:06Z</time>
</trkpt>
<trkpt lat="39.5646188" lon="3.2069839">
<ele>90.23</ele>
<time>2016-10-14T09:06:10Z</time>
</trkpt>
<trkpt lat="39.5644129" lon="3.2071038">
<ele>89.53</ele>
<time>2016-10-14T09:06:14Z</time>
</trkpt>
<trkpt lat="39.5642115" lon="3.2072019">
<ele>89.87</ele>
<time>2016-10-14T09:06:18Z</time>
</trkpt>
<trkpt lat="39.5639960" lon="3.2073180">
<ele>90.56</ele>
<time>2016-10-14T09:06:22Z</time>
</trkpt>
<trkpt lat="39.5638199" lon="3.2074154">
<ele>89.47</ele>
<time>2016-10-14T09:06:26Z</time>
</trkpt>
<trkpt lat="39.5636062" lon="3.2075326">
<ele>90.31</ele>
<time>2016-10-14T09:06:30Z</time>
</trkpt>
<trkpt lat="39.5634047" lon="3.2076399">
<ele>91.71</ele>
<time>2016-10-14T09:06:34Z</time>
</trkpt>
<trkpt lat="39.5632214" lon="3.2077332">
<ele>93.03</ele>
<time>2016-10-14T09:06:38Z</time>
</trkpt>
<trkpt lat="39.5630266" lon="3.2078343">
<ele>93.32</ele>
<time>2016-10-14T09:06:42Z</time>
</trkpt>
<trkpt lat="39.5628521" lon="3.2079286">
<ele>91.46</ele>
<time>2016-10-14T09:06:46Z</time>
</trkpt>
<trkpt lat="39.5626782" lon="3.2079992">
<ele>90.33</ele>
<time>2016-10-14T09:06:50Z</time>
</trkpt>
<trkpt lat="39.5625161" lon="3.2078634">
<ele>88.45</ele>
<time>2016-10-14T09:06:54Z</time>
</trkpt>
<trkpt lat="39.5623383" lon="3.2077143">
<ele>86.39</ele>
<time>2016-10-14T09:06:58Z</time>
</trkpt>
<trkpt lat="39.5621712" lon="3.2075869">
<ele>85.24</ele>
<time>2016-10-14T09:07:02Z</time>
</trkpt>
<trkpt lat="39.5620068" lon="3.2074473">
<ele>83.64</ele>
<time>2016-10-14T09:07:06Z</time>
</trkpt>
<trkpt lat="39.5618437" lon="3.2072960">
<ele>83.13</ele>
<time>2016-10-14T09:07:10Z</time>
</trkpt>
<trkpt lat="39.5616744" lon="3.2071124">
<ele>83.93</ele>
<time>2016-10-14T09:07:14Z</time>
</trkpt>
<trkpt lat="39.5615259" lon="3.2069355">
<ele>80.44</ele>
<time>2016-10-14T09:07:18Z</time>
</trkpt>
<trkpt lat="39.5613940" lon="3.2067274">
<ele>79.67</ele>
<time>2016-10-14T09:07:22Z</time>
</trkpt>
<trkpt lat="39.5613101" lon="3.2064420">
<ele>79.61</ele>
<time>2016-10-14T09:07:26Z</time>
</trkpt>
<trkpt lat="39.5611074" lon="3.2063015">
<ele>79.01</ele>
<time>2016-10-14T09:07:30Z</time>
</trkpt>
<trkpt lat="39.5609161" lon="3.2063062">
<ele>80.85</ele>
<time>2016-10-14T09:07:33Z</time>
</trkpt>
<trkpt lat="39.5607111" lon="3.2061680">
<ele>86.48</ele>
<time>2016-10-14T09:07:37Z</time>
</trkpt>
<trkpt lat="39.5605440" lon="3.2060169">
<ele>90.41</ele>
<time>2016-10-14T09:07:40Z</time>
</trkpt>
<trkpt lat="39.5603399" lon="3.2058172">
<ele>92.33</ele>
<time>2016-10-14T09:07:44Z</time>
</trkpt>
<trkpt lat="39.5601760" lon="3.2056553">
<ele>93.92</ele>
<time>2016-10-14T09:07:47Z</time>
</trkpt>
<trkpt lat="39.5600144" lon="3.2054956">
<ele>94.87</ele>
<time>2016-10-14T09:07:50Z</time>
</trkpt>
<trkpt lat="39.5598599" lon="3.2053512">
<ele>95.35</ele>
<time>2016-10-14T09:07:53Z</time>
</trkpt>
<trkpt lat="39.5596724" lon="3.2051764">
<ele>96.01</ele>
<time>2016-10-14T09:07:57Z</time>
</trkpt>
<trkpt lat="39.5594868" lon="3.2050069">
<ele>95.78</ele>
<time>2016-10-14T09:08:01Z</time>
</trkpt>
<trkpt lat="39.5593325" lon="3.2048803">
<ele>95.49</ele>
<time>2016-10-14T09:08:04Z</time>
</trkpt>
<trkpt lat="39.5591688" lon="3.2047557">
<ele>94.86</ele>
<time>2016-10-14T09:08:07Z</time>
</trkpt>
<trkpt lat="39.5590027" lon="3.2046404">
<ele>94.64</ele>
<time>2016-10-14T09:08:10Z</time>
</trkpt>
<trkpt lat="39.5588341" lon="3.2045255">
<ele>94.82</ele>
<time>2016-10-14T09:08:13Z</time>
</trkpt>
<trkpt lat="39.5586739" lon="3.2044122">
<ele>93.42</ele>
<time>2016-10-14T09:08:16Z</time>
</trkpt>
<trkpt lat="39.5584750" lon="3.2042611">
<ele>92.76</ele>
<time>2016-10-14T09:08:20Z</time>
</trkpt>
<trkpt lat="39.5583018" lon="3.2041303">
<ele>94.79</ele>
<time>2016-10-14T09:08:23Z</time>
</trkpt>
<trkpt lat="39.5581142" lon="3.2039656">
<ele>96.17</ele>
<time>2016-10-14T09:08:27Z</time>
</trkpt>
<trkpt lat="39.5579320" lon="3.2037961">
<ele>95.82</ele>
<time>2016-10-14T09:08:31Z</time>
</trkpt>
<trkpt lat="39.5577515" lon="3.2036168">
<ele>93.06</ele>
<time>2016-10-14T09:08:35Z</time>
</trkpt>
<trkpt lat="39.5575725" lon="3.2034157">
<ele>87.84</ele>
<time>2016-10-14T09:08:39Z</time>
</trkpt>
<trkpt lat="39.5574261" lon="3.2032426">
<ele>85.54</ele>
<time>2016-10-14T09:08:42Z</time>
</trkpt>
<trkpt lat="39.5572868" lon="3.2030696">
<ele>82.36</ele>
<time>2016-10-14T09:08:45Z</time>
</trkpt>
<trkpt lat="39.5571187" lon="3.2028680">
<ele>81.28</ele>
<time>2016-10-14T09:08:49Z</time>
</trkpt>
<trkpt lat="39.5569614" lon="3.2026846">
<ele>81.89</ele>
<time>2016-10-14T09:08:53Z</time>
</trkpt>
<trkpt lat="39.5568073" lon="3.2024965">
<ele>82.75</ele>
<time>2016-10-14T09:08:57Z</time>
</trkpt>
<trkpt lat="39.5566581" lon="3.2023217">
<ele>87.08</ele>
<time>2016-10-14T09:09:01Z</time>
</trkpt>
<trkpt lat="39.5564967" lon="3.2021318">
<ele>90.80</ele>
<time>2016-10-14T09:09:05Z</time>
</trkpt>
<trkpt lat="39.5563444" lon="3.2019580">
<ele>95.49</ele>
<time>2016-10-14T09:09:09Z</time>
</trkpt>
<trkpt lat="39.5562074" lon="3.2017995">
<ele>95.22</ele>
<time>2016-10-14T09:09:13Z</time>
</trkpt>
<trkpt lat="39.5560725" lon="3.2016430">
<ele>94.55</ele>
<time>2016-10-14T09:09:17Z</time>
</trkpt>
<trkpt lat="39.5559036" lon="3.2014918">
<ele>96.22</ele>
<time>2016-10-14T09:09:21Z</time>
</trkpt>
<trkpt lat="39.5557152" lon="3.2013282">
<ele>95.57</ele>
<time>2016-10-14T09:09:25Z</time>
</trkpt>
<trkpt lat="39.5555246" lon="3.2011797">
<ele>95.21</ele>
<time>2016-10-14T09:09:29Z</time>
</trkpt>
<trkpt lat="39.5553545" lon="3.2010499">
<ele>96.68</ele>
<time>2016-10-14T09:09:33Z</time>
</trkpt>
<trkpt lat="39.5551650" lon="3.2009057">
<ele>98.01</ele>
<time>2016-10-14T09:09:37Z</time>
</trkpt>
<trkpt lat="39.5549766" lon="3.2007852">
<ele>98.12</ele>
<time>2016-10-14T09:09:41Z</time>
</trkpt>
<trkpt lat="39.5547998" lon="3.2006712">
<ele>97.16</ele>
<time>2016-10-14T09:09:45Z</time>
</trkpt>
<trkpt lat="39.5546141" lon="3.2005601">
<ele>95.84</ele>
<time>2016-10-14T09:09:49Z</time>
</trkpt>
<trkpt lat="39.5544492" lon="3.2004667">
<ele>95.82</ele>
<time>2016-10-14T09:09:52Z</time>
</trkpt>
<trkpt lat="39.5542709" lon="3.2003717">
<ele>95.61</ele>
<time>2016-10-14T09:09:55Z</time>
</trkpt>
<trkpt lat="39.5540939" lon="3.2002829">
<ele>95.56</ele>
<time>2016-10-14T09:09:58Z</time>
</trkpt>
<trkpt lat="39.5539131" lon="3.2002026">
<ele>95.64</ele>
<time>2016-10-14T09:10:01Z</time>
</trkpt>
<trkpt lat="39.5537372" lon="3.2001307">
<ele>96.47</ele>
<time>2016-10-14T09:10:04Z</time>
</trkpt>
<trkpt lat="39.5535126" lon="3.2000360">
<ele>95.43</ele>
<time>2016-10-14T09:10:08Z</time>
</trkpt>
<trkpt lat="39.5533339" lon="3.1999620">
<ele>94.69</ele>
<time>2016-10-14T09:10:11Z</time>
</trkpt>
<trkpt lat="39.5531544" lon="3.1998943">
<ele>93.53</ele>
<time>2016-10-14T09:10:14Z</time>
</trkpt>
<trkpt lat="39.5529292" lon="3.1998153">
<ele>92.55</ele>
<time>2016-10-14T09:10:18Z</time>
</trkpt>
<trkpt lat="39.5527547" lon="3.1997539">
<ele>92.59</ele>
<time>2016-10-14T09:10:21Z</time>
</trkpt>
<trkpt lat="39.5525528" lon="3.1996773">
<ele>93.40</ele>
<time>2016-10-14T09:10:25Z</time>
</trkpt>
<trkpt lat="39.5523781" lon="3.1996193">
<ele>94.58</ele>
<time>2016-10-14T09:10:28Z</time>
</trkpt>
<trkpt lat="39.5521632" lon="3.1995361">
<ele>95.01</ele>
<time>2016-10-14T09:10:32Z</time>
</trkpt>
<trkpt lat="39.5519454" lon="3.1994598">
<ele>94.69</ele>
<time>2016-10-14T09:10:36Z</time>
</trkpt>
<trkpt lat="39.5517241" lon="3.1993861">
<ele>94.62</ele>
<time>2016-10-14T09:10:40Z</time>
</trkpt>
<trkpt lat="39.5515131" lon="3.1993162">
<ele>94.65</ele>
<time>2016-10-14T09:10:44Z</time>
</trkpt>
<trkpt lat="39.5513024" lon="3.1992423">
<ele>94.29</ele>
<time>2016-10-14T09:10:48Z</time>
</trkpt>
<trkpt lat="39.5510990" lon="3.1991755">
<ele>95.47</ele>
<time>2016-10-14T09:10:52Z</time>
</trkpt>
<trkpt lat="39.5509012" lon="3.1991084">
<ele>96.27</ele>
<time>2016-10-14T09:10:56Z</time>
</trkpt>
<trkpt lat="39.5507090" lon="3.1990388">
<ele>98.28</ele>
<time>2016-10-14T09:11:00Z</time>
</trkpt>
<trkpt lat="39.5505102" lon="3.1989764">
<ele>100.75</ele>
<time>2016-10-14T09:11:04Z</time>
</trkpt>
<trkpt lat="39.5503307" lon="3.1989171">
<ele>99.88</ele>
<time>2016-10-14T09:11:08Z</time>
</trkpt>
<trkpt lat="39.5501527" lon="3.1988668">
<ele>99.09</ele>
<time>2016-10-14T09:11:12Z</time>
</trkpt>
<trkpt lat="39.5499711" lon="3.1988118">
<ele>99.76</ele>
<time>2016-10-14T09:11:16Z</time>
</trkpt>
<trkpt lat="39.5497941" lon="3.1987568">
<ele>100.58</ele>
<time>2016-10-14T09:11:20Z</time>
</trkpt>
<trkpt lat="39.5496085" lon="3.1986914">
<ele>100.63</ele>
<time>2016-10-14T09:11:24Z</time>
</trkpt>
<trkpt lat="39.5494134" lon="3.1986220">
<ele>101.03</ele>
<time>2016-10-14T09:11:28Z</time>
</trkpt>
<trkpt lat="39.5491992" lon="3.1985547">
<ele>101.17</ele>
<time>2016-10-14T09:11:33Z</time>
</trkpt>
<trkpt lat="39.5489890" lon="3.1984814">
<ele>100.87</ele>
<time>2016-10-14T09:11:38Z</time>
</trkpt>
<trkpt lat="39.5488068" lon="3.1984229">
<ele>102.36</ele>
<time>2016-10-14T09:11:42Z</time>
</trkpt>
<trkpt lat="39.5486148" lon="3.1983526">
<ele>102.90</ele>
<time>2016-10-14T09:11:46Z</time>
</trkpt>
<trkpt lat="39.5484336" lon="3.1982885">
<ele>103.65</ele>
<time>2016-10-14T09:11:50Z</time>
</trkpt>
<trkpt lat="39.5482481" lon="3.1982238">
<ele>104.68</ele>
<time>2016-10-14T09:11:54Z</time>
</trkpt>
<trkpt lat="39.5480498" lon="3.1981507">
<ele>104.04</ele>
<time>2016-10-14T09:11:58Z</time>
</trkpt>
<trkpt lat="39.5478682" lon="3.1980944">
<ele>105.20</ele>
<time>2016-10-14T09:12:02Z</time>
</trkpt>
<trkpt lat="39.5476809" lon="3.1980538">
<ele>106.90</ele>
<time>2016-10-14T09:12:06Z</time>
</trkpt>
<trkpt lat="39.5474676" lon="3.1979853">
<ele>107.78</ele>
<time>2016-10-14T09:12:11Z</time>
</trkpt>
<trkpt lat="39.5472471" lon="3.1979168">
<ele>109.73</ele>
<time>2016-10-14T09:12:16Z</time>
</trkpt>
<trkpt lat="39.5470459" lon="3.1978592">
<ele>110.84</ele>
<time>2016-10-14T09:12:20Z</time>
</trkpt>
<trkpt lat="39.5468641" lon="3.1978056">
<ele>110.07</ele>
<time>2016-10-14T09:12:24Z</time>
</trkpt>
<trkpt lat="39.5466757" lon="3.1977513">
<ele>110.31</ele>
<time>2016-10-14T09:12:28Z</time>
</trkpt>
<trkpt lat="39.5464853" lon="3.1977003">
<ele>111.12</ele>
<time>2016-10-14T09:12:32Z</time>
</trkpt>
<trkpt lat="39.5462803" lon="3.1976665">
<ele>114.08</ele>
<time>2016-10-14T09:12:37Z</time>
</trkpt>
<trkpt lat="39.5460584" lon="3.1976305">
<ele>115.94</ele>
<time>2016-10-14T09:12:42Z</time>
</trkpt>
<trkpt lat="39.5458704" lon="3.1976062">
<ele>116.26</ele>
<time>2016-10-14T09:12:46Z</time>
</trkpt>
<trkpt lat="39.5456422" lon="3.1975741">
<ele>116.20</ele>
<time>2016-10-14T09:12:51Z</time>
</trkpt>
<trkpt lat="39.5454471" lon="3.1975680">
<ele>116.38</ele>
<time>2016-10-14T09:12:55Z</time>
</trkpt>
<trkpt lat="39.5452539" lon="3.1975686">
<ele>116.74</ele>
<time>2016-10-14T09:12:59Z</time>
</trkpt>
<trkpt lat="39.5450466" lon="3.1975768">
<ele>118.37</ele>
<time>2016-10-14T09:13:03Z</time>
</trkpt>
<trkpt lat="39.5448203" lon="3.1975860">
<ele>120.57</ele>
<time>2016-10-14T09:13:08Z</time>
</trkpt>
<trkpt lat="39.5446060" lon="3.1976124">
<ele>120.82</ele>
<time>2016-10-14T09:13:13Z</time>
</trkpt>
<trkpt lat="39.5444050" lon="3.1976330">
<ele>120.87</ele>
<time>2016-10-14T09:13:17Z</time>
</trkpt>
<trkpt lat="39.5441907" lon="3.1976564">
<ele>122.28</ele>
<time>2016-10-14T09:13:21Z</time>
</trkpt>
<trkpt lat="39.5439612" lon="3.1976833">
<ele>123.20</ele>
<time>2016-10-14T09:13:25Z</time>
</trkpt>
<trkpt lat="39.5437652" lon="3.1977122">
<ele>124.20</ele>
<time>2016-10-14T09:13:28Z</time>
</trkpt>
<trkpt lat="39.5435379" lon="3.1977426">
<ele>124.22</ele>
<time>2016-10-14T09:13:32Z</time>
</trkpt>
<trkpt lat="39.5433065" lon="3.1977602">
<ele>126.62</ele>
<time>2016-10-14T09:13:36Z</time>
</trkpt>
<trkpt lat="39.5431010" lon="3.1977557">
<ele>127.68</ele>
<time>2016-10-14T09:13:39Z</time>
</trkpt>
<trkpt lat="39.5429021" lon="3.1977572">
<ele>129.14</ele>
<time>2016-10-14T09:13:42Z</time>
</trkpt>
<trkpt lat="39.5426971" lon="3.1977584">
<ele>129.20</ele>
<time>2016-10-14T09:13:45Z</time>
</trkpt>
<trkpt lat="39.5425086" lon="3.1977430">
<ele>128.32</ele>
<time>2016-10-14T09:13:48Z</time>
</trkpt>
<trkpt lat="39.5422801" lon="3.1977259">
<ele>127.71</ele>
<time>2016-10-14T09:13:51Z</time>
</trkpt>
<trkpt lat="39.5420721" lon="3.1977012">
<ele>128.42</ele>
<time>2016-10-14T09:13:54Z</time>
</trkpt>
<trkpt lat="39.5418332" lon="3.1976676">
<ele>129.94</ele>
<time>2016-10-14T09:13:57Z</time>
</trkpt>
<trkpt lat="39.5415943" lon="3.1976207">
<ele>128.77</ele>
<time>2016-10-14T09:14:00Z</time>
</trkpt>
<trkpt lat="39.5413503" lon="3.1975631">
<ele>126.61</ele>
<time>2016-10-14T09:14:03Z</time>
</trkpt>
<trkpt lat="39.5411045" lon="3.1974924">
<ele>124.03</ele>
<time>2016-10-14T09:14:06Z</time>
</trkpt>
<trkpt lat="39.5408608" lon="3.1974067">
<ele>121.22</ele>
<time>2016-10-14T09:14:09Z</time>
</trkpt>
<trkpt lat="39.5406166" lon="3.1973058">
<ele>119.01</ele>
<time>2016-10-14T09:14:12Z</time>
</trkpt>
<trkpt lat="39.5403690" lon="3.1971961">
<ele>116.71</ele>
<time>2016-10-14T09:14:15Z</time>
</trkpt>
<trkpt lat="39.5401275" lon="3.1970884">
<ele>116.91</ele>
<time>2016-10-14T09:14:18Z</time>
</trkpt>
<trkpt lat="39.5398855" lon="3.1969752">
<ele>117.21</ele>
<time>2016-10-14T09:14:21Z</time>
</trkpt>
<trkpt lat="39.5396382" lon="3.1968537">
<ele>116.42</ele>
<time>2016-10-14T09:14:24Z</time>
</trkpt>
<trkpt lat="39.5393893" lon="3.1967387">
<ele>116.97</ele>
<time>2016-10-14T09:14:27Z</time>
</trkpt>
<trkpt lat="39.5391501" lon="3.1966544">
<ele>116.57</ele>
<time>2016-10-14T09:14:30Z</time>
</trkpt>
<trkpt lat="39.5389007" lon="3.1965703">
<ele>113.66</ele>
<time>2016-10-14T09:14:33Z</time>
</trkpt>
<trkpt lat="39.5386466" lon="3.1964886">
<ele>111.51</ele>
<time>2016-10-14T09:14:36Z</time>
</trkpt>
<trkpt lat="39.5383981" lon="3.1964189">
<ele>110.16</ele>
<time>2016-10-14T09:14:39Z</time>
</trkpt>
<trkpt lat="39.5381581" lon="3.1963640">
<ele>109.44</ele>
<time>2016-10-14T09:14:42Z</time>
</trkpt>
<trkpt lat="39.5379233" lon="3.1963199">
<ele>109.77</ele>
<time>2016-10-14T09:14:45Z</time>
</trkpt>
<trkpt lat="39.5377030" lon="3.1962851">
<ele>109.70</ele>
<time>2016-10-14T09:14:48Z</time>
</trkpt>
<trkpt lat="39.5374887" lon="3.1962632">
<ele>109.62</ele>
<time>2016-10-14T09:14:51Z</time>
</trkpt>
<trkpt lat="39.5373009" lon="3.1962337">
<ele>109.73</ele>
<time>2016-10-14T09:14:54Z</time>
</trkpt>
<trkpt lat="39.5370798" lon="3.1961931">
<ele>109.57</ele>
<time>2016-10-14T09:14:58Z</time>
</trkpt>
<trkpt lat="39.5368939" lon="3.1961641">
<ele>110.08</ele>
<time>2016-10-14T09:15:01Z</time>
</trkpt>
<trkpt lat="39.5367138" lon="3.1961334">
<ele>110.03</ele>
<time>2016-10-14T09:15:04Z</time>
</trkpt>
<trkpt lat="39.5364887" lon="3.1961099">
<ele>110.96</ele>
<time>2016-10-14T09:15:08Z</time>
</trkpt>
<trkpt lat="39.5362683" lon="3.1960835">
<ele>111.98</ele>
<time>2016-10-14T09:15:12Z</time>
</trkpt>
<trkpt lat="39.5360478" lon="3.1960452">
<ele>111.80</ele>
<time>2016-10-14T09:15:16Z</time>
</trkpt>
<trkpt lat="39.5358418" lon="3.1960138">
<ele>112.29</ele>
<time>2016-10-14T09:15:20Z</time>
</trkpt>
<trkpt lat="39.5356417" lon="3.1959897">
<ele>113.81</ele>
<time>2016-10-14T09:15:24Z</time>
</trkpt>
<trkpt lat="39.5354458" lon="3.1959598">
<ele>116.53</ele>
<time>2016-10-14T09:15:28Z</time>
</trkpt>
<trkpt lat="39.5352534" lon="3.1959351">
<ele>118.85</ele>
<time>2016-10-14T09:15:32Z</time>
</trkpt>
<trkpt lat="39.5350693" lon="3.1958876">
<ele>119.05</ele>
<time>2016-10-14T09:15:36Z</time>
</trkpt>
<trkpt lat="39.5348865" lon="3.1958444">
<ele>119.63</ele>
<time>2016-10-14T09:15:40Z</time>
</trkpt>
<trkpt lat="39.5347069" lon="3.1957817">
<ele>119.21</ele>
<time>2016-10-14T09:15:44Z</time>
</trkpt>
<trkpt lat="39.5345197" lon="3.1957220">
<ele>120.28</ele>
<time>2016-10-14T09:15:48Z</time>
</trkpt>
<trkpt lat="39.5343436" lon="3.1956648">
<ele>121.84</ele>
<time>2016-10-14T09:15:52Z</time>
</trkpt>
<trkpt lat="39.5341643" lon="3.1956054">
<ele>120.71</ele>
<time>2016-10-14T09:15:56Z</time>
</trkpt>
<trkpt lat="39.5339518" lon="3.1955423">
<ele>122.15</ele>
<time>2016-10-14T09:16:00Z</time>
</trkpt>
<trkpt lat="39.5337701" lon="3.1954859">
<ele>123.37</ele>
<time>2016-10-14T09:16:03Z</time>
</trkpt>
<trkpt lat="39.5335317" lon="3.1954135">
<ele>125.00</ele>
<time>2016-10-14T09:16:07Z</time>
</trkpt>
<trkpt lat="39.5333414" lon="3.1953544">
<ele>126.47</ele>
<time>2016-10-14T09:16:10Z</time>
</trkpt>
<trkpt lat="39.5331520" lon="3.1952931">
<ele>125.52</ele>
<time>2016-10-14T09:16:13Z</time>
</trkpt>
<trkpt lat="39.5329713" lon="3.1952316">
<ele>125.11</ele>
<time>2016-10-14T09:16:16Z</time>
</trkpt>
<trkpt lat="39.5327940" lon="3.1951726">
<ele>123.99</ele>
<time>2016-10-14T09:16:19Z</time>
</trkpt>
<trkpt lat="39.5325943" lon="3.1951039">
<ele>123.44</ele>
<time>2016-10-14T09:16:22Z</time>
</trkpt>
<trkpt lat="39.5323823" lon="3.1950315">
<ele>121.81</ele>
<time>2016-10-14T09:16:25Z</time>
</trkpt>
<trkpt lat="39.5321704" lon="3.1949561">
<ele>116.72</ele>
<time>2016-10-14T09:16:28Z</time>
</trkpt>
<trkpt lat="39.5319499" lon="3.1948869">
<ele>114.21</ele>
<time>2016-10-14T09:16:31Z</time>
</trkpt>
<trkpt lat="39.5317170" lon="3.1948174">
<ele>113.72</ele>
<time>2016-10-14T09:16:34Z</time>
</trkpt>
<trkpt lat="39.5314722" lon="3.1947386">
<ele>114.46</ele>
<time>2016-10-14T09:16:37Z</time>
</trkpt>
<trkpt lat="39.5312229" lon="3.1946563">
<ele>114.69</ele>
<time>2016-10-14T09:16:40Z</time>
</trkpt>
<trkpt lat="39.5309656" lon="3.1945682">
<ele>113.72</ele>
<time>2016-10-14T09:16:43Z</time>
</trkpt>
<trkpt lat="39.5307811" lon="3.1945098">
<ele>112.16</ele>
<time>2016-10-14T09:16:45Z</time>
</trkpt>
<trkpt lat="39.5306010" lon="3.1944539">
<ele>111.95</ele>
<time>2016-10-14T09:16:47Z</time>
</trkpt>
<trkpt lat="39.5303367" lon="3.1943686">
<ele>111.09</ele>
<time>2016-10-14T09:16:50Z</time>
</trkpt>
<trkpt lat="39.5301572" lon="3.1943123">
<ele>110.73</ele>
<time>2016-10-14T09:16:52Z</time>
</trkpt>
<trkpt lat="39.5299005" lon="3.1942237">
<ele>111.07</ele>
<time>2016-10-14T09:16:55Z</time>
</trkpt>
<trkpt lat="39.5296625" lon="3.1941305">
<ele>111.34</ele>
<time>2016-10-14T09:16:58Z</time>
</trkpt>
<trkpt lat="39.5294795" lon="3.1940548">
<ele>111.79</ele>
<time>2016-10-14T09:17:00Z</time>
</trkpt>
<trkpt lat="39.5292481" lon="3.1939399">
<ele>111.41</ele>
<time>2016-10-14T09:17:03Z</time>
</trkpt>
<trkpt lat="39.5290644" lon="3.1938381">
<ele>111.42</ele>
<time>2016-10-14T09:17:05Z</time>
</trkpt>
<trkpt lat="39.5288874" lon="3.1937389">
<ele>111.04</ele>
<time>2016-10-14T09:17:07Z</time>
</trkpt>
<trkpt lat="39.5286528" lon="3.1935964">
<ele>110.37</ele>
<time>2016-10-14T09:17:10Z</time>
</trkpt>
<trkpt lat="39.5284196" lon="3.1934370">
<ele>110.74</ele>
<time>2016-10-14T09:17:13Z</time>
</trkpt>
<trkpt lat="39.5281915" lon="3.1932625">
<ele>110.55</ele>
<time>2016-10-14T09:17:16Z</time>
</trkpt>
<trkpt lat="39.5280367" lon="3.1931406">
<ele>110.42</ele>
<time>2016-10-14T09:17:18Z</time>
</trkpt>
<trkpt lat="39.5278811" lon="3.1930076">
<ele>110.05</ele>
<time>2016-10-14T09:17:20Z</time>
</trkpt>
<trkpt lat="39.5276792" lon="3.1928228">
<ele>110.14</ele>
<time>2016-10-14T09:17:23Z</time>
</trkpt>
<trkpt lat="39.5274912" lon="3.1926488">
<ele>110.83</ele>
<time>2016-10-14T09:17:26Z</time>
</trkpt>
<trkpt lat="39.5272969" lon="3.1924624">
<ele>110.80</ele>
<time>2016-10-14T09:17:29Z</time>
</trkpt>
<trkpt lat="39.5270830" lon="3.1922593">
<ele>109.71</ele>
<time>2016-10-14T09:17:32Z</time>
</trkpt>
<trkpt lat="39.5268896" lon="3.1920678">
<ele>108.52</ele>
<time>2016-10-14T09:17:35Z</time>
</trkpt>
<trkpt lat="39.5267041" lon="3.1918861">
<ele>107.45</ele>
<time>2016-10-14T09:17:38Z</time>
</trkpt>
<trkpt lat="39.5265164" lon="3.1917017">
<ele>106.16</ele>
<time>2016-10-14T09:17:41Z</time>
</trkpt>
<trkpt lat="39.5263131" lon="3.1915266">
<ele>106.40</ele>
<time>2016-10-14T09:17:44Z</time>
</trkpt>
<trkpt lat="39.5261184" lon="3.1913735">
<ele>108.04</ele>
<time>2016-10-14T09:17:47Z</time>
</trkpt>
<trkpt lat="39.5259108" lon="3.1912245">
<ele>108.60</ele>
<time>2016-10-14T09:17:50Z</time>
</trkpt>
<trkpt lat="39.5256947" lon="3.1910759">
<ele>107.26</ele>
<time>2016-10-14T09:17:53Z</time>
</trkpt>
<trkpt lat="39.5254781" lon="3.1909482">
<ele>104.77</ele>
<time>2016-10-14T09:17:56Z</time>
</trkpt>
<trkpt lat="39.5252512" lon="3.1908382">
<ele>103.04</ele>
<time>2016-10-14T09:17:59Z</time>
</trkpt>
<trkpt lat="39.5250161" lon="3.1907296">
<ele>101.88</ele>
<time>2016-10-14T09:18:02Z</time>
</trkpt>
<trkpt lat="39.5247794" lon="3.1906308">
<ele>100.61</ele>
<time>2016-10-14T09:18:05Z</time>
</trkpt>
<trkpt lat="39.5245436" lon="3.1905396">
<ele>100.25</ele>
<time>2016-10-14T09:18:08Z</time>
</trkpt>
<trkpt lat="39.5243074" lon="3.1904563">
<ele>101.35</ele>
<time>2016-10-14T09:18:11Z</time>
</trkpt>
<trkpt lat="39.5240744" lon="3.1903790">
<ele>102.43</ele>
<time>2016-10-14T09:18:14Z</time>
</trkpt>
<trkpt lat="39.5238496" lon="3.1903004">
<ele>102.72</ele>
<time>2016-10-14T09:18:17Z</time>
</trkpt>
<trkpt lat="39.5236189" lon="3.1902185">
<ele>103.92</ele>
<time>2016-10-14T09:18:20Z</time>
</trkpt>
<trkpt lat="39.5233847" lon="3.1901246">
<ele>104.91</ele>
<time>2016-10-14T09:18:23Z</time>
</trkpt>
<trkpt lat="39.5231563" lon="3.1900164">
<ele>105.76</ele>
<time>2016-10-14T09:18:26Z</time>
</trkpt>
<trkpt lat="39.5229357" lon="3.1899025">
<ele>106.45</ele>
<time>2016-10-14T09:18:29Z</time>
</trkpt>
<trkpt lat="39.5227188" lon="3.1897815">
<ele>107.54</ele>
<time>2016-10-14T09:18:32Z</time>
</trkpt>
<trkpt lat="39.5224892" lon="3.1896473">
<ele>108.38</ele>
<time>2016-10-14T09:18:35Z</time>
</trkpt>
<trkpt lat="39.5222842" lon="3.1895208">
<ele>108.58</ele>
<time>2016-10-14T09:18:38Z</time>
</trkpt>
<trkpt lat="39.5220881" lon="3.1893903">
<ele>108.47</ele>
<time>2016-10-14T09:18:41Z</time>
</trkpt>
<trkpt lat="39.5219150" lon="3.1892617">
<ele>107.26</ele>
<time>2016-10-14T09:18:44Z</time>
</trkpt>
<trkpt lat="39.5217207" lon="3.1891049">
<ele>106.57</ele>
<time>2016-10-14T09:18:48Z</time>
</trkpt>
<trkpt lat="39.5215299" lon="3.1889322">
<ele>107.03</ele>
<time>2016-10-14T09:18:52Z</time>
</trkpt>
<trkpt lat="39.5213479" lon="3.1887676">
<ele>107.47</ele>
<time>2016-10-14T09:18:56Z</time>
</trkpt>
<trkpt lat="39.5211781" lon="3.1886002">
<ele>108.37</ele>
<time>2016-10-14T09:19:00Z</time>
</trkpt>
<trkpt lat="39.5210152" lon="3.1884166">
<ele>108.28</ele>
<time>2016-10-14T09:19:04Z</time>
</trkpt>
<trkpt lat="39.5208660" lon="3.1882304">
<ele>105.16</ele>
<time>2016-10-14T09:19:08Z</time>
</trkpt>
<trkpt lat="39.5207017" lon="3.1880432">
<ele>102.31</ele>
<time>2016-10-14T09:19:12Z</time>
</trkpt>
<trkpt lat="39.5205426" lon="3.1878788">
<ele>103.59</ele>
<time>2016-10-14T09:19:16Z</time>
</trkpt>
<trkpt lat="39.5203761" lon="3.1876850">
<ele>105.57</ele>
<time>2016-10-14T09:19:20Z</time>
</trkpt>
<trkpt lat="39.5202250" lon="3.1875097">
<ele>107.24</ele>
<time>2016-10-14T09:19:24Z</time>
</trkpt>
<trkpt lat="39.5200873" lon="3.1873581">
<ele>107.75</ele>
<time>2016-10-14T09:19:27Z</time>
</trkpt>
<trkpt lat="39.5199330" lon="3.1871695">
<ele>108.01</ele>
<time>2016-10-14T09:19:31Z</time>
</trkpt>
<trkpt lat="39.5197638" lon="3.1869551">
<ele>106.55</ele>
<time>2016-10-14T09:19:35Z</time>
</trkpt>
<trkpt lat="39.5195919" lon="3.1867524">
<ele>105.07</ele>
<time>2016-10-14T09:19:39Z</time>
</trkpt>
<trkpt lat="39.5194326" lon="3.1865703">
<ele>105.40</ele>
<time>2016-10-14T09:19:43Z</time>
</trkpt>
<trkpt lat="39.5192584" lon="3.1863656">
<ele>106.54</ele>
<time>2016-10-14T09:19:47Z</time>
</trkpt>
<trkpt lat="39.5191283" lon="3.1862039">
<ele>105.53</ele>
<time>2016-10-14T09:19:50Z</time>
</trkpt>
<trkpt lat="39.5189454" lon="3.1860167">
<ele>105.65</ele>
<time>2016-10-14T09:19:54Z</time>
</trkpt>
<trkpt lat="39.5188055" lon="3.1858695">
<ele>106.72</ele>
<time>2016-10-14T09:19:57Z</time>
</trkpt>
<trkpt lat="39.5186635" lon="3.1857094">
<ele>107.26</ele>
<time>2016-10-14T09:20:00Z</time>
</trkpt>
<trkpt lat="39.5185251" lon="3.1855494">
<ele>106.47</ele>
<time>2016-10-14T09:20:03Z</time>
</trkpt>
<trkpt lat="39.5183900" lon="3.1853857">
<ele>106.14</ele>
<time>2016-10-14T09:20:06Z</time>
</trkpt>
<trkpt lat="39.5182552" lon="3.1852305">
<ele>105.98</ele>
<time>2016-10-14T09:20:09Z</time>
</trkpt>
<trkpt lat="39.5180690" lon="3.1850368">
<ele>106.28</ele>
<time>2016-10-14T09:20:13Z</time>
</trkpt>
<trkpt lat="39.5179313" lon="3.1848600">
<ele>106.41</ele>
<time>2016-10-14T09:20:16Z</time>
</trkpt>
<trkpt lat="39.5177937" lon="3.1846748">
<ele>105.78</ele>
<time>2016-10-14T09:20:19Z</time>
</trkpt>
<trkpt lat="39.5176538" lon="3.1845000">
<ele>104.99</ele>
<time>2016-10-14T09:20:22Z</time>
</trkpt>
<trkpt lat="39.5175082" lon="3.1843241">
<ele>104.19</ele>
<time>2016-10-14T09:20:25Z</time>
</trkpt>
<trkpt lat="39.5173653" lon="3.1841570">
<ele>103.60</ele>
<time>2016-10-14T09:20:28Z</time>
</trkpt>
<trkpt lat="39.5172204" lon="3.1839909">
<ele>104.56</ele>
<time>2016-10-14T09:20:32Z</time>
</trkpt>
<trkpt lat="39.5170777" lon="3.1838342">
<ele>104.82</ele>
<time>2016-10-14T09:20:35Z</time>
</trkpt>
<trkpt lat="39.5169369" lon="3.1836707">
<ele>105.12</ele>
<time>2016-10-14T09:20:38Z</time>
</trkpt>
<trkpt lat="39.5167937" lon="3.1835057">
<ele>106.11</ele>
<time>2016-10-14T09:20:41Z</time>
</trkpt>
<trkpt lat="39.5166569" lon="3.1833202">
<ele>106.69</ele>
<time>2016-10-14T09:20:44Z</time>
</trkpt>
<trkpt lat="39.5165239" lon="3.1831255">
<ele>106.58</ele>
<time>2016-10-14T09:20:47Z</time>
</trkpt>
<trkpt lat="39.5163938" lon="3.1829121">
<ele>106.40</ele>
<time>2016-10-14T09:20:50Z</time>
</trkpt>
<trkpt lat="39.5162784" lon="3.1827073">
<ele>106.20</ele>
<time>2016-10-14T09:20:53Z</time>
</trkpt>
<trkpt lat="39.5161512" lon="3.1824804">
<ele>105.30</ele>
<time>2016-10-14T09:20:56Z</time>
</trkpt>
<trkpt lat="39.5160218" lon="3.1822538">
<ele>103.91</ele>
<time>2016-10-14T09:20:59Z</time>
</trkpt>
<trkpt lat="39.5159030" lon="3.1820322">
<ele>102.69</ele>
<time>2016-10-14T09:21:02Z</time>
</trkpt>
<trkpt lat="39.5157888" lon="3.1818174">
<ele>102.27</ele>
<time>2016-10-14T09:21:05Z</time>
</trkpt>
<trkpt lat="39.5156778" lon="3.1815925">
<ele>102.06</ele>
<time>2016-10-14T09:21:08Z</time>
</trkpt>
<trkpt lat="39.5155616" lon="3.1813666">
<ele>101.79</ele>
<time>2016-10-14T09:21:11Z</time>
</trkpt>
<trkpt lat="39.5154456" lon="3.1811371">
<ele>100.89</ele>
<time>2016-10-14T09:21:14Z</time>
</trkpt>
<trkpt lat="39.5153276" lon="3.1809103">
<ele>100.15</ele>
<time>2016-10-14T09:21:17Z</time>
</trkpt>
<trkpt lat="39.5152142" lon="3.1807065">
<ele>100.26</ele>
<time>2016-10-14T09:21:20Z</time>
</trkpt>
<trkpt lat="39.5151013" lon="3.1805023">
<ele>100.87</ele>
<time>2016-10-14T09:21:23Z</time>
</trkpt>
<trkpt lat="39.5149871" lon="3.1802776">
<ele>100.64</ele>
<time>2016-10-14T09:21:26Z</time>
</trkpt>
<trkpt lat="39.5148689" lon="3.1800539">
<ele>100.09</ele>
<time>2016-10-14T09:21:29Z</time>
</trkpt>
<trkpt lat="39.5147491" lon="3.1798428">
<ele>99.68</ele>
<time>2016-10-14T09:21:32Z</time>
</trkpt>
<trkpt lat="39.5146240" lon="3.1796328">
<ele>99.49</ele>
<time>2016-10-14T09:21:35Z</time>
</trkpt>
<trkpt lat="39.5144905" lon="3.1794280">
<ele>99.29</ele>
<time>2016-10-14T09:21:38Z</time>
</trkpt>
<trkpt lat="39.5143544" lon="3.1792352">
<ele>99.05</ele>
<time>2016-10-14T09:21:41Z</time>
</trkpt>
<trkpt lat="39.5142177" lon="3.1790411">
<ele>99.34</ele>
<time>2016-10-14T09:21:44Z</time>
</trkpt>
<trkpt lat="39.5140750" lon="3.1788537">
<ele>99.50</ele>
<time>2016-10-14T09:21:47Z</time>
</trkpt>
<trkpt lat="39.5139279" lon="3.1786823">
<ele>99.21</ele>
<time>2016-10-14T09:21:50Z</time>
</trkpt>
<trkpt lat="39.5137783" lon="3.1785262">
<ele>99.85</ele>
<time>2016-10-14T09:21:53Z</time>
</trkpt>
<trkpt lat="39.5136364" lon="3.1783706">
<ele>100.93</ele>
<time>2016-10-14T09:21:56Z</time>
</trkpt>
<trkpt lat="39.5134812" lon="3.1781999">
<ele>101.34</ele>
<time>2016-10-14T09:21:59Z</time>
</trkpt>
<trkpt lat="39.5133353" lon="3.1780307">
<ele>102.36</ele>
<time>2016-10-14T09:22:02Z</time>
</trkpt>
<trkpt lat="39.5131892" lon="3.1778597">
<ele>103.15</ele>
<time>2016-10-14T09:22:05Z</time>
</trkpt>
<trkpt lat="39.5130401" lon="3.1776812">
<ele>103.19</ele>
<time>2016-10-14T09:22:08Z</time>
</trkpt>
<trkpt lat="39.5128863" lon="3.1774945">
<ele>102.92</ele>
<time>2016-10-14T09:22:11Z</time>
</trkpt>
<trkpt lat="39.5127188" lon="3.1773055">
<ele>103.48</ele>
<time>2016-10-14T09:22:14Z</time>
</trkpt>
<trkpt lat="39.5125624" lon="3.1771251">
<ele>103.62</ele>
<time>2016-10-14T09:22:17Z</time>
</trkpt>
<trkpt lat="39.5123975" lon="3.1769331">
<ele>102.73</ele>
<time>2016-10-14T09:22:20Z</time>
</trkpt>
<trkpt lat="39.5122391" lon="3.1767420">
<ele>100.92</ele>
<time>2016-10-14T09:22:23Z</time>
</trkpt>
<trkpt lat="39.5120752" lon="3.1765452">
<ele>99.30</ele>
<time>2016-10-14T09:22:26Z</time>
</trkpt>
<trkpt lat="39.5119133" lon="3.1763455">
<ele>97.98</ele>
<time>2016-10-14T09:22:29Z</time>
</trkpt>
<trkpt lat="39.5117525" lon="3.1761472">
<ele>96.64</ele>
<time>2016-10-14T09:22:32Z</time>
</trkpt>
<trkpt lat="39.5115846" lon="3.1759586">
<ele>96.22</ele>
<time>2016-10-14T09:22:35Z</time>
</trkpt>
<trkpt lat="39.5114192" lon="3.1757861">
<ele>96.46</ele>
<time>2016-10-14T09:22:38Z</time>
</trkpt>
<trkpt lat="39.5112519" lon="3.1756054">
<ele>96.85</ele>
<time>2016-10-14T09:22:41Z</time>
</trkpt>
<trkpt lat="39.5110812" lon="3.1754142">
<ele>97.38</ele>
<time>2016-10-14T09:22:44Z</time>
</trkpt>
<trkpt lat="39.5109128" lon="3.1752157">
<ele>97.21</ele>
<time>2016-10-14T09:22:47Z</time>
</trkpt>
<trkpt lat="39.5107468" lon="3.1750337">
<ele>97.45</ele>
<time>2016-10-14T09:22:50Z</time>
</trkpt>
<trkpt lat="39.5105818" lon="3.1748548">
<ele>98.27</ele>
<time>2016-10-14T09:22:53Z</time>
</trkpt>
<trkpt lat="39.5104219" lon="3.1746771">
<ele>98.76</ele>
<time>2016-10-14T09:22:56Z</time>
</trkpt>
<trkpt lat="39.5102628" lon="3.1745013">
<ele>99.27</ele>
<time>2016-10-14T09:22:59Z</time>
</trkpt>
<trkpt lat="39.5100992" lon="3.1743232">
<ele>100.38</ele>
<time>2016-10-14T09:23:02Z</time>
</trkpt>
<trkpt lat="39.5099400" lon="3.1741417">
<ele>100.31</ele>
<time>2016-10-14T09:23:05Z</time>
</trkpt>
<trkpt lat="39.5097839" lon="3.1739648">
<ele>99.94</ele>
<time>2016-10-14T09:23:08Z</time>
</trkpt>
<trkpt lat="39.5096235" lon="3.1737989">
<ele>99.90</ele>
<time>2016-10-14T09:23:11Z</time>
</trkpt>
<trkpt lat="39.5094654" lon="3.1736208">
<ele>99.94</ele>
<time>2016-10-14T09:23:14Z</time>
</trkpt>
<trkpt lat="39.5093017" lon="3.1734505">
<ele>100.74</ele>
<time>2016-10-14T09:23:17Z</time>
</trkpt>
<trkpt lat="39.5091352" lon="3.1732844">
<ele>102.86</ele>
<time>2016-10-14T09:23:20Z</time>
</trkpt>
<trkpt lat="39.5089701" lon="3.1731191">
<ele>103.82</ele>
<time>2016-10-14T09:23:23Z</time>
</trkpt>
<trkpt lat="39.5087993" lon="3.1729453">
<ele>102.19</ele>
<time>2016-10-14T09:23:26Z</time>
</trkpt>
<trkpt lat="39.5086219" lon="3.1727773">
<ele>99.51</ele>
<time>2016-10-14T09:23:29Z</time>
</trkpt>
<trkpt lat="39.5084486" lon="3.1726213">
<ele>97.80</ele>
<time>2016-10-14T09:23:32Z</time>
</trkpt>
<trkpt lat="39.5082747" lon="3.1724661">
<ele>96.42</ele>
<time>2016-10-14T09:23:35Z</time>
</trkpt>
<trkpt lat="39.5081044" lon="3.1723406">
<ele>96.92</ele>
<time>2016-10-14T09:23:38Z</time>
</trkpt>
<trkpt lat="39.5079248" lon="3.1722184">
<ele>98.09</ele>
<time>2016-10-14T09:23:41Z</time>
</trkpt>
<trkpt lat="39.5077412" lon="3.1720849">
<ele>98.36</ele>
<time>2016-10-14T09:23:44Z</time>
</trkpt>
<trkpt lat="39.5075775" lon="3.1719658">
<ele>97.96</ele>
<time>2016-10-14T09:23:47Z</time>
</trkpt>
<trkpt lat="39.5074009" lon="3.1718466">
<ele>97.34</ele>
<time>2016-10-14T09:23:50Z</time>
</trkpt>
<trkpt lat="39.5072154" lon="3.1717343">
<ele>96.91</ele>
<time>2016-10-14T09:23:53Z</time>
</trkpt>
<trkpt lat="39.5070257" lon="3.1716257">
<ele>96.36</ele>
<time>2016-10-14T09:23:56Z</time>
</trkpt>
<trkpt lat="39.5068394" lon="3.1715307">
<ele>97.06</ele>
<time>2016-10-14T09:23:59Z</time>
</trkpt>
<trkpt lat="39.5066585" lon="3.1714460">
<ele>99.33</ele>
<time>2016-10-14T09:24:02Z</time>
</trkpt>
<trkpt lat="39.5064588" lon="3.1713487">
<ele>100.94</ele>
<time>2016-10-14T09:24:05Z</time>
</trkpt>
<trkpt lat="39.5062498" lon="3.1712546">
<ele>101.88</ele>
<time>2016-10-14T09:24:08Z</time>
</trkpt>
<trkpt lat="39.5060419" lon="3.1711742">
<ele>103.08</ele>
<time>2016-10-14T09:24:11Z</time>
</trkpt>
<trkpt lat="39.5058239" lon="3.1710956">
<ele>104.16</ele>
<time>2016-10-14T09:24:14Z</time>
</trkpt>
<trkpt lat="39.5056074" lon="3.1710181">
<ele>103.89</ele>
<time>2016-10-14T09:24:17Z</time>
</trkpt>
<trkpt lat="39.5053924" lon="3.1709378">
<ele>102.56</ele>
<time>2016-10-14T09:24:20Z</time>
</trkpt>
<trkpt lat="39.5051690" lon="3.1708602">
<ele>100.93</ele>
<time>2016-10-14T09:24:23Z</time>
</trkpt>
<trkpt lat="39.5049459" lon="3.1707884">
<ele>99.87</ele>
<time>2016-10-14T09:24:26Z</time>
</trkpt>
<trkpt lat="39.5047296" lon="3.1707101">
<ele>98.81</ele>
<time>2016-10-14T09:24:29Z</time>
</trkpt>
<trkpt lat="39.5045151" lon="3.1706351">
<ele>98.65</ele>
<time>2016-10-14T09:24:32Z</time>
</trkpt>
<trkpt lat="39.5043025" lon="3.1705572">
<ele>98.34</ele>
<time>2016-10-14T09:24:35Z</time>
</trkpt>
<trkpt lat="39.5040826" lon="3.1704789">
<ele>98.27</ele>
<time>2016-10-14T09:24:38Z</time>
</trkpt>
<trkpt lat="39.5038724" lon="3.1704024">
<ele>98.84</ele>
<time>2016-10-14T09:24:41Z</time>
</trkpt>
<trkpt lat="39.5036607" lon="3.1703316">
<ele>99.97</ele>
<time>2016-10-14T09:24:44Z</time>
</trkpt>
<trkpt lat="39.5034445" lon="3.1702541">
<ele>101.32</ele>
<time>2016-10-14T09:24:47Z</time>
</trkpt>
<trkpt lat="39.5032452" lon="3.1701796">
<ele>101.93</ele>
<time>2016-10-14T09:24:50Z</time>
</trkpt>
<trkpt lat="39.5030247" lon="3.1700999">
<ele>100.57</ele>
<time>2016-10-14T09:24:53Z</time>
</trkpt>
<trkpt lat="39.5028119" lon="3.1700231">
<ele>100.70</ele>
<time>2016-10-14T09:24:56Z</time>
</trkpt>
<trkpt lat="39.5025995" lon="3.1699478">
<ele>100.33</ele>
<time>2016-10-14T09:24:59Z</time>
</trkpt>
<trkpt lat="39.5023858" lon="3.1698770">
<ele>99.41</ele>
<time>2016-10-14T09:25:02Z</time>
</trkpt>
<trkpt lat="39.5021659" lon="3.1697941">
<ele>97.97</ele>
<time>2016-10-14T09:25:05Z</time>
</trkpt>
<trkpt lat="39.5019423" lon="3.1697110">
<ele>96.51</ele>
<time>2016-10-14T09:25:08Z</time>
</trkpt>
<trkpt lat="39.5017271" lon="3.1696286">
<ele>95.88</ele>
<time>2016-10-14T09:25:11Z</time>
</trkpt>
<trkpt lat="39.5015214" lon="3.1695357">
<ele>96.11</ele>
<time>2016-10-14T09:25:14Z</time>
</trkpt>
<trkpt lat="39.5013289" lon="3.1694380">
<ele>95.73</ele>
<time>2016-10-14T09:25:17Z</time>
</trkpt>
<trkpt lat="39.5011413" lon="3.1693270">
<ele>95.56</ele>
<time>2016-10-14T09:25:20Z</time>
</trkpt>
<trkpt lat="39.5009577" lon="3.1692135">
<ele>94.88</ele>
<time>2016-10-14T09:25:23Z</time>
</trkpt>
<trkpt lat="39.5007744" lon="3.1690858">
<ele>94.44</ele>
<time>2016-10-14T09:25:26Z</time>
</trkpt>
<trkpt lat="39.5006008" lon="3.1689589">
<ele>93.93</ele>
<time>2016-10-14T09:25:29Z</time>
</trkpt>
<trkpt lat="39.5004243" lon="3.1688261">
<ele>93.28</ele>
<time>2016-10-14T09:25:32Z</time>
</trkpt>
<trkpt lat="39.5002514" lon="3.1686954">
<ele>93.32</ele>
<time>2016-10-14T09:25:35Z</time>
</trkpt>
<trkpt lat="39.5000874" lon="3.1685560">
<ele>92.46</ele>
<time>2016-10-14T09:25:38Z</time>
</trkpt>
<trkpt lat="39.4999372" lon="3.1684195">
<ele>91.51</ele>
<time>2016-10-14T09:25:41Z</time>
</trkpt>
<trkpt lat="39.4997776" lon="3.1682747">
<ele>92.10</ele>
<time>2016-10-14T09:25:44Z</time>
</trkpt>
<trkpt lat="39.4995906" lon="3.1680902">
<ele>91.52</ele>
<time>2016-10-14T09:25:48Z</time>
</trkpt>
<trkpt lat="39.4994452" lon="3.1679435">
<ele>91.73</ele>
<time>2016-10-14T09:25:51Z</time>
</trkpt>
<trkpt lat="39.4992961" lon="3.1677989">
<ele>91.48</ele>
<time>2016-10-14T09:25:54Z</time>
</trkpt>
<trkpt lat="39.4991457" lon="3.1676486">
<ele>90.76</ele>
<time>2016-10-14T09:25:57Z</time>
</trkpt>
<trkpt lat="39.4989622" lon="3.1674555">
<ele>90.22</ele>
<time>2016-10-14T09:26:01Z</time>
</trkpt>
<trkpt lat="39.4987791" lon="3.1672656">
<ele>90.78</ele>
<time>2016-10-14T09:26:05Z</time>
</trkpt>
<trkpt lat="39.4985948" lon="3.1670766">
<ele>91.12</ele>
<time>2016-10-14T09:26:09Z</time>
</trkpt>
<trkpt lat="39.4984137" lon="3.1668882">
<ele>91.72</ele>
<time>2016-10-14T09:26:13Z</time>
</trkpt>
<trkpt lat="39.4982665" lon="3.1667313">
<ele>91.50</ele>
<time>2016-10-14T09:26:16Z</time>
</trkpt>
<trkpt lat="39.4981145" lon="3.1665842">
<ele>91.04</ele>
<time>2016-10-14T09:26:19Z</time>
</trkpt>
<trkpt lat="39.4979204" lon="3.1664124">
<ele>90.90</ele>
<time>2016-10-14T09:26:23Z</time>
</trkpt>
<trkpt lat="39.4977372" lon="3.1662374">
<ele>90.85</ele>
<time>2016-10-14T09:26:27Z</time>
</trkpt>
<trkpt lat="39.4975611" lon="3.1660600">
<ele>90.92</ele>
<time>2016-10-14T09:26:31Z</time>
</trkpt>
<trkpt lat="39.4973860" lon="3.1658660">
<ele>89.80</ele>
<time>2016-10-14T09:26:35Z</time>
</trkpt>
<trkpt lat="39.4972187" lon="3.1656812">
<ele>89.17</ele>
<time>2016-10-14T09:26:39Z</time>
</trkpt>
<trkpt lat="39.4970339" lon="3.1654975">
<ele>89.19</ele>
<time>2016-10-14T09:26:43Z</time>
</trkpt>
<trkpt lat="39.4968469" lon="3.1653290">
<ele>91.13</ele>
<time>2016-10-14T09:26:47Z</time>
</trkpt>
<trkpt lat="39.4966657" lon="3.1651558">
<ele>92.98</ele>
<time>2016-10-14T09:26:51Z</time>
</trkpt>
<trkpt lat="39.4965168" lon="3.1650173">
<ele>92.30</ele>
<time>2016-10-14T09:26:54Z</time>
</trkpt>
<trkpt lat="39.4963225" lon="3.1648410">
<ele>91.35</ele>
<time>2016-10-14T09:26:58Z</time>
</trkpt>
<trkpt lat="39.4961193" lon="3.1646781">
<ele>91.13</ele>
<time>2016-10-14T09:27:02Z</time>
</trkpt>
<trkpt lat="39.4959607" lon="3.1645554">
<ele>91.18</ele>
<time>2016-10-14T09:27:05Z</time>
</trkpt>
<trkpt lat="39.4957935" lon="3.1644268">
<ele>91.13</ele>
<time>2016-10-14T09:27:08Z</time>
</trkpt>
<trkpt lat="39.4956254" lon="3.1643087">
<ele>90.69</ele>
<time>2016-10-14T09:27:11Z</time>
</trkpt>
<trkpt lat="39.4954584" lon="3.1642051">
<ele>90.81</ele>
<time>2016-10-14T09:27:14Z</time>
</trkpt>
<trkpt lat="39.4952886" lon="3.1641033">
<ele>91.03</ele>
<time>2016-10-14T09:27:17Z</time>
</trkpt>
<trkpt lat="39.4951170" lon="3.1640004">
<ele>91.18</ele>
<time>2016-10-14T09:27:20Z</time>
</trkpt>
<trkpt lat="39.4949414" lon="3.1638999">
<ele>91.46</ele>
<time>2016-10-14T09:27:23Z</time>
</trkpt>
<trkpt lat="39.4947690" lon="3.1638054">
<ele>92.78</ele>
<time>2016-10-14T09:27:26Z</time>
</trkpt>
<trkpt lat="39.4945917" lon="3.1637012">
<ele>92.59</ele>
<time>2016-10-14T09:27:29Z</time>
</trkpt>
<trkpt lat="39.4944129" lon="3.1636075">
<ele>91.53</ele>
<time>2016-10-14T09:27:32Z</time>
</trkpt>
<trkpt lat="39.4942387" lon="3.1635124">
<ele>90.78</ele>
<time>2016-10-14T09:27:35Z</time>
</trkpt>
<trkpt lat="39.4940547" lon="3.1634090">
<ele>90.71</ele>
<time>2016-10-14T09:27:38Z</time>
</trkpt>
<trkpt lat="39.4938716" lon="3.1633148">
<ele>91.18</ele>
<time>2016-10-14T09:27:41Z</time>
</trkpt>
<trkpt lat="39.4936906" lon="3.1632134">
<ele>91.08</ele>
<time>2016-10-14T09:27:44Z</time>
</trkpt>
<trkpt lat="39.4935237" lon="3.1631098">
<ele>90.66</ele>
<time>2016-10-14T09:27:47Z</time>
</trkpt>
<trkpt lat="39.4933394" lon="3.1629983">
<ele>90.48</ele>
<time>2016-10-14T09:27:50Z</time>
</trkpt>
<trkpt lat="39.4931662" lon="3.1628934">
<ele>89.98</ele>
<time>2016-10-14T09:27:53Z</time>
</trkpt>
<trkpt lat="39.4929894" lon="3.1627940">
<ele>90.05</ele>
<time>2016-10-14T09:27:56Z</time>
</trkpt>
<trkpt lat="39.4928208" lon="3.1627016">
<ele>90.66</ele>
<time>2016-10-14T09:27:59Z</time>
</trkpt>
<trkpt lat="39.4926042" lon="3.1625864">
<ele>90.75</ele>
<time>2016-10-14T09:28:03Z</time>
</trkpt>
<trkpt lat="39.4923978" lon="3.1624598">
<ele>89.66</ele>
<time>2016-10-14T09:28:07Z</time>
</trkpt>
<trkpt lat="39.4922059" lon="3.1623454">
<ele>90.37</ele>
<time>2016-10-14T09:28:11Z</time>
</trkpt>
<trkpt lat="39.4920123" lon="3.1622324">
<ele>90.61</ele>
<time>2016-10-14T09:28:15Z</time>
</trkpt>
<trkpt lat="39.4917963" lon="3.1621138">
<ele>91.94</ele>
<time>2016-10-14T09:28:19Z</time>
</trkpt>
<trkpt lat="39.4915802" lon="3.1620032">
<ele>92.45</ele>
<time>2016-10-14T09:28:23Z</time>
</trkpt>
<trkpt lat="39.4914107" lon="3.1619111">
<ele>92.83</ele>
<time>2016-10-14T09:28:26Z</time>
</trkpt>
<trkpt lat="39.4912391" lon="3.1618057">
<ele>93.02</ele>
<time>2016-10-14T09:28:29Z</time>
</trkpt>
<trkpt lat="39.4910711" lon="3.1617035">
<ele>92.71</ele>
<time>2016-10-14T09:28:31Z</time>
</trkpt>
<trkpt lat="39.4908542" lon="3.1615843">
<ele>92.42</ele>
<time>2016-10-14T09:28:35Z</time>
</trkpt>
<trkpt lat="39.4906496" lon="3.1614789">
<ele>92.46</ele>
<time>2016-10-14T09:28:39Z</time>
</trkpt>
<trkpt lat="39.4904349" lon="3.1613641">
<ele>91.91</ele>
<time>2016-10-14T09:28:43Z</time>
</trkpt>
<trkpt lat="39.4902597" lon="3.1612602">
<ele>91.54</ele>
<time>2016-10-14T09:28:47Z</time>
</trkpt>
<trkpt lat="39.4900756" lon="3.1611434">
<ele>92.01</ele>
<time>2016-10-14T09:28:51Z</time>
</trkpt>
<trkpt lat="39.4899015" lon="3.1610491">
<ele>92.09</ele>
<time>2016-10-14T09:28:54Z</time>
</trkpt>
<trkpt lat="39.4897304" lon="3.1609610">
<ele>91.64</ele>
<time>2016-10-14T09:28:57Z</time>
</trkpt>
<trkpt lat="39.4895299" lon="3.1608424">
<ele>91.48</ele>
<time>2016-10-14T09:29:01Z</time>
</trkpt>
<trkpt lat="39.4893343" lon="3.1607237">
<ele>92.31</ele>
<time>2016-10-14T09:29:05Z</time>
</trkpt>
<trkpt lat="39.4891294" lon="3.1606168">
<ele>92.79</ele>
<time>2016-10-14T09:29:09Z</time>
</trkpt>
<trkpt lat="39.4889276" lon="3.1604960">
<ele>93.67</ele>
<time>2016-10-14T09:29:13Z</time>
</trkpt>
<trkpt lat="39.4887459" lon="3.1603989">
<ele>95.02</ele>
<time>2016-10-14T09:29:16Z</time>
</trkpt>
<trkpt lat="39.4885334" lon="3.1602829">
<ele>95.34</ele>
<time>2016-10-14T09:29:20Z</time>
</trkpt>
<trkpt lat="39.4883608" lon="3.1601979">
<ele>95.09</ele>
<time>2016-10-14T09:29:23Z</time>
</trkpt>
<trkpt lat="39.4881856" lon="3.1601067">
<ele>95.22</ele>
<time>2016-10-14T09:29:26Z</time>
</trkpt>
<trkpt lat="39.4880119" lon="3.1600042">
<ele>96.18</ele>
<time>2016-10-14T09:29:29Z</time>
</trkpt>
<trkpt lat="39.4878224" lon="3.1598826">
<ele>96.41</ele>
<time>2016-10-14T09:29:33Z</time>
</trkpt>
<trkpt lat="39.4876508" lon="3.1597883">
<ele>96.59</ele>
<time>2016-10-14T09:29:36Z</time>
</trkpt>
<trkpt lat="39.4874476" lon="3.1596704">
<ele>96.54</ele>
<time>2016-10-14T09:29:40Z</time>
</trkpt>
<trkpt lat="39.4872414" lon="3.1595599">
<ele>96.66</ele>
<time>2016-10-14T09:29:44Z</time>
</trkpt>
<trkpt lat="39.4870237" lon="3.1594362">
<ele>96.95</ele>
<time>2016-10-14T09:29:48Z</time>
</trkpt>
<trkpt lat="39.4868272" lon="3.1593183">
<ele>96.80</ele>
<time>2016-10-14T09:29:52Z</time>
</trkpt>
<trkpt lat="39.4866121" lon="3.1592109">
<ele>97.44</ele>
<time>2016-10-14T09:29:56Z</time>
</trkpt>
<trkpt lat="39.4863950" lon="3.1590936">
<ele>97.62</ele>
<time>2016-10-14T09:30:00Z</time>
</trkpt>
<trkpt lat="39.4861850" lon="3.1589693">
<ele>97.05</ele>
<time>2016-10-14T09:30:04Z</time>
</trkpt>
<trkpt lat="39.4859788" lon="3.1588547">
<ele>97.42</ele>
<time>2016-10-14T09:30:08Z</time>
</trkpt>
<trkpt lat="39.4857845" lon="3.1587337">
<ele>98.78</ele>
<time>2016-10-14T09:30:12Z</time>
</trkpt>
<trkpt lat="39.4855776" lon="3.1586108">
<ele>97.63</ele>
<time>2016-10-14T09:30:16Z</time>
</trkpt>
<trkpt lat="39.4853748" lon="3.1584738">
<ele>95.56</ele>
<time>2016-10-14T09:30:20Z</time>
</trkpt>
<trkpt lat="39.4851713" lon="3.1583320">
<ele>94.64</ele>
<time>2016-10-14T09:30:24Z</time>
</trkpt>
<trkpt lat="39.4849780" lon="3.1581910">
<ele>96.41</ele>
<time>2016-10-14T09:30:28Z</time>
</trkpt>
<trkpt lat="39.4847841" lon="3.1580516">
<ele>97.26</ele>
<time>2016-10-14T09:30:32Z</time>
</trkpt>
<trkpt lat="39.4845832" lon="3.1579077">
<ele>97.55</ele>
<time>2016-10-14T09:30:36Z</time>
</trkpt>
<trkpt lat="39.4844044" lon="3.1577647">
<ele>97.15</ele>
<time>2016-10-14T09:30:40Z</time>
</trkpt>
<trkpt lat="39.4842228" lon="3.1576216">
<ele>97.03</ele>
<time>2016-10-14T09:30:44Z</time>
</trkpt>
<trkpt lat="39.4840574" lon="3.1574917">
<ele>96.15</ele>
<time>2016-10-14T09:30:48Z</time>
</trkpt>
<trkpt lat="39.4838789" lon="3.1573583">
<ele>95.04</ele>
<time>2016-10-14T09:30:52Z</time>
</trkpt>
<trkpt lat="39.4837220" lon="3.1572245">
<ele>94.44</ele>
<time>2016-10-14T09:30:56Z</time>
</trkpt>
<trkpt lat="39.4835782" lon="3.1570826">
<ele>94.93</ele>
<time>2016-10-14T09:30:59Z</time>
</trkpt>
<trkpt lat="39.4834215" lon="3.1569133">
<ele>96.21</ele>
<time>2016-10-14T09:31:03Z</time>
</trkpt>
<trkpt lat="39.4832447" lon="3.1567552">
<ele>96.54</ele>
<time>2016-10-14T09:31:07Z</time>
</trkpt>
<trkpt lat="39.4830566" lon="3.1565874">
<ele>96.43</ele>
<time>2016-10-14T09:31:11Z</time>
</trkpt>
<trkpt lat="39.4828826" lon="3.1564227">
<ele>96.48</ele>
<time>2016-10-14T09:31:15Z</time>
</trkpt>
<trkpt lat="39.4826988" lon="3.1562540">
<ele>96.35</ele>
<time>2016-10-14T09:31:19Z</time>
</trkpt>
<trkpt lat="39.4825064" lon="3.1561032">
<ele>96.33</ele>
<time>2016-10-14T09:31:23Z</time>
</trkpt>
<trkpt lat="39.4823087" lon="3.1559498">
<ele>96.17</ele>
<time>2016-10-14T09:31:27Z</time>
</trkpt>
<trkpt lat="39.4821103" lon="3.1558078">
<ele>96.36</ele>
<time>2016-10-14T09:31:31Z</time>
</trkpt>
<trkpt lat="39.4819245" lon="3.1556826">
<ele>96.90</ele>
<time>2016-10-14T09:31:35Z</time>
</trkpt>
<trkpt lat="39.4817266" lon="3.1555359">
<ele>97.37</ele>
<time>2016-10-14T09:31:39Z</time>
</trkpt>
<trkpt lat="39.4815253" lon="3.1553867">
<ele>97.27</ele>
<time>2016-10-14T09:31:43Z</time>
</trkpt>
<trkpt lat="39.4813605" lon="3.1552832">
<ele>98.10</ele>
<time>2016-10-14T09:31:47Z</time>
</trkpt>
<trkpt lat="39.4811776" lon="3.1551702">
<ele>99.04</ele>
<time>2016-10-14T09:31:51Z</time>
</trkpt>
<trkpt lat="39.4809773" lon="3.1550641">
<ele>99.68</ele>
<time>2016-10-14T09:31:55Z</time>
</trkpt>
<trkpt lat="39.4807719" lon="3.1549729">
<ele>100.07</ele>
<time>2016-10-14T09:31:59Z</time>
</trkpt>
<trkpt lat="39.4805705" lon="3.1548875">
<ele>100.38</ele>
<time>2016-10-14T09:32:03Z</time>
</trkpt>
<trkpt lat="39.4803557" lon="3.1548150">
<ele>100.97</ele>
<time>2016-10-14T09:32:07Z</time>
</trkpt>
<trkpt lat="39.4801499" lon="3.1547604">
<ele>101.00</ele>
<time>2016-10-14T09:32:11Z</time>
</trkpt>
<trkpt lat="39.4799407" lon="3.1547229">
<ele>102.53</ele>
<time>2016-10-14T09:32:15Z</time>
</trkpt>
<trkpt lat="39.4797325" lon="3.1546941">
<ele>103.90</ele>
<time>2016-10-14T09:32:19Z</time>
</trkpt>
<trkpt lat="39.4794944" lon="3.1546739">
<ele>104.46</ele>
<time>2016-10-14T09:32:23Z</time>
</trkpt>
<trkpt lat="39.4792851" lon="3.1546755">
<ele>104.46</ele>
<time>2016-10-14T09:32:27Z</time>
</trkpt>
<trkpt lat="39.4790696" lon="3.1546925">
<ele>105.03</ele>
<time>2016-10-14T09:32:31Z</time>
</trkpt>
<trkpt lat="39.4788589" lon="3.1547212">
<ele>106.79</ele>
<time>2016-10-14T09:32:35Z</time>
</trkpt>
<trkpt lat="39.4786434" lon="3.1547666">
<ele>108.90</ele>
<time>2016-10-14T09:32:39Z</time>
</trkpt>
<trkpt lat="39.4784234" lon="3.1548328">
<ele>108.67</ele>
<time>2016-10-14T09:32:43Z</time>
</trkpt>
<trkpt lat="39.4782191" lon="3.1549115">
<ele>107.99</ele>
<time>2016-10-14T09:32:47Z</time>
</trkpt>
<trkpt lat="39.4780209" lon="3.1550059">
<ele>107.59</ele>
<time>2016-10-14T09:32:51Z</time>
</trkpt>
<trkpt lat="39.4778326" lon="3.1551079">
<ele>109.42</ele>
<time>2016-10-14T09:32:55Z</time>
</trkpt>
<trkpt lat="39.4776459" lon="3.1552128">
<ele>110.89</ele>
<time>2016-10-14T09:32:59Z</time>
</trkpt>
<trkpt lat="39.4774651" lon="3.1553348">
<ele>111.33</ele>
<time>2016-10-14T09:33:03Z</time>
</trkpt>
<trkpt lat="39.4772938" lon="3.1554525">
<ele>111.35</ele>
<time>2016-10-14T09:33:07Z</time>
</trkpt>
<trkpt lat="39.4771368" lon="3.1555818">
<ele>111.48</ele>
<time>2016-10-14T09:33:11Z</time>
</trkpt>
<trkpt lat="39.4769758" lon="3.1557237">
<ele>111.56</ele>
<time>2016-10-14T09:33:16Z</time>
</trkpt>
<trkpt lat="39.4767891" lon="3.1558492">
<ele>111.26</ele>
<time>2016-10-14T09:33:24Z</time>
</trkpt>
<trkpt lat="39.4765858" lon="3.1558732">
<ele>111.81</ele>
<time>2016-10-14T09:33:30Z</time>
</trkpt>
<trkpt lat="39.4764208" lon="3.1559682">
<ele>112.93</ele>
<time>2016-10-14T09:33:34Z</time>
</trkpt>
<trkpt lat="39.4762985" lon="3.1561891">
<ele>115.23</ele>
<time>2016-10-14T09:33:39Z</time>
</trkpt>
<trkpt lat="39.4761913" lon="3.1563811">
<ele>115.66</ele>
<time>2016-10-14T09:33:44Z</time>
</trkpt>
<trkpt lat="39.4760482" lon="3.1565462">
<ele>115.83</ele>
<time>2016-10-14T09:33:51Z</time>
</trkpt>
<trkpt lat="39.4758952" lon="3.1566862">
<ele>115.79</ele>
<time>2016-10-14T09:33:57Z</time>
</trkpt>
<trkpt lat="39.4757347" lon="3.1568399">
<ele>115.69</ele>
<time>2016-10-14T09:34:04Z</time>
</trkpt>
<trkpt lat="39.4755615" lon="3.1569867">
<ele>115.78</ele>
<time>2016-10-14T09:34:10Z</time>
</trkpt>
<trkpt lat="39.4753912" lon="3.1571364">
<ele>116.95</ele>
<time>2016-10-14T09:34:16Z</time>
</trkpt>
<trkpt lat="39.4752419" lon="3.1572766">
<ele>117.29</ele>
<time>2016-10-14T09:34:21Z</time>
</trkpt>
<trkpt lat="39.4750740" lon="3.1574311">
<ele>117.68</ele>
<time>2016-10-14T09:34:27Z</time>
</trkpt>
<trkpt lat="39.4749104" lon="3.1575817">
<ele>118.51</ele>
<time>2016-10-14T09:34:32Z</time>
</trkpt>
<trkpt lat="39.4747511" lon="3.1577303">
<ele>119.86</ele>
<time>2016-10-14T09:34:38Z</time>
</trkpt>
<trkpt lat="39.4745861" lon="3.1579002">
<ele>121.74</ele>
<time>2016-10-14T09:34:44Z</time>
</trkpt>
<trkpt lat="39.4744301" lon="3.1580301">
<ele>122.67</ele>
<time>2016-10-14T09:34:49Z</time>
</trkpt>
<trkpt lat="39.4742655" lon="3.1581735">
<ele>124.31</ele>
<time>2016-10-14T09:34:54Z</time>
</trkpt>
<trkpt lat="39.4740884" lon="3.1583167">
<ele>125.48</ele>
<time>2016-10-14T09:35:00Z</time>
</trkpt>
<trkpt lat="39.4739257" lon="3.1584520">
<ele>125.73</ele>
<time>2016-10-14T09:35:05Z</time>
</trkpt>
<trkpt lat="39.4737281" lon="3.1585017">
<ele>126.80</ele>
<time>2016-10-14T09:35:10Z</time>
</trkpt>
<trkpt lat="39.4735290" lon="3.1584318">
<ele>126.99</ele>
<time>2016-10-14T09:35:14Z</time>
</trkpt>
<trkpt lat="39.4733372" lon="3.1585178">
<ele>127.62</ele>
<time>2016-10-14T09:35:20Z</time>
</trkpt>
<trkpt lat="39.4732676" lon="3.1587568">
<ele>129.39</ele>
<time>2016-10-14T09:35:25Z</time>
</trkpt>
<trkpt lat="39.4732176" lon="3.1590171">
<ele>129.66</ele>
<time>2016-10-14T09:35:29Z</time>
</trkpt>
<trkpt lat="39.4731699" lon="3.1592658">
<ele>128.23</ele>
<time>2016-10-14T09:35:33Z</time>
</trkpt>
<trkpt lat="39.4731138" lon="3.1595228">
<ele>128.07</ele>
<time>2016-10-14T09:35:37Z</time>
</trkpt>
<trkpt lat="39.4730562" lon="3.1598102">
<ele>127.78</ele>
<time>2016-10-14T09:35:41Z</time>
</trkpt>
<trkpt lat="39.4729851" lon="3.1600919">
<ele>127.75</ele>
<time>2016-10-14T09:35:45Z</time>
</trkpt>
<trkpt lat="39.4729214" lon="3.1603661">
<ele>127.47</ele>
<time>2016-10-14T09:35:49Z</time>
</trkpt>
<trkpt lat="39.4728567" lon="3.1606198">
<ele>128.32</ele>
<time>2016-10-14T09:35:53Z</time>
</trkpt>
<trkpt lat="39.4727891" lon="3.1608907">
<ele>129.10</ele>
<time>2016-10-14T09:35:57Z</time>
</trkpt>
<trkpt lat="39.4727312" lon="3.1611735">
<ele>128.15</ele>
<time>2016-10-14T09:36:01Z</time>
</trkpt>
<trkpt lat="39.4726672" lon="3.1614738">
<ele>127.16</ele>
<time>2016-10-14T09:36:05Z</time>
</trkpt>
<trkpt lat="39.4726048" lon="3.1616989">
<ele>127.54</ele>
<time>2016-10-14T09:36:08Z</time>
</trkpt>
<trkpt lat="39.4725285" lon="3.1619910">
<ele>128.72</ele>
<time>2016-10-14T09:36:12Z</time>
</trkpt>
<trkpt lat="39.4724804" lon="3.1622285">
<ele>129.03</ele>
<time>2016-10-14T09:36:15Z</time>
</trkpt>
<trkpt lat="39.4724315" lon="3.1624745">
<ele>129.27</ele>
<time>2016-10-14T09:36:18Z</time>
</trkpt>
<trkpt lat="39.4723779" lon="3.1627332">
<ele>129.00</ele>
<time>2016-10-14T09:36:21Z</time>
</trkpt>
<trkpt lat="39.4723180" lon="3.1629889">
<ele>127.59</ele>
<time>2016-10-14T09:36:24Z</time>
</trkpt>
<trkpt lat="39.4722611" lon="3.1632396">
<ele>126.52</ele>
<time>2016-10-14T09:36:27Z</time>
</trkpt>
<trkpt lat="39.4722081" lon="3.1634789">
<ele>126.87</ele>
<time>2016-10-14T09:36:30Z</time>
</trkpt>
<trkpt lat="39.4721528" lon="3.1637146">
<ele>127.27</ele>
<time>2016-10-14T09:36:33Z</time>
</trkpt>
<trkpt lat="39.4720854" lon="3.1640100">
<ele>127.12</ele>
<time>2016-10-14T09:36:37Z</time>
</trkpt>
<trkpt lat="39.4720205" lon="3.1643086">
<ele>127.80</ele>
<time>2016-10-14T09:36:42Z</time>
</trkpt>
<trkpt lat="39.4719503" lon="3.1645697">
<ele>128.03</ele>
<time>2016-10-14T09:36:46Z</time>
</trkpt>
<trkpt lat="39.4718681" lon="3.1648229">
<ele>128.52</ele>
<time>2016-10-14T09:36:50Z</time>
</trkpt>
<trkpt lat="39.4718094" lon="3.1650773">
<ele>128.58</ele>
<time>2016-10-14T09:36:54Z</time>
</trkpt>
<trkpt lat="39.4717517" lon="3.1653242">
<ele>129.46</ele>
<time>2016-10-14T09:36:58Z</time>
</trkpt>
<trkpt lat="39.4716831" lon="3.1655738">
<ele>129.90</ele>
<time>2016-10-14T09:37:02Z</time>
</trkpt>
<trkpt lat="39.4716389" lon="3.1658185">
<ele>130.05</ele>
<time>2016-10-14T09:37:06Z</time>
</trkpt>
<trkpt lat="39.4715898" lon="3.1660694">
<ele>130.70</ele>
<time>2016-10-14T09:37:10Z</time>
</trkpt>
<trkpt lat="39.4715207" lon="3.1663201">
<ele>131.45</ele>
<time>2016-10-14T09:37:14Z</time>
</trkpt>
<trkpt lat="39.4714518" lon="3.1665733">
<ele>131.99</ele>
<time>2016-10-14T09:37:18Z</time>
</trkpt>
<trkpt lat="39.4713832" lon="3.1668375">
<ele>132.28</ele>
<time>2016-10-14T09:37:22Z</time>
</trkpt>
<trkpt lat="39.4713131" lon="3.1670999">
<ele>132.82</ele>
<time>2016-10-14T09:37:26Z</time>
</trkpt>
<trkpt lat="39.4712519" lon="3.1673562">
<ele>133.83</ele>
<time>2016-10-14T09:37:30Z</time>
</trkpt>
<trkpt lat="39.4711840" lon="3.1675995">
<ele>134.75</ele>
<time>2016-10-14T09:37:34Z</time>
</trkpt>
<trkpt lat="39.4711225" lon="3.1678509">
<ele>135.20</ele>
<time>2016-10-14T09:37:38Z</time>
</trkpt>
<trkpt lat="39.4710720" lon="3.1680827">
<ele>135.60</ele>
<time>2016-10-14T09:37:42Z</time>
</trkpt>
<trkpt lat="39.4709435" lon="3.1682755">
<ele>135.93</ele>
<time>2016-10-14T09:37:47Z</time>
</trkpt>
<trkpt lat="39.4707540" lon="3.1683029">
<ele>138.20</ele>
<time>2016-10-14T09:37:52Z</time>
</trkpt>
<trkpt lat="39.4705461" lon="3.1683179">
<ele>139.59</ele>
<time>2016-10-14T09:37:57Z</time>
</trkpt>
<trkpt lat="39.4703447" lon="3.1683717">
<ele>140.21</ele>
<time>2016-10-14T09:38:02Z</time>
</trkpt>
<trkpt lat="39.4701388" lon="3.1684104">
<ele>141.43</ele>
<time>2016-10-14T09:38:08Z</time>
</trkpt>
<trkpt lat="39.4699456" lon="3.1684286">
<ele>141.51</ele>
<time>2016-10-14T09:38:13Z</time>
</trkpt>
<trkpt lat="39.4697258" lon="3.1684587">
<ele>142.52</ele>
<time>2016-10-14T09:38:18Z</time>
</trkpt>
<trkpt lat="39.4695085" lon="3.1684971">
<ele>141.98</ele>
<time>2016-10-14T09:38:23Z</time>
</trkpt>
<trkpt lat="39.4693063" lon="3.1685149">
<ele>142.73</ele>
<time>2016-10-14T09:38:28Z</time>
</trkpt>
<trkpt lat="39.4691302" lon="3.1685696">
<ele>144.39</ele>
<time>2016-10-14T09:38:33Z</time>
</trkpt>
<trkpt lat="39.4689204" lon="3.1686556">
<ele>144.81</ele>
<time>2016-10-14T09:38:38Z</time>
</trkpt>
<trkpt lat="39.4687211" lon="3.1687452">
<ele>145.76</ele>
<time>2016-10-14T09:38:43Z</time>
</trkpt>
<trkpt lat="39.4685387" lon="3.1688365">
<ele>146.56</ele>
<time>2016-10-14T09:38:48Z</time>
</trkpt>
<trkpt lat="39.4683618" lon="3.1689194">
<ele>147.26</ele>
<time>2016-10-14T09:38:53Z</time>
</trkpt>
<trkpt lat="39.4681757" lon="3.1690024">
<ele>147.78</ele>
<time>2016-10-14T09:38:59Z</time>
</trkpt>
<trkpt lat="39.4679751" lon="3.1690701">
<ele>148.68</ele>
<time>2016-10-14T09:39:05Z</time>
</trkpt>
<trkpt lat="39.4677976" lon="3.1691461">
<ele>149.63</ele>
<time>2016-10-14T09:39:11Z</time>
</trkpt>
<trkpt lat="39.4676205" lon="3.1692385">
<ele>150.22</ele>
<time>2016-10-14T09:39:17Z</time>
</trkpt>
<trkpt lat="39.4674412" lon="3.1693424">
<ele>150.22</ele>
<time>2016-10-14T09:39:23Z</time>
</trkpt>
<trkpt lat="39.4672919" lon="3.1694735">
<ele>150.38</ele>
<time>2016-10-14T09:39:29Z</time>
</trkpt>
<trkpt lat="39.4671439" lon="3.1696088">
<ele>150.73</ele>
<time>2016-10-14T09:39:35Z</time>
</trkpt>
<trkpt lat="39.4669945" lon="3.1697494">
<ele>151.27</ele>
<time>2016-10-14T09:39:41Z</time>
</trkpt>
<trkpt lat="39.4668222" lon="3.1698970">
<ele>151.67</ele>
<time>2016-10-14T09:39:48Z</time>
</trkpt>
<trkpt lat="39.4666565" lon="3.1700450">
<ele>152.23</ele>
<time>2016-10-14T09:39:55Z</time>
</trkpt>
<trkpt lat="39.4665058" lon="3.1701959">
<ele>152.70</ele>
<time>2016-10-14T09:40:02Z</time>
</trkpt>
<trkpt lat="39.4663458" lon="3.1703354">
<ele>153.41</ele>
<time>2016-10-14T09:40:09Z</time>
</trkpt>
<trkpt lat="39.4661820" lon="3.1704955">
<ele>154.03</ele>
<time>2016-10-14T09:40:17Z</time>
</trkpt>
<trkpt lat="39.4660283" lon="3.1706362">
<ele>155.04</ele>
<time>2016-10-14T09:40:24Z</time>
</trkpt>
<trkpt lat="39.4658701" lon="3.1707715">
<ele>156.13</ele>
<time>2016-10-14T09:40:31Z</time>
</trkpt>
<trkpt lat="39.4657057" lon="3.1709190">
<ele>156.95</ele>
<time>2016-10-14T09:40:38Z</time>
</trkpt>
<trkpt lat="39.4655464" lon="3.1710757">
<ele>157.96</ele>
<time>2016-10-14T09:40:46Z</time>
</trkpt>
<trkpt lat="39.4653994" lon="3.1712221">
<ele>158.96</ele>
<time>2016-10-14T09:40:53Z</time>
</trkpt>
<trkpt lat="39.4652348" lon="3.1713699">
<ele>159.85</ele>
<time>2016-10-14T09:41:01Z</time>
</trkpt>
<trkpt lat="39.4650730" lon="3.1715090">
<ele>160.88</ele>
<time>2016-10-14T09:41:09Z</time>
</trkpt>
<trkpt lat="39.4649235" lon="3.1716426">
<ele>162.02</ele>
<time>2016-10-14T09:41:17Z</time>
</trkpt>
<trkpt lat="39.4647435" lon="3.1716834">
<ele>160.44</ele>
<time>2016-10-14T09:42:56Z</time>
</trkpt>
<trkpt lat="39.4646191" lon="3.1718654">
<ele>163.21</ele>
<time>2016-10-14T09:43:10Z</time>
</trkpt>
<trkpt lat="39.4644673" lon="3.1720276">
<ele>165.04</ele>
<time>2016-10-14T09:43:18Z</time>
</trkpt>
<trkpt lat="39.4643199" lon="3.1721847">
<ele>166.69</ele>
<time>2016-10-14T09:43:26Z</time>
</trkpt>
<trkpt lat="39.4641676" lon="3.1723313">
<ele>168.18</ele>
<time>2016-10-14T09:43:34Z</time>
</trkpt>
<trkpt lat="39.4640042" lon="3.1724865">
<ele>169.79</ele>
<time>2016-10-14T09:43:42Z</time>
</trkpt>
<trkpt lat="39.4638413" lon="3.1726295">
<ele>171.09</ele>
<time>2016-10-14T09:43:49Z</time>
</trkpt>
<trkpt lat="39.4636810" lon="3.1727632">
<ele>172.47</ele>
<time>2016-10-14T09:43:57Z</time>
</trkpt>
<trkpt lat="39.4635256" lon="3.1729039">
<ele>173.87</ele>
<time>2016-10-14T09:44:05Z</time>
</trkpt>
<trkpt lat="39.4633686" lon="3.1730490">
<ele>175.66</ele>
<time>2016-10-14T09:44:14Z</time>
</trkpt>
<trkpt lat="39.4632235" lon="3.1731943">
<ele>177.38</ele>
<time>2016-10-14T09:44:22Z</time>
</trkpt>
<trkpt lat="39.4630791" lon="3.1733422">
<ele>178.74</ele>
<time>2016-10-14T09:44:30Z</time>
</trkpt>
<trkpt lat="39.4629334" lon="3.1734998">
<ele>180.29</ele>
<time>2016-10-14T09:44:38Z</time>
</trkpt>
<trkpt lat="39.4627633" lon="3.1736343">
<ele>181.51</ele>
<time>2016-10-14T09:44:46Z</time>
</trkpt>
<trkpt lat="39.4626142" lon="3.1737899">
<ele>183.13</ele>
<time>2016-10-14T09:44:54Z</time>
</trkpt>
<trkpt lat="39.4624565" lon="3.1739556">
<ele>185.08</ele>
<time>2016-10-14T09:45:03Z</time>
</trkpt>
<trkpt lat="39.4622993" lon="3.1740800">
<ele>186.62</ele>
<time>2016-10-14T09:45:11Z</time>
</trkpt>
<trkpt lat="39.4621310" lon="3.1742225">
<ele>188.80</ele>
<time>2016-10-14T09:45:20Z</time>
</trkpt>
<trkpt lat="39.4619640" lon="3.1743489">
<ele>190.67</ele>
<time>2016-10-14T09:45:29Z</time>
</trkpt>
<trkpt lat="39.4617898" lon="3.1744324">
<ele>192.06</ele>
<time>2016-10-14T09:45:37Z</time>
</trkpt>
<trkpt lat="39.4616174" lon="3.1745034">
<ele>193.24</ele>
<time>2016-10-14T09:45:45Z</time>
</trkpt>
<trkpt lat="39.4614360" lon="3.1745554">
<ele>194.57</ele>
<time>2016-10-14T09:45:53Z</time>
</trkpt>
<trkpt lat="39.4612376" lon="3.1746037">
<ele>195.98</ele>
<time>2016-10-14T09:46:01Z</time>
</trkpt>
<trkpt lat="39.4610792" lon="3.1747143">
<ele>197.19</ele>
<time>2016-10-14T09:46:08Z</time>
</trkpt>
<trkpt lat="39.4609664" lon="3.1749338">
<ele>198.05</ele>
<time>2016-10-14T09:46:17Z</time>
</trkpt>
<trkpt lat="39.4608852" lon="3.1751643">
<ele>199.23</ele>
<time>2016-10-14T09:46:25Z</time>
</trkpt>
<trkpt lat="39.4608317" lon="3.1754155">
<ele>200.60</ele>
<time>2016-10-14T09:46:33Z</time>
</trkpt>
<trkpt lat="39.4607918" lon="3.1756444">
<ele>201.62</ele>
<time>2016-10-14T09:46:40Z</time>
</trkpt>
<trkpt lat="39.4606395" lon="3.1757867">
<ele>202.70</ele>
<time>2016-10-14T09:46:49Z</time>
</trkpt>
<trkpt lat="39.4604575" lon="3.1757316">
<ele>203.86</ele>
<time>2016-10-14T09:46:56Z</time>
</trkpt>
<trkpt lat="39.4602839" lon="3.1756524">
<ele>204.93</ele>
<time>2016-10-14T09:47:03Z</time>
</trkpt>
<trkpt lat="39.4600956" lon="3.1756170">
<ele>205.63</ele>
<time>2016-10-14T09:47:11Z</time>
</trkpt>
<trkpt lat="39.4598956" lon="3.1756138">
<ele>207.60</ele>
<time>2016-10-14T09:47:20Z</time>
</trkpt>
<trkpt lat="39.4597020" lon="3.1756559">
<ele>209.98</ele>
<time>2016-10-14T09:47:29Z</time>
</trkpt>
<trkpt lat="39.4596971" lon="3.1758965">
<ele>211.78</ele>
<time>2016-10-14T09:47:42Z</time>
</trkpt>
<trkpt lat="39.4597907" lon="3.1761227">
<ele>214.27</ele>
<time>2016-10-14T09:47:52Z</time>
</trkpt>
<trkpt lat="39.4598485" lon="3.1763586">
<ele>216.53</ele>
<time>2016-10-14T09:48:00Z</time>
</trkpt>
<trkpt lat="39.4598644" lon="3.1766161">
<ele>219.26</ele>
<time>2016-10-14T09:48:09Z</time>
</trkpt>
<trkpt lat="39.4598999" lon="3.1768617">
<ele>221.43</ele>
<time>2016-10-14T09:48:17Z</time>
</trkpt>
<trkpt lat="39.4599371" lon="3.1770915">
<ele>222.58</ele>
<time>2016-10-14T09:48:24Z</time>
</trkpt>
<trkpt lat="39.4600070" lon="3.1773268">
<ele>223.65</ele>
<time>2016-10-14T09:48:33Z</time>
</trkpt>
<trkpt lat="39.4600711" lon="3.1775592">
<ele>225.37</ele>
<time>2016-10-14T09:48:42Z</time>
</trkpt>
<trkpt lat="39.4601636" lon="3.1777662">
<ele>227.26</ele>
<time>2016-10-14T09:48:51Z</time>
</trkpt>
<trkpt lat="39.4601645" lon="3.1780004">
<ele>228.90</ele>
<time>2016-10-14T09:49:00Z</time>
</trkpt>
<trkpt lat="39.4599710" lon="3.1780212">
<ele>230.20</ele>
<time>2016-10-14T09:49:10Z</time>
</trkpt>
<trkpt lat="39.4597678" lon="3.1780257">
<ele>230.69</ele>
<time>2016-10-14T09:49:19Z</time>
</trkpt>
<trkpt lat="39.4595866" lon="3.1780155">
<ele>230.86</ele>
<time>2016-10-14T09:49:27Z</time>
</trkpt>
<trkpt lat="39.4594036" lon="3.1780443">
<ele>232.35</ele>
<time>2016-10-14T09:49:39Z</time>
</trkpt>
<trkpt lat="39.4594188" lon="3.1782900">
<ele>234.56</ele>
<time>2016-10-14T09:49:51Z</time>
</trkpt>
<trkpt lat="39.4594536" lon="3.1785219">
<ele>236.98</ele>
<time>2016-10-14T09:50:01Z</time>
</trkpt>
<trkpt lat="39.4592636" lon="3.1785970">
<ele>239.83</ele>
<time>2016-10-14T09:50:14Z</time>
</trkpt>
<trkpt lat="39.4591457" lon="3.1787794">
<ele>241.66</ele>
<time>2016-10-14T09:50:23Z</time>
</trkpt>
<trkpt lat="39.4590561" lon="3.1789856">
<ele>242.84</ele>
<time>2016-10-14T09:50:32Z</time>
</trkpt>
<trkpt lat="39.4589822" lon="3.1792083">
<ele>244.08</ele>
<time>2016-10-14T09:50:41Z</time>
</trkpt>
<trkpt lat="39.4589425" lon="3.1794519">
<ele>246.25</ele>
<time>2016-10-14T09:50:53Z</time>
</trkpt>
<trkpt lat="39.4590246" lon="3.1796758">
<ele>247.78</ele>
<time>2016-10-14T09:51:04Z</time>
</trkpt>
<trkpt lat="39.4589843" lon="3.1799204">
<ele>249.50</ele>
<time>2016-10-14T09:51:15Z</time>
</trkpt>
<trkpt lat="39.4589226" lon="3.1801595">
<ele>252.01</ele>
<time>2016-10-14T09:51:27Z</time>
</trkpt>
<trkpt lat="39.4588580" lon="3.1803867">
<ele>253.35</ele>
<time>2016-10-14T09:51:39Z</time>
</trkpt>
<trkpt lat="39.4588164" lon="3.1806319">
<ele>254.77</ele>
<time>2016-10-14T09:51:50Z</time>
</trkpt>
<trkpt lat="39.4587082" lon="3.1804235">
<ele>257.01</ele>
<time>2016-10-14T09:52:05Z</time>
</trkpt>
<trkpt lat="39.4586634" lon="3.1801800">
<ele>258.69</ele>
<time>2016-10-14T09:52:16Z</time>
</trkpt>
<trkpt lat="39.4585021" lon="3.1800255">
<ele>260.02</ele>
<time>2016-10-14T09:52:24Z</time>
</trkpt>
<trkpt lat="39.4583401" lon="3.1798984">
<ele>260.91</ele>
<time>2016-10-14T09:52:32Z</time>
</trkpt>
<trkpt lat="39.4581598" lon="3.1799047">
<ele>262.36</ele>
<time>2016-10-14T09:52:40Z</time>
</trkpt>
<trkpt lat="39.4579924" lon="3.1800269">
<ele>264.67</ele>
<time>2016-10-14T09:52:49Z</time>
</trkpt>
<trkpt lat="39.4578039" lon="3.1801009">
<ele>266.05</ele>
<time>2016-10-14T09:52:58Z</time>
</trkpt>
<trkpt lat="39.4576219" lon="3.1801995">
<ele>267.71</ele>
<time>2016-10-14T09:53:09Z</time>
</trkpt>
<trkpt lat="39.4574723" lon="3.1803320">
<ele>269.65</ele>
<time>2016-10-14T09:53:20Z</time>
</trkpt>
<trkpt lat="39.4576568" lon="3.1803408">
<ele>272.03</ele>
<time>2016-10-14T09:53:49Z</time>
</trkpt>
<trkpt lat="39.4578544" lon="3.1803497">
<ele>273.54</ele>
<time>2016-10-14T09:53:59Z</time>
</trkpt>
<trkpt lat="39.4580479" lon="3.1803543">
<ele>275.26</ele>
<time>2016-10-14T09:54:08Z</time>
</trkpt>
<trkpt lat="39.4582150" lon="3.1804741">
<ele>277.38</ele>
<time>2016-10-14T09:54:16Z</time>
</trkpt>
<trkpt lat="39.4582894" lon="3.1806981">
<ele>279.21</ele>
<time>2016-10-14T09:54:23Z</time>
</trkpt>
<trkpt lat="39.4581093" lon="3.1806336">
<ele>281.13</ele>
<time>2016-10-14T09:54:35Z</time>
</trkpt>
<trkpt lat="39.4579193" lon="3.1805768">
<ele>282.13</ele>
<time>2016-10-14T09:54:46Z</time>
</trkpt>
<trkpt lat="39.4577383" lon="3.1806585">
<ele>283.66</ele>
<time>2016-10-14T09:54:58Z</time>
</trkpt>
<trkpt lat="39.4575784" lon="3.1807810">
<ele>285.34</ele>
<time>2016-10-14T09:55:09Z</time>
</trkpt>
<trkpt lat="39.4574571" lon="3.1809726">
<ele>287.18</ele>
<time>2016-10-14T09:55:19Z</time>
</trkpt>
<trkpt lat="39.4573603" lon="3.1811845">
<ele>288.65</ele>
<time>2016-10-14T09:55:30Z</time>
</trkpt>
<trkpt lat="39.4572846" lon="3.1814076">
<ele>290.21</ele>
<time>2016-10-14T09:55:41Z</time>
</trkpt>
<trkpt lat="39.4572517" lon="3.1816538">
<ele>291.11</ele>
<time>2016-10-14T09:55:52Z</time>
</trkpt>
<trkpt lat="39.4572734" lon="3.1818945">
<ele>292.97</ele>
<time>2016-10-14T09:56:03Z</time>
</trkpt>
<trkpt lat="39.4573097" lon="3.1821269">
<ele>295.62</ele>
<time>2016-10-14T09:56:14Z</time>
</trkpt>
<trkpt lat="39.4573387" lon="3.1823720">
<ele>298.77</ele>
<time>2016-10-14T09:56:24Z</time>
</trkpt>
<trkpt lat="39.4572259" lon="3.1825812">
<ele>301.72</ele>
<time>2016-10-14T09:56:34Z</time>
</trkpt>
<trkpt lat="39.4570429" lon="3.1824974">
<ele>303.88</ele>
<time>2016-10-14T09:56:47Z</time>
</trkpt>
<trkpt lat="39.4568542" lon="3.1824078">
<ele>304.93</ele>
<time>2016-10-14T09:56:59Z</time>
</trkpt>
<trkpt lat="39.4566725" lon="3.1823467">
<ele>304.64</ele>
<time>2016-10-14T09:57:08Z</time>
</trkpt>
<trkpt lat="39.4564870" lon="3.1822853">
<ele>304.41</ele>
<time>2016-10-14T09:57:19Z</time>
</trkpt>
<trkpt lat="39.4564908" lon="3.1820174">
<ele>305.12</ele>
<time>2016-10-14T09:57:29Z</time>
</trkpt>
<trkpt lat="39.4564949" lon="3.1817698">
<ele>306.36</ele>
<time>2016-10-14T09:57:42Z</time>
</trkpt>
<trkpt lat="39.4563200" lon="3.1816698">
<ele>308.81</ele>
<time>2016-10-14T09:57:55Z</time>
</trkpt>
<trkpt lat="39.4561471" lon="3.1817754">
<ele>311.24</ele>
<time>2016-10-14T09:58:10Z</time>
</trkpt>
<trkpt lat="39.4560129" lon="3.1819446">
<ele>312.98</ele>
<time>2016-10-14T09:58:21Z</time>
</trkpt>
<trkpt lat="39.4560242" lon="3.1821958">
<ele>314.83</ele>
<time>2016-10-14T09:58:33Z</time>
</trkpt>
<trkpt lat="39.4561294" lon="3.1823954">
<ele>317.65</ele>
<time>2016-10-14T09:58:46Z</time>
</trkpt>
<trkpt lat="39.4562939" lon="3.1825194">
<ele>319.90</ele>
<time>2016-10-14T09:58:58Z</time>
</trkpt>
<trkpt lat="39.4564752" lon="3.1825476">
<ele>321.24</ele>
<time>2016-10-14T09:59:06Z</time>
</trkpt>
<trkpt lat="39.4566583" lon="3.1825973">
<ele>322.68</ele>
<time>2016-10-14T09:59:15Z</time>
</trkpt>
<trkpt lat="39.4564852" lon="3.1827015">
<ele>326.24</ele>
<time>2016-10-14T09:59:36Z</time>
</trkpt>
<trkpt lat="39.4562933" lon="3.1827100">
<ele>327.19</ele>
<time>2016-10-14T09:59:47Z</time>
</trkpt>
<trkpt lat="39.4561106" lon="3.1826353">
<ele>328.71</ele>
<time>2016-10-14T09:59:58Z</time>
</trkpt>
<trkpt lat="39.4559410" lon="3.1825251">
<ele>330.50</ele>
<time>2016-10-14T10:00:10Z</time>
</trkpt>
<trkpt lat="39.4557555" lon="3.1824657">
<ele>332.20</ele>
<time>2016-10-14T10:00:21Z</time>
</trkpt>
<trkpt lat="39.4555644" lon="3.1825203">
<ele>334.20</ele>
<time>2016-10-14T10:00:32Z</time>
</trkpt>
<trkpt lat="39.4553846" lon="3.1826008">
<ele>335.51</ele>
<time>2016-10-14T10:00:44Z</time>
</trkpt>
<trkpt lat="39.4555710" lon="3.1826608">
<ele>339.48</ele>
<time>2016-10-14T10:01:18Z</time>
</trkpt>
<trkpt lat="39.4557575" lon="3.1826674">
<ele>340.46</ele>
<time>2016-10-14T10:01:31Z</time>
</trkpt>
<trkpt lat="39.4559111" lon="3.1827903">
<ele>343.46</ele>
<time>2016-10-14T10:01:44Z</time>
</trkpt>
<trkpt lat="39.4560683" lon="3.1829243">
<ele>346.05</ele>
<time>2016-10-14T10:01:54Z</time>
</trkpt>
<trkpt lat="39.4562309" lon="3.1830591">
<ele>349.88</ele>
<time>2016-10-14T10:02:06Z</time>
</trkpt>
<trkpt lat="39.4564091" lon="3.1831094">
<ele>354.09</ele>
<time>2016-10-14T10:02:18Z</time>
</trkpt>
<trkpt lat="39.4565549" lon="3.1832772">
<ele>357.18</ele>
<time>2016-10-14T10:02:28Z</time>
</trkpt>
<trkpt lat="39.4566665" lon="3.1834623">
<ele>358.00</ele>
<time>2016-10-14T10:02:36Z</time>
</trkpt>
<trkpt lat="39.4567586" lon="3.1836633">
<ele>358.27</ele>
<time>2016-10-14T10:02:45Z</time>
</trkpt>
<trkpt lat="39.4568585" lon="3.1838725">
<ele>358.19</ele>
<time>2016-10-14T10:02:56Z</time>
</trkpt>
<trkpt lat="39.4566713" lon="3.1837889">
<ele>360.51</ele>
<time>2016-10-14T10:03:20Z</time>
</trkpt>
<trkpt lat="39.4565411" lon="3.1835985">
<ele>361.28</ele>
<time>2016-10-14T10:03:30Z</time>
</trkpt>
<trkpt lat="39.4563839" lon="3.1834794">
<ele>362.13</ele>
<time>2016-10-14T10:03:41Z</time>
</trkpt>
<trkpt lat="39.4561966" lon="3.1834298">
<ele>363.75</ele>
<time>2016-10-14T10:03:52Z</time>
</trkpt>
<trkpt lat="39.4560270" lon="3.1833459">
<ele>365.15</ele>
<time>2016-10-14T10:04:03Z</time>
</trkpt>
<trkpt lat="39.4558605" lon="3.1832152">
<ele>366.37</ele>
<time>2016-10-14T10:04:14Z</time>
</trkpt>
<trkpt lat="39.4556729" lon="3.1831862">
<ele>368.47</ele>
<time>2016-10-14T10:04:26Z</time>
</trkpt>
<trkpt lat="39.4555039" lon="3.1833154">
<ele>370.70</ele>
<time>2016-10-14T10:04:38Z</time>
</trkpt>
<trkpt lat="39.4553484" lon="3.1834841">
<ele>371.89</ele>
<time>2016-10-14T10:04:48Z</time>
</trkpt>
<trkpt lat="39.4552071" lon="3.1836682">
<ele>373.37</ele>
<time>2016-10-14T10:04:57Z</time>
</trkpt>
<trkpt lat="39.4550669" lon="3.1838473">
<ele>373.91</ele>
<time>2016-10-14T10:05:06Z</time>
</trkpt>
<trkpt lat="39.4549296" lon="3.1840211">
<ele>374.21</ele>
<time>2016-10-14T10:05:14Z</time>
</trkpt>
<trkpt lat="39.4547777" lon="3.1841757">
<ele>375.48</ele>
<time>2016-10-14T10:05:24Z</time>
</trkpt>
<trkpt lat="39.4546346" lon="3.1843221">
<ele>376.29</ele>
<time>2016-10-14T10:05:32Z</time>
</trkpt>
<trkpt lat="39.4547931" lon="3.1842084">
<ele>379.76</ele>
<time>2016-10-14T10:05:54Z</time>
</trkpt>
<trkpt lat="39.4549498" lon="3.1840647">
<ele>381.05</ele>
<time>2016-10-14T10:06:05Z</time>
</trkpt>
<trkpt lat="39.4551049" lon="3.1839192">
<ele>381.61</ele>
<time>2016-10-14T10:06:15Z</time>
</trkpt>
<trkpt lat="39.4552631" lon="3.1837829">
<ele>382.75</ele>
<time>2016-10-14T10:06:25Z</time>
</trkpt>
<trkpt lat="39.4554397" lon="3.1836861">
<ele>384.15</ele>
<time>2016-10-14T10:06:37Z</time>
</trkpt>
<trkpt lat="39.4556161" lon="3.1836034">
<ele>385.57</ele>
<time>2016-10-14T10:06:48Z</time>
</trkpt>
<trkpt lat="39.4558050" lon="3.1836758">
<ele>388.53</ele>
<time>2016-10-14T10:07:02Z</time>
</trkpt>
<trkpt lat="39.4559650" lon="3.1837954">
<ele>391.36</ele>
<time>2016-10-14T10:07:12Z</time>
</trkpt>
<trkpt lat="39.4561149" lon="3.1839441">
<ele>394.50</ele>
<time>2016-10-14T10:07:21Z</time>
</trkpt>
<trkpt lat="39.4562295" lon="3.1841477">
<ele>395.94</ele>
<time>2016-10-14T10:07:30Z</time>
</trkpt>
<trkpt lat="39.4563178" lon="3.1843575">
<ele>397.77</ele>
<time>2016-10-14T10:07:41Z</time>
</trkpt>
<trkpt lat="39.4564147" lon="3.1845584">
<ele>399.32</ele>
<time>2016-10-14T10:07:51Z</time>
</trkpt>
<trkpt lat="39.4565517" lon="3.1847506">
<ele>401.27</ele>
<time>2016-10-14T10:08:02Z</time>
</trkpt>
<trkpt lat="39.4566407" lon="3.1849707">
<ele>403.04</ele>
<time>2016-10-14T10:08:14Z</time>
</trkpt>
<trkpt lat="39.4567307" lon="3.1851844">
<ele>405.83</ele>
<time>2016-10-14T10:08:28Z</time>
</trkpt>
<trkpt lat="39.4568375" lon="3.1853838">
<ele>409.18</ele>
<time>2016-10-14T10:08:40Z</time>
</trkpt>
<trkpt lat="39.4570221" lon="3.1853504">
<ele>413.03</ele>
<time>2016-10-14T10:09:00Z</time>
</trkpt>
<trkpt lat="39.4571950" lon="3.1852690">
<ele>415.12</ele>
<time>2016-10-14T10:09:13Z</time>
</trkpt>
<trkpt lat="39.4573201" lon="3.1850860">
<ele>415.69</ele>
<time>2016-10-14T10:09:24Z</time>
</trkpt>
<trkpt lat="39.4573525" lon="3.1853242">
<ele>419.86</ele>
<time>2016-10-14T10:09:54Z</time>
</trkpt>
<trkpt lat="39.4572603" lon="3.1855398">
<ele>421.43</ele>
<time>2016-10-14T10:10:09Z</time>
</trkpt>
<trkpt lat="39.4571159" lon="3.1856954">
<ele>421.69</ele>
<time>2016-10-14T10:10:22Z</time>
</trkpt>
<trkpt lat="39.4569489" lon="3.1858021">
<ele>422.99</ele>
<time>2016-10-14T10:10:33Z</time>
</trkpt>
<trkpt lat="39.4567689" lon="3.1858341">
<ele>424.66</ele>
<time>2016-10-14T10:10:45Z</time>
</trkpt>
<trkpt lat="39.4566225" lon="3.1856897">
<ele>426.90</ele>
<time>2016-10-14T10:10:58Z</time>
</trkpt>
<trkpt lat="39.4566444" lon="3.1859253">
<ele>433.11</ele>
<time>2016-10-14T10:11:39Z</time>
</trkpt>
<trkpt lat="39.4568266" lon="3.1859151">
<ele>433.58</ele>
<time>2016-10-14T10:11:50Z</time>
</trkpt>
<trkpt lat="39.4570077" lon="3.1858497">
<ele>433.90</ele>
<time>2016-10-14T10:12:02Z</time>
</trkpt>
<trkpt lat="39.4571180" lon="3.1860480">
<ele>435.77</ele>
<time>2016-10-14T10:12:12Z</time>
</trkpt>
<trkpt lat="39.4569732" lon="3.1862013">
<ele>436.97</ele>
<time>2016-10-14T10:12:22Z</time>
</trkpt>
<trkpt lat="39.4567941" lon="3.1862385">
<ele>437.84</ele>
<time>2016-10-14T10:12:29Z</time>
</trkpt>
<trkpt lat="39.4566021" lon="3.1862620">
<ele>438.67</ele>
<time>2016-10-14T10:12:39Z</time>
</trkpt>
<trkpt lat="39.4564085" lon="3.1862258">
<ele>440.15</ele>
<time>2016-10-14T10:12:50Z</time>
</trkpt>
<trkpt lat="39.4562497" lon="3.1860818">
<ele>441.61</ele>
<time>2016-10-14T10:13:02Z</time>
</trkpt>
<trkpt lat="39.4561798" lon="3.1858617">
<ele>443.22</ele>
<time>2016-10-14T10:13:11Z</time>
</trkpt>
<trkpt lat="39.4563287" lon="3.1860218">
<ele>447.18</ele>
<time>2016-10-14T10:13:40Z</time>
</trkpt>
<trkpt lat="39.4563478" lon="3.1862802">
<ele>449.21</ele>
<time>2016-10-14T10:13:49Z</time>
</trkpt>
<trkpt lat="39.4563601" lon="3.1865410">
<ele>450.67</ele>
<time>2016-10-14T10:13:59Z</time>
</trkpt>
<trkpt lat="39.4562139" lon="3.1866880">
<ele>452.54</ele>
<time>2016-10-14T10:14:07Z</time>
</trkpt>
<trkpt lat="39.4560259" lon="3.1867225">
<ele>454.06</ele>
<time>2016-10-14T10:14:16Z</time>
</trkpt>
<trkpt lat="39.4558458" lon="3.1867422">
<ele>454.81</ele>
<time>2016-10-14T10:14:26Z</time>
</trkpt>
<trkpt lat="39.4556929" lon="3.1868704">
<ele>456.76</ele>
<time>2016-10-14T10:14:39Z</time>
</trkpt>
<trkpt lat="39.4556990" lon="3.1871295">
<ele>457.87</ele>
<time>2016-10-14T10:14:49Z</time>
</trkpt>
<trkpt lat="39.4557306" lon="3.1873697">
<ele>458.72</ele>
<time>2016-10-14T10:14:57Z</time>
</trkpt>
<trkpt lat="39.4556949" lon="3.1876065">
<ele>459.98</ele>
<time>2016-10-14T10:15:06Z</time>
</trkpt>
<trkpt lat="39.4555559" lon="3.1877764">
<ele>460.87</ele>
<time>2016-10-14T10:15:14Z</time>
</trkpt>
<trkpt lat="39.4553601" lon="3.1878004">
<ele>461.73</ele>
<time>2016-10-14T10:15:22Z</time>
</trkpt>
<trkpt lat="39.4551681" lon="3.1878181">
<ele>462.32</ele>
<time>2016-10-14T10:15:31Z</time>
</trkpt>
<trkpt lat="39.4549955" lon="3.1879301">
<ele>463.28</ele>
<time>2016-10-14T10:15:42Z</time>
</trkpt>
<trkpt lat="39.4548265" lon="3.1880724">
<ele>465.11</ele>
<time>2016-10-14T10:15:51Z</time>
</trkpt>
<trkpt lat="39.4548830" lon="3.1878429">
<ele>467.56</ele>
<time>2016-10-14T10:16:08Z</time>
</trkpt>
<trkpt lat="39.4550561" lon="3.1877105">
<ele>467.89</ele>
<time>2016-10-14T10:16:17Z</time>
</trkpt>
<trkpt lat="39.4552006" lon="3.1875562">
<ele>468.57</ele>
<time>2016-10-14T10:16:24Z</time>
</trkpt>
<trkpt lat="39.4553335" lon="3.1873937">
<ele>469.52</ele>
<time>2016-10-14T10:16:31Z</time>
</trkpt>
<trkpt lat="39.4554339" lon="3.1871831">
<ele>470.97</ele>
<time>2016-10-14T10:16:40Z</time>
</trkpt>
<trkpt lat="39.4554999" lon="3.1869343">
<ele>472.18</ele>
<time>2016-10-14T10:16:48Z</time>
</trkpt>
<trkpt lat="39.4555599" lon="3.1866859">
<ele>473.81</ele>
<time>2016-10-14T10:16:56Z</time>
</trkpt>
<trkpt lat="39.4555900" lon="3.1864449">
<ele>476.32</ele>
<time>2016-10-14T10:17:06Z</time>
</trkpt>
<trkpt lat="39.4556577" lon="3.1862199">
<ele>479.32</ele>
<time>2016-10-14T10:17:17Z</time>
</trkpt>
<trkpt lat="39.4556164" lon="3.1864946">
<ele>482.54</ele>
<time>2016-10-14T10:24:56Z</time>
</trkpt>
<trkpt lat="39.4555344" lon="3.1867712">
<ele>481.80</ele>
<time>2016-10-14T10:25:00Z</time>
</trkpt>
<trkpt lat="39.4554657" lon="3.1870380">
<ele>481.36</ele>
<time>2016-10-14T10:25:03Z</time>
</trkpt>
<trkpt lat="39.4553835" lon="3.1872636">
<ele>483.06</ele>
<time>2016-10-14T10:25:06Z</time>
</trkpt>
<trkpt lat="39.4552366" lon="3.1874875">
<ele>483.05</ele>
<time>2016-10-14T10:25:10Z</time>
</trkpt>
<trkpt lat="39.4550895" lon="3.1876807">
<ele>482.68</ele>
<time>2016-10-14T10:25:15Z</time>
</trkpt>
<trkpt lat="39.4549387" lon="3.1878302">
<ele>483.22</ele>
<time>2016-10-14T10:25:19Z</time>
</trkpt>
<trkpt lat="39.4547987" lon="3.1879768">
<ele>484.63</ele>
<time>2016-10-14T10:25:24Z</time>
</trkpt>
<trkpt lat="39.4549917" lon="3.1879082">
<ele>484.64</ele>
<time>2016-10-14T10:25:36Z</time>
</trkpt>
<trkpt lat="39.4551622" lon="3.1877811">
<ele>485.28</ele>
<time>2016-10-14T10:25:41Z</time>
</trkpt>
<trkpt lat="39.4553741" lon="3.1877491">
<ele>486.01</ele>
<time>2016-10-14T10:25:46Z</time>
</trkpt>
<trkpt lat="39.4555744" lon="3.1876212">
<ele>485.31</ele>
<time>2016-10-14T10:25:50Z</time>
</trkpt>
<trkpt lat="39.4557059" lon="3.1873790">
<ele>483.37</ele>
<time>2016-10-14T10:25:54Z</time>
</trkpt>
<trkpt lat="39.4557242" lon="3.1870915">
<ele>478.49</ele>
<time>2016-10-14T10:25:58Z</time>
</trkpt>
<trkpt lat="39.4557742" lon="3.1868177">
<ele>471.45</ele>
<time>2016-10-14T10:26:03Z</time>
</trkpt>
<trkpt lat="39.4560067" lon="3.1867309">
<ele>470.63</ele>
<time>2016-10-14T10:26:07Z</time>
</trkpt>
<trkpt lat="39.4561979" lon="3.1866478">
<ele>471.18</ele>
<time>2016-10-14T10:26:11Z</time>
</trkpt>
<trkpt lat="39.4562918" lon="3.1864452">
<ele>469.57</ele>
<time>2016-10-14T10:26:15Z</time>
</trkpt>
<trkpt lat="39.4562513" lon="3.1862006">
<ele>467.07</ele>
<time>2016-10-14T10:26:19Z</time>
</trkpt>
<trkpt lat="39.4561561" lon="3.1859442">
<ele>465.74</ele>
<time>2016-10-14T10:26:23Z</time>
</trkpt>
<trkpt lat="39.4563146" lon="3.1861485">
<ele>454.81</ele>
<time>2016-10-14T10:26:34Z</time>
</trkpt>
<trkpt lat="39.4565101" lon="3.1862500">
<ele>452.73</ele>
<time>2016-10-14T10:26:38Z</time>
</trkpt>
<trkpt lat="39.4567391" lon="3.1862884">
<ele>452.19</ele>
<time>2016-10-14T10:26:42Z</time>
</trkpt>
<trkpt lat="39.4569601" lon="3.1862744">
<ele>454.56</ele>
<time>2016-10-14T10:26:46Z</time>
</trkpt>
<trkpt lat="39.4571496" lon="3.1861673">
<ele>457.80</ele>
<time>2016-10-14T10:26:49Z</time>
</trkpt>
<trkpt lat="39.4571594" lon="3.1859283">
<ele>455.94</ele>
<time>2016-10-14T10:26:54Z</time>
</trkpt>
<trkpt lat="39.4569529" lon="3.1859088">
<ele>450.64</ele>
<time>2016-10-14T10:26:57Z</time>
</trkpt>
<trkpt lat="39.4567608" lon="3.1859296">
<ele>447.76</ele>
<time>2016-10-14T10:27:00Z</time>
</trkpt>
<trkpt lat="39.4565773" lon="3.1859232">
<ele>445.57</ele>
<time>2016-10-14T10:27:03Z</time>
</trkpt>
<trkpt lat="39.4564714" lon="3.1857193">
<ele>441.84</ele>
<time>2016-10-14T10:27:07Z</time>
</trkpt>
<trkpt lat="39.4566818" lon="3.1858519">
<ele>435.24</ele>
<time>2016-10-14T10:27:18Z</time>
</trkpt>
<trkpt lat="39.4569054" lon="3.1857993">
<ele>430.98</ele>
<time>2016-10-14T10:27:22Z</time>
</trkpt>
<trkpt lat="39.4570827" lon="3.1856718">
<ele>430.29</ele>
<time>2016-10-14T10:27:25Z</time>
</trkpt>
<trkpt lat="39.4572153" lon="3.1854919">
<ele>430.15</ele>
<time>2016-10-14T10:27:28Z</time>
</trkpt>
<trkpt lat="39.4573422" lon="3.1852984">
<ele>428.20</ele>
<time>2016-10-14T10:27:31Z</time>
</trkpt>
<trkpt lat="39.4574636" lon="3.1851001">
<ele>425.37</ele>
<time>2016-10-14T10:27:35Z</time>
</trkpt>
<trkpt lat="39.4572831" lon="3.1852097">
<ele>417.51</ele>
<time>2016-10-14T10:27:44Z</time>
</trkpt>
<trkpt lat="39.4571422" lon="3.1853691">
<ele>414.59</ele>
<time>2016-10-14T10:27:47Z</time>
</trkpt>
<trkpt lat="39.4569601" lon="3.1854802">
<ele>413.13</ele>
<time>2016-10-14T10:27:50Z</time>
</trkpt>
<trkpt lat="39.4567666" lon="3.1854733">
<ele>413.36</ele>
<time>2016-10-14T10:27:53Z</time>
</trkpt>
<trkpt lat="39.4566393" lon="3.1851998">
<ele>411.45</ele>
<time>2016-10-14T10:27:57Z</time>
</trkpt>
<trkpt lat="39.4565361" lon="3.1849367">
<ele>410.20</ele>
<time>2016-10-14T10:28:00Z</time>
</trkpt>
<trkpt lat="39.4564175" lon="3.1847100">
<ele>409.12</ele>
<time>2016-10-14T10:28:03Z</time>
</trkpt>
<trkpt lat="39.4563225" lon="3.1845080">
<ele>408.39</ele>
<time>2016-10-14T10:28:06Z</time>
</trkpt>
<trkpt lat="39.4562840" lon="3.1842628">
<ele>406.93</ele>
<time>2016-10-14T10:28:09Z</time>
</trkpt>
<trkpt lat="39.4561996" lon="3.1840412">
<ele>403.68</ele>
<time>2016-10-14T10:28:12Z</time>
</trkpt>
<trkpt lat="39.4560386" lon="3.1838581">
<ele>400.74</ele>
<time>2016-10-14T10:28:15Z</time>
</trkpt>
<trkpt lat="39.4558707" lon="3.1837101">
<ele>398.19</ele>
<time>2016-10-14T10:28:18Z</time>
</trkpt>
<trkpt lat="39.4556832" lon="3.1836272">
<ele>395.22</ele>
<time>2016-10-14T10:28:22Z</time>
</trkpt>
<trkpt lat="39.4554522" lon="3.1837405">
<ele>393.62</ele>
<time>2016-10-14T10:28:26Z</time>
</trkpt>
<trkpt lat="39.4552767" lon="3.1838417">
<ele>393.34</ele>
<time>2016-10-14T10:28:29Z</time>
</trkpt>
<trkpt lat="39.4550757" lon="3.1839915">
<ele>393.73</ele>
<time>2016-10-14T10:28:32Z</time>
</trkpt>
<trkpt lat="39.4548966" lon="3.1841350">
<ele>394.65</ele>
<time>2016-10-14T10:28:35Z</time>
</trkpt>
<trkpt lat="39.4547135" lon="3.1843137">
<ele>394.52</ele>
<time>2016-10-14T10:28:39Z</time>
</trkpt>
<trkpt lat="39.4547892" lon="3.1840638">
<ele>394.43</ele>
<time>2016-10-14T10:28:51Z</time>
</trkpt>
<trkpt lat="39.4549499" lon="3.1838413">
<ele>396.91</ele>
<time>2016-10-14T10:28:55Z</time>
</trkpt>
<trkpt lat="39.4550797" lon="3.1836493">
<ele>397.28</ele>
<time>2016-10-14T10:28:58Z</time>
</trkpt>
<trkpt lat="39.4552257" lon="3.1834657">
<ele>396.93</ele>
<time>2016-10-14T10:29:01Z</time>
</trkpt>
<trkpt lat="39.4553790" lon="3.1833088">
<ele>395.62</ele>
<time>2016-10-14T10:29:04Z</time>
</trkpt>
<trkpt lat="39.4555466" lon="3.1831433">
<ele>393.96</ele>
<time>2016-10-14T10:29:08Z</time>
</trkpt>
<trkpt lat="39.4557247" lon="3.1830980">
<ele>392.12</ele>
<time>2016-10-14T10:29:12Z</time>
</trkpt>
<trkpt lat="39.4558987" lon="3.1832130">
<ele>388.79</ele>
<time>2016-10-14T10:29:15Z</time>
</trkpt>
<trkpt lat="39.4560748" lon="3.1833555">
<ele>385.16</ele>
<time>2016-10-14T10:29:18Z</time>
</trkpt>
<trkpt lat="39.4562758" lon="3.1834194">
<ele>380.79</ele>
<time>2016-10-14T10:29:21Z</time>
</trkpt>
<trkpt lat="39.4564889" lon="3.1835385">
<ele>377.01</ele>
<time>2016-10-14T10:29:25Z</time>
</trkpt>
<trkpt lat="39.4566776" lon="3.1837322">
<ele>375.26</ele>
<time>2016-10-14T10:29:28Z</time>
</trkpt>
<trkpt lat="39.4567958" lon="3.1839336">
<ele>372.73</ele>
<time>2016-10-14T10:29:31Z</time>
</trkpt>
<trkpt lat="39.4567313" lon="3.1836113">
<ele>360.62</ele>
<time>2016-10-14T10:29:43Z</time>
</trkpt>
<trkpt lat="39.4566470" lon="3.1833560">
<ele>357.24</ele>
<time>2016-10-14T10:29:46Z</time>
</trkpt>
<trkpt lat="39.4564519" lon="3.1831823">
<ele>355.21</ele>
<time>2016-10-14T10:29:50Z</time>
</trkpt>
<trkpt lat="39.4562450" lon="3.1830799">
<ele>355.65</ele>
<time>2016-10-14T10:29:53Z</time>
</trkpt>
<trkpt lat="39.4560543" lon="3.1829010">
<ele>355.66</ele>
<time>2016-10-14T10:29:56Z</time>
</trkpt>
<trkpt lat="39.4558764" lon="3.1827241">
<ele>352.22</ele>
<time>2016-10-14T10:29:59Z</time>
</trkpt>
<trkpt lat="39.4556424" lon="3.1826702">
<ele>348.89</ele>
<time>2016-10-14T10:30:03Z</time>
</trkpt>
<trkpt lat="39.4554547" lon="3.1827400">
<ele>346.42</ele>
<time>2016-10-14T10:30:06Z</time>
</trkpt>
<trkpt lat="39.4552683" lon="3.1827730">
<ele>344.35</ele>
<time>2016-10-14T10:30:11Z</time>
</trkpt>
<trkpt lat="39.4554478" lon="3.1826290">
<ele>341.60</ele>
<time>2016-10-14T10:30:17Z</time>
</trkpt>
<trkpt lat="39.4556305" lon="3.1825643">
<ele>342.89</ele>
<time>2016-10-14T10:30:21Z</time>
</trkpt>
<trkpt lat="39.4558617" lon="3.1825704">
<ele>345.55</ele>
<time>2016-10-14T10:30:25Z</time>
</trkpt>
<trkpt lat="39.4560530" lon="3.1826504">
<ele>346.87</ele>
<time>2016-10-14T10:30:28Z</time>
</trkpt>
<trkpt lat="39.4562661" lon="3.1827211">
<ele>348.48</ele>
<time>2016-10-14T10:30:31Z</time>
</trkpt>
<trkpt lat="39.4564603" lon="3.1827170">
<ele>346.82</ele>
<time>2016-10-14T10:30:34Z</time>
</trkpt>
<trkpt lat="39.4566832" lon="3.1827698">
<ele>344.46</ele>
<time>2016-10-14T10:30:38Z</time>
</trkpt>
<trkpt lat="39.4565378" lon="3.1826170">
<ele>335.30</ele>
<time>2016-10-14T10:30:46Z</time>
</trkpt>
<trkpt lat="39.4563173" lon="3.1825840">
<ele>331.33</ele>
<time>2016-10-14T10:30:49Z</time>
</trkpt>
<trkpt lat="39.4561273" lon="3.1824653">
<ele>327.26</ele>
<time>2016-10-14T10:30:53Z</time>
</trkpt>
<trkpt lat="39.4560103" lon="3.1822694">
<ele>326.56</ele>
<time>2016-10-14T10:30:57Z</time>
</trkpt>
<trkpt lat="39.4560321" lon="3.1819837">
<ele>324.91</ele>
<time>2016-10-14T10:31:01Z</time>
</trkpt>
<trkpt lat="39.4561471" lon="3.1818040">
<ele>319.33</ele>
<time>2016-10-14T10:31:04Z</time>
</trkpt>
<trkpt lat="39.4563299" lon="3.1816957">
<ele>314.97</ele>
<time>2016-10-14T10:31:07Z</time>
</trkpt>
<trkpt lat="39.4564835" lon="3.1818459">
<ele>312.29</ele>
<time>2016-10-14T10:31:12Z</time>
</trkpt>
<trkpt lat="39.4564284" lon="3.1821037">
<ele>310.37</ele>
<time>2016-10-14T10:31:16Z</time>
</trkpt>
<trkpt lat="39.4565859" lon="3.1823210">
<ele>309.57</ele>
<time>2016-10-14T10:31:21Z</time>
</trkpt>
<trkpt lat="39.4567727" lon="3.1823784">
<ele>308.76</ele>
<time>2016-10-14T10:31:24Z</time>
</trkpt>
<trkpt lat="39.4569516" lon="3.1824555">
<ele>307.49</ele>
<time>2016-10-14T10:31:27Z</time>
</trkpt>
<trkpt lat="39.4571030" lon="3.1825943">
<ele>305.67</ele>
<time>2016-10-14T10:31:30Z</time>
</trkpt>
<trkpt lat="39.4572874" lon="3.1824664">
<ele>304.46</ele>
<time>2016-10-14T10:31:37Z</time>
</trkpt>
<trkpt lat="39.4573311" lon="3.1822136">
<ele>303.82</ele>
<time>2016-10-14T10:31:40Z</time>
</trkpt>
<trkpt lat="39.4572913" lon="3.1819130">
<ele>302.01</ele>
<time>2016-10-14T10:31:44Z</time>
</trkpt>
<trkpt lat="39.4572585" lon="3.1816524">
<ele>300.94</ele>
<time>2016-10-14T10:31:47Z</time>
</trkpt>
<trkpt lat="39.4572712" lon="3.1813936">
<ele>300.39</ele>
<time>2016-10-14T10:31:50Z</time>
</trkpt>
<trkpt lat="39.4573498" lon="3.1811201">
<ele>298.75</ele>
<time>2016-10-14T10:31:53Z</time>
</trkpt>
<trkpt lat="39.4574297" lon="3.1808883">
<ele>296.98</ele>
<time>2016-10-14T10:31:56Z</time>
</trkpt>
<trkpt lat="39.4575744" lon="3.1807348">
<ele>292.71</ele>
<time>2016-10-14T10:31:59Z</time>
</trkpt>
<trkpt lat="39.4577746" lon="3.1806240">
<ele>288.20</ele>
<time>2016-10-14T10:32:02Z</time>
</trkpt>
<trkpt lat="39.4579690" lon="3.1805936">
<ele>285.21</ele>
<time>2016-10-14T10:32:05Z</time>
</trkpt>
<trkpt lat="39.4581737" lon="3.1807385">
<ele>283.40</ele>
<time>2016-10-14T10:32:09Z</time>
</trkpt>
<trkpt lat="39.4583393" lon="3.1806361">
<ele>282.05</ele>
<time>2016-10-14T10:32:15Z</time>
</trkpt>
<trkpt lat="39.4582143" lon="3.1804382">
<ele>283.64</ele>
<time>2016-10-14T10:32:19Z</time>
</trkpt>
<trkpt lat="39.4580320" lon="3.1804227">
<ele>283.85</ele>
<time>2016-10-14T10:32:22Z</time>
</trkpt>
<trkpt lat="39.4578034" lon="3.1803788">
<ele>282.32</ele>
<time>2016-10-14T10:32:25Z</time>
</trkpt>
<trkpt lat="39.4576142" lon="3.1803989">
<ele>282.02</ele>
<time>2016-10-14T10:32:28Z</time>
</trkpt>
<trkpt lat="39.4574287" lon="3.1805310">
<ele>281.64</ele>
<time>2016-10-14T10:32:33Z</time>
</trkpt>
<trkpt lat="39.4574691" lon="3.1802656">
<ele>279.13</ele>
<time>2016-10-14T10:32:43Z</time>
</trkpt>
<trkpt lat="39.4576409" lon="3.1801534">
<ele>276.70</ele>
<time>2016-10-14T10:32:46Z</time>
</trkpt>
<trkpt lat="39.4578934" lon="3.1800504">
<ele>274.11</ele>
<time>2016-10-14T10:32:49Z</time>
</trkpt>
<trkpt lat="39.4581211" lon="3.1799303">
<ele>273.48</ele>
<time>2016-10-14T10:32:52Z</time>
</trkpt>
<trkpt lat="39.4583157" lon="3.1799040">
<ele>272.41</ele>
<time>2016-10-14T10:32:55Z</time>
</trkpt>
<trkpt lat="39.4585177" lon="3.1800532">
<ele>270.79</ele>
<time>2016-10-14T10:32:59Z</time>
</trkpt>
<trkpt lat="39.4586982" lon="3.1802315">
<ele>269.98</ele>
<time>2016-10-14T10:33:03Z</time>
</trkpt>
<trkpt lat="39.4586844" lon="3.1804670">
<ele>271.84</ele>
<time>2016-10-14T10:33:07Z</time>
</trkpt>
<trkpt lat="39.4587902" lon="3.1806577">
<ele>269.52</ele>
<time>2016-10-14T10:33:13Z</time>
</trkpt>
<trkpt lat="39.4588925" lon="3.1803490">
<ele>265.61</ele>
<time>2016-10-14T10:33:17Z</time>
</trkpt>
<trkpt lat="39.4589933" lon="3.1800444">
<ele>265.87</ele>
<time>2016-10-14T10:33:20Z</time>
</trkpt>
<trkpt lat="39.4590560" lon="3.1797973">
<ele>265.69</ele>
<time>2016-10-14T10:33:23Z</time>
</trkpt>
<trkpt lat="39.4590747" lon="3.1795625">
<ele>264.42</ele>
<time>2016-10-14T10:33:26Z</time>
</trkpt>
<trkpt lat="39.4590022" lon="3.1793001">
<ele>265.04</ele>
<time>2016-10-14T10:33:30Z</time>
</trkpt>
<trkpt lat="39.4590533" lon="3.1790283">
<ele>264.95</ele>
<time>2016-10-14T10:33:33Z</time>
</trkpt>
<trkpt lat="39.4591482" lon="3.1787863">
<ele>262.14</ele>
<time>2016-10-14T10:33:36Z</time>
</trkpt>
<trkpt lat="39.4592851" lon="3.1785987">
<ele>253.92</ele>
<time>2016-10-14T10:33:40Z</time>
</trkpt>
<trkpt lat="39.4594577" lon="3.1785047">
<ele>250.83</ele>
<time>2016-10-14T10:33:45Z</time>
</trkpt>
<trkpt lat="39.4594082" lon="3.1782760">
<ele>249.90</ele>
<time>2016-10-14T10:33:50Z</time>
</trkpt>
<trkpt lat="39.4594594" lon="3.1780384">
<ele>245.78</ele>
<time>2016-10-14T10:33:54Z</time>
</trkpt>
<trkpt lat="39.4596765" lon="3.1780491">
<ele>243.59</ele>
<time>2016-10-14T10:33:58Z</time>
</trkpt>
<trkpt lat="39.4599021" lon="3.1780549">
<ele>243.48</ele>
<time>2016-10-14T10:34:01Z</time>
</trkpt>
<trkpt lat="39.4601037" lon="3.1780660">
<ele>244.33</ele>
<time>2016-10-14T10:34:05Z</time>
</trkpt>
<trkpt lat="39.4602002" lon="3.1778500">
<ele>245.71</ele>
<time>2016-10-14T10:34:10Z</time>
</trkpt>
<trkpt lat="39.4601067" lon="3.1775729">
<ele>245.74</ele>
<time>2016-10-14T10:34:14Z</time>
</trkpt>
<trkpt lat="39.4600031" lon="3.1773465">
<ele>244.65</ele>
<time>2016-10-14T10:34:17Z</time>
</trkpt>
<trkpt lat="39.4599384" lon="3.1770928">
<ele>241.61</ele>
<time>2016-10-14T10:34:20Z</time>
</trkpt>
<trkpt lat="39.4598950" lon="3.1768143">
<ele>239.82</ele>
<time>2016-10-14T10:34:23Z</time>
</trkpt>
<trkpt lat="39.4598928" lon="3.1765125">
<ele>237.93</ele>
<time>2016-10-14T10:34:26Z</time>
</trkpt>
<trkpt lat="39.4598522" lon="3.1761993">
<ele>236.66</ele>
<time>2016-10-14T10:34:29Z</time>
</trkpt>
<trkpt lat="39.4597252" lon="3.1759790">
<ele>235.55</ele>
<time>2016-10-14T10:34:32Z</time>
</trkpt>
<trkpt lat="39.4597125" lon="3.1757199">
<ele>230.77</ele>
<time>2016-10-14T10:34:37Z</time>
</trkpt>
<trkpt lat="39.4599139" lon="3.1756919">
<ele>229.29</ele>
<time>2016-10-14T10:34:40Z</time>
</trkpt>
<trkpt lat="39.4601448" lon="3.1756688">
<ele>228.25</ele>
<time>2016-10-14T10:34:43Z</time>
</trkpt>
<trkpt lat="39.4603603" lon="3.1757135">
<ele>226.54</ele>
<time>2016-10-14T10:34:46Z</time>
</trkpt>
<trkpt lat="39.4605421" lon="3.1757923">
<ele>225.50</ele>
<time>2016-10-14T10:34:49Z</time>
</trkpt>
<trkpt lat="39.4607260" lon="3.1757405">
<ele>222.50</ele>
<time>2016-10-14T10:34:53Z</time>
</trkpt>
<trkpt lat="39.4607710" lon="3.1754885">
<ele>220.14</ele>
<time>2016-10-14T10:34:56Z</time>
</trkpt>
<trkpt lat="39.4608295" lon="3.1752236">
<ele>217.97</ele>
<time>2016-10-14T10:34:59Z</time>
</trkpt>
<trkpt lat="39.4608976" lon="3.1749468">
<ele>217.00</ele>
<time>2016-10-14T10:35:02Z</time>
</trkpt>
<trkpt lat="39.4610352" lon="3.1747152">
<ele>216.35</ele>
<time>2016-10-14T10:35:05Z</time>
</trkpt>
<trkpt lat="39.4612528" lon="3.1745822">
<ele>213.98</ele>
<time>2016-10-14T10:35:08Z</time>
</trkpt>
<trkpt lat="39.4615079" lon="3.1745041">
<ele>211.38</ele>
<time>2016-10-14T10:35:11Z</time>
</trkpt>
<trkpt lat="39.4616897" lon="3.1744606">
<ele>209.81</ele>
<time>2016-10-14T10:35:13Z</time>
</trkpt>
<trkpt lat="39.4618708" lon="3.1744075">
<ele>208.81</ele>
<time>2016-10-14T10:35:15Z</time>
</trkpt>
<trkpt lat="39.4620499" lon="3.1743187">
<ele>207.03</ele>
<time>2016-10-14T10:35:17Z</time>
</trkpt>
<trkpt lat="39.4622257" lon="3.1741889">
<ele>205.33</ele>
<time>2016-10-14T10:35:19Z</time>
</trkpt>
<trkpt lat="39.4624029" lon="3.1740289">
<ele>203.23</ele>
<time>2016-10-14T10:35:21Z</time>
</trkpt>
<trkpt lat="39.4625588" lon="3.1738852">
<ele>202.45</ele>
<time>2016-10-14T10:35:23Z</time>
</trkpt>
<trkpt lat="39.4627087" lon="3.1737411">
<ele>201.49</ele>
<time>2016-10-14T10:35:25Z</time>
</trkpt>
<trkpt lat="39.4628627" lon="3.1735929">
<ele>199.96</ele>
<time>2016-10-14T10:35:27Z</time>
</trkpt>
<trkpt lat="39.4630178" lon="3.1734483">
<ele>198.53</ele>
<time>2016-10-14T10:35:29Z</time>
</trkpt>
<trkpt lat="39.4631906" lon="3.1732859">
<ele>197.98</ele>
<time>2016-10-14T10:35:31Z</time>
</trkpt>
<trkpt lat="39.4633688" lon="3.1731165">
<ele>196.54</ele>
<time>2016-10-14T10:35:33Z</time>
</trkpt>
<trkpt lat="39.4635509" lon="3.1729461">
<ele>194.01</ele>
<time>2016-10-14T10:35:35Z</time>
</trkpt>
<trkpt lat="39.4637189" lon="3.1727861">
<ele>190.83</ele>
<time>2016-10-14T10:35:37Z</time>
</trkpt>
<trkpt lat="39.4638925" lon="3.1726267">
<ele>188.01</ele>
<time>2016-10-14T10:35:39Z</time>
</trkpt>
<trkpt lat="39.4640719" lon="3.1724697">
<ele>184.94</ele>
<time>2016-10-14T10:35:41Z</time>
</trkpt>
<trkpt lat="39.4642453" lon="3.1723185">
<ele>181.56</ele>
<time>2016-10-14T10:35:43Z</time>
</trkpt>
<trkpt lat="39.4644059" lon="3.1721739">
<ele>178.79</ele>
<time>2016-10-14T10:35:45Z</time>
</trkpt>
<trkpt lat="39.4645589" lon="3.1720368">
<ele>177.32</ele>
<time>2016-10-14T10:35:47Z</time>
</trkpt>
<trkpt lat="39.4647268" lon="3.1718924">
<ele>176.29</ele>
<time>2016-10-14T10:35:49Z</time>
</trkpt>
<trkpt lat="39.4648933" lon="3.1717471">
<ele>175.35</ele>
<time>2016-10-14T10:35:51Z</time>
</trkpt>
<trkpt lat="39.4650683" lon="3.1715925">
<ele>174.69</ele>
<time>2016-10-14T10:35:53Z</time>
</trkpt>
<trkpt lat="39.4652432" lon="3.1714279">
<ele>173.88</ele>
<time>2016-10-14T10:35:55Z</time>
</trkpt>
<trkpt lat="39.4654290" lon="3.1712469">
<ele>173.45</ele>
<time>2016-10-14T10:35:57Z</time>
</trkpt>
<trkpt lat="39.4655983" lon="3.1710775">
<ele>172.46</ele>
<time>2016-10-14T10:35:59Z</time>
</trkpt>
<trkpt lat="39.4657780" lon="3.1709057">
<ele>171.28</ele>
<time>2016-10-14T10:36:01Z</time>
</trkpt>
<trkpt lat="39.4659672" lon="3.1707324">
<ele>169.99</ele>
<time>2016-10-14T10:36:03Z</time>
</trkpt>
<trkpt lat="39.4661541" lon="3.1705555">
<ele>168.67</ele>
<time>2016-10-14T10:36:05Z</time>
</trkpt>
<trkpt lat="39.4663394" lon="3.1703854">
<ele>167.25</ele>
<time>2016-10-14T10:36:07Z</time>
</trkpt>
<trkpt lat="39.4665290" lon="3.1702153">
<ele>165.79</ele>
<time>2016-10-14T10:36:09Z</time>
</trkpt>
<trkpt lat="39.4667017" lon="3.1700656">
<ele>164.51</ele>
<time>2016-10-14T10:36:11Z</time>
</trkpt>
<trkpt lat="39.4668836" lon="3.1699057">
<ele>162.03</ele>
<time>2016-10-14T10:36:13Z</time>
</trkpt>
<trkpt lat="39.4670450" lon="3.1697634">
<ele>158.89</ele>
<time>2016-10-14T10:36:15Z</time>
</trkpt>
<trkpt lat="39.4672193" lon="3.1696044">
<ele>155.54</ele>
<time>2016-10-14T10:36:17Z</time>
</trkpt>
<trkpt lat="39.4673784" lon="3.1694616">
<ele>153.19</ele>
<time>2016-10-14T10:36:19Z</time>
</trkpt>
<trkpt lat="39.4675564" lon="3.1693173">
<ele>151.32</ele>
<time>2016-10-14T10:36:21Z</time>
</trkpt>
<trkpt lat="39.4677304" lon="3.1692070">
<ele>152.10</ele>
<time>2016-10-14T10:36:23Z</time>
</trkpt>
<trkpt lat="39.4679248" lon="3.1691093">
<ele>152.78</ele>
<time>2016-10-14T10:36:25Z</time>
</trkpt>
<trkpt lat="39.4681299" lon="3.1690153">
<ele>153.18</ele>
<time>2016-10-14T10:36:27Z</time>
</trkpt>
<trkpt lat="39.4683391" lon="3.1689214">
<ele>153.35</ele>
<time>2016-10-14T10:36:29Z</time>
</trkpt>
<trkpt lat="39.4685433" lon="3.1688376">
<ele>152.80</ele>
<time>2016-10-14T10:36:31Z</time>
</trkpt>
<trkpt lat="39.4687469" lon="3.1687505">
<ele>152.23</ele>
<time>2016-10-14T10:36:33Z</time>
</trkpt>
<trkpt lat="39.4689532" lon="3.1686630">
<ele>151.29</ele>
<time>2016-10-14T10:36:35Z</time>
</trkpt>
<trkpt lat="39.4691380" lon="3.1685903">
<ele>150.23</ele>
<time>2016-10-14T10:36:37Z</time>
</trkpt>
<trkpt lat="39.4693223" lon="3.1685353">
<ele>149.27</ele>
<time>2016-10-14T10:36:39Z</time>
</trkpt>
<trkpt lat="39.4695052" lon="3.1685041">
<ele>148.66</ele>
<time>2016-10-14T10:36:41Z</time>
</trkpt>
<trkpt lat="39.4696935" lon="3.1684750">
<ele>147.96</ele>
<time>2016-10-14T10:36:43Z</time>
</trkpt>
<trkpt lat="39.4698912" lon="3.1684538">
<ele>147.27</ele>
<time>2016-10-14T10:36:45Z</time>
</trkpt>
<trkpt lat="39.4700725" lon="3.1684380">
<ele>146.87</ele>
<time>2016-10-14T10:36:47Z</time>
</trkpt>
<trkpt lat="39.4703125" lon="3.1684215">
<ele>145.42</ele>
<time>2016-10-14T10:36:50Z</time>
</trkpt>
<trkpt lat="39.4705078" lon="3.1684057">
<ele>143.34</ele>
<time>2016-10-14T10:36:53Z</time>
</trkpt>
<trkpt lat="39.4706973" lon="3.1683861">
<ele>142.74</ele>
<time>2016-10-14T10:36:56Z</time>
</trkpt>
<trkpt lat="39.4708945" lon="3.1683660">
<ele>143.64</ele>
<time>2016-10-14T10:37:00Z</time>
</trkpt>
<trkpt lat="39.4710883" lon="3.1682699">
<ele>144.52</ele>
<time>2016-10-14T10:37:05Z</time>
</trkpt>
<trkpt lat="39.4711443" lon="3.1680184">
<ele>141.37</ele>
<time>2016-10-14T10:37:10Z</time>
</trkpt>
<trkpt lat="39.4712220" lon="3.1677195">
<ele>135.09</ele>
<time>2016-10-14T10:37:14Z</time>
</trkpt>
<trkpt lat="39.4712957" lon="3.1674225">
<ele>134.03</ele>
<time>2016-10-14T10:37:17Z</time>
</trkpt>
<trkpt lat="39.4713926" lon="3.1671818">
<ele>134.61</ele>
<time>2016-10-14T10:37:21Z</time>
</trkpt>
<trkpt lat="39.4714514" lon="3.1669543">
<ele>136.04</ele>
<time>2016-10-14T10:37:25Z</time>
</trkpt>
<trkpt lat="39.4715030" lon="3.1666877">
<ele>139.12</ele>
<time>2016-10-14T10:37:29Z</time>
</trkpt>
<trkpt lat="39.4715580" lon="3.1664421">
<ele>139.23</ele>
<time>2016-10-14T10:37:32Z</time>
</trkpt>
<trkpt lat="39.4716278" lon="3.1661725">
<ele>136.89</ele>
<time>2016-10-14T10:37:35Z</time>
</trkpt>
<trkpt lat="39.4716940" lon="3.1659066">
<ele>136.01</ele>
<time>2016-10-14T10:37:38Z</time>
</trkpt>
<trkpt lat="39.4717764" lon="3.1656124">
<ele>137.47</ele>
<time>2016-10-14T10:37:42Z</time>
</trkpt>
<trkpt lat="39.4718419" lon="3.1653793">
<ele>137.76</ele>
<time>2016-10-14T10:37:45Z</time>
</trkpt>
<trkpt lat="39.4719151" lon="3.1651276">
<ele>135.63</ele>
<time>2016-10-14T10:37:48Z</time>
</trkpt>
<trkpt lat="39.4719772" lon="3.1648705">
<ele>134.51</ele>
<time>2016-10-14T10:37:51Z</time>
</trkpt>
<trkpt lat="39.4720375" lon="3.1646011">
<ele>133.94</ele>
<time>2016-10-14T10:37:54Z</time>
</trkpt>
<trkpt lat="39.4720952" lon="3.1643364">
<ele>134.31</ele>
<time>2016-10-14T10:37:57Z</time>
</trkpt>
<trkpt lat="39.4721562" lon="3.1640869">
<ele>133.87</ele>
<time>2016-10-14T10:38:00Z</time>
</trkpt>
<trkpt lat="39.4722183" lon="3.1638322">
<ele>132.81</ele>
<time>2016-10-14T10:38:03Z</time>
</trkpt>
<trkpt lat="39.4722813" lon="3.1635760">
<ele>131.70</ele>
<time>2016-10-14T10:38:06Z</time>
</trkpt>
<trkpt lat="39.4723407" lon="3.1633191">
<ele>130.93</ele>
<time>2016-10-14T10:38:09Z</time>
</trkpt>
<trkpt lat="39.4723974" lon="3.1630558">
<ele>129.99</ele>
<time>2016-10-14T10:38:12Z</time>
</trkpt>
<trkpt lat="39.4724486" lon="3.1628114">
<ele>130.93</ele>
<time>2016-10-14T10:38:15Z</time>
</trkpt>
<trkpt lat="39.4724991" lon="3.1625692">
<ele>132.20</ele>
<time>2016-10-14T10:38:18Z</time>
</trkpt>
<trkpt lat="39.4725561" lon="3.1623482">
<ele>131.88</ele>
<time>2016-10-14T10:38:21Z</time>
</trkpt>
<trkpt lat="39.4726307" lon="3.1620605">
<ele>132.28</ele>
<time>2016-10-14T10:38:25Z</time>
</trkpt>
<trkpt lat="39.4726935" lon="3.1617691">
<ele>132.71</ele>
<time>2016-10-14T10:38:29Z</time>
</trkpt>
<trkpt lat="39.4727482" lon="3.1615364">
<ele>134.04</ele>
<time>2016-10-14T10:38:32Z</time>
</trkpt>
<trkpt lat="39.4728022" lon="3.1613083">
<ele>135.21</ele>
<time>2016-10-14T10:38:35Z</time>
</trkpt>
<trkpt lat="39.4728810" lon="3.1610139">
<ele>137.21</ele>
<time>2016-10-14T10:38:39Z</time>
</trkpt>
<trkpt lat="39.4729575" lon="3.1607420">
<ele>137.16</ele>
<time>2016-10-14T10:38:43Z</time>
</trkpt>
<trkpt lat="39.4730104" lon="3.1604638">
<ele>135.93</ele>
<time>2016-10-14T10:38:47Z</time>
</trkpt>
<trkpt lat="39.4730703" lon="3.1601721">
<ele>135.46</ele>
<time>2016-10-14T10:38:51Z</time>
</trkpt>
<trkpt lat="39.4731414" lon="3.1598845">
<ele>135.03</ele>
<time>2016-10-14T10:38:55Z</time>
</trkpt>
<trkpt lat="39.4732143" lon="3.1595955">
<ele>134.44</ele>
<time>2016-10-14T10:38:59Z</time>
</trkpt>
<trkpt lat="39.4732788" lon="3.1593364">
<ele>135.05</ele>
<time>2016-10-14T10:39:03Z</time>
</trkpt>
<trkpt lat="39.4733631" lon="3.1590932">
<ele>133.12</ele>
<time>2016-10-14T10:39:07Z</time>
</trkpt>
<trkpt lat="39.4735172" lon="3.1589172">
<ele>133.33</ele>
<time>2016-10-14T10:39:11Z</time>
</trkpt>
<trkpt lat="39.4737126" lon="3.1587483">
<ele>133.36</ele>
<time>2016-10-14T10:39:15Z</time>
</trkpt>
<trkpt lat="39.4738929" lon="3.1585628">
<ele>133.58</ele>
<time>2016-10-14T10:39:19Z</time>
</trkpt>
<trkpt lat="39.4740503" lon="3.1584223">
<ele>133.50</ele>
<time>2016-10-14T10:39:22Z</time>
</trkpt>
<trkpt lat="39.4742183" lon="3.1582663">
<ele>133.13</ele>
<time>2016-10-14T10:39:25Z</time>
</trkpt>
<trkpt lat="39.4744085" lon="3.1580913">
<ele>133.75</ele>
<time>2016-10-14T10:39:28Z</time>
</trkpt>
<trkpt lat="39.4746074" lon="3.1579205">
<ele>133.35</ele>
<time>2016-10-14T10:39:31Z</time>
</trkpt>
<trkpt lat="39.4747966" lon="3.1577548">
<ele>131.45</ele>
<time>2016-10-14T10:39:34Z</time>
</trkpt>
<trkpt lat="39.4749895" lon="3.1575755">
<ele>129.81</ele>
<time>2016-10-14T10:39:37Z</time>
</trkpt>
<trkpt lat="39.4751856" lon="3.1573993">
<ele>128.32</ele>
<time>2016-10-14T10:39:40Z</time>
</trkpt>
<trkpt lat="39.4753704" lon="3.1572389">
<ele>126.31</ele>
<time>2016-10-14T10:39:43Z</time>
</trkpt>
<trkpt lat="39.4755454" lon="3.1570823">
<ele>124.23</ele>
<time>2016-10-14T10:39:46Z</time>
</trkpt>
<trkpt lat="39.4757322" lon="3.1569113">
<ele>122.75</ele>
<time>2016-10-14T10:39:49Z</time>
</trkpt>
<trkpt lat="39.4759117" lon="3.1567403">
<ele>121.09</ele>
<time>2016-10-14T10:39:52Z</time>
</trkpt>
<trkpt lat="39.4761051" lon="3.1565643">
<ele>118.13</ele>
<time>2016-10-14T10:39:55Z</time>
</trkpt>
<trkpt lat="39.4762640" lon="3.1564362">
<ele>116.40</ele>
<time>2016-10-14T10:39:58Z</time>
</trkpt>
<trkpt lat="39.4764545" lon="3.1563898">
<ele>116.37</ele>
<time>2016-10-14T10:40:04Z</time>
</trkpt>
<trkpt lat="39.4766705" lon="3.1563447">
<ele>121.03</ele>
<time>2016-10-14T10:40:09Z</time>
</trkpt>
<trkpt lat="39.4767457" lon="3.1560865">
<ele>121.80</ele>
<time>2016-10-14T10:40:13Z</time>
</trkpt>
<trkpt lat="39.4765879" lon="3.1558538">
<ele>120.00</ele>
<time>2016-10-14T10:40:17Z</time>
</trkpt>
<trkpt lat="39.4764217" lon="3.1557533">
<ele>114.65</ele>
<time>2016-10-14T10:40:20Z</time>
</trkpt>
<trkpt lat="39.4762663" lon="3.1555538">
<ele>108.00</ele>
<time>2016-10-14T10:40:24Z</time>
</trkpt>
<trkpt lat="39.4761375" lon="3.1552994">
<ele>104.88</ele>
<time>2016-10-14T10:40:28Z</time>
</trkpt>
<trkpt lat="39.4760152" lon="3.1550461">
<ele>103.44</ele>
<time>2016-10-14T10:40:32Z</time>
</trkpt>
<trkpt lat="39.4758945" lon="3.1547792">
<ele>102.82</ele>
<time>2016-10-14T10:40:36Z</time>
</trkpt>
<trkpt lat="39.4757732" lon="3.1545231">
<ele>102.44</ele>
<time>2016-10-14T10:40:40Z</time>
</trkpt>
<trkpt lat="39.4756444" lon="3.1542683">
<ele>100.19</ele>
<time>2016-10-14T10:40:44Z</time>
</trkpt>
<trkpt lat="39.4755394" lon="3.1540591">
<ele>98.62</ele>
<time>2016-10-14T10:40:47Z</time>
</trkpt>
<trkpt lat="39.4754136" lon="3.1538155">
<ele>96.53</ele>
<time>2016-10-14T10:40:51Z</time>
</trkpt>
<trkpt lat="39.4753174" lon="3.1536018">
<ele>96.83</ele>
<time>2016-10-14T10:40:54Z</time>
</trkpt>
<trkpt lat="39.4751964" lon="3.1533466">
<ele>96.52</ele>
<time>2016-10-14T10:40:58Z</time>
</trkpt>
<trkpt lat="39.4750690" lon="3.1531168">
<ele>94.25</ele>
<time>2016-10-14T10:41:02Z</time>
</trkpt>
<trkpt lat="39.4749671" lon="3.1529079">
<ele>92.24</ele>
<time>2016-10-14T10:41:06Z</time>
</trkpt>
<trkpt lat="39.4750169" lon="3.1526524">
<ele>94.67</ele>
<time>2016-10-14T10:41:11Z</time>
</trkpt>
<trkpt lat="39.4751685" lon="3.1524617">
<ele>101.60</ele>
<time>2016-10-14T10:41:15Z</time>
</trkpt>
<trkpt lat="39.4753714" lon="3.1523199">
<ele>105.15</ele>
<time>2016-10-14T10:41:19Z</time>
</trkpt>
<trkpt lat="39.4755686" lon="3.1521648">
<ele>107.96</ele>
<time>2016-10-14T10:41:23Z</time>
</trkpt>
<trkpt lat="39.4757220" lon="3.1520106">
<ele>112.44</ele>
<time>2016-10-14T10:41:26Z</time>
</trkpt>
<trkpt lat="39.4757917" lon="3.1517615">
<ele>116.47</ele>
<time>2016-10-14T10:41:31Z</time>
</trkpt>
<trkpt lat="39.4756793" lon="3.1515023">
<ele>117.48</ele>
<time>2016-10-14T10:41:35Z</time>
</trkpt>
<trkpt lat="39.4755797" lon="3.1512652">
<ele>120.13</ele>
<time>2016-10-14T10:41:39Z</time>
</trkpt>
<trkpt lat="39.4754698" lon="3.1510402">
<ele>117.04</ele>
<time>2016-10-14T10:41:43Z</time>
</trkpt>
<trkpt lat="39.4754127" lon="3.1508125">
<ele>114.34</ele>
<time>2016-10-14T10:41:46Z</time>
</trkpt>
<trkpt lat="39.4754649" lon="3.1505454">
<ele>116.44</ele>
<time>2016-10-14T10:41:49Z</time>
</trkpt>
<trkpt lat="39.4756161" lon="3.1503625">
<ele>119.74</ele>
<time>2016-10-14T10:41:53Z</time>
</trkpt>
<trkpt lat="39.4757851" lon="3.1502375">
<ele>118.14</ele>
<time>2016-10-14T10:41:56Z</time>
</trkpt>
<trkpt lat="39.4759798" lon="3.1500445">
<ele>116.95</ele>
<time>2016-10-14T10:42:00Z</time>
</trkpt>
<trkpt lat="39.4761242" lon="3.1497678">
<ele>118.28</ele>
<time>2016-10-14T10:42:03Z</time>
</trkpt>
<trkpt lat="39.4762103" lon="3.1495552">
<ele>118.06</ele>
<time>2016-10-14T10:42:05Z</time>
</trkpt>
<trkpt lat="39.4763048" lon="3.1493116">
<ele>116.68</ele>
<time>2016-10-14T10:42:07Z</time>
</trkpt>
<trkpt lat="39.4763932" lon="3.1490616">
<ele>114.56</ele>
<time>2016-10-14T10:42:09Z</time>
</trkpt>
<trkpt lat="39.4764781" lon="3.1488395">
<ele>112.76</ele>
<time>2016-10-14T10:42:11Z</time>
</trkpt>
<trkpt lat="39.4765574" lon="3.1486214">
<ele>111.48</ele>
<time>2016-10-14T10:42:13Z</time>
</trkpt>
<trkpt lat="39.4766400" lon="3.1484006">
<ele>109.29</ele>
<time>2016-10-14T10:42:15Z</time>
</trkpt>
<trkpt lat="39.4767233" lon="3.1481927">
<ele>106.78</ele>
<time>2016-10-14T10:42:17Z</time>
</trkpt>
<trkpt lat="39.4768362" lon="3.1479173">
<ele>103.57</ele>
<time>2016-10-14T10:42:20Z</time>
</trkpt>
<trkpt lat="39.4768611" lon="3.1476724">
<ele>101.76</ele>
<time>2016-10-14T10:42:23Z</time>
</trkpt>
<trkpt lat="39.4767932" lon="3.1474298">
<ele>101.58</ele>
<time>2016-10-14T10:42:26Z</time>
</trkpt>
<trkpt lat="39.4767049" lon="3.1471875">
<ele>103.17</ele>
<time>2016-10-14T10:42:30Z</time>
</trkpt>
<trkpt lat="39.4766210" lon="3.1469314">
<ele>104.16</ele>
<time>2016-10-14T10:42:34Z</time>
</trkpt>
<trkpt lat="39.4765398" lon="3.1467076">
<ele>102.93</ele>
<time>2016-10-14T10:42:38Z</time>
</trkpt>
<trkpt lat="39.4764614" lon="3.1464676">
<ele>101.68</ele>
<time>2016-10-14T10:42:42Z</time>
</trkpt>
<trkpt lat="39.4763701" lon="3.1461723">
<ele>101.60</ele>
<time>2016-10-14T10:42:46Z</time>
</trkpt>
<trkpt lat="39.4762895" lon="3.1459543">
<ele>102.23</ele>
<time>2016-10-14T10:42:49Z</time>
</trkpt>
<trkpt lat="39.4762038" lon="3.1457192">
<ele>104.39</ele>
<time>2016-10-14T10:42:52Z</time>
</trkpt>
<trkpt lat="39.4761181" lon="3.1454687">
<ele>105.63</ele>
<time>2016-10-14T10:42:55Z</time>
</trkpt>
<trkpt lat="39.4760280" lon="3.1452146">
<ele>104.40</ele>
<time>2016-10-14T10:42:58Z</time>
</trkpt>
<trkpt lat="39.4759453" lon="3.1449209">
<ele>103.51</ele>
<time>2016-10-14T10:43:01Z</time>
</trkpt>
<trkpt lat="39.4758554" lon="3.1446037">
<ele>103.89</ele>
<time>2016-10-14T10:43:04Z</time>
</trkpt>
<trkpt lat="39.4757672" lon="3.1443071">
<ele>103.28</ele>
<time>2016-10-14T10:43:07Z</time>
</trkpt>
<trkpt lat="39.4756787" lon="3.1440209">
<ele>101.57</ele>
<time>2016-10-14T10:43:10Z</time>
</trkpt>
<trkpt lat="39.4755983" lon="3.1437607">
<ele>100.79</ele>
<time>2016-10-14T10:43:13Z</time>
</trkpt>
<trkpt lat="39.4755269" lon="3.1435132">
<ele>98.80</ele>
<time>2016-10-14T10:43:17Z</time>
</trkpt>
<trkpt lat="39.4755334" lon="3.1432651">
<ele>98.73</ele>
<time>2016-10-14T10:43:24Z</time>
</trkpt>
<trkpt lat="39.4756746" lon="3.1430722">
<ele>97.46</ele>
<time>2016-10-14T10:43:30Z</time>
</trkpt>
<trkpt lat="39.4758735" lon="3.1429783">
<ele>96.74</ele>
<time>2016-10-14T10:43:34Z</time>
</trkpt>
<trkpt lat="39.4760482" lon="3.1428898">
<ele>98.48</ele>
<time>2016-10-14T10:43:37Z</time>
</trkpt>
<trkpt lat="39.4762718" lon="3.1427693">
<ele>100.40</ele>
<time>2016-10-14T10:43:41Z</time>
</trkpt>
<trkpt lat="39.4764724" lon="3.1426679">
<ele>101.13</ele>
<time>2016-10-14T10:43:44Z</time>
</trkpt>
<trkpt lat="39.4766765" lon="3.1425673">
<ele>102.05</ele>
<time>2016-10-14T10:43:47Z</time>
</trkpt>
<trkpt lat="39.4768852" lon="3.1424713">
<ele>102.85</ele>
<time>2016-10-14T10:43:50Z</time>
</trkpt>
<trkpt lat="39.4770935" lon="3.1423671">
<ele>103.26</ele>
<time>2016-10-14T10:43:53Z</time>
</trkpt>
<trkpt lat="39.4772940" lon="3.1422822">
<ele>103.45</ele>
<time>2016-10-14T10:43:56Z</time>
</trkpt>
<trkpt lat="39.4774676" lon="3.1421119">
<ele>103.57</ele>
<time>2016-10-14T10:43:59Z</time>
</trkpt>
<trkpt lat="39.4776063" lon="3.1418970">
<ele>103.44</ele>
<time>2016-10-14T10:44:02Z</time>
</trkpt>
<trkpt lat="39.4777938" lon="3.1417388">
<ele>103.78</ele>
<time>2016-10-14T10:44:05Z</time>
</trkpt>
<trkpt lat="39.4779901" lon="3.1415725">
<ele>102.70</ele>
<time>2016-10-14T10:44:08Z</time>
</trkpt>
<trkpt lat="39.4781838" lon="3.1413929">
<ele>100.93</ele>
<time>2016-10-14T10:44:11Z</time>
</trkpt>
<trkpt lat="39.4783568" lon="3.1411965">
<ele>100.84</ele>
<time>2016-10-14T10:44:14Z</time>
</trkpt>
<trkpt lat="39.4785504" lon="3.1409820">
<ele>100.46</ele>
<time>2016-10-14T10:44:17Z</time>
</trkpt>
<trkpt lat="39.4787379" lon="3.1407685">
<ele>99.82</ele>
<time>2016-10-14T10:44:20Z</time>
</trkpt>
<trkpt lat="39.4789190" lon="3.1405395">
<ele>99.76</ele>
<time>2016-10-14T10:44:23Z</time>
</trkpt>
<trkpt lat="39.4790884" lon="3.1403240">
<ele>100.35</ele>
<time>2016-10-14T10:44:26Z</time>
</trkpt>
<trkpt lat="39.4792643" lon="3.1401123">
<ele>101.04</ele>
<time>2016-10-14T10:44:29Z</time>
</trkpt>
<trkpt lat="39.4794442" lon="3.1398949">
<ele>101.44</ele>
<time>2016-10-14T10:44:32Z</time>
</trkpt>
<trkpt lat="39.4796381" lon="3.1396731">
<ele>101.71</ele>
<time>2016-10-14T10:44:35Z</time>
</trkpt>
<trkpt lat="39.4798316" lon="3.1394487">
<ele>100.76</ele>
<time>2016-10-14T10:44:38Z</time>
</trkpt>
<trkpt lat="39.4800329" lon="3.1392176">
<ele>99.60</ele>
<time>2016-10-14T10:44:41Z</time>
</trkpt>
<trkpt lat="39.4801693" lon="3.1390630">
<ele>98.94</ele>
<time>2016-10-14T10:44:43Z</time>
</trkpt>
<trkpt lat="39.4803035" lon="3.1389040">
<ele>98.56</ele>
<time>2016-10-14T10:44:45Z</time>
</trkpt>
<trkpt lat="39.4804300" lon="3.1387325">
<ele>98.56</ele>
<time>2016-10-14T10:44:47Z</time>
</trkpt>
<trkpt lat="39.4805863" lon="3.1384891">
<ele>98.17</ele>
<time>2016-10-14T10:44:50Z</time>
</trkpt>
<trkpt lat="39.4807456" lon="3.1382257">
<ele>98.13</ele>
<time>2016-10-14T10:44:53Z</time>
</trkpt>
<trkpt lat="39.4808933" lon="3.1379788">
<ele>97.15</ele>
<time>2016-10-14T10:44:56Z</time>
</trkpt>
<trkpt lat="39.4810544" lon="3.1377242">
<ele>97.18</ele>
<time>2016-10-14T10:44:59Z</time>
</trkpt>
<trkpt lat="39.4812416" lon="3.1375496">
<ele>98.12</ele>
<time>2016-10-14T10:45:02Z</time>
</trkpt>
<trkpt lat="39.4814226" lon="3.1374044">
<ele>99.81</ele>
<time>2016-10-14T10:45:05Z</time>
</trkpt>
<trkpt lat="39.4816218" lon="3.1372710">
<ele>100.27</ele>
<time>2016-10-14T10:45:08Z</time>
</trkpt>
<trkpt lat="39.4818412" lon="3.1371169">
<ele>99.89</ele>
<time>2016-10-14T10:45:11Z</time>
</trkpt>
<trkpt lat="39.4820588" lon="3.1369670">
<ele>99.51</ele>
<time>2016-10-14T10:45:14Z</time>
</trkpt>
<trkpt lat="39.4822784" lon="3.1368097">
<ele>98.85</ele>
<time>2016-10-14T10:45:17Z</time>
</trkpt>
<trkpt lat="39.4825059" lon="3.1366533">
<ele>99.01</ele>
<time>2016-10-14T10:45:20Z</time>
</trkpt>
<trkpt lat="39.4827291" lon="3.1364902">
<ele>99.29</ele>
<time>2016-10-14T10:45:23Z</time>
</trkpt>
<trkpt lat="39.4829552" lon="3.1363255">
<ele>99.27</ele>
<time>2016-10-14T10:45:26Z</time>
</trkpt>
<trkpt lat="39.4831810" lon="3.1361614">
<ele>99.16</ele>
<time>2016-10-14T10:45:29Z</time>
</trkpt>
<trkpt lat="39.4834029" lon="3.1360057">
<ele>98.60</ele>
<time>2016-10-14T10:45:32Z</time>
</trkpt>
<trkpt lat="39.4835629" lon="3.1358950">
<ele>98.26</ele>
<time>2016-10-14T10:45:34Z</time>
</trkpt>
<trkpt lat="39.4837241" lon="3.1357888">
<ele>97.44</ele>
<time>2016-10-14T10:45:36Z</time>
</trkpt>
<trkpt lat="39.4838880" lon="3.1356710">
<ele>97.38</ele>
<time>2016-10-14T10:45:38Z</time>
</trkpt>
<trkpt lat="39.4840458" lon="3.1355555">
<ele>97.43</ele>
<time>2016-10-14T10:45:40Z</time>
</trkpt>
<trkpt lat="39.4842076" lon="3.1354346">
<ele>96.76</ele>
<time>2016-10-14T10:45:42Z</time>
</trkpt>
<trkpt lat="39.4844407" lon="3.1352531">
<ele>95.52</ele>
<time>2016-10-14T10:45:45Z</time>
</trkpt>
<trkpt lat="39.4845959" lon="3.1351261">
<ele>95.11</ele>
<time>2016-10-14T10:45:47Z</time>
</trkpt>
<trkpt lat="39.4847504" lon="3.1349939">
<ele>94.97</ele>
<time>2016-10-14T10:45:49Z</time>
</trkpt>
<trkpt lat="39.4849052" lon="3.1348637">
<ele>94.99</ele>
<time>2016-10-14T10:45:51Z</time>
</trkpt>
<trkpt lat="39.4850618" lon="3.1347397">
<ele>94.35</ele>
<time>2016-10-14T10:45:53Z</time>
</trkpt>
<trkpt lat="39.4852193" lon="3.1346148">
<ele>93.21</ele>
<time>2016-10-14T10:45:55Z</time>
</trkpt>
<trkpt lat="39.4853759" lon="3.1344870">
<ele>92.07</ele>
<time>2016-10-14T10:45:57Z</time>
</trkpt>
<trkpt lat="39.4855336" lon="3.1343587">
<ele>91.39</ele>
<time>2016-10-14T10:45:59Z</time>
</trkpt>
<trkpt lat="39.4856869" lon="3.1342362">
<ele>90.42</ele>
<time>2016-10-14T10:46:01Z</time>
</trkpt>
<trkpt lat="39.4859039" lon="3.1340570">
<ele>88.99</ele>
<time>2016-10-14T10:46:04Z</time>
</trkpt>
<trkpt lat="39.4861041" lon="3.1338991">
<ele>88.56</ele>
<time>2016-10-14T10:46:07Z</time>
</trkpt>
<trkpt lat="39.4863032" lon="3.1337482">
<ele>89.32</ele>
<time>2016-10-14T10:46:10Z</time>
</trkpt>
<trkpt lat="39.4864995" lon="3.1335901">
<ele>90.64</ele>
<time>2016-10-14T10:46:13Z</time>
</trkpt>
<trkpt lat="39.4867029" lon="3.1334226">
<ele>91.05</ele>
<time>2016-10-14T10:46:16Z</time>
</trkpt>
<trkpt lat="39.4868998" lon="3.1332539">
<ele>91.67</ele>
<time>2016-10-14T10:46:19Z</time>
</trkpt>
<trkpt lat="39.4870912" lon="3.1330955">
<ele>91.88</ele>
<time>2016-10-14T10:46:22Z</time>
</trkpt>
<trkpt lat="39.4873019" lon="3.1329190">
<ele>91.52</ele>
<time>2016-10-14T10:46:25Z</time>
</trkpt>
<trkpt lat="39.4875068" lon="3.1327375">
<ele>92.94</ele>
<time>2016-10-14T10:46:28Z</time>
</trkpt>
<trkpt lat="39.4876888" lon="3.1325797">
<ele>93.40</ele>
<time>2016-10-14T10:46:31Z</time>
</trkpt>
<trkpt lat="39.4878610" lon="3.1324491">
<ele>92.59</ele>
<time>2016-10-14T10:46:34Z</time>
</trkpt>
<trkpt lat="39.4880458" lon="3.1323009">
<ele>91.88</ele>
<time>2016-10-14T10:46:37Z</time>
</trkpt>
<trkpt lat="39.4882378" lon="3.1321453">
<ele>92.04</ele>
<time>2016-10-14T10:46:40Z</time>
</trkpt>
<trkpt lat="39.4884323" lon="3.1319934">
<ele>91.98</ele>
<time>2016-10-14T10:46:43Z</time>
</trkpt>
<trkpt lat="39.4886309" lon="3.1318412">
<ele>90.95</ele>
<time>2016-10-14T10:46:46Z</time>
</trkpt>
<trkpt lat="39.4888267" lon="3.1316719">
<ele>90.79</ele>
<time>2016-10-14T10:46:49Z</time>
</trkpt>
<trkpt lat="39.4890242" lon="3.1315004">
<ele>91.92</ele>
<time>2016-10-14T10:46:52Z</time>
</trkpt>
<trkpt lat="39.4892309" lon="3.1313310">
<ele>92.15</ele>
<time>2016-10-14T10:46:55Z</time>
</trkpt>
<trkpt lat="39.4894225" lon="3.1311709">
<ele>92.09</ele>
<time>2016-10-14T10:46:58Z</time>
</trkpt>
<trkpt lat="39.4896237" lon="3.1310036">
<ele>91.75</ele>
<time>2016-10-14T10:47:01Z</time>
</trkpt>
<trkpt lat="39.4898253" lon="3.1308379">
<ele>91.80</ele>
<time>2016-10-14T10:47:04Z</time>
</trkpt>
<trkpt lat="39.4900143" lon="3.1306831">
<ele>91.67</ele>
<time>2016-10-14T10:47:07Z</time>
</trkpt>
<trkpt lat="39.4902008" lon="3.1304999">
<ele>89.28</ele>
<time>2016-10-14T10:47:10Z</time>
</trkpt>
<trkpt lat="39.4903268" lon="3.1302312">
<ele>86.78</ele>
<time>2016-10-14T10:47:13Z</time>
</trkpt>
<trkpt lat="39.4904033" lon="3.1299544">
<ele>84.97</ele>
<time>2016-10-14T10:47:16Z</time>
</trkpt>
<trkpt lat="39.4904712" lon="3.1297173">
<ele>82.57</ele>
<time>2016-10-14T10:47:19Z</time>
</trkpt>
<trkpt lat="39.4905341" lon="3.1294942">
<ele>79.08</ele>
<time>2016-10-14T10:47:23Z</time>
</trkpt>
<trkpt lat="39.4905842" lon="3.1291866">
<ele>80.23</ele>
<time>2016-10-14T10:47:27Z</time>
</trkpt>
<trkpt lat="39.4905707" lon="3.1289272">
<ele>81.59</ele>
<time>2016-10-14T10:47:30Z</time>
</trkpt>
<trkpt lat="39.4905264" lon="3.1286970">
<ele>81.87</ele>
<time>2016-10-14T10:47:33Z</time>
</trkpt>
<trkpt lat="39.4904545" lon="3.1284050">
<ele>80.89</ele>
<time>2016-10-14T10:47:37Z</time>
</trkpt>
<trkpt lat="39.4903856" lon="3.1281642">
<ele>80.76</ele>
<time>2016-10-14T10:47:40Z</time>
</trkpt>
<trkpt lat="39.4903148" lon="3.1278723">
<ele>79.13</ele>
<time>2016-10-14T10:47:44Z</time>
</trkpt>
<trkpt lat="39.4902455" lon="3.1275980">
<ele>77.49</ele>
<time>2016-10-14T10:47:48Z</time>
</trkpt>
<trkpt lat="39.4901716" lon="3.1273406">
<ele>76.43</ele>
<time>2016-10-14T10:47:52Z</time>
</trkpt>
<trkpt lat="39.4900965" lon="3.1270520">
<ele>75.36</ele>
<time>2016-10-14T10:47:56Z</time>
</trkpt>
<trkpt lat="39.4900423" lon="3.1268058">
<ele>76.55</ele>
<time>2016-10-14T10:47:59Z</time>
</trkpt>
<trkpt lat="39.4899851" lon="3.1265840">
<ele>76.80</ele>
<time>2016-10-14T10:48:02Z</time>
</trkpt>
<trkpt lat="39.4899276" lon="3.1263577">
<ele>78.49</ele>
<time>2016-10-14T10:48:05Z</time>
</trkpt>
<trkpt lat="39.4898575" lon="3.1260712">
<ele>78.79</ele>
<time>2016-10-14T10:48:09Z</time>
</trkpt>
<trkpt lat="39.4898003" lon="3.1258445">
<ele>79.47</ele>
<time>2016-10-14T10:48:12Z</time>
</trkpt>
<trkpt lat="39.4897405" lon="3.1256141">
<ele>80.73</ele>
<time>2016-10-14T10:48:15Z</time>
</trkpt>
<trkpt lat="39.4896717" lon="3.1253427">
<ele>80.21</ele>
<time>2016-10-14T10:48:19Z</time>
</trkpt>
<trkpt lat="39.4895953" lon="3.1250604">
<ele>82.64</ele>
<time>2016-10-14T10:48:23Z</time>
</trkpt>
<trkpt lat="39.4895158" lon="3.1247671">
<ele>83.31</ele>
<time>2016-10-14T10:48:27Z</time>
</trkpt>
<trkpt lat="39.4894617" lon="3.1245381">
<ele>84.38</ele>
<time>2016-10-14T10:48:30Z</time>
</trkpt>
<trkpt lat="39.4894006" lon="3.1242663">
<ele>81.18</ele>
<time>2016-10-14T10:48:34Z</time>
</trkpt>
<trkpt lat="39.4893532" lon="3.1240135">
<ele>77.97</ele>
<time>2016-10-14T10:48:37Z</time>
</trkpt>
<trkpt lat="39.4892996" lon="3.1237691">
<ele>77.44</ele>
<time>2016-10-14T10:48:40Z</time>
</trkpt>
<trkpt lat="39.4892306" lon="3.1234755">
<ele>78.62</ele>
<time>2016-10-14T10:48:44Z</time>
</trkpt>
<trkpt lat="39.4891709" lon="3.1232333">
<ele>77.87</ele>
<time>2016-10-14T10:48:47Z</time>
</trkpt>
<trkpt lat="39.4891096" lon="3.1230080">
<ele>78.22</ele>
<time>2016-10-14T10:48:50Z</time>
</trkpt>
<trkpt lat="39.4890516" lon="3.1227500">
<ele>77.99</ele>
<time>2016-10-14T10:48:54Z</time>
</trkpt>
<trkpt lat="39.4889951" lon="3.1225259">
<ele>79.14</ele>
<time>2016-10-14T10:48:57Z</time>
</trkpt>
<trkpt lat="39.4889220" lon="3.1222504">
<ele>76.89</ele>
<time>2016-10-14T10:49:01Z</time>
</trkpt>
<trkpt lat="39.4888777" lon="3.1220215">
<ele>75.82</ele>
<time>2016-10-14T10:49:04Z</time>
</trkpt>
<trkpt lat="39.4888600" lon="3.1217173">
<ele>76.11</ele>
<time>2016-10-14T10:49:08Z</time>
</trkpt>
<trkpt lat="39.4888855" lon="3.1214513">
<ele>76.65</ele>
<time>2016-10-14T10:49:11Z</time>
</trkpt>
<trkpt lat="39.4889251" lon="3.1211767">
<ele>77.53</ele>
<time>2016-10-14T10:49:14Z</time>
</trkpt>
<trkpt lat="39.4889832" lon="3.1209089">
<ele>78.40</ele>
<time>2016-10-14T10:49:17Z</time>
</trkpt>
<trkpt lat="39.4890607" lon="3.1206588">
<ele>78.82</ele>
<time>2016-10-14T10:49:20Z</time>
</trkpt>
<trkpt lat="39.4891415" lon="3.1204370">
<ele>79.30</ele>
<time>2016-10-14T10:49:23Z</time>
</trkpt>
<trkpt lat="39.4892294" lon="3.1202140">
<ele>79.34</ele>
<time>2016-10-14T10:49:26Z</time>
</trkpt>
<trkpt lat="39.4893402" lon="3.1199527">
<ele>77.12</ele>
<time>2016-10-14T10:49:30Z</time>
</trkpt>
<trkpt lat="39.4894240" lon="3.1197397">
<ele>75.84</ele>
<time>2016-10-14T10:49:33Z</time>
</trkpt>
<trkpt lat="39.4895074" lon="3.1195052">
<ele>76.28</ele>
<time>2016-10-14T10:49:36Z</time>
</trkpt>
<trkpt lat="39.4895970" lon="3.1192607">
<ele>75.78</ele>
<time>2016-10-14T10:49:39Z</time>
</trkpt>
<trkpt lat="39.4896919" lon="3.1189804">
<ele>77.66</ele>
<time>2016-10-14T10:49:43Z</time>
</trkpt>
<trkpt lat="39.4897673" lon="3.1187488">
<ele>79.45</ele>
<time>2016-10-14T10:49:46Z</time>
</trkpt>
<trkpt lat="39.4898517" lon="3.1184912">
<ele>80.32</ele>
<time>2016-10-14T10:49:49Z</time>
</trkpt>
<trkpt lat="39.4899528" lon="3.1182174">
<ele>79.73</ele>
<time>2016-10-14T10:49:53Z</time>
</trkpt>
<trkpt lat="39.4900386" lon="3.1179917">
<ele>79.38</ele>
<time>2016-10-14T10:49:56Z</time>
</trkpt>
<trkpt lat="39.4901196" lon="3.1177652">
<ele>78.59</ele>
<time>2016-10-14T10:49:58Z</time>
</trkpt>
<trkpt lat="39.4901948" lon="3.1175187">
<ele>78.06</ele>
<time>2016-10-14T10:50:01Z</time>
</trkpt>
<trkpt lat="39.4902755" lon="3.1172799">
<ele>77.32</ele>
<time>2016-10-14T10:50:04Z</time>
</trkpt>
<trkpt lat="39.4903629" lon="3.1170753">
<ele>75.89</ele>
<time>2016-10-14T10:50:07Z</time>
</trkpt>
<trkpt lat="39.4904498" lon="3.1168584">
<ele>75.38</ele>
<time>2016-10-14T10:50:10Z</time>
</trkpt>
<trkpt lat="39.4905399" lon="3.1166110">
<ele>75.92</ele>
<time>2016-10-14T10:50:14Z</time>
</trkpt>
<trkpt lat="39.4906182" lon="3.1163795">
<ele>77.17</ele>
<time>2016-10-14T10:50:17Z</time>
</trkpt>
<trkpt lat="39.4906992" lon="3.1161391">
<ele>77.50</ele>
<time>2016-10-14T10:50:20Z</time>
</trkpt>
<trkpt lat="39.4907723" lon="3.1159194">
<ele>78.97</ele>
<time>2016-10-14T10:50:23Z</time>
</trkpt>
<trkpt lat="39.4908478" lon="3.1156908">
<ele>80.67</ele>
<time>2016-10-14T10:50:26Z</time>
</trkpt>
<trkpt lat="39.4909410" lon="3.1154750">
<ele>80.05</ele>
<time>2016-10-14T10:50:29Z</time>
</trkpt>
<trkpt lat="39.4910339" lon="3.1152128">
<ele>80.69</ele>
<time>2016-10-14T10:50:32Z</time>
</trkpt>
<trkpt lat="39.4911228" lon="3.1149638">
<ele>80.12</ele>
<time>2016-10-14T10:50:35Z</time>
</trkpt>
<trkpt lat="39.4912028" lon="3.1147386">
<ele>78.83</ele>
<time>2016-10-14T10:50:38Z</time>
</trkpt>
<trkpt lat="39.4912920" lon="3.1144588">
<ele>76.74</ele>
<time>2016-10-14T10:50:42Z</time>
</trkpt>
<trkpt lat="39.4913684" lon="3.1142078">
<ele>77.62</ele>
<time>2016-10-14T10:50:46Z</time>
</trkpt>
<trkpt lat="39.4914675" lon="3.1139353">
<ele>76.93</ele>
<time>2016-10-14T10:50:50Z</time>
</trkpt>
<trkpt lat="39.4915447" lon="3.1137234">
<ele>75.69</ele>
<time>2016-10-14T10:50:53Z</time>
</trkpt>
<trkpt lat="39.4916232" lon="3.1134918">
<ele>77.00</ele>
<time>2016-10-14T10:50:56Z</time>
</trkpt>
<trkpt lat="39.4916931" lon="3.1132505">
<ele>80.35</ele>
<time>2016-10-14T10:51:00Z</time>
</trkpt>
<trkpt lat="39.4917599" lon="3.1129943">
<ele>82.33</ele>
<time>2016-10-14T10:51:04Z</time>
</trkpt>
<trkpt lat="39.4918439" lon="3.1127453">
<ele>81.75</ele>
<time>2016-10-14T10:51:08Z</time>
</trkpt>
<trkpt lat="39.4919086" lon="3.1124926">
<ele>78.93</ele>
<time>2016-10-14T10:51:12Z</time>
</trkpt>
<trkpt lat="39.4919699" lon="3.1122219">
<ele>75.56</ele>
<time>2016-10-14T10:51:16Z</time>
</trkpt>
<trkpt lat="39.4920162" lon="3.1119226">
<ele>75.52</ele>
<time>2016-10-14T10:51:20Z</time>
</trkpt>
<trkpt lat="39.4920497" lon="3.1116667">
<ele>75.89</ele>
<time>2016-10-14T10:51:23Z</time>
</trkpt>
<trkpt lat="39.4920844" lon="3.1114183">
<ele>76.94</ele>
<time>2016-10-14T10:51:27Z</time>
</trkpt>
<trkpt lat="39.4921213" lon="3.1111501">
<ele>76.68</ele>
<time>2016-10-14T10:51:31Z</time>
</trkpt>
<trkpt lat="39.4921620" lon="3.1108948">
<ele>74.96</ele>
<time>2016-10-14T10:51:35Z</time>
</trkpt>
<trkpt lat="39.4922167" lon="3.1105940">
<ele>75.68</ele>
<time>2016-10-14T10:51:39Z</time>
</trkpt>
<trkpt lat="39.4922532" lon="3.1103603">
<ele>77.68</ele>
<time>2016-10-14T10:51:42Z</time>
</trkpt>
<trkpt lat="39.4923046" lon="3.1100741">
<ele>78.22</ele>
<time>2016-10-14T10:51:46Z</time>
</trkpt>
<trkpt lat="39.4923403" lon="3.1098378">
<ele>78.09</ele>
<time>2016-10-14T10:51:49Z</time>
</trkpt>
<trkpt lat="39.4923767" lon="3.1095951">
<ele>77.78</ele>
<time>2016-10-14T10:51:52Z</time>
</trkpt>
<trkpt lat="39.4924233" lon="3.1093139">
<ele>74.07</ele>
<time>2016-10-14T10:51:56Z</time>
</trkpt>
<trkpt lat="39.4924817" lon="3.1090683">
<ele>73.73</ele>
<time>2016-10-14T10:51:59Z</time>
</trkpt>
<trkpt lat="39.4925708" lon="3.1088164">
<ele>73.02</ele>
<time>2016-10-14T10:52:03Z</time>
</trkpt>
<trkpt lat="39.4926676" lon="3.1085950">
<ele>70.26</ele>
<time>2016-10-14T10:52:06Z</time>
</trkpt>
<trkpt lat="39.4927677" lon="3.1083985">
<ele>67.64</ele>
<time>2016-10-14T10:52:09Z</time>
</trkpt>
<trkpt lat="39.4928876" lon="3.1081651">
<ele>66.48</ele>
<time>2016-10-14T10:52:12Z</time>
</trkpt>
<trkpt lat="39.4930048" lon="3.1079573">
<ele>65.86</ele>
<time>2016-10-14T10:52:15Z</time>
</trkpt>
<trkpt lat="39.4931206" lon="3.1077570">
<ele>65.18</ele>
<time>2016-10-14T10:52:18Z</time>
</trkpt>
<trkpt lat="39.4932474" lon="3.1075408">
<ele>66.04</ele>
<time>2016-10-14T10:52:21Z</time>
</trkpt>
<trkpt lat="39.4933738" lon="3.1073336">
<ele>66.68</ele>
<time>2016-10-14T10:52:24Z</time>
</trkpt>
<trkpt lat="39.4934961" lon="3.1071300">
<ele>67.09</ele>
<time>2016-10-14T10:52:27Z</time>
</trkpt>
<trkpt lat="39.4936185" lon="3.1069312">
<ele>67.14</ele>
<time>2016-10-14T10:52:30Z</time>
</trkpt>
<trkpt lat="39.4937412" lon="3.1067361">
<ele>67.44</ele>
<time>2016-10-14T10:52:33Z</time>
</trkpt>
<trkpt lat="39.4938524" lon="3.1065383">
<ele>66.82</ele>
<time>2016-10-14T10:52:36Z</time>
</trkpt>
<trkpt lat="39.4939526" lon="3.1062667">
<ele>67.07</ele>
<time>2016-10-14T10:52:40Z</time>
</trkpt>
<trkpt lat="39.4940156" lon="3.1060421">
<ele>68.18</ele>
<time>2016-10-14T10:52:43Z</time>
</trkpt>
<trkpt lat="39.4940847" lon="3.1057673">
<ele>69.05</ele>
<time>2016-10-14T10:52:47Z</time>
</trkpt>
<trkpt lat="39.4941447" lon="3.1055116">
<ele>73.54</ele>
<time>2016-10-14T10:52:51Z</time>
</trkpt>
<trkpt lat="39.4942209" lon="3.1052339">
<ele>76.14</ele>
<time>2016-10-14T10:52:55Z</time>
</trkpt>
<trkpt lat="39.4942859" lon="3.1050002">
<ele>78.35</ele>
<time>2016-10-14T10:52:58Z</time>
</trkpt>
<trkpt lat="39.4943566" lon="3.1047081">
<ele>79.31</ele>
<time>2016-10-14T10:53:02Z</time>
</trkpt>
<trkpt lat="39.4944232" lon="3.1044258">
<ele>80.08</ele>
<time>2016-10-14T10:53:06Z</time>
</trkpt>
<trkpt lat="39.4944822" lon="3.1042006">
<ele>81.33</ele>
<time>2016-10-14T10:53:09Z</time>
</trkpt>
<trkpt lat="39.4945420" lon="3.1039743">
<ele>82.49</ele>
<time>2016-10-14T10:53:13Z</time>
</trkpt>
<trkpt lat="39.4945975" lon="3.1037239">
<ele>83.51</ele>
<time>2016-10-14T10:53:17Z</time>
</trkpt>
<trkpt lat="39.4946642" lon="3.1035011">
<ele>83.01</ele>
<time>2016-10-14T10:53:21Z</time>
</trkpt>
<trkpt lat="39.4947271" lon="3.1032319">
<ele>82.92</ele>
<time>2016-10-14T10:53:26Z</time>
</trkpt>
<trkpt lat="39.4947940" lon="3.1029575">
<ele>84.78</ele>
<time>2016-10-14T10:53:30Z</time>
</trkpt>
<trkpt lat="39.4948449" lon="3.1027235">
<ele>86.18</ele>
<time>2016-10-14T10:53:33Z</time>
</trkpt>
<trkpt lat="39.4949057" lon="3.1024683">
<ele>86.29</ele>
<time>2016-10-14T10:53:37Z</time>
</trkpt>
<trkpt lat="39.4949737" lon="3.1022131">
<ele>86.73</ele>
<time>2016-10-14T10:53:41Z</time>
</trkpt>
<trkpt lat="39.4950393" lon="3.1019797">
<ele>84.61</ele>
<time>2016-10-14T10:53:45Z</time>
</trkpt>
<trkpt lat="39.4951068" lon="3.1017052">
<ele>79.42</ele>
<time>2016-10-14T10:53:49Z</time>
</trkpt>
<trkpt lat="39.4951745" lon="3.1014441">
<ele>78.43</ele>
<time>2016-10-14T10:53:53Z</time>
</trkpt>
<trkpt lat="39.4952547" lon="3.1011736">
<ele>82.31</ele>
<time>2016-10-14T10:53:57Z</time>
</trkpt>
<trkpt lat="39.4953243" lon="3.1009376">
<ele>84.70</ele>
<time>2016-10-14T10:54:01Z</time>
</trkpt>
<trkpt lat="39.4953958" lon="3.1006793">
<ele>86.72</ele>
<time>2016-10-14T10:54:06Z</time>
</trkpt>
<trkpt lat="39.4954845" lon="3.1004284">
<ele>88.43</ele>
<time>2016-10-14T10:54:11Z</time>
</trkpt>
<trkpt lat="39.4955638" lon="3.1001903">
<ele>88.89</ele>
<time>2016-10-14T10:54:15Z</time>
</trkpt>
<trkpt lat="39.4956405" lon="3.0999752">
<ele>90.11</ele>
<time>2016-10-14T10:54:19Z</time>
</trkpt>
<trkpt lat="39.4957209" lon="3.0997160">
<ele>91.49</ele>
<time>2016-10-14T10:54:23Z</time>
</trkpt>
<trkpt lat="39.4958060" lon="3.0994542">
<ele>92.85</ele>
<time>2016-10-14T10:54:27Z</time>
</trkpt>
<trkpt lat="39.4958877" lon="3.0992082">
<ele>94.04</ele>
<time>2016-10-14T10:54:31Z</time>
</trkpt>
<trkpt lat="39.4959789" lon="3.0989438">
<ele>94.57</ele>
<time>2016-10-14T10:54:35Z</time>
</trkpt>
<trkpt lat="39.4960458" lon="3.0987264">
<ele>94.12</ele>
<time>2016-10-14T10:54:38Z</time>
</trkpt>
<trkpt lat="39.4961183" lon="3.0984609">
<ele>93.89</ele>
<time>2016-10-14T10:54:42Z</time>
</trkpt>
<trkpt lat="39.4961965" lon="3.0981954">
<ele>95.22</ele>
<time>2016-10-14T10:54:46Z</time>
</trkpt>
<trkpt lat="39.4962882" lon="3.0979151">
<ele>96.14</ele>
<time>2016-10-14T10:54:50Z</time>
</trkpt>
<trkpt lat="39.4963620" lon="3.0976565">
<ele>97.38</ele>
<time>2016-10-14T10:54:54Z</time>
</trkpt>
<trkpt lat="39.4964518" lon="3.0973908">
<ele>98.14</ele>
<time>2016-10-14T10:54:58Z</time>
</trkpt>
<trkpt lat="39.4965428" lon="3.0971285">
<ele>96.28</ele>
<time>2016-10-14T10:55:02Z</time>
</trkpt>
<trkpt lat="39.4966313" lon="3.0968481">
<ele>94.27</ele>
<time>2016-10-14T10:55:06Z</time>
</trkpt>
<trkpt lat="39.4967191" lon="3.0965705">
<ele>94.52</ele>
<time>2016-10-14T10:55:10Z</time>
</trkpt>
<trkpt lat="39.4967949" lon="3.0963157">
<ele>95.31</ele>
<time>2016-10-14T10:55:14Z</time>
</trkpt>
<trkpt lat="39.4968721" lon="3.0960561">
<ele>95.63</ele>
<time>2016-10-14T10:55:18Z</time>
</trkpt>
<trkpt lat="39.4969542" lon="3.0957824">
<ele>95.34</ele>
<time>2016-10-14T10:55:22Z</time>
</trkpt>
<trkpt lat="39.4970305" lon="3.0954990">
<ele>95.12</ele>
<time>2016-10-14T10:55:26Z</time>
</trkpt>
<trkpt lat="39.4971105" lon="3.0952204">
<ele>94.93</ele>
<time>2016-10-14T10:55:30Z</time>
</trkpt>
<trkpt lat="39.4971895" lon="3.0949556">
<ele>95.20</ele>
<time>2016-10-14T10:55:34Z</time>
</trkpt>
<trkpt lat="39.4972619" lon="3.0946657">
<ele>95.93</ele>
<time>2016-10-14T10:55:38Z</time>
</trkpt>
<trkpt lat="39.4973260" lon="3.0944395">
<ele>95.49</ele>
<time>2016-10-14T10:55:41Z</time>
</trkpt>
<trkpt lat="39.4973879" lon="3.0942189">
<ele>96.35</ele>
<time>2016-10-14T10:55:44Z</time>
</trkpt>
<trkpt lat="39.4974721" lon="3.0939441">
<ele>97.84</ele>
<time>2016-10-14T10:55:48Z</time>
</trkpt>
<trkpt lat="39.4975426" lon="3.0937279">
<ele>99.02</ele>
<time>2016-10-14T10:55:51Z</time>
</trkpt>
<trkpt lat="39.4976304" lon="3.0934332">
<ele>99.55</ele>
<time>2016-10-14T10:55:55Z</time>
</trkpt>
<trkpt lat="39.4977121" lon="3.0931529">
<ele>99.89</ele>
<time>2016-10-14T10:55:59Z</time>
</trkpt>
<trkpt lat="39.4977823" lon="3.0929350">
<ele>100.54</ele>
<time>2016-10-14T10:56:02Z</time>
</trkpt>
<trkpt lat="39.4978677" lon="3.0926573">
<ele>100.19</ele>
<time>2016-10-14T10:56:06Z</time>
</trkpt>
<trkpt lat="39.4979397" lon="3.0924291">
<ele>100.90</ele>
<time>2016-10-14T10:56:09Z</time>
</trkpt>
<trkpt lat="39.4980344" lon="3.0921486">
<ele>101.10</ele>
<time>2016-10-14T10:56:13Z</time>
</trkpt>
<trkpt lat="39.4981153" lon="3.0918828">
<ele>102.19</ele>
<time>2016-10-14T10:56:17Z</time>
</trkpt>
<trkpt lat="39.4981986" lon="3.0916074">
<ele>102.28</ele>
<time>2016-10-14T10:56:21Z</time>
</trkpt>
<trkpt lat="39.4982956" lon="3.0913439">
<ele>101.75</ele>
<time>2016-10-14T10:56:25Z</time>
</trkpt>
<trkpt lat="39.4983746" lon="3.0911221">
<ele>100.50</ele>
<time>2016-10-14T10:56:28Z</time>
</trkpt>
<trkpt lat="39.4984672" lon="3.0908621">
<ele>100.11</ele>
<time>2016-10-14T10:56:32Z</time>
</trkpt>
<trkpt lat="39.4985566" lon="3.0905928">
<ele>100.74</ele>
<time>2016-10-14T10:56:36Z</time>
</trkpt>
<trkpt lat="39.4986374" lon="3.0903639">
<ele>101.05</ele>
<time>2016-10-14T10:56:39Z</time>
</trkpt>
<trkpt lat="39.4987394" lon="3.0900925">
<ele>102.68</ele>
<time>2016-10-14T10:56:43Z</time>
</trkpt>
<trkpt lat="39.4988405" lon="3.0898321">
<ele>103.22</ele>
<time>2016-10-14T10:56:47Z</time>
</trkpt>
<trkpt lat="39.4989127" lon="3.0896140">
<ele>103.55</ele>
<time>2016-10-14T10:56:50Z</time>
</trkpt>
<trkpt lat="39.4989934" lon="3.0893870">
<ele>103.86</ele>
<time>2016-10-14T10:56:53Z</time>
</trkpt>
<trkpt lat="39.4991039" lon="3.0891290">
<ele>102.50</ele>
<time>2016-10-14T10:56:56Z</time>
</trkpt>
<trkpt lat="39.4992131" lon="3.0888704">
<ele>100.50</ele>
<time>2016-10-14T10:56:59Z</time>
</trkpt>
<trkpt lat="39.4993068" lon="3.0886238">
<ele>97.38</ele>
<time>2016-10-14T10:57:02Z</time>
</trkpt>
<trkpt lat="39.4993842" lon="3.0884078">
<ele>97.56</ele>
<time>2016-10-14T10:57:05Z</time>
</trkpt>
<trkpt lat="39.4994682" lon="3.0881713">
<ele>100.01</ele>
<time>2016-10-14T10:57:08Z</time>
</trkpt>
<trkpt lat="39.4995587" lon="3.0879402">
<ele>101.39</ele>
<time>2016-10-14T10:57:11Z</time>
</trkpt>
<trkpt lat="39.4996377" lon="3.0877267">
<ele>103.25</ele>
<time>2016-10-14T10:57:14Z</time>
</trkpt>
<trkpt lat="39.4997271" lon="3.0875071">
<ele>103.51</ele>
<time>2016-10-14T10:57:17Z</time>
</trkpt>
<trkpt lat="39.4998193" lon="3.0872843">
<ele>104.23</ele>
<time>2016-10-14T10:57:20Z</time>
</trkpt>
<trkpt lat="39.4999083" lon="3.0870556">
<ele>104.01</ele>
<time>2016-10-14T10:57:23Z</time>
</trkpt>
<trkpt lat="39.4999986" lon="3.0868216">
<ele>105.45</ele>
<time>2016-10-14T10:57:26Z</time>
</trkpt>
<trkpt lat="39.5000803" lon="3.0865974">
<ele>105.25</ele>
<time>2016-10-14T10:57:29Z</time>
</trkpt>
<trkpt lat="39.5001656" lon="3.0863678">
<ele>105.61</ele>
<time>2016-10-14T10:57:32Z</time>
</trkpt>
<trkpt lat="39.5002535" lon="3.0861392">
<ele>106.32</ele>
<time>2016-10-14T10:57:35Z</time>
</trkpt>
<trkpt lat="39.5003370" lon="3.0859161">
<ele>106.36</ele>
<time>2016-10-14T10:57:38Z</time>
</trkpt>
<trkpt lat="39.5004171" lon="3.0856951">
<ele>105.46</ele>
<time>2016-10-14T10:57:41Z</time>
</trkpt>
<trkpt lat="39.5005045" lon="3.0854526">
<ele>104.43</ele>
<time>2016-10-14T10:57:44Z</time>
</trkpt>
<trkpt lat="39.5005864" lon="3.0852347">
<ele>104.55</ele>
<time>2016-10-14T10:57:48Z</time>
</trkpt>
<trkpt lat="39.5006807" lon="3.0850319">
<ele>104.01</ele>
<time>2016-10-14T10:57:51Z</time>
</trkpt>
<trkpt lat="39.5007925" lon="3.0848065">
<ele>104.71</ele>
<time>2016-10-14T10:57:54Z</time>
</trkpt>
<trkpt lat="39.5009250" lon="3.0845469">
<ele>104.55</ele>
<time>2016-10-14T10:57:58Z</time>
</trkpt>
<trkpt lat="39.5010280" lon="3.0843425">
<ele>104.63</ele>
<time>2016-10-14T10:58:01Z</time>
</trkpt>
<trkpt lat="39.5011352" lon="3.0841458">
<ele>103.74</ele>
<time>2016-10-14T10:58:04Z</time>
</trkpt>
<trkpt lat="39.5012362" lon="3.0839464">
<ele>102.92</ele>
<time>2016-10-14T10:58:07Z</time>
</trkpt>
<trkpt lat="39.5013431" lon="3.0837434">
<ele>103.03</ele>
<time>2016-10-14T10:58:10Z</time>
</trkpt>
<trkpt lat="39.5014563" lon="3.0835250">
<ele>103.63</ele>
<time>2016-10-14T10:58:13Z</time>
</trkpt>
<trkpt lat="39.5015736" lon="3.0832820">
<ele>104.03</ele>
<time>2016-10-14T10:58:17Z</time>
</trkpt>
<trkpt lat="39.5017124" lon="3.0830592">
<ele>105.48</ele>
<time>2016-10-14T10:58:21Z</time>
</trkpt>
<trkpt lat="39.5018517" lon="3.0828091">
<ele>102.58</ele>
<time>2016-10-14T10:58:25Z</time>
</trkpt>
<trkpt lat="39.5019675" lon="3.0826138">
<ele>102.89</ele>
<time>2016-10-14T10:58:28Z</time>
</trkpt>
<trkpt lat="39.5020999" lon="3.0823776">
<ele>102.46</ele>
<time>2016-10-14T10:58:32Z</time>
</trkpt>
<trkpt lat="39.5022175" lon="3.0821426">
<ele>97.96</ele>
<time>2016-10-14T10:58:36Z</time>
</trkpt>
<trkpt lat="39.5023474" lon="3.0818972">
<ele>93.74</ele>
<time>2016-10-14T10:58:40Z</time>
</trkpt>
<trkpt lat="39.5024916" lon="3.0816498">
<ele>91.27</ele>
<time>2016-10-14T10:58:44Z</time>
</trkpt>
<trkpt lat="39.5026131" lon="3.0814422">
<ele>90.87</ele>
<time>2016-10-14T10:58:47Z</time>
</trkpt>
<trkpt lat="39.5027224" lon="3.0812405">
<ele>91.34</ele>
<time>2016-10-14T10:58:50Z</time>
</trkpt>
<trkpt lat="39.5028427" lon="3.0810131">
<ele>95.76</ele>
<time>2016-10-14T10:58:53Z</time>
</trkpt>
<trkpt lat="39.5029422" lon="3.0808077">
<ele>98.24</ele>
<time>2016-10-14T10:58:56Z</time>
</trkpt>
<trkpt lat="39.5030684" lon="3.0805690">
<ele>101.19</ele>
<time>2016-10-14T10:58:59Z</time>
</trkpt>
<trkpt lat="39.5031864" lon="3.0803447">
<ele>103.78</ele>
<time>2016-10-14T10:59:02Z</time>
</trkpt>
<trkpt lat="39.5033189" lon="3.0801252">
<ele>103.40</ele>
<time>2016-10-14T10:59:05Z</time>
</trkpt>
<trkpt lat="39.5034471" lon="3.0798529">
<ele>102.22</ele>
<time>2016-10-14T10:59:08Z</time>
</trkpt>
<trkpt lat="39.5035253" lon="3.0796029">
<ele>104.16</ele>
<time>2016-10-14T10:59:11Z</time>
</trkpt>
<trkpt lat="39.5035620" lon="3.0793592">
<ele>105.75</ele>
<time>2016-10-14T10:59:14Z</time>
</trkpt>
<trkpt lat="39.5035454" lon="3.0790970">
<ele>106.31</ele>
<time>2016-10-14T10:59:17Z</time>
</trkpt>
<trkpt lat="39.5035084" lon="3.0788422">
<ele>105.93</ele>
<time>2016-10-14T10:59:20Z</time>
</trkpt>
<trkpt lat="39.5034708" lon="3.0786030">
<ele>106.13</ele>
<time>2016-10-14T10:59:23Z</time>
</trkpt>
<trkpt lat="39.5034385" lon="3.0783363">
<ele>106.40</ele>
<time>2016-10-14T10:59:26Z</time>
</trkpt>
<trkpt lat="39.5034317" lon="3.0780582">
<ele>105.29</ele>
<time>2016-10-14T10:59:29Z</time>
</trkpt>
<trkpt lat="39.5034421" lon="3.0777911">
<ele>104.59</ele>
<time>2016-10-14T10:59:32Z</time>
</trkpt>
<trkpt lat="39.5034553" lon="3.0775324">
<ele>104.42</ele>
<time>2016-10-14T10:59:35Z</time>
</trkpt>
<trkpt lat="39.5034807" lon="3.0772857">
<ele>103.64</ele>
<time>2016-10-14T10:59:38Z</time>
</trkpt>
<trkpt lat="39.5035066" lon="3.0770181">
<ele>103.16</ele>
<time>2016-10-14T10:59:42Z</time>
</trkpt>
<trkpt lat="39.5035305" lon="3.0767573">
<ele>104.39</ele>
<time>2016-10-14T10:59:46Z</time>
</trkpt>
<trkpt lat="39.5035405" lon="3.0764664">
<ele>107.36</ele>
<time>2016-10-14T10:59:50Z</time>
</trkpt>
<trkpt lat="39.5035289" lon="3.0762250">
<ele>109.64</ele>
<time>2016-10-14T10:59:53Z</time>
</trkpt>
<trkpt lat="39.5035257" lon="3.0759515">
<ele>111.24</ele>
<time>2016-10-14T10:59:56Z</time>
</trkpt>
<trkpt lat="39.5035127" lon="3.0756722">
<ele>111.74</ele>
<time>2016-10-14T11:00:00Z</time>
</trkpt>
<trkpt lat="39.5034782" lon="3.0753858">
<ele>112.82</ele>
<time>2016-10-14T11:00:04Z</time>
</trkpt>
<trkpt lat="39.5034417" lon="3.0751008">
<ele>113.34</ele>
<time>2016-10-14T11:00:08Z</time>
</trkpt>
<trkpt lat="39.5034163" lon="3.0748555">
<ele>113.56</ele>
<time>2016-10-14T11:00:12Z</time>
</trkpt>
<trkpt lat="39.5034231" lon="3.0745867">
<ele>116.16</ele>
<time>2016-10-14T11:00:16Z</time>
</trkpt>
<trkpt lat="39.5034431" lon="3.0742819">
<ele>118.37</ele>
<time>2016-10-14T11:00:20Z</time>
</trkpt>
<trkpt lat="39.5034594" lon="3.0739988">
<ele>118.78</ele>
<time>2016-10-14T11:00:24Z</time>
</trkpt>
<trkpt lat="39.5034767" lon="3.0737654">
<ele>118.82</ele>
<time>2016-10-14T11:00:27Z</time>
</trkpt>
<trkpt lat="39.5034947" lon="3.0734738">
<ele>119.32</ele>
<time>2016-10-14T11:00:31Z</time>
</trkpt>
<trkpt lat="39.5035033" lon="3.0731769">
<ele>119.37</ele>
<time>2016-10-14T11:00:35Z</time>
</trkpt>
<trkpt lat="39.5035095" lon="3.0729396">
<ele>118.97</ele>
<time>2016-10-14T11:00:38Z</time>
</trkpt>
<trkpt lat="39.5035041" lon="3.0726426">
<ele>118.66</ele>
<time>2016-10-14T11:00:42Z</time>
</trkpt>
<trkpt lat="39.5035045" lon="3.0723440">
<ele>118.83</ele>
<time>2016-10-14T11:00:46Z</time>
</trkpt>
<trkpt lat="39.5035029" lon="3.0720461">
<ele>118.84</ele>
<time>2016-10-14T11:00:50Z</time>
</trkpt>
<trkpt lat="39.5035101" lon="3.0717522">
<ele>118.37</ele>
<time>2016-10-14T11:00:54Z</time>
</trkpt>
<trkpt lat="39.5035409" lon="3.0715209">
<ele>119.49</ele>
<time>2016-10-14T11:00:57Z</time>
</trkpt>
<trkpt lat="39.5035858" lon="3.0712297">
<ele>117.85</ele>
<time>2016-10-14T11:01:01Z</time>
</trkpt>
<trkpt lat="39.5036023" lon="3.0709851">
<ele>116.28</ele>
<time>2016-10-14T11:01:04Z</time>
</trkpt>
<trkpt lat="39.5036205" lon="3.0707432">
<ele>116.48</ele>
<time>2016-10-14T11:01:07Z</time>
</trkpt>
<trkpt lat="39.5036557" lon="3.0705026">
<ele>117.42</ele>
<time>2016-10-14T11:01:10Z</time>
</trkpt>
<trkpt lat="39.5037408" lon="3.0702554">
<ele>118.26</ele>
<time>2016-10-14T11:01:13Z</time>
</trkpt>
<trkpt lat="39.5038269" lon="3.0700203">
<ele>117.42</ele>
<time>2016-10-14T11:01:16Z</time>
</trkpt>
<trkpt lat="39.5039109" lon="3.0698081">
<ele>117.00</ele>
<time>2016-10-14T11:01:19Z</time>
</trkpt>
<trkpt lat="39.5040169" lon="3.0696132">
<ele>116.84</ele>
<time>2016-10-14T11:01:22Z</time>
</trkpt>
<trkpt lat="39.5041340" lon="3.0694305">
<ele>115.56</ele>
<time>2016-10-14T11:01:25Z</time>
</trkpt>
<trkpt lat="39.5042580" lon="3.0692413">
<ele>115.21</ele>
<time>2016-10-14T11:01:28Z</time>
</trkpt>
<trkpt lat="39.5043860" lon="3.0690458">
<ele>116.61</ele>
<time>2016-10-14T11:01:31Z</time>
</trkpt>
<trkpt lat="39.5045108" lon="3.0688588">
<ele>116.93</ele>
<time>2016-10-14T11:01:34Z</time>
</trkpt>
<trkpt lat="39.5046585" lon="3.0686213">
<ele>116.60</ele>
<time>2016-10-14T11:01:38Z</time>
</trkpt>
<trkpt lat="39.5047724" lon="3.0684327">
<ele>116.18</ele>
<time>2016-10-14T11:01:41Z</time>
</trkpt>
<trkpt lat="39.5048824" lon="3.0682341">
<ele>114.79</ele>
<time>2016-10-14T11:01:44Z</time>
</trkpt>
<trkpt lat="39.5050086" lon="3.0680076">
<ele>114.97</ele>
<time>2016-10-14T11:01:48Z</time>
</trkpt>
<trkpt lat="39.5051595" lon="3.0677603">
<ele>114.50</ele>
<time>2016-10-14T11:01:52Z</time>
</trkpt>
<trkpt lat="39.5052880" lon="3.0675552">
<ele>115.61</ele>
<time>2016-10-14T11:01:55Z</time>
</trkpt>
<trkpt lat="39.5054003" lon="3.0673729">
<ele>115.35</ele>
<time>2016-10-14T11:01:58Z</time>
</trkpt>
<trkpt lat="39.5055100" lon="3.0671726">
<ele>115.44</ele>
<time>2016-10-14T11:02:01Z</time>
</trkpt>
<trkpt lat="39.5056157" lon="3.0669798">
<ele>116.91</ele>
<time>2016-10-14T11:02:04Z</time>
</trkpt>
<trkpt lat="39.5056887" lon="3.0666904">
<ele>119.00</ele>
<time>2016-10-14T11:02:08Z</time>
</trkpt>
<trkpt lat="39.5057176" lon="3.0664515">
<ele>119.98</ele>
<time>2016-10-14T11:02:11Z</time>
</trkpt>
<trkpt lat="39.5057261" lon="3.0661692">
<ele>120.17</ele>
<time>2016-10-14T11:02:15Z</time>
</trkpt>
<trkpt lat="39.5057168" lon="3.0658782">
<ele>119.19</ele>
<time>2016-10-14T11:02:19Z</time>
</trkpt>
<trkpt lat="39.5056618" lon="3.0655936">
<ele>117.00</ele>
<time>2016-10-14T11:02:23Z</time>
</trkpt>
<trkpt lat="39.5055960" lon="3.0653168">
<ele>115.07</ele>
<time>2016-10-14T11:02:27Z</time>
</trkpt>
<trkpt lat="39.5055708" lon="3.0650754">
<ele>114.15</ele>
<time>2016-10-14T11:02:30Z</time>
</trkpt>
<trkpt lat="39.5055718" lon="3.0648173">
<ele>113.62</ele>
<time>2016-10-14T11:02:33Z</time>
</trkpt>
<trkpt lat="39.5055820" lon="3.0645709">
<ele>113.28</ele>
<time>2016-10-14T11:02:36Z</time>
</trkpt>
<trkpt lat="39.5056075" lon="3.0642730">
<ele>115.58</ele>
<time>2016-10-14T11:02:40Z</time>
</trkpt>
<trkpt lat="39.5056251" lon="3.0640235">
<ele>116.83</ele>
<time>2016-10-14T11:02:43Z</time>
</trkpt>
<trkpt lat="39.5056438" lon="3.0637333">
<ele>115.65</ele>
<time>2016-10-14T11:02:46Z</time>
</trkpt>
<trkpt lat="39.5056659" lon="3.0634338">
<ele>113.47</ele>
<time>2016-10-14T11:02:49Z</time>
</trkpt>
<trkpt lat="39.5057016" lon="3.0631474">
<ele>112.03</ele>
<time>2016-10-14T11:02:52Z</time>
</trkpt>
<trkpt lat="39.5057281" lon="3.0628680">
<ele>110.28</ele>
<time>2016-10-14T11:02:55Z</time>
</trkpt>
<trkpt lat="39.5057422" lon="3.0625609">
<ele>107.03</ele>
<time>2016-10-14T11:02:59Z</time>
</trkpt>
<trkpt lat="39.5057667" lon="3.0622515">
<ele>105.76</ele>
<time>2016-10-14T11:03:03Z</time>
</trkpt>
<trkpt lat="39.5057818" lon="3.0620071">
<ele>106.34</ele>
<time>2016-10-14T11:03:06Z</time>
</trkpt>
<trkpt lat="39.5057968" lon="3.0617663">
<ele>106.97</ele>
<time>2016-10-14T11:03:09Z</time>
</trkpt>
<trkpt lat="39.5058124" lon="3.0615207">
<ele>107.26</ele>
<time>2016-10-14T11:03:12Z</time>
</trkpt>
<trkpt lat="39.5058241" lon="3.0612781">
<ele>107.25</ele>
<time>2016-10-14T11:03:15Z</time>
</trkpt>
<trkpt lat="39.5058332" lon="3.0610375">
<ele>107.04</ele>
<time>2016-10-14T11:03:18Z</time>
</trkpt>
<trkpt lat="39.5058311" lon="3.0607913">
<ele>106.70</ele>
<time>2016-10-14T11:03:21Z</time>
</trkpt>
<trkpt lat="39.5058206" lon="3.0604930">
<ele>106.02</ele>
<time>2016-10-14T11:03:25Z</time>
</trkpt>
<trkpt lat="39.5058122" lon="3.0602578">
<ele>105.90</ele>
<time>2016-10-14T11:03:28Z</time>
</trkpt>
<trkpt lat="39.5058082" lon="3.0599489">
<ele>107.18</ele>
<time>2016-10-14T11:03:32Z</time>
</trkpt>
<trkpt lat="39.5058081" lon="3.0597080">
<ele>109.33</ele>
<time>2016-10-14T11:03:35Z</time>
</trkpt>
<trkpt lat="39.5058037" lon="3.0594676">
<ele>111.63</ele>
<time>2016-10-14T11:03:38Z</time>
</trkpt>
<trkpt lat="39.5057925" lon="3.0592286">
<ele>112.14</ele>
<time>2016-10-14T11:03:42Z</time>
</trkpt>
<trkpt lat="39.5057785" lon="3.0589952">
<ele>113.69</ele>
<time>2016-10-14T11:03:45Z</time>
</trkpt>
<trkpt lat="39.5057656" lon="3.0586966">
<ele>116.37</ele>
<time>2016-10-14T11:03:49Z</time>
</trkpt>
<trkpt lat="39.5057566" lon="3.0584205">
<ele>113.81</ele>
<time>2016-10-14T11:03:54Z</time>
</trkpt>
<trkpt lat="39.5057860" lon="3.0581101">
<ele>114.63</ele>
<time>2016-10-14T11:03:58Z</time>
</trkpt>
<trkpt lat="39.5058132" lon="3.0578657">
<ele>114.65</ele>
<time>2016-10-14T11:04:01Z</time>
</trkpt>
<trkpt lat="39.5058435" lon="3.0575594">
<ele>116.38</ele>
<time>2016-10-14T11:04:05Z</time>
</trkpt>
<trkpt lat="39.5058811" lon="3.0572988">
<ele>118.23</ele>
<time>2016-10-14T11:04:08Z</time>
</trkpt>
<trkpt lat="39.5059275" lon="3.0570472">
<ele>117.05</ele>
<time>2016-10-14T11:04:12Z</time>
</trkpt>
<trkpt lat="39.5059775" lon="3.0567724">
<ele>117.46</ele>
<time>2016-10-14T11:04:16Z</time>
</trkpt>
<trkpt lat="39.5060177" lon="3.0564850">
<ele>117.88</ele>
<time>2016-10-14T11:04:20Z</time>
</trkpt>
<trkpt lat="39.5060446" lon="3.0562411">
<ele>117.41</ele>
<time>2016-10-14T11:04:23Z</time>
</trkpt>
<trkpt lat="39.5060490" lon="3.0560068">
<ele>116.68</ele>
<time>2016-10-14T11:04:26Z</time>
</trkpt>
<trkpt lat="39.5060528" lon="3.0557444">
<ele>117.38</ele>
<time>2016-10-14T11:04:29Z</time>
</trkpt>
<trkpt lat="39.5060556" lon="3.0554711">
<ele>118.37</ele>
<time>2016-10-14T11:04:32Z</time>
</trkpt>
<trkpt lat="39.5060617" lon="3.0552184">
<ele>117.97</ele>
<time>2016-10-14T11:04:35Z</time>
</trkpt>
<trkpt lat="39.5060632" lon="3.0549393">
<ele>116.51</ele>
<time>2016-10-14T11:04:39Z</time>
</trkpt>
<trkpt lat="39.5060576" lon="3.0546408">
<ele>117.10</ele>
<time>2016-10-14T11:04:43Z</time>
</trkpt>
<trkpt lat="39.5060607" lon="3.0543189">
<ele>119.21</ele>
<time>2016-10-14T11:04:47Z</time>
</trkpt>
<trkpt lat="39.5060554" lon="3.0540676">
<ele>121.60</ele>
<time>2016-10-14T11:04:50Z</time>
</trkpt>
<trkpt lat="39.5060326" lon="3.0538314">
<ele>122.50</ele>
<time>2016-10-14T11:04:53Z</time>
</trkpt>
<trkpt lat="39.5059924" lon="3.0535534">
<ele>121.34</ele>
<time>2016-10-14T11:04:56Z</time>
</trkpt>
<trkpt lat="39.5059525" lon="3.0533105">
<ele>120.54</ele>
<time>2016-10-14T11:04:59Z</time>
</trkpt>
<trkpt lat="39.5059254" lon="3.0530338">
<ele>119.96</ele>
<time>2016-10-14T11:05:02Z</time>
</trkpt>
<trkpt lat="39.5059267" lon="3.0527731">
<ele>116.10</ele>
<time>2016-10-14T11:05:05Z</time>
</trkpt>
<trkpt lat="39.5059951" lon="3.0524988">
<ele>115.36</ele>
<time>2016-10-14T11:05:08Z</time>
</trkpt>
<trkpt lat="39.5060922" lon="3.0522450">
<ele>115.50</ele>
<time>2016-10-14T11:05:11Z</time>
</trkpt>
<trkpt lat="39.5061773" lon="3.0520172">
<ele>114.91</ele>
<time>2016-10-14T11:05:14Z</time>
</trkpt>
<trkpt lat="39.5062718" lon="3.0517786">
<ele>113.09</ele>
<time>2016-10-14T11:05:17Z</time>
</trkpt>
<trkpt lat="39.5063811" lon="3.0515279">
<ele>113.46</ele>
<time>2016-10-14T11:05:20Z</time>
</trkpt>
<trkpt lat="39.5064955" lon="3.0512746">
<ele>114.47</ele>
<time>2016-10-14T11:05:23Z</time>
</trkpt>
<trkpt lat="39.5066102" lon="3.0510219">
<ele>116.98</ele>
<time>2016-10-14T11:05:26Z</time>
</trkpt>
<trkpt lat="39.5067168" lon="3.0507926">
<ele>118.19</ele>
<time>2016-10-14T11:05:29Z</time>
</trkpt>
<trkpt lat="39.5068243" lon="3.0505434">
<ele>119.03</ele>
<time>2016-10-14T11:05:32Z</time>
</trkpt>
<trkpt lat="39.5069110" lon="3.0503370">
<ele>120.09</ele>
<time>2016-10-14T11:05:35Z</time>
</trkpt>
<trkpt lat="39.5070293" lon="3.0500743">
<ele>121.36</ele>
<time>2016-10-14T11:05:39Z</time>
</trkpt>
<trkpt lat="39.5071341" lon="3.0498245">
<ele>120.67</ele>
<time>2016-10-14T11:05:43Z</time>
</trkpt>
<trkpt lat="39.5072351" lon="3.0495739">
<ele>121.70</ele>
<time>2016-10-14T11:05:46Z</time>
</trkpt>
<trkpt lat="39.5072964" lon="3.0493376">
<ele>123.90</ele>
<time>2016-10-14T11:05:49Z</time>
</trkpt>
<trkpt lat="39.5073436" lon="3.0490761">
<ele>123.81</ele>
<time>2016-10-14T11:05:53Z</time>
</trkpt>
<trkpt lat="39.5073926" lon="3.0487898">
<ele>121.51</ele>
<time>2016-10-14T11:05:57Z</time>
</trkpt>
<trkpt lat="39.5074264" lon="3.0484991">
<ele>122.33</ele>
<time>2016-10-14T11:06:01Z</time>
</trkpt>
<trkpt lat="39.5074788" lon="3.0481983">
<ele>123.97</ele>
<time>2016-10-14T11:06:05Z</time>
</trkpt>
<trkpt lat="39.5075470" lon="3.0479653">
<ele>123.91</ele>
<time>2016-10-14T11:06:08Z</time>
</trkpt>
<trkpt lat="39.5076133" lon="3.0477410">
<ele>121.49</ele>
<time>2016-10-14T11:06:11Z</time>
</trkpt>
<trkpt lat="39.5076896" lon="3.0475240">
<ele>120.20</ele>
<time>2016-10-14T11:06:14Z</time>
</trkpt>
<trkpt lat="39.5077784" lon="3.0472864">
<ele>121.11</ele>
<time>2016-10-14T11:06:17Z</time>
</trkpt>
<trkpt lat="39.5078614" lon="3.0470091">
<ele>120.94</ele>
<time>2016-10-14T11:06:21Z</time>
</trkpt>
<trkpt lat="39.5079377" lon="3.0467743">
<ele>121.71</ele>
<time>2016-10-14T11:06:24Z</time>
</trkpt>
<trkpt lat="39.5080086" lon="3.0465344">
<ele>123.04</ele>
<time>2016-10-14T11:06:27Z</time>
</trkpt>
<trkpt lat="39.5080599" lon="3.0462996">
<ele>122.83</ele>
<time>2016-10-14T11:06:30Z</time>
</trkpt>
<trkpt lat="39.5081171" lon="3.0460062">
<ele>121.28</ele>
<time>2016-10-14T11:06:34Z</time>
</trkpt>
<trkpt lat="39.5081803" lon="3.0457129">
<ele>117.68</ele>
<time>2016-10-14T11:06:38Z</time>
</trkpt>
<trkpt lat="39.5082427" lon="3.0454464">
<ele>117.05</ele>
<time>2016-10-14T11:06:41Z</time>
</trkpt>
<trkpt lat="39.5083028" lon="3.0451950">
<ele>117.36</ele>
<time>2016-10-14T11:06:44Z</time>
</trkpt>
<trkpt lat="39.5083540" lon="3.0449275">
<ele>117.56</ele>
<time>2016-10-14T11:06:48Z</time>
</trkpt>
<trkpt lat="39.5084064" lon="3.0446867">
<ele>115.93</ele>
<time>2016-10-14T11:06:52Z</time>
</trkpt>
<trkpt lat="39.5084731" lon="3.0444504">
<ele>116.65</ele>
<time>2016-10-14T11:06:56Z</time>
</trkpt>
<trkpt lat="39.5085328" lon="3.0442210">
<ele>119.12</ele>
<time>2016-10-14T11:06:59Z</time>
</trkpt>
<trkpt lat="39.5085894" lon="3.0439717">
<ele>120.30</ele>
<time>2016-10-14T11:07:02Z</time>
</trkpt>
<trkpt lat="39.5086431" lon="3.0437365">
<ele>121.48</ele>
<time>2016-10-14T11:07:05Z</time>
</trkpt>
<trkpt lat="39.5086896" lon="3.0435083">
<ele>122.87</ele>
<time>2016-10-14T11:07:08Z</time>
</trkpt>
<trkpt lat="39.5087473" lon="3.0432678">
<ele>122.90</ele>
<time>2016-10-14T11:07:11Z</time>
</trkpt>
<trkpt lat="39.5088118" lon="3.0430211">
<ele>120.43</ele>
<time>2016-10-14T11:07:14Z</time>
</trkpt>
<trkpt lat="39.5088884" lon="3.0427455">
<ele>116.83</ele>
<time>2016-10-14T11:07:17Z</time>
</trkpt>
<trkpt lat="39.5089523" lon="3.0424708">
<ele>112.24</ele>
<time>2016-10-14T11:07:20Z</time>
</trkpt>
<trkpt lat="39.5090171" lon="3.0422038">
<ele>109.96</ele>
<time>2016-10-14T11:07:23Z</time>
</trkpt>
<trkpt lat="39.5090776" lon="3.0419606">
<ele>109.59</ele>
<time>2016-10-14T11:07:26Z</time>
</trkpt>
<trkpt lat="39.5091446" lon="3.0416848">
<ele>109.97</ele>
<time>2016-10-14T11:07:30Z</time>
</trkpt>
<trkpt lat="39.5092198" lon="3.0414007">
<ele>110.88</ele>
<time>2016-10-14T11:07:34Z</time>
</trkpt>
<trkpt lat="39.5092894" lon="3.0411531">
<ele>110.49</ele>
<time>2016-10-14T11:07:37Z</time>
</trkpt>
<trkpt lat="39.5093541" lon="3.0408926">
<ele>110.50</ele>
<time>2016-10-14T11:07:40Z</time>
</trkpt>
<trkpt lat="39.5094163" lon="3.0406502">
<ele>110.48</ele>
<time>2016-10-14T11:07:43Z</time>
</trkpt>
<trkpt lat="39.5094691" lon="3.0404232">
<ele>110.87</ele>
<time>2016-10-14T11:07:46Z</time>
</trkpt>
<trkpt lat="39.5095419" lon="3.0401508">
<ele>110.81</ele>
<time>2016-10-14T11:07:50Z</time>
</trkpt>
<trkpt lat="39.5096030" lon="3.0399278">
<ele>110.92</ele>
<time>2016-10-14T11:07:53Z</time>
</trkpt>
<trkpt lat="39.5096717" lon="3.0396387">
<ele>110.78</ele>
<time>2016-10-14T11:07:57Z</time>
</trkpt>
<trkpt lat="39.5097347" lon="3.0393961">
<ele>111.09</ele>
<time>2016-10-14T11:08:00Z</time>
</trkpt>
<trkpt lat="39.5097905" lon="3.0391476">
<ele>111.18</ele>
<time>2016-10-14T11:08:03Z</time>
</trkpt>
<trkpt lat="39.5098566" lon="3.0388622">
<ele>112.03</ele>
<time>2016-10-14T11:08:07Z</time>
</trkpt>
<trkpt lat="39.5099260" lon="3.0385897">
<ele>111.65</ele>
<time>2016-10-14T11:08:11Z</time>
</trkpt>
<trkpt lat="39.5100030" lon="3.0383194">
<ele>112.84</ele>
<time>2016-10-14T11:08:15Z</time>
</trkpt>
<trkpt lat="39.5100761" lon="3.0380451">
<ele>114.46</ele>
<time>2016-10-14T11:08:19Z</time>
</trkpt>
<trkpt lat="39.5101586" lon="3.0377469">
<ele>114.60</ele>
<time>2016-10-14T11:08:23Z</time>
</trkpt>
<trkpt lat="39.5102483" lon="3.0375129">
<ele>112.87</ele>
<time>2016-10-14T11:08:26Z</time>
</trkpt>
<trkpt lat="39.5103902" lon="3.0372740">
<ele>112.71</ele>
<time>2016-10-14T11:08:30Z</time>
</trkpt>
<trkpt lat="39.5105318" lon="3.0370523">
<ele>112.67</ele>
<time>2016-10-14T11:08:34Z</time>
</trkpt>
<trkpt lat="39.5106701" lon="3.0368186">
<ele>113.13</ele>
<time>2016-10-14T11:08:38Z</time>
</trkpt>
<trkpt lat="39.5107786" lon="3.0366266">
<ele>113.95</ele>
<time>2016-10-14T11:08:41Z</time>
</trkpt>
<trkpt lat="39.5109043" lon="3.0364209">
<ele>114.96</ele>
<time>2016-10-14T11:08:44Z</time>
</trkpt>
<trkpt lat="39.5110208" lon="3.0362227">
<ele>115.19</ele>
<time>2016-10-14T11:08:47Z</time>
</trkpt>
<trkpt lat="39.5111429" lon="3.0360239">
<ele>114.88</ele>
<time>2016-10-14T11:08:50Z</time>
</trkpt>
<trkpt lat="39.5112616" lon="3.0358393">
<ele>114.78</ele>
<time>2016-10-14T11:08:53Z</time>
</trkpt>
<trkpt lat="39.5114456" lon="3.0356826">
<ele>112.51</ele>
<time>2016-10-14T11:08:59Z</time>
</trkpt>
<trkpt lat="39.5115617" lon="3.0354974">
<ele>109.64</ele>
<time>2016-10-14T11:09:02Z</time>
</trkpt>
<trkpt lat="39.5116831" lon="3.0352843">
<ele>111.00</ele>
<time>2016-10-14T11:09:05Z</time>
</trkpt>
<trkpt lat="39.5118091" lon="3.0350208">
<ele>112.98</ele>
<time>2016-10-14T11:09:08Z</time>
</trkpt>
<trkpt lat="39.5119317" lon="3.0347806">
<ele>113.80</ele>
<time>2016-10-14T11:09:11Z</time>
</trkpt>
<trkpt lat="39.5120417" lon="3.0345677">
<ele>114.95</ele>
<time>2016-10-14T11:09:14Z</time>
</trkpt>
<trkpt lat="39.5121555" lon="3.0343469">
<ele>116.52</ele>
<time>2016-10-14T11:09:17Z</time>
</trkpt>
<trkpt lat="39.5122665" lon="3.0341358">
<ele>117.84</ele>
<time>2016-10-14T11:09:20Z</time>
</trkpt>
<trkpt lat="39.5123867" lon="3.0339335">
<ele>117.54</ele>
<time>2016-10-14T11:09:23Z</time>
</trkpt>
<trkpt lat="39.5124996" lon="3.0337486">
<ele>115.87</ele>
<time>2016-10-14T11:09:26Z</time>
</trkpt>
<trkpt lat="39.5126164" lon="3.0335680">
<ele>115.65</ele>
<time>2016-10-14T11:09:29Z</time>
</trkpt>
<trkpt lat="39.5127301" lon="3.0333748">
<ele>115.83</ele>
<time>2016-10-14T11:09:32Z</time>
</trkpt>
<trkpt lat="39.5128469" lon="3.0331788">
<ele>116.21</ele>
<time>2016-10-14T11:09:35Z</time>
</trkpt>
<trkpt lat="39.5130050" lon="3.0330141">
<ele>112.33</ele>
<time>2016-10-14T11:09:41Z</time>
</trkpt>
<trkpt lat="39.5131651" lon="3.0328076">
<ele>119.26</ele>
<time>2016-10-14T11:09:45Z</time>
</trkpt>
<trkpt lat="39.5133074" lon="3.0325741">
<ele>123.06</ele>
<time>2016-10-14T11:09:49Z</time>
</trkpt>
<trkpt lat="39.5134323" lon="3.0323739">
<ele>124.20</ele>
<time>2016-10-14T11:09:52Z</time>
</trkpt>
<trkpt lat="39.5135313" lon="3.0321697">
<ele>123.01</ele>
<time>2016-10-14T11:09:55Z</time>
</trkpt>
<trkpt lat="39.5136299" lon="3.0319411">
<ele>121.18</ele>
<time>2016-10-14T11:09:58Z</time>
</trkpt>
<trkpt lat="39.5137421" lon="3.0317058">
<ele>120.92</ele>
<time>2016-10-14T11:10:01Z</time>
</trkpt>
<trkpt lat="39.5138536" lon="3.0314863">
<ele>120.74</ele>
<time>2016-10-14T11:10:04Z</time>
</trkpt>
<trkpt lat="39.5139792" lon="3.0312755">
<ele>121.09</ele>
<time>2016-10-14T11:10:07Z</time>
</trkpt>
<trkpt lat="39.5141087" lon="3.0310636">
<ele>121.86</ele>
<time>2016-10-14T11:10:11Z</time>
</trkpt>
<trkpt lat="39.5142189" lon="3.0308653">
<ele>121.55</ele>
<time>2016-10-14T11:10:15Z</time>
</trkpt>
<trkpt lat="39.5143976" lon="3.0306974">
<ele>124.55</ele>
<time>2016-10-14T11:10:24Z</time>
</trkpt>
<trkpt lat="39.5145091" lon="3.0305100">
<ele>125.71</ele>
<time>2016-10-14T11:10:28Z</time>
</trkpt>
<trkpt lat="39.5146064" lon="3.0302961">
<ele>127.32</ele>
<time>2016-10-14T11:10:34Z</time>
</trkpt>
<trkpt lat="39.5147554" lon="3.0304297">
<ele>124.91</ele>
<time>2016-10-14T11:10:39Z</time>
</trkpt>
<trkpt lat="39.5149084" lon="3.0305702">
<ele>122.84</ele>
<time>2016-10-14T11:10:42Z</time>
</trkpt>
<trkpt lat="39.5150640" lon="3.0306969">
<ele>120.12</ele>
<time>2016-10-14T11:10:45Z</time>
</trkpt>
<trkpt lat="39.5152179" lon="3.0308269">
<ele>118.61</ele>
<time>2016-10-14T11:10:48Z</time>
</trkpt>
<trkpt lat="39.5154260" lon="3.0308089">
<ele>115.96</ele>
<time>2016-10-14T11:10:52Z</time>
</trkpt>
<trkpt lat="39.5155862" lon="3.0306923">
<ele>113.27</ele>
<time>2016-10-14T11:10:56Z</time>
</trkpt>
<trkpt lat="39.5157708" lon="3.0305926">
<ele>114.05</ele>
<time>2016-10-14T11:10:59Z</time>
</trkpt>
<trkpt lat="39.5159738" lon="3.0304612">
<ele>120.96</ele>
<time>2016-10-14T11:11:03Z</time>
</trkpt>
<trkpt lat="39.5161506" lon="3.0303322">
<ele>125.18</ele>
<time>2016-10-14T11:11:06Z</time>
</trkpt>
<trkpt lat="39.5163113" lon="3.0301291">
<ele>127.00</ele>
<time>2016-10-14T11:11:09Z</time>
</trkpt>
<trkpt lat="39.5164592" lon="3.0298991">
<ele>129.33</ele>
<time>2016-10-14T11:11:13Z</time>
</trkpt>
<trkpt lat="39.5165737" lon="3.0297172">
<ele>130.01</ele>
<time>2016-10-14T11:11:16Z</time>
</trkpt>
<trkpt lat="39.5167363" lon="3.0294899">
<ele>129.41</ele>
<time>2016-10-14T11:11:20Z</time>
</trkpt>
<trkpt lat="39.5168641" lon="3.0293091">
<ele>129.11</ele>
<time>2016-10-14T11:11:23Z</time>
</trkpt>
<trkpt lat="39.5169962" lon="3.0291248">
<ele>128.75</ele>
<time>2016-10-14T11:11:26Z</time>
</trkpt>
<trkpt lat="39.5171529" lon="3.0289217">
<ele>128.35</ele>
<time>2016-10-14T11:11:30Z</time>
</trkpt>
<trkpt lat="39.5173142" lon="3.0287085">
<ele>126.95</ele>
<time>2016-10-14T11:11:34Z</time>
</trkpt>
<trkpt lat="39.5174365" lon="3.0285348">
<ele>127.92</ele>
<time>2016-10-14T11:11:38Z</time>
</trkpt>
<trkpt lat="39.5176279" lon="3.0285758">
<ele>128.14</ele>
<time>2016-10-14T11:11:45Z</time>
</trkpt>
<trkpt lat="39.5177092" lon="3.0288759">
<ele>124.18</ele>
<time>2016-10-14T11:11:49Z</time>
</trkpt>
<trkpt lat="39.5177571" lon="3.0291467">
<ele>120.64</ele>
<time>2016-10-14T11:11:52Z</time>
</trkpt>
<trkpt lat="39.5177920" lon="3.0294150">
<ele>117.10</ele>
<time>2016-10-14T11:11:55Z</time>
</trkpt>
<trkpt lat="39.5178337" lon="3.0297030">
<ele>113.65</ele>
<time>2016-10-14T11:11:58Z</time>
</trkpt>
<trkpt lat="39.5178765" lon="3.0299936">
<ele>112.15</ele>
<time>2016-10-14T11:12:01Z</time>
</trkpt>
<trkpt lat="39.5179146" lon="3.0302729">
<ele>111.30</ele>
<time>2016-10-14T11:12:04Z</time>
</trkpt>
<trkpt lat="39.5179568" lon="3.0305433">
<ele>111.87</ele>
<time>2016-10-14T11:12:07Z</time>
</trkpt>
<trkpt lat="39.5180020" lon="3.0308047">
<ele>112.11</ele>
<time>2016-10-14T11:12:10Z</time>
</trkpt>
<trkpt lat="39.5180525" lon="3.0310674">
<ele>111.72</ele>
<time>2016-10-14T11:12:13Z</time>
</trkpt>
<trkpt lat="39.5181129" lon="3.0313440">
<ele>111.42</ele>
<time>2016-10-14T11:12:16Z</time>
</trkpt>
<trkpt lat="39.5181753" lon="3.0315952">
<ele>111.51</ele>
<time>2016-10-14T11:12:19Z</time>
</trkpt>
<trkpt lat="39.5182455" lon="3.0318602">
<ele>112.23</ele>
<time>2016-10-14T11:12:22Z</time>
</trkpt>
<trkpt lat="39.5183235" lon="3.0321329">
<ele>113.02</ele>
<time>2016-10-14T11:12:25Z</time>
</trkpt>
<trkpt lat="39.5184032" lon="3.0324008">
<ele>113.29</ele>
<time>2016-10-14T11:12:28Z</time>
</trkpt>
<trkpt lat="39.5184840" lon="3.0326999">
<ele>112.10</ele>
<time>2016-10-14T11:12:31Z</time>
</trkpt>
<trkpt lat="39.5185446" lon="3.0330035">
<ele>111.77</ele>
<time>2016-10-14T11:12:34Z</time>
</trkpt>
<trkpt lat="39.5185796" lon="3.0333018">
<ele>109.74</ele>
<time>2016-10-14T11:12:37Z</time>
</trkpt>
<trkpt lat="39.5185955" lon="3.0336037">
<ele>107.27</ele>
<time>2016-10-14T11:12:40Z</time>
</trkpt>
<trkpt lat="39.5186024" lon="3.0339265">
<ele>106.92</ele>
<time>2016-10-14T11:12:43Z</time>
</trkpt>
<trkpt lat="39.5186118" lon="3.0342308">
<ele>107.43</ele>
<time>2016-10-14T11:12:46Z</time>
</trkpt>
<trkpt lat="39.5186220" lon="3.0345373">
<ele>108.18</ele>
<time>2016-10-14T11:12:49Z</time>
</trkpt>
<trkpt lat="39.5186201" lon="3.0348463">
<ele>107.50</ele>
<time>2016-10-14T11:12:52Z</time>
</trkpt>
<trkpt lat="39.5186156" lon="3.0351702">
<ele>106.66</ele>
<time>2016-10-14T11:12:55Z</time>
</trkpt>
<trkpt lat="39.5186123" lon="3.0354914">
<ele>104.85</ele>
<time>2016-10-14T11:12:58Z</time>
</trkpt>
<trkpt lat="39.5186057" lon="3.0358118">
<ele>103.60</ele>
<time>2016-10-14T11:13:01Z</time>
</trkpt>
<trkpt lat="39.5186077" lon="3.0361288">
<ele>101.93</ele>
<time>2016-10-14T11:13:04Z</time>
</trkpt>
<trkpt lat="39.5186277" lon="3.0364575">
<ele>100.10</ele>
<time>2016-10-14T11:13:07Z</time>
</trkpt>
<trkpt lat="39.5186702" lon="3.0367900">
<ele>98.55</ele>
<time>2016-10-14T11:13:10Z</time>
</trkpt>
<trkpt lat="39.5187331" lon="3.0371040">
<ele>98.24</ele>
<time>2016-10-14T11:13:13Z</time>
</trkpt>
<trkpt lat="39.5188198" lon="3.0374155">
<ele>97.88</ele>
<time>2016-10-14T11:13:16Z</time>
</trkpt>
<trkpt lat="39.5189295" lon="3.0377298">
<ele>97.18</ele>
<time>2016-10-14T11:13:19Z</time>
</trkpt>
<trkpt lat="39.5190462" lon="3.0380284">
<ele>96.95</ele>
<time>2016-10-14T11:13:22Z</time>
</trkpt>
<trkpt lat="39.5191810" lon="3.0383138">
<ele>97.49</ele>
<time>2016-10-14T11:13:25Z</time>
</trkpt>
<trkpt lat="39.5192913" lon="3.0385141">
<ele>99.03</ele>
<time>2016-10-14T11:13:27Z</time>
</trkpt>
<trkpt lat="39.5194094" lon="3.0387223">
<ele>102.22</ele>
<time>2016-10-14T11:13:29Z</time>
</trkpt>
<trkpt lat="39.5195381" lon="3.0389973">
<ele>106.68</ele>
<time>2016-10-14T11:13:32Z</time>
</trkpt>
<trkpt lat="39.5196452" lon="3.0392711">
<ele>110.06</ele>
<time>2016-10-14T11:13:35Z</time>
</trkpt>
<trkpt lat="39.5197279" lon="3.0395472">
<ele>111.72</ele>
<time>2016-10-14T11:13:38Z</time>
</trkpt>
<trkpt lat="39.5198028" lon="3.0398346">
<ele>112.72</ele>
<time>2016-10-14T11:13:41Z</time>
</trkpt>
<trkpt lat="39.5198607" lon="3.0401229">
<ele>114.17</ele>
<time>2016-10-14T11:13:44Z</time>
</trkpt>
<trkpt lat="39.5199129" lon="3.0404213">
<ele>114.76</ele>
<time>2016-10-14T11:13:47Z</time>
</trkpt>
<trkpt lat="39.5199695" lon="3.0407189">
<ele>115.33</ele>
<time>2016-10-14T11:13:50Z</time>
</trkpt>
<trkpt lat="39.5200244" lon="3.0410188">
<ele>115.89</ele>
<time>2016-10-14T11:13:53Z</time>
</trkpt>
<trkpt lat="39.5200774" lon="3.0413096">
<ele>116.16</ele>
<time>2016-10-14T11:13:56Z</time>
</trkpt>
<trkpt lat="39.5201346" lon="3.0416070">
<ele>116.36</ele>
<time>2016-10-14T11:14:00Z</time>
</trkpt>
<trkpt lat="39.5201979" lon="3.0419009">
<ele>116.03</ele>
<time>2016-10-14T11:14:03Z</time>
</trkpt>
<trkpt lat="39.5202734" lon="3.0422034">
<ele>115.75</ele>
<time>2016-10-14T11:14:06Z</time>
</trkpt>
<trkpt lat="39.5203683" lon="3.0424829">
<ele>115.95</ele>
<time>2016-10-14T11:14:09Z</time>
</trkpt>
<trkpt lat="39.5204826" lon="3.0427360">
<ele>115.72</ele>
<time>2016-10-14T11:14:12Z</time>
</trkpt>
<trkpt lat="39.5206286" lon="3.0430066">
<ele>115.13</ele>
<time>2016-10-14T11:14:15Z</time>
</trkpt>
<trkpt lat="39.5207853" lon="3.0432699">
<ele>114.66</ele>
<time>2016-10-14T11:14:18Z</time>
</trkpt>
<trkpt lat="39.5209420" lon="3.0435246">
<ele>114.15</ele>
<time>2016-10-14T11:14:21Z</time>
</trkpt>
<trkpt lat="39.5210931" lon="3.0437826">
<ele>114.69</ele>
<time>2016-10-14T11:14:24Z</time>
</trkpt>
<trkpt lat="39.5212162" lon="3.0440478">
<ele>114.70</ele>
<time>2016-10-14T11:14:27Z</time>
</trkpt>
<trkpt lat="39.5213170" lon="3.0443322">
<ele>113.74</ele>
<time>2016-10-14T11:14:30Z</time>
</trkpt>
<trkpt lat="39.5213940" lon="3.0446228">
<ele>114.08</ele>
<time>2016-10-14T11:14:33Z</time>
</trkpt>
<trkpt lat="39.5214551" lon="3.0449248">
<ele>115.32</ele>
<time>2016-10-14T11:14:36Z</time>
</trkpt>
<trkpt lat="39.5215201" lon="3.0452134">
<ele>116.12</ele>
<time>2016-10-14T11:14:39Z</time>
</trkpt>
<trkpt lat="39.5216031" lon="3.0454790">
<ele>115.92</ele>
<time>2016-10-14T11:14:42Z</time>
</trkpt>
<trkpt lat="39.5217113" lon="3.0457355">
<ele>115.93</ele>
<time>2016-10-14T11:14:45Z</time>
</trkpt>
<trkpt lat="39.5218417" lon="3.0459648">
<ele>115.80</ele>
<time>2016-10-14T11:14:48Z</time>
</trkpt>
<trkpt lat="39.5219989" lon="3.0461604">
<ele>116.04</ele>
<time>2016-10-14T11:14:51Z</time>
</trkpt>
<trkpt lat="39.5221949" lon="3.0463257">
<ele>117.35</ele>
<time>2016-10-14T11:14:54Z</time>
</trkpt>
<trkpt lat="39.5224059" lon="3.0464685">
<ele>118.49</ele>
<time>2016-10-14T11:14:57Z</time>
</trkpt>
<trkpt lat="39.5226080" lon="3.0465861">
<ele>119.36</ele>
<time>2016-10-14T11:15:00Z</time>
</trkpt>
<trkpt lat="39.5228251" lon="3.0466903">
<ele>119.48</ele>
<time>2016-10-14T11:15:03Z</time>
</trkpt>
<trkpt lat="39.5230349" lon="3.0467767">
<ele>119.41</ele>
<time>2016-10-14T11:15:06Z</time>
</trkpt>
<trkpt lat="39.5232358" lon="3.0468723">
<ele>120.19</ele>
<time>2016-10-14T11:15:09Z</time>
</trkpt>
<trkpt lat="39.5234064" lon="3.0469896">
<ele>120.95</ele>
<time>2016-10-14T11:15:12Z</time>
</trkpt>
<trkpt lat="39.5235698" lon="3.0471227">
<ele>120.95</ele>
<time>2016-10-14T11:15:15Z</time>
</trkpt>
<trkpt lat="39.5237307" lon="3.0473018">
<ele>120.60</ele>
<time>2016-10-14T11:15:18Z</time>
</trkpt>
<trkpt lat="39.5238842" lon="3.0475335">
<ele>119.41</ele>
<time>2016-10-14T11:15:21Z</time>
</trkpt>
<trkpt lat="39.5240327" lon="3.0477588">
<ele>117.68</ele>
<time>2016-10-14T11:15:24Z</time>
</trkpt>
<trkpt lat="39.5241902" lon="3.0479843">
<ele>116.52</ele>
<time>2016-10-14T11:15:27Z</time>
</trkpt>
<trkpt lat="39.5243585" lon="3.0482296">
<ele>116.59</ele>
<time>2016-10-14T11:15:30Z</time>
</trkpt>
<trkpt lat="39.5245354" lon="3.0484769">
<ele>117.40</ele>
<time>2016-10-14T11:15:33Z</time>
</trkpt>
<trkpt lat="39.5247013" lon="3.0487232">
<ele>116.51</ele>
<time>2016-10-14T11:15:36Z</time>
</trkpt>
<trkpt lat="39.5248751" lon="3.0489563">
<ele>114.76</ele>
<time>2016-10-14T11:15:39Z</time>
</trkpt>
<trkpt lat="39.5250600" lon="3.0491761">
<ele>113.03</ele>
<time>2016-10-14T11:15:42Z</time>
</trkpt>
<trkpt lat="39.5252611" lon="3.0493775">
<ele>112.71</ele>
<time>2016-10-14T11:15:45Z</time>
</trkpt>
<trkpt lat="39.5254778" lon="3.0495466">
<ele>113.09</ele>
<time>2016-10-14T11:15:48Z</time>
</trkpt>
<trkpt lat="39.5257012" lon="3.0496731">
<ele>114.49</ele>
<time>2016-10-14T11:15:51Z</time>
</trkpt>
<trkpt lat="39.5259267" lon="3.0497806">
<ele>115.56</ele>
<time>2016-10-14T11:15:54Z</time>
</trkpt>
<trkpt lat="39.5261533" lon="3.0498707">
<ele>117.18</ele>
<time>2016-10-14T11:15:57Z</time>
</trkpt>
<trkpt lat="39.5263669" lon="3.0499535">
<ele>119.59</ele>
<time>2016-10-14T11:16:00Z</time>
</trkpt>
<trkpt lat="39.5265868" lon="3.0500583">
<ele>121.85</ele>
<time>2016-10-14T11:16:03Z</time>
</trkpt>
<trkpt lat="39.5268061" lon="3.0501888">
<ele>123.37</ele>
<time>2016-10-14T11:16:06Z</time>
</trkpt>
<trkpt lat="39.5270198" lon="3.0503251">
<ele>123.16</ele>
<time>2016-10-14T11:16:09Z</time>
</trkpt>
<trkpt lat="39.5272182" lon="3.0504660">
<ele>124.08</ele>
<time>2016-10-14T11:16:12Z</time>
</trkpt>
<trkpt lat="39.5274270" lon="3.0506338">
<ele>123.82</ele>
<time>2016-10-14T11:16:15Z</time>
</trkpt>
<trkpt lat="39.5276214" lon="3.0508165">
<ele>122.27</ele>
<time>2016-10-14T11:16:18Z</time>
</trkpt>
<trkpt lat="39.5278053" lon="3.0509929">
<ele>120.84</ele>
<time>2016-10-14T11:16:21Z</time>
</trkpt>
<trkpt lat="39.5279905" lon="3.0511723">
<ele>118.90</ele>
<time>2016-10-14T11:16:24Z</time>
</trkpt>
<trkpt lat="39.5281586" lon="3.0513659">
<ele>116.93</ele>
<time>2016-10-14T11:16:27Z</time>
</trkpt>
<trkpt lat="39.5283149" lon="3.0515519">
<ele>115.86</ele>
<time>2016-10-14T11:16:30Z</time>
</trkpt>
<trkpt lat="39.5284777" lon="3.0517330">
<ele>116.05</ele>
<time>2016-10-14T11:16:33Z</time>
</trkpt>
<trkpt lat="39.5286401" lon="3.0519155">
<ele>117.39</ele>
<time>2016-10-14T11:16:36Z</time>
</trkpt>
<trkpt lat="39.5288104" lon="3.0521144">
<ele>117.47</ele>
<time>2016-10-14T11:16:39Z</time>
</trkpt>
<trkpt lat="39.5289738" lon="3.0523051">
<ele>117.44</ele>
<time>2016-10-14T11:16:42Z</time>
</trkpt>
<trkpt lat="39.5291452" lon="3.0524990">
<ele>117.27</ele>
<time>2016-10-14T11:16:45Z</time>
</trkpt>
<trkpt lat="39.5293191" lon="3.0526907">
<ele>116.53</ele>
<time>2016-10-14T11:16:48Z</time>
</trkpt>
<trkpt lat="39.5295032" lon="3.0529009">
<ele>116.33</ele>
<time>2016-10-14T11:16:51Z</time>
</trkpt>
<trkpt lat="39.5296886" lon="3.0531079">
<ele>117.18</ele>
<time>2016-10-14T11:16:54Z</time>
</trkpt>
<trkpt lat="39.5298836" lon="3.0533320">
<ele>118.89</ele>
<time>2016-10-14T11:16:57Z</time>
</trkpt>
<trkpt lat="39.5300742" lon="3.0535633">
<ele>119.34</ele>
<time>2016-10-14T11:17:00Z</time>
</trkpt>
<trkpt lat="39.5302049" lon="3.0537269">
<ele>119.34</ele>
<time>2016-10-14T11:17:02Z</time>
</trkpt>
<trkpt lat="39.5303381" lon="3.0539115">
<ele>118.55</ele>
<time>2016-10-14T11:17:04Z</time>
</trkpt>
<trkpt lat="39.5304651" lon="3.0541036">
<ele>117.44</ele>
<time>2016-10-14T11:17:06Z</time>
</trkpt>
<trkpt lat="39.5305926" lon="3.0543108">
<ele>117.07</ele>
<time>2016-10-14T11:17:08Z</time>
</trkpt>
<trkpt lat="39.5307138" lon="3.0545249">
<ele>117.41</ele>
<time>2016-10-14T11:17:10Z</time>
</trkpt>
<trkpt lat="39.5308283" lon="3.0547415">
<ele>117.68</ele>
<time>2016-10-14T11:17:12Z</time>
</trkpt>
<trkpt lat="39.5309425" lon="3.0549653">
<ele>117.93</ele>
<time>2016-10-14T11:17:14Z</time>
</trkpt>
<trkpt lat="39.5310626" lon="3.0551827">
<ele>117.69</ele>
<time>2016-10-14T11:17:16Z</time>
</trkpt>
<trkpt lat="39.5311847" lon="3.0554072">
<ele>116.96</ele>
<time>2016-10-14T11:17:18Z</time>
</trkpt>
<trkpt lat="39.5313003" lon="3.0556125">
<ele>115.37</ele>
<time>2016-10-14T11:17:20Z</time>
</trkpt>
<trkpt lat="39.5314023" lon="3.0558075">
<ele>114.41</ele>
<time>2016-10-14T11:17:22Z</time>
</trkpt>
<trkpt lat="39.5315505" lon="3.0560692">
<ele>112.85</ele>
<time>2016-10-14T11:17:25Z</time>
</trkpt>
<trkpt lat="39.5317045" lon="3.0563333">
<ele>110.96</ele>
<time>2016-10-14T11:17:28Z</time>
</trkpt>
<trkpt lat="39.5318593" lon="3.0565757">
<ele>112.42</ele>
<time>2016-10-14T11:17:31Z</time>
</trkpt>
<trkpt lat="39.5320224" lon="3.0567997">
<ele>114.78</ele>
<time>2016-10-14T11:17:34Z</time>
</trkpt>
<trkpt lat="39.5321953" lon="3.0570109">
<ele>117.46</ele>
<time>2016-10-14T11:17:37Z</time>
</trkpt>
<trkpt lat="39.5323844" lon="3.0572364">
<ele>119.02</ele>
<time>2016-10-14T11:17:40Z</time>
</trkpt>
<trkpt lat="39.5325780" lon="3.0574483">
<ele>119.65</ele>
<time>2016-10-14T11:17:43Z</time>
</trkpt>
<trkpt lat="39.5327198" lon="3.0575956">
<ele>119.51</ele>
<time>2016-10-14T11:17:45Z</time>
</trkpt>
<trkpt lat="39.5328699" lon="3.0577571">
<ele>119.29</ele>
<time>2016-10-14T11:17:47Z</time>
</trkpt>
<trkpt lat="39.5330211" lon="3.0579270">
<ele>118.65</ele>
<time>2016-10-14T11:17:49Z</time>
</trkpt>
<trkpt lat="39.5331657" lon="3.0581208">
<ele>117.72</ele>
<time>2016-10-14T11:17:51Z</time>
</trkpt>
<trkpt lat="39.5332841" lon="3.0583299">
<ele>116.95</ele>
<time>2016-10-14T11:17:53Z</time>
</trkpt>
<trkpt lat="39.5333874" lon="3.0585607">
<ele>116.22</ele>
<time>2016-10-14T11:17:55Z</time>
</trkpt>
<trkpt lat="39.5334969" lon="3.0588075">
<ele>115.57</ele>
<time>2016-10-14T11:17:57Z</time>
</trkpt>
<trkpt lat="39.5336029" lon="3.0590396">
<ele>115.26</ele>
<time>2016-10-14T11:17:59Z</time>
</trkpt>
<trkpt lat="39.5337200" lon="3.0592741">
<ele>115.16</ele>
<time>2016-10-14T11:18:01Z</time>
</trkpt>
<trkpt lat="39.5338562" lon="3.0595001">
<ele>115.09</ele>
<time>2016-10-14T11:18:03Z</time>
</trkpt>
<trkpt lat="39.5340049" lon="3.0597072">
<ele>114.70</ele>
<time>2016-10-14T11:18:05Z</time>
</trkpt>
<trkpt lat="39.5341624" lon="3.0599008">
<ele>113.51</ele>
<time>2016-10-14T11:18:07Z</time>
</trkpt>
<trkpt lat="39.5343349" lon="3.0600952">
<ele>111.94</ele>
<time>2016-10-14T11:18:09Z</time>
</trkpt>
<trkpt lat="39.5345045" lon="3.0602725">
<ele>111.90</ele>
<time>2016-10-14T11:18:11Z</time>
</trkpt>
<trkpt lat="39.5346897" lon="3.0604488">
<ele>111.20</ele>
<time>2016-10-14T11:18:13Z</time>
</trkpt>
<trkpt lat="39.5348742" lon="3.0606375">
<ele>110.82</ele>
<time>2016-10-14T11:18:15Z</time>
</trkpt>
<trkpt lat="39.5350523" lon="3.0608137">
<ele>110.25</ele>
<time>2016-10-14T11:18:17Z</time>
</trkpt>
<trkpt lat="39.5352154" lon="3.0609682">
<ele>110.37</ele>
<time>2016-10-14T11:18:19Z</time>
</trkpt>
<trkpt lat="39.5353863" lon="3.0611462">
<ele>111.74</ele>
<time>2016-10-14T11:18:21Z</time>
</trkpt>
<trkpt lat="39.5355614" lon="3.0613275">
<ele>112.16</ele>
<time>2016-10-14T11:18:23Z</time>
</trkpt>
<trkpt lat="39.5357235" lon="3.0614955">
<ele>112.54</ele>
<time>2016-10-14T11:18:25Z</time>
</trkpt>
<trkpt lat="39.5358834" lon="3.0616689">
<ele>112.72</ele>
<time>2016-10-14T11:18:27Z</time>
</trkpt>
<trkpt lat="39.5360403" lon="3.0618412">
<ele>112.50</ele>
<time>2016-10-14T11:18:29Z</time>
</trkpt>
<trkpt lat="39.5361860" lon="3.0620153">
<ele>111.86</ele>
<time>2016-10-14T11:18:31Z</time>
</trkpt>
<trkpt lat="39.5363639" lon="3.0622696">
<ele>111.20</ele>
<time>2016-10-14T11:18:34Z</time>
</trkpt>
<trkpt lat="39.5365133" lon="3.0625318">
<ele>110.80</ele>
<time>2016-10-14T11:18:37Z</time>
</trkpt>
<trkpt lat="39.5366323" lon="3.0627752">
<ele>112.40</ele>
<time>2016-10-14T11:18:40Z</time>
</trkpt>
<trkpt lat="39.5367388" lon="3.0629951">
<ele>113.85</ele>
<time>2016-10-14T11:18:43Z</time>
</trkpt>
<trkpt lat="39.5368452" lon="3.0632101">
<ele>115.04</ele>
<time>2016-10-14T11:18:46Z</time>
</trkpt>
<trkpt lat="39.5369735" lon="3.0634731">
<ele>117.79</ele>
<time>2016-10-14T11:18:50Z</time>
</trkpt>
<trkpt lat="39.5371189" lon="3.0637004">
<ele>118.12</ele>
<time>2016-10-14T11:18:54Z</time>
</trkpt>
<trkpt lat="39.5372765" lon="3.0639164">
<ele>118.15</ele>
<time>2016-10-14T11:18:58Z</time>
</trkpt>
<trkpt lat="39.5374321" lon="3.0640895">
<ele>118.44</ele>
<time>2016-10-14T11:19:02Z</time>
</trkpt>
<trkpt lat="39.5375779" lon="3.0642277">
<ele>119.53</ele>
<time>2016-10-14T11:19:06Z</time>
</trkpt>
<trkpt lat="39.5377327" lon="3.0643675">
<ele>121.79</ele>
<time>2016-10-14T11:19:10Z</time>
</trkpt>
<trkpt lat="39.5379062" lon="3.0645247">
<ele>121.71</ele>
<time>2016-10-14T11:19:14Z</time>
</trkpt>
<trkpt lat="39.5380823" lon="3.0646570">
<ele>124.27</ele>
<time>2016-10-14T11:19:18Z</time>
</trkpt>
<trkpt lat="39.5382437" lon="3.0648002">
<ele>126.93</ele>
<time>2016-10-14T11:19:22Z</time>
</trkpt>
<trkpt lat="39.5383791" lon="3.0649680">
<ele>126.32</ele>
<time>2016-10-14T11:19:25Z</time>
</trkpt>
<trkpt lat="39.5385297" lon="3.0652005">
<ele>124.83</ele>
<time>2016-10-14T11:19:29Z</time>
</trkpt>
<trkpt lat="39.5386498" lon="3.0654394">
<ele>124.23</ele>
<time>2016-10-14T11:19:32Z</time>
</trkpt>
<trkpt lat="39.5387723" lon="3.0657448">
<ele>124.07</ele>
<time>2016-10-14T11:19:35Z</time>
</trkpt>
<trkpt lat="39.5388510" lon="3.0659612">
<ele>123.57</ele>
<time>2016-10-14T11:19:37Z</time>
</trkpt>
<trkpt lat="39.5389315" lon="3.0662261">
<ele>123.74</ele>
<time>2016-10-14T11:19:39Z</time>
</trkpt>
<trkpt lat="39.5390040" lon="3.0664846">
<ele>123.21</ele>
<time>2016-10-14T11:19:41Z</time>
</trkpt>
<trkpt lat="39.5390854" lon="3.0667506">
<ele>121.64</ele>
<time>2016-10-14T11:19:43Z</time>
</trkpt>
<trkpt lat="39.5391623" lon="3.0670052">
<ele>120.43</ele>
<time>2016-10-14T11:19:45Z</time>
</trkpt>
<trkpt lat="39.5392461" lon="3.0672804">
<ele>119.24</ele>
<time>2016-10-14T11:19:47Z</time>
</trkpt>
<trkpt lat="39.5393372" lon="3.0675427">
<ele>118.22</ele>
<time>2016-10-14T11:19:49Z</time>
</trkpt>
<trkpt lat="39.5394347" lon="3.0678085">
<ele>116.85</ele>
<time>2016-10-14T11:19:51Z</time>
</trkpt>
<trkpt lat="39.5395362" lon="3.0680711">
<ele>115.43</ele>
<time>2016-10-14T11:19:53Z</time>
</trkpt>
<trkpt lat="39.5396480" lon="3.0683214">
<ele>114.34</ele>
<time>2016-10-14T11:19:55Z</time>
</trkpt>
<trkpt lat="39.5397695" lon="3.0685601">
<ele>113.28</ele>
<time>2016-10-14T11:19:57Z</time>
</trkpt>
<trkpt lat="39.5398946" lon="3.0687853">
<ele>112.30</ele>
<time>2016-10-14T11:19:59Z</time>
</trkpt>
<trkpt lat="39.5400309" lon="3.0689963">
<ele>111.65</ele>
<time>2016-10-14T11:20:01Z</time>
</trkpt>
<trkpt lat="39.5401732" lon="3.0691942">
<ele>111.35</ele>
<time>2016-10-14T11:20:03Z</time>
</trkpt>
<trkpt lat="39.5403348" lon="3.0693956">
<ele>110.82</ele>
<time>2016-10-14T11:20:05Z</time>
</trkpt>
<trkpt lat="39.5404921" lon="3.0695645">
<ele>110.05</ele>
<time>2016-10-14T11:20:07Z</time>
</trkpt>
<trkpt lat="39.5406479" lon="3.0697271">
<ele>109.11</ele>
<time>2016-10-14T11:20:09Z</time>
</trkpt>
<trkpt lat="39.5408016" lon="3.0698813">
<ele>108.49</ele>
<time>2016-10-14T11:20:11Z</time>
</trkpt>
<trkpt lat="39.5409534" lon="3.0700197">
<ele>108.50</ele>
<time>2016-10-14T11:20:13Z</time>
</trkpt>
<trkpt lat="39.5411168" lon="3.0701554">
<ele>108.53</ele>
<time>2016-10-14T11:20:15Z</time>
</trkpt>
<trkpt lat="39.5412879" lon="3.0702939">
<ele>107.58</ele>
<time>2016-10-14T11:20:17Z</time>
</trkpt>
<trkpt lat="39.5414463" lon="3.0704293">
<ele>106.69</ele>
<time>2016-10-14T11:20:19Z</time>
</trkpt>
<trkpt lat="39.5416701" lon="3.0706076">
<ele>106.41</ele>
<time>2016-10-14T11:20:22Z</time>
</trkpt>
<trkpt lat="39.5418985" lon="3.0707991">
<ele>106.63</ele>
<time>2016-10-14T11:20:25Z</time>
</trkpt>
<trkpt lat="39.5420513" lon="3.0709267">
<ele>106.55</ele>
<time>2016-10-14T11:20:27Z</time>
</trkpt>
<trkpt lat="39.5422652" lon="3.0711324">
<ele>106.85</ele>
<time>2016-10-14T11:20:30Z</time>
</trkpt>
<trkpt lat="39.5424587" lon="3.0713505">
<ele>107.32</ele>
<time>2016-10-14T11:20:33Z</time>
</trkpt>
<trkpt lat="39.5425930" lon="3.0715164">
<ele>107.19</ele>
<time>2016-10-14T11:20:35Z</time>
</trkpt>
<trkpt lat="39.5427192" lon="3.0716890">
<ele>106.98</ele>
<time>2016-10-14T11:20:37Z</time>
</trkpt>
<trkpt lat="39.5428423" lon="3.0718769">
<ele>106.37</ele>
<time>2016-10-14T11:20:39Z</time>
</trkpt>
<trkpt lat="39.5429998" lon="3.0721497">
<ele>106.05</ele>
<time>2016-10-14T11:20:42Z</time>
</trkpt>
<trkpt lat="39.5431457" lon="3.0724425">
<ele>104.63</ele>
<time>2016-10-14T11:20:45Z</time>
</trkpt>
<trkpt lat="39.5432405" lon="3.0726473">
<ele>103.41</ele>
<time>2016-10-14T11:20:47Z</time>
</trkpt>
<trkpt lat="39.5433265" lon="3.0728523">
<ele>102.96</ele>
<time>2016-10-14T11:20:49Z</time>
</trkpt>
<trkpt lat="39.5434348" lon="3.0731398">
<ele>102.72</ele>
<time>2016-10-14T11:20:52Z</time>
</trkpt>
<trkpt lat="39.5435371" lon="3.0734405">
<ele>103.50</ele>
<time>2016-10-14T11:20:55Z</time>
</trkpt>
<trkpt lat="39.5436425" lon="3.0737471">
<ele>105.29</ele>
<time>2016-10-14T11:20:58Z</time>
</trkpt>
<trkpt lat="39.5437505" lon="3.0740408">
<ele>108.00</ele>
<time>2016-10-14T11:21:01Z</time>
</trkpt>
<trkpt lat="39.5438538" lon="3.0743448">
<ele>109.10</ele>
<time>2016-10-14T11:21:04Z</time>
</trkpt>
<trkpt lat="39.5439648" lon="3.0746617">
<ele>109.80</ele>
<time>2016-10-14T11:21:07Z</time>
</trkpt>
<trkpt lat="39.5440743" lon="3.0749704">
<ele>110.23</ele>
<time>2016-10-14T11:21:10Z</time>
</trkpt>
<trkpt lat="39.5441893" lon="3.0752705">
<ele>111.16</ele>
<time>2016-10-14T11:21:13Z</time>
</trkpt>
<trkpt lat="39.5442915" lon="3.0755366">
<ele>111.44</ele>
<time>2016-10-14T11:21:16Z</time>
</trkpt>
<trkpt lat="39.5444249" lon="3.0758191">
<ele>112.29</ele>
<time>2016-10-14T11:21:19Z</time>
</trkpt>
<trkpt lat="39.5445752" lon="3.0760838">
<ele>112.75</ele>
<time>2016-10-14T11:21:22Z</time>
</trkpt>
<trkpt lat="39.5447329" lon="3.0763182">
<ele>112.87</ele>
<time>2016-10-14T11:21:25Z</time>
</trkpt>
<trkpt lat="39.5448950" lon="3.0765359">
<ele>113.42</ele>
<time>2016-10-14T11:21:28Z</time>
</trkpt>
<trkpt lat="39.5450742" lon="3.0767312">
<ele>113.51</ele>
<time>2016-10-14T11:21:31Z</time>
</trkpt>
<trkpt lat="39.5452687" lon="3.0769311">
<ele>113.78</ele>
<time>2016-10-14T11:21:34Z</time>
</trkpt>
<trkpt lat="39.5454646" lon="3.0771142">
<ele>114.46</ele>
<time>2016-10-14T11:21:37Z</time>
</trkpt>
<trkpt lat="39.5456831" lon="3.0773191">
<ele>115.30</ele>
<time>2016-10-14T11:21:40Z</time>
</trkpt>
<trkpt lat="39.5458340" lon="3.0774638">
<ele>115.44</ele>
<time>2016-10-14T11:21:42Z</time>
</trkpt>
<trkpt lat="39.5459831" lon="3.0776112">
<ele>115.62</ele>
<time>2016-10-14T11:21:44Z</time>
</trkpt>
<trkpt lat="39.5461497" lon="3.0777735">
<ele>115.75</ele>
<time>2016-10-14T11:21:46Z</time>
</trkpt>
<trkpt lat="39.5463346" lon="3.0779603">
<ele>115.22</ele>
<time>2016-10-14T11:21:48Z</time>
</trkpt>
<trkpt lat="39.5465083" lon="3.0781259">
<ele>115.09</ele>
<time>2016-10-14T11:21:50Z</time>
</trkpt>
<trkpt lat="39.5467078" lon="3.0783301">
<ele>114.59</ele>
<time>2016-10-14T11:21:52Z</time>
</trkpt>
<trkpt lat="39.5468951" lon="3.0785344">
<ele>113.00</ele>
<time>2016-10-14T11:21:54Z</time>
</trkpt>
<trkpt lat="39.5470767" lon="3.0787273">
<ele>111.32</ele>
<time>2016-10-14T11:21:56Z</time>
</trkpt>
<trkpt lat="39.5472528" lon="3.0789291">
<ele>109.84</ele>
<time>2016-10-14T11:21:58Z</time>
</trkpt>
<trkpt lat="39.5474206" lon="3.0791361">
<ele>108.43</ele>
<time>2016-10-14T11:22:00Z</time>
</trkpt>
<trkpt lat="39.5475781" lon="3.0793344">
<ele>107.41</ele>
<time>2016-10-14T11:22:02Z</time>
</trkpt>
<trkpt lat="39.5477386" lon="3.0795432">
<ele>106.84</ele>
<time>2016-10-14T11:22:04Z</time>
</trkpt>
<trkpt lat="39.5478980" lon="3.0797568">
<ele>106.15</ele>
<time>2016-10-14T11:22:06Z</time>
</trkpt>
<trkpt lat="39.5480516" lon="3.0799685">
<ele>105.57</ele>
<time>2016-10-14T11:22:08Z</time>
</trkpt>
<trkpt lat="39.5482053" lon="3.0801751">
<ele>104.82</ele>
<time>2016-10-14T11:22:10Z</time>
</trkpt>
<trkpt lat="39.5483632" lon="3.0803878">
<ele>104.03</ele>
<time>2016-10-14T11:22:12Z</time>
</trkpt>
<trkpt lat="39.5485181" lon="3.0806015">
<ele>103.79</ele>
<time>2016-10-14T11:22:14Z</time>
</trkpt>
<trkpt lat="39.5486875" lon="3.0808236">
<ele>103.56</ele>
<time>2016-10-14T11:22:16Z</time>
</trkpt>
<trkpt lat="39.5488744" lon="3.0810520">
<ele>102.94</ele>
<time>2016-10-14T11:22:17Z</time>
</trkpt>
<trkpt lat="39.5490645" lon="3.0812809">
<ele>102.08</ele>
<time>2016-10-14T11:22:20Z</time>
</trkpt>
<trkpt lat="39.5492615" lon="3.0815034">
<ele>101.46</ele>
<time>2016-10-14T11:22:21Z</time>
</trkpt>
<trkpt lat="39.5494705" lon="3.0817292">
<ele>100.62</ele>
<time>2016-10-14T11:22:23Z</time>
</trkpt>
<trkpt lat="39.5496921" lon="3.0819608">
<ele>99.71</ele>
<time>2016-10-14T11:22:25Z</time>
</trkpt>
<trkpt lat="39.5499106" lon="3.0821752">
<ele>98.31</ele>
<time>2016-10-14T11:22:27Z</time>
</trkpt>
<trkpt lat="39.5501323" lon="3.0823803">
<ele>96.77</ele>
<time>2016-10-14T11:22:29Z</time>
</trkpt>
<trkpt lat="39.5503526" lon="3.0825801">
<ele>95.84</ele>
<time>2016-10-14T11:22:31Z</time>
</trkpt>
<trkpt lat="39.5505669" lon="3.0827673">
<ele>94.95</ele>
<time>2016-10-14T11:22:33Z</time>
</trkpt>
<trkpt lat="39.5507770" lon="3.0829433">
<ele>94.46</ele>
<time>2016-10-14T11:22:35Z</time>
</trkpt>
<trkpt lat="39.5509838" lon="3.0831171">
<ele>94.09</ele>
<time>2016-10-14T11:22:37Z</time>
</trkpt>
<trkpt lat="39.5511794" lon="3.0832847">
<ele>93.59</ele>
<time>2016-10-14T11:22:39Z</time>
</trkpt>
<trkpt lat="39.5513650" lon="3.0834393">
<ele>94.39</ele>
<time>2016-10-14T11:22:41Z</time>
</trkpt>
<trkpt lat="39.5515521" lon="3.0836056">
<ele>95.30</ele>
<time>2016-10-14T11:22:43Z</time>
</trkpt>
<trkpt lat="39.5517267" lon="3.0837699">
<ele>95.51</ele>
<time>2016-10-14T11:22:45Z</time>
</trkpt>
<trkpt lat="39.5518925" lon="3.0839260">
<ele>95.81</ele>
<time>2016-10-14T11:22:47Z</time>
</trkpt>
<trkpt lat="39.5520476" lon="3.0840705">
<ele>96.37</ele>
<time>2016-10-14T11:22:49Z</time>
</trkpt>
<trkpt lat="39.5521986" lon="3.0842251">
<ele>96.74</ele>
<time>2016-10-14T11:22:51Z</time>
</trkpt>
<trkpt lat="39.5523505" lon="3.0843785">
<ele>96.66</ele>
<time>2016-10-14T11:22:53Z</time>
</trkpt>
<trkpt lat="39.5524996" lon="3.0845189">
<ele>96.55</ele>
<time>2016-10-14T11:22:55Z</time>
</trkpt>
<trkpt lat="39.5526488" lon="3.0846510">
<ele>96.54</ele>
<time>2016-10-14T11:22:57Z</time>
</trkpt>
<trkpt lat="39.5528669" lon="3.0848584">
<ele>96.99</ele>
<time>2016-10-14T11:23:00Z</time>
</trkpt>
<trkpt lat="39.5530130" lon="3.0850017">
<ele>97.31</ele>
<time>2016-10-14T11:23:02Z</time>
</trkpt>
<trkpt lat="39.5531585" lon="3.0851475">
<ele>97.80</ele>
<time>2016-10-14T11:23:04Z</time>
</trkpt>
<trkpt lat="39.5533086" lon="3.0852965">
<ele>98.01</ele>
<time>2016-10-14T11:23:06Z</time>
</trkpt>
<trkpt lat="39.5534561" lon="3.0854381">
<ele>98.14</ele>
<time>2016-10-14T11:23:08Z</time>
</trkpt>
<trkpt lat="39.5536023" lon="3.0855819">
<ele>98.45</ele>
<time>2016-10-14T11:23:10Z</time>
</trkpt>
<trkpt lat="39.5537497" lon="3.0857295">
<ele>99.00</ele>
<time>2016-10-14T11:23:12Z</time>
</trkpt>
<trkpt lat="39.5539040" lon="3.0858911">
<ele>98.91</ele>
<time>2016-10-14T11:23:14Z</time>
</trkpt>
<trkpt lat="39.5540551" lon="3.0860468">
<ele>98.87</ele>
<time>2016-10-14T11:23:16Z</time>
</trkpt>
<trkpt lat="39.5542107" lon="3.0862130">
<ele>98.43</ele>
<time>2016-10-14T11:23:18Z</time>
</trkpt>
<trkpt lat="39.5543602" lon="3.0863655">
<ele>98.36</ele>
<time>2016-10-14T11:23:20Z</time>
</trkpt>
<trkpt lat="39.5545120" lon="3.0865197">
<ele>98.69</ele>
<time>2016-10-14T11:23:22Z</time>
</trkpt>
<trkpt lat="39.5546583" lon="3.0866604">
<ele>99.36</ele>
<time>2016-10-14T11:23:24Z</time>
</trkpt>
<trkpt lat="39.5548693" lon="3.0868698">
<ele>101.69</ele>
<time>2016-10-14T11:23:27Z</time>
</trkpt>
<trkpt lat="39.5550225" lon="3.0870255">
<ele>103.05</ele>
<time>2016-10-14T11:23:29Z</time>
</trkpt>
<trkpt lat="39.5551848" lon="3.0871970">
<ele>103.12</ele>
<time>2016-10-14T11:23:31Z</time>
</trkpt>
<trkpt lat="39.5553525" lon="3.0873635">
<ele>102.19</ele>
<time>2016-10-14T11:23:33Z</time>
</trkpt>
<trkpt lat="39.5555278" lon="3.0875427">
<ele>100.65</ele>
<time>2016-10-14T11:23:35Z</time>
</trkpt>
<trkpt lat="39.5556994" lon="3.0877258">
<ele>99.29</ele>
<time>2016-10-14T11:23:37Z</time>
</trkpt>
<trkpt lat="39.5558814" lon="3.0879297">
<ele>97.79</ele>
<time>2016-10-14T11:23:39Z</time>
</trkpt>
<trkpt lat="39.5560588" lon="3.0881280">
<ele>95.99</ele>
<time>2016-10-14T11:23:41Z</time>
</trkpt>
<trkpt lat="39.5562394" lon="3.0883299">
<ele>93.99</ele>
<time>2016-10-14T11:23:43Z</time>
</trkpt>
<trkpt lat="39.5564100" lon="3.0885199">
<ele>92.30</ele>
<time>2016-10-14T11:23:45Z</time>
</trkpt>
<trkpt lat="39.5565770" lon="3.0887038">
<ele>90.81</ele>
<time>2016-10-14T11:23:47Z</time>
</trkpt>
<trkpt lat="39.5567373" lon="3.0888692">
<ele>89.90</ele>
<time>2016-10-14T11:23:49Z</time>
</trkpt>
<trkpt lat="39.5568997" lon="3.0890292">
<ele>89.44</ele>
<time>2016-10-14T11:23:51Z</time>
</trkpt>
<trkpt lat="39.5570568" lon="3.0891857">
<ele>88.87</ele>
<time>2016-10-14T11:23:53Z</time>
</trkpt>
<trkpt lat="39.5572038" lon="3.0893307">
<ele>88.69</ele>
<time>2016-10-14T11:23:55Z</time>
</trkpt>
<trkpt lat="39.5574061" lon="3.0895165">
<ele>89.29</ele>
<time>2016-10-14T11:23:58Z</time>
</trkpt>
<trkpt lat="39.5575746" lon="3.0896661">
<ele>92.50</ele>
<time>2016-10-14T11:24:01Z</time>
</trkpt>
<trkpt lat="39.5577349" lon="3.0898124">
<ele>95.77</ele>
<time>2016-10-14T11:24:04Z</time>
</trkpt>
<trkpt lat="39.5578835" lon="3.0899542">
<ele>98.28</ele>
<time>2016-10-14T11:24:07Z</time>
</trkpt>
<trkpt lat="39.5580765" lon="3.0901280">
<ele>96.19</ele>
<time>2016-10-14T11:24:11Z</time>
</trkpt>
<trkpt lat="39.5582490" lon="3.0902958">
<ele>94.65</ele>
<time>2016-10-14T11:24:16Z</time>
</trkpt>
<trkpt lat="39.5582943" lon="3.0905244">
<ele>93.99</ele>
<time>2016-10-14T11:24:21Z</time>
</trkpt>
<trkpt lat="39.5584723" lon="3.0906390">
<ele>95.68</ele>
<time>2016-10-14T11:24:27Z</time>
</trkpt>
<trkpt lat="39.5585942" lon="3.0904623">
<ele>99.99</ele>
<time>2016-10-14T11:24:32Z</time>
</trkpt>
<trkpt lat="39.5586832" lon="3.0902183">
<ele>102.33</ele>
<time>2016-10-14T11:24:37Z</time>
</trkpt>
<trkpt lat="39.5587879" lon="3.0900257">
<ele>106.02</ele>
<time>2016-10-14T11:24:44Z</time>
</trkpt>
<trkpt lat="39.5590568" lon="3.0900227">
<ele>110.18</ele>
<time>2016-10-14T11:25:50Z</time>
</trkpt>
<trkpt lat="39.5592355" lon="3.0899818">
<ele>108.98</ele>
<time>2016-10-14T11:25:56Z</time>
</trkpt>
<trkpt lat="39.5594222" lon="3.0899518">
<ele>105.95</ele>
<time>2016-10-14T11:26:02Z</time>
</trkpt>
<trkpt lat="39.5596461" lon="3.0899035">
<ele>99.63</ele>
<time>2016-10-14T11:26:07Z</time>
</trkpt>
<trkpt lat="39.5598705" lon="3.0898544">
<ele>97.48</ele>
<time>2016-10-14T11:26:11Z</time>
</trkpt>
<trkpt lat="39.5600498" lon="3.0898141">
<ele>96.81</ele>
<time>2016-10-14T11:26:14Z</time>
</trkpt>
<trkpt lat="39.5602502" lon="3.0897851">
<ele>95.83</ele>
<time>2016-10-14T11:26:17Z</time>
</trkpt>
<trkpt lat="39.5604624" lon="3.0897457">
<ele>94.97</ele>
<time>2016-10-14T11:26:20Z</time>
</trkpt>
<trkpt lat="39.5606563" lon="3.0897090">
<ele>94.47</ele>
<time>2016-10-14T11:26:23Z</time>
</trkpt>
<trkpt lat="39.5608923" lon="3.0896722">
<ele>94.14</ele>
<time>2016-10-14T11:26:27Z</time>
</trkpt>
<trkpt lat="39.5611069" lon="3.0896354">
<ele>93.92</ele>
<time>2016-10-14T11:26:31Z</time>
</trkpt>
<trkpt lat="39.5612935" lon="3.0896353">
<ele>93.48</ele>
<time>2016-10-14T11:26:37Z</time>
</trkpt>
<trkpt lat="39.5614851" lon="3.0896084">
<ele>93.90</ele>
<time>2016-10-14T11:26:47Z</time>
</trkpt>
<trkpt lat="39.5616670" lon="3.0896033">
<ele>94.51</ele>
<time>2016-10-14T11:26:55Z</time>
</trkpt>
<trkpt lat="39.5618548" lon="3.0895665">
<ele>94.92</ele>
<time>2016-10-14T11:27:03Z</time>
</trkpt>
<trkpt lat="39.5620412" lon="3.0895417">
<ele>95.06</ele>
<time>2016-10-14T11:27:11Z</time>
</trkpt>
<trkpt lat="39.5622366" lon="3.0895340">
<ele>95.63</ele>
<time>2016-10-14T11:27:17Z</time>
</trkpt>
<trkpt lat="39.5624274" lon="3.0894871">
<ele>97.62</ele>
<time>2016-10-14T11:27:22Z</time>
</trkpt>
<trkpt lat="39.5626398" lon="3.0894334">
<ele>100.29</ele>
<time>2016-10-14T11:27:27Z</time>
</trkpt>
<trkpt lat="39.5628513" lon="3.0893820">
<ele>100.29</ele>
<time>2016-10-14T11:27:31Z</time>
</trkpt>
<trkpt lat="39.5630378" lon="3.0893529">
<ele>98.42</ele>
<time>2016-10-14T11:27:34Z</time>
</trkpt>
<trkpt lat="39.5632936" lon="3.0893195">
<ele>96.22</ele>
<time>2016-10-14T11:27:37Z</time>
</trkpt>
<trkpt lat="39.5634918" lon="3.0892857">
<ele>94.87</ele>
<time>2016-10-14T11:27:39Z</time>
</trkpt>
<trkpt lat="39.5637135" lon="3.0892501">
<ele>94.58</ele>
<time>2016-10-14T11:27:41Z</time>
</trkpt>
<trkpt lat="39.5639280" lon="3.0892128">
<ele>94.84</ele>
<time>2016-10-14T11:27:43Z</time>
</trkpt>
<trkpt lat="39.5641149" lon="3.0891757">
<ele>93.89</ele>
<time>2016-10-14T11:27:45Z</time>
</trkpt>
<trkpt lat="39.5643093" lon="3.0891469">
<ele>92.78</ele>
<time>2016-10-14T11:27:47Z</time>
</trkpt>
<trkpt lat="39.5645136" lon="3.0891211">
<ele>91.84</ele>
<time>2016-10-14T11:27:50Z</time>
</trkpt>
<trkpt lat="39.5647101" lon="3.0891148">
<ele>93.23</ele>
<time>2016-10-14T11:27:53Z</time>
</trkpt>
<trkpt lat="39.5649136" lon="3.0891007">
<ele>93.02</ele>
<time>2016-10-14T11:27:56Z</time>
</trkpt>
<trkpt lat="39.5651217" lon="3.0890665">
<ele>93.08</ele>
<time>2016-10-14T11:28:00Z</time>
</trkpt>
<trkpt lat="39.5653328" lon="3.0890179">
<ele>93.76</ele>
<time>2016-10-14T11:28:04Z</time>
</trkpt>
<trkpt lat="39.5655586" lon="3.0889838">
<ele>94.15</ele>
<time>2016-10-14T11:28:09Z</time>
</trkpt>
<trkpt lat="39.5657479" lon="3.0889586">
<ele>95.26</ele>
<time>2016-10-14T11:28:13Z</time>
</trkpt>
<trkpt lat="39.5659526" lon="3.0889045">
<ele>97.58</ele>
<time>2016-10-14T11:28:18Z</time>
</trkpt>
<trkpt lat="39.5659939" lon="3.0886402">
<ele>98.32</ele>
<time>2016-10-14T11:28:23Z</time>
</trkpt>
<trkpt lat="39.5659779" lon="3.0883821">
<ele>97.27</ele>
<time>2016-10-14T11:28:28Z</time>
</trkpt>
<trkpt lat="39.5658947" lon="3.0881369">
<ele>97.34</ele>
<time>2016-10-14T11:28:33Z</time>
</trkpt>
<trkpt lat="39.5660427" lon="3.0879681">
<ele>98.32</ele>
<time>2016-10-14T11:28:40Z</time>
</trkpt>
<trkpt lat="39.5662204" lon="3.0878463">
<ele>101.60</ele>
<time>2016-10-14T11:28:45Z</time>
</trkpt>
<trkpt lat="39.5664051" lon="3.0877197">
<ele>104.07</ele>
<time>2016-10-14T11:28:51Z</time>
</trkpt>
<trkpt lat="39.5665729" lon="3.0875810">
<ele>102.51</ele>
<time>2016-10-14T11:28:57Z</time>
</trkpt>
<trkpt lat="39.5667623" lon="3.0874771">
<ele>101.78</ele>
<time>2016-10-14T11:29:03Z</time>
</trkpt>
<trkpt lat="39.5669270" lon="3.0873822">
<ele>100.25</ele>
<time>2016-10-14T11:29:08Z</time>
</trkpt>
<trkpt lat="39.5671062" lon="3.0872737">
<ele>96.04</ele>
<time>2016-10-14T11:29:13Z</time>
</trkpt>
<trkpt lat="39.5672776" lon="3.0871637">
<ele>92.40</ele>
<time>2016-10-14T11:29:18Z</time>
</trkpt>
<trkpt lat="39.5674495" lon="3.0870817">
<ele>92.38</ele>
<time>2016-10-14T11:29:22Z</time>
</trkpt>
<trkpt lat="39.5676196" lon="3.0869956">
<ele>93.19</ele>
<time>2016-10-14T11:29:27Z</time>
</trkpt>
<trkpt lat="39.5678011" lon="3.0869159">
<ele>94.04</ele>
<time>2016-10-14T11:29:34Z</time>
</trkpt>
<trkpt lat="39.5679750" lon="3.0868058">
<ele>95.29</ele>
<time>2016-10-14T11:29:39Z</time>
</trkpt>
<trkpt lat="39.5681623" lon="3.0866742">
<ele>93.54</ele>
<time>2016-10-14T11:29:44Z</time>
</trkpt>
<trkpt lat="39.5683375" lon="3.0865629">
<ele>90.88</ele>
<time>2016-10-14T11:29:49Z</time>
</trkpt>
<trkpt lat="39.5685250" lon="3.0864522">
<ele>91.28</ele>
<time>2016-10-14T11:29:54Z</time>
</trkpt>
<trkpt lat="39.5686977" lon="3.0863498">
<ele>92.85</ele>
<time>2016-10-14T11:29:58Z</time>
</trkpt>
<trkpt lat="39.5688960" lon="3.0862604">
<ele>92.76</ele>
<time>2016-10-14T11:30:02Z</time>
</trkpt>
<trkpt lat="39.5690889" lon="3.0861645">
<ele>90.34</ele>
<time>2016-10-14T11:30:07Z</time>
</trkpt>
<trkpt lat="39.5692587" lon="3.0860573">
<ele>89.51</ele>
<time>2016-10-14T11:30:13Z</time>
</trkpt>
<trkpt lat="39.5692695" lon="3.0862902">
<ele>90.44</ele>
<time>2016-10-14T11:30:19Z</time>
</trkpt>
<trkpt lat="39.5692426" lon="3.0865490">
<ele>93.03</ele>
<time>2016-10-14T11:30:24Z</time>
</trkpt>
<trkpt lat="39.5691988" lon="3.0867785">
<ele>95.81</ele>
<time>2016-10-14T11:30:29Z</time>
</trkpt>
<trkpt lat="39.5691624" lon="3.0870137">
<ele>99.73</ele>
<time>2016-10-14T11:30:33Z</time>
</trkpt>
<trkpt lat="39.5691220" lon="3.0873072">
<ele>104.67</ele>
<time>2016-10-14T11:30:38Z</time>
</trkpt>
<trkpt lat="39.5690923" lon="3.0875644">
<ele>104.67</ele>
<time>2016-10-14T11:30:43Z</time>
</trkpt>
<trkpt lat="39.5690993" lon="3.0878455">
<ele>103.58</ele>
<time>2016-10-14T11:30:48Z</time>
</trkpt>
<trkpt lat="39.5691477" lon="3.0880769">
<ele>101.94</ele>
<time>2016-10-14T11:32:23Z</time>
</trkpt>
<trkpt lat="39.5692298" lon="3.0883011">
<ele>104.43</ele>
<time>2016-10-14T11:32:29Z</time>
</trkpt>
<trkpt lat="39.5692970" lon="3.0885678">
<ele>104.34</ele>
<time>2016-10-14T11:32:33Z</time>
</trkpt>
<trkpt lat="39.5693597" lon="3.0888217">
<ele>103.14</ele>
<time>2016-10-14T11:32:37Z</time>
</trkpt>
<trkpt lat="39.5694110" lon="3.0891122">
<ele>102.44</ele>
<time>2016-10-14T11:32:41Z</time>
</trkpt>
<trkpt lat="39.5694611" lon="3.0894005">
<ele>100.72</ele>
<time>2016-10-14T11:32:45Z</time>
</trkpt>
<trkpt lat="39.5695215" lon="3.0896359">
<ele>100.21</ele>
<time>2016-10-14T11:32:48Z</time>
</trkpt>
<trkpt lat="39.5695787" lon="3.0898717">
<ele>100.66</ele>
<time>2016-10-14T11:32:51Z</time>
</trkpt>
<trkpt lat="39.5696347" lon="3.0901117">
<ele>100.51</ele>
<time>2016-10-14T11:32:54Z</time>
</trkpt>
<trkpt lat="39.5696982" lon="3.0903487">
<ele>102.32</ele>
<time>2016-10-14T11:32:57Z</time>
</trkpt>
<trkpt lat="39.5697624" lon="3.0905975">
<ele>103.85</ele>
<time>2016-10-14T11:33:00Z</time>
</trkpt>
<trkpt lat="39.5698314" lon="3.0908193">
<ele>104.26</ele>
<time>2016-10-14T11:33:03Z</time>
</trkpt>
<trkpt lat="39.5699030" lon="3.0910635">
<ele>103.56</ele>
<time>2016-10-14T11:33:06Z</time>
</trkpt>
<trkpt lat="39.5699683" lon="3.0913205">
<ele>102.02</ele>
<time>2016-10-14T11:33:09Z</time>
</trkpt>
<trkpt lat="39.5700336" lon="3.0915910">
<ele>100.59</ele>
<time>2016-10-14T11:33:12Z</time>
</trkpt>
<trkpt lat="39.5700945" lon="3.0918476">
<ele>97.25</ele>
<time>2016-10-14T11:33:15Z</time>
</trkpt>
<trkpt lat="39.5701806" lon="3.0921373">
<ele>96.40</ele>
<time>2016-10-14T11:33:18Z</time>
</trkpt>
<trkpt lat="39.5702687" lon="3.0924203">
<ele>95.55</ele>
<time>2016-10-14T11:33:21Z</time>
</trkpt>
<trkpt lat="39.5703561" lon="3.0926944">
<ele>95.25</ele>
<time>2016-10-14T11:33:24Z</time>
</trkpt>
<trkpt lat="39.5704335" lon="3.0929667">
<ele>95.65</ele>
<time>2016-10-14T11:33:27Z</time>
</trkpt>
<trkpt lat="39.5705118" lon="3.0932407">
<ele>96.72</ele>
<time>2016-10-14T11:33:30Z</time>
</trkpt>
<trkpt lat="39.5705815" lon="3.0934866">
<ele>97.31</ele>
<time>2016-10-14T11:33:33Z</time>
</trkpt>
<trkpt lat="39.5706670" lon="3.0937436">
<ele>98.02</ele>
<time>2016-10-14T11:33:37Z</time>
</trkpt>
<trkpt lat="39.5707478" lon="3.0940174">
<ele>98.08</ele>
<time>2016-10-14T11:33:41Z</time>
</trkpt>
<trkpt lat="39.5708354" lon="3.0943090">
<ele>96.91</ele>
<time>2016-10-14T11:33:45Z</time>
</trkpt>
<trkpt lat="39.5709047" lon="3.0945729">
<ele>97.91</ele>
<time>2016-10-14T11:33:48Z</time>
</trkpt>
<trkpt lat="39.5709796" lon="3.0948357">
<ele>95.87</ele>
<time>2016-10-14T11:33:51Z</time>
</trkpt>
<trkpt lat="39.5710690" lon="3.0951298">
<ele>94.13</ele>
<time>2016-10-14T11:33:54Z</time>
</trkpt>
<trkpt lat="39.5711555" lon="3.0954202">
<ele>92.89</ele>
<time>2016-10-14T11:33:57Z</time>
</trkpt>
<trkpt lat="39.5712417" lon="3.0957050">
<ele>91.99</ele>
<time>2016-10-14T11:34:00Z</time>
</trkpt>
<trkpt lat="39.5713352" lon="3.0960058">
<ele>90.91</ele>
<time>2016-10-14T11:34:03Z</time>
</trkpt>
<trkpt lat="39.5714237" lon="3.0962873">
<ele>90.05</ele>
<time>2016-10-14T11:34:06Z</time>
</trkpt>
<trkpt lat="39.5715069" lon="3.0965515">
<ele>89.02</ele>
<time>2016-10-14T11:34:09Z</time>
</trkpt>
<trkpt lat="39.5715838" lon="3.0968210">
<ele>87.99</ele>
<time>2016-10-14T11:34:12Z</time>
</trkpt>
<trkpt lat="39.5716387" lon="3.0970502">
<ele>87.96</ele>
<time>2016-10-14T11:34:14Z</time>
</trkpt>
<trkpt lat="39.5716845" lon="3.0972791">
<ele>88.85</ele>
<time>2016-10-14T11:34:16Z</time>
</trkpt>
<trkpt lat="39.5717238" lon="3.0975163">
<ele>89.30</ele>
<time>2016-10-14T11:34:18Z</time>
</trkpt>
<trkpt lat="39.5717598" lon="3.0977495">
<ele>89.26</ele>
<time>2016-10-14T11:34:20Z</time>
</trkpt>
<trkpt lat="39.5718069" lon="3.0980814">
<ele>89.40</ele>
<time>2016-10-14T11:34:23Z</time>
</trkpt>
<trkpt lat="39.5718388" lon="3.0983262">
<ele>90.08</ele>
<time>2016-10-14T11:34:25Z</time>
</trkpt>
<trkpt lat="39.5718705" lon="3.0985663">
<ele>90.40</ele>
<time>2016-10-14T11:34:27Z</time>
</trkpt>
<trkpt lat="39.5719216" lon="3.0989051">
<ele>89.54</ele>
<time>2016-10-14T11:34:30Z</time>
</trkpt>
<trkpt lat="39.5719723" lon="3.0992452">
<ele>89.83</ele>
<time>2016-10-14T11:34:33Z</time>
</trkpt>
<trkpt lat="39.5720224" lon="3.0995869">
<ele>89.42</ele>
<time>2016-10-14T11:34:36Z</time>
</trkpt>
<trkpt lat="39.5720764" lon="3.0999241">
<ele>89.32</ele>
<time>2016-10-14T11:34:39Z</time>
</trkpt>
<trkpt lat="39.5721134" lon="3.1001612">
<ele>89.31</ele>
<time>2016-10-14T11:34:41Z</time>
</trkpt>
<trkpt lat="39.5721524" lon="3.1004003">
<ele>89.17</ele>
<time>2016-10-14T11:34:43Z</time>
</trkpt>
<trkpt lat="39.5722013" lon="3.1007299">
<ele>88.50</ele>
<time>2016-10-14T11:34:46Z</time>
</trkpt>
<trkpt lat="39.5722533" lon="3.1010711">
<ele>87.78</ele>
<time>2016-10-14T11:34:49Z</time>
</trkpt>
<trkpt lat="39.5722949" lon="3.1013995">
<ele>88.06</ele>
<time>2016-10-14T11:34:52Z</time>
</trkpt>
<trkpt lat="39.5723316" lon="3.1017419">
<ele>89.24</ele>
<time>2016-10-14T11:34:55Z</time>
</trkpt>
<trkpt lat="39.5723592" lon="3.1020920">
<ele>89.15</ele>
<time>2016-10-14T11:34:58Z</time>
</trkpt>
<trkpt lat="39.5723732" lon="3.1023247">
<ele>88.76</ele>
<time>2016-10-14T11:35:00Z</time>
</trkpt>
<trkpt lat="39.5723900" lon="3.1025636">
<ele>88.29</ele>
<time>2016-10-14T11:35:02Z</time>
</trkpt>
<trkpt lat="39.5724125" lon="3.1028975">
<ele>87.11</ele>
<time>2016-10-14T11:35:05Z</time>
</trkpt>
<trkpt lat="39.5724330" lon="3.1032308">
<ele>87.03</ele>
<time>2016-10-14T11:35:08Z</time>
</trkpt>
<trkpt lat="39.5724458" lon="3.1034656">
<ele>87.93</ele>
<time>2016-10-14T11:35:10Z</time>
</trkpt>
<trkpt lat="39.5724633" lon="3.1037882">
<ele>88.92</ele>
<time>2016-10-14T11:35:13Z</time>
</trkpt>
<trkpt lat="39.5724755" lon="3.1040211">
<ele>89.69</ele>
<time>2016-10-14T11:35:15Z</time>
</trkpt>
<trkpt lat="39.5724932" lon="3.1042765">
<ele>89.88</ele>
<time>2016-10-14T11:35:17Z</time>
</trkpt>
<trkpt lat="39.5725097" lon="3.1045218">
<ele>89.82</ele>
<time>2016-10-14T11:35:19Z</time>
</trkpt>
<trkpt lat="39.5725315" lon="3.1048407">
<ele>89.81</ele>
<time>2016-10-14T11:35:22Z</time>
</trkpt>
<trkpt lat="39.5725464" lon="3.1051650">
<ele>90.04</ele>
<time>2016-10-14T11:35:25Z</time>
</trkpt>
<trkpt lat="39.5725614" lon="3.1053991">
<ele>89.68</ele>
<time>2016-10-14T11:35:27Z</time>
</trkpt>
<trkpt lat="39.5725821" lon="3.1057062">
<ele>89.40</ele>
<time>2016-10-14T11:35:30Z</time>
</trkpt>
<trkpt lat="39.5726033" lon="3.1059925">
<ele>89.12</ele>
<time>2016-10-14T11:35:33Z</time>
</trkpt>
<trkpt lat="39.5725874" lon="3.1062498">
<ele>89.32</ele>
<time>2016-10-14T11:35:36Z</time>
</trkpt>
<trkpt lat="39.5725041" lon="3.1064813">
<ele>88.09</ele>
<time>2016-10-14T11:35:39Z</time>
</trkpt>
<trkpt lat="39.5725274" lon="3.1067683">
<ele>88.14</ele>
<time>2016-10-14T11:35:43Z</time>
</trkpt>
<trkpt lat="39.5727270" lon="3.1067751">
<ele>87.75</ele>
<time>2016-10-14T11:35:49Z</time>
</trkpt>
<trkpt lat="39.5728138" lon="3.1070427">
<ele>87.80</ele>
<time>2016-10-14T11:35:57Z</time>
</trkpt>
<trkpt lat="39.5728384" lon="3.1072818">
<ele>86.86</ele>
<time>2016-10-14T11:36:00Z</time>
</trkpt>
<trkpt lat="39.5728729" lon="3.1075819">
<ele>84.89</ele>
<time>2016-10-14T11:36:04Z</time>
</trkpt>
<trkpt lat="39.5729166" lon="3.1078256">
<ele>84.83</ele>
<time>2016-10-14T11:36:07Z</time>
</trkpt>
<trkpt lat="39.5729763" lon="3.1081001">
<ele>85.28</ele>
<time>2016-10-14T11:36:10Z</time>
</trkpt>
<trkpt lat="39.5730443" lon="3.1083805">
<ele>85.76</ele>
<time>2016-10-14T11:36:13Z</time>
</trkpt>
<trkpt lat="39.5731125" lon="3.1086686">
<ele>85.42</ele>
<time>2016-10-14T11:36:16Z</time>
</trkpt>
<trkpt lat="39.5731874" lon="3.1089647">
<ele>84.17</ele>
<time>2016-10-14T11:36:19Z</time>
</trkpt>
<trkpt lat="39.5732562" lon="3.1092414">
<ele>83.43</ele>
<time>2016-10-14T11:36:22Z</time>
</trkpt>
<trkpt lat="39.5733268" lon="3.1095131">
<ele>84.01</ele>
<time>2016-10-14T11:36:25Z</time>
</trkpt>
<trkpt lat="39.5734070" lon="3.1098131">
<ele>84.78</ele>
<time>2016-10-14T11:36:28Z</time>
</trkpt>
<trkpt lat="39.5734847" lon="3.1101226">
<ele>84.98</ele>
<time>2016-10-14T11:36:31Z</time>
</trkpt>
<trkpt lat="39.5735399" lon="3.1103452">
<ele>84.67</ele>
<time>2016-10-14T11:36:33Z</time>
</trkpt>
<trkpt lat="39.5735980" lon="3.1105803">
<ele>83.72</ele>
<time>2016-10-14T11:36:35Z</time>
</trkpt>
<trkpt lat="39.5736556" lon="3.1108264">
<ele>82.81</ele>
<time>2016-10-14T11:36:37Z</time>
</trkpt>
<trkpt lat="39.5737112" lon="3.1110923">
<ele>82.49</ele>
<time>2016-10-14T11:36:39Z</time>
</trkpt>
<trkpt lat="39.5737656" lon="3.1113569">
<ele>82.22</ele>
<time>2016-10-14T11:36:41Z</time>
</trkpt>
<trkpt lat="39.5738180" lon="3.1116363">
<ele>81.68</ele>
<time>2016-10-14T11:36:43Z</time>
</trkpt>
<trkpt lat="39.5738783" lon="3.1118955">
<ele>80.55</ele>
<time>2016-10-14T11:36:45Z</time>
</trkpt>
<trkpt lat="39.5739417" lon="3.1121587">
<ele>79.61</ele>
<time>2016-10-14T11:36:47Z</time>
</trkpt>
<trkpt lat="39.5740052" lon="3.1124098">
<ele>78.74</ele>
<time>2016-10-14T11:36:49Z</time>
</trkpt>
<trkpt lat="39.5740744" lon="3.1126620">
<ele>78.07</ele>
<time>2016-10-14T11:36:51Z</time>
</trkpt>
<trkpt lat="39.5741390" lon="3.1129130">
<ele>77.85</ele>
<time>2016-10-14T11:36:53Z</time>
</trkpt>
<trkpt lat="39.5742015" lon="3.1131577">
<ele>78.03</ele>
<time>2016-10-14T11:36:55Z</time>
</trkpt>
<trkpt lat="39.5742649" lon="3.1133878">
<ele>77.89</ele>
<time>2016-10-14T11:36:57Z</time>
</trkpt>
<trkpt lat="39.5743329" lon="3.1136288">
<ele>76.89</ele>
<time>2016-10-14T11:36:59Z</time>
</trkpt>
<trkpt lat="39.5743986" lon="3.1138949">
<ele>75.47</ele>
<time>2016-10-14T11:37:01Z</time>
</trkpt>
<trkpt lat="39.5744639" lon="3.1141641">
<ele>74.36</ele>
<time>2016-10-14T11:37:03Z</time>
</trkpt>
<trkpt lat="39.5745320" lon="3.1144352">
<ele>72.82</ele>
<time>2016-10-14T11:37:05Z</time>
</trkpt>
<trkpt lat="39.5745988" lon="3.1147009">
<ele>71.25</ele>
<time>2016-10-14T11:37:07Z</time>
</trkpt>
<trkpt lat="39.5746659" lon="3.1149638">
<ele>70.25</ele>
<time>2016-10-14T11:37:09Z</time>
</trkpt>
<trkpt lat="39.5747316" lon="3.1152419">
<ele>69.39</ele>
<time>2016-10-14T11:37:11Z</time>
</trkpt>
<trkpt lat="39.5747971" lon="3.1155126">
<ele>68.72</ele>
<time>2016-10-14T11:37:13Z</time>
</trkpt>
<trkpt lat="39.5748560" lon="3.1157763">
<ele>68.59</ele>
<time>2016-10-14T11:37:15Z</time>
</trkpt>
<trkpt lat="39.5749127" lon="3.1160335">
<ele>68.32</ele>
<time>2016-10-14T11:37:17Z</time>
</trkpt>
<trkpt lat="39.5749680" lon="3.1162857">
<ele>68.33</ele>
<time>2016-10-14T11:37:19Z</time>
</trkpt>
<trkpt lat="39.5750199" lon="3.1165308">
<ele>68.67</ele>
<time>2016-10-14T11:37:21Z</time>
</trkpt>
<trkpt lat="39.5750729" lon="3.1167782">
<ele>69.04</ele>
<time>2016-10-14T11:37:23Z</time>
</trkpt>
<trkpt lat="39.5751204" lon="3.1170265">
<ele>68.18</ele>
<time>2016-10-14T11:37:25Z</time>
</trkpt>
<trkpt lat="39.5751794" lon="3.1173646">
<ele>67.21</ele>
<time>2016-10-14T11:37:28Z</time>
</trkpt>
<trkpt lat="39.5752156" lon="3.1175943">
<ele>68.07</ele>
<time>2016-10-14T11:37:30Z</time>
</trkpt>
<trkpt lat="39.5752667" lon="3.1179277">
<ele>69.09</ele>
<time>2016-10-14T11:37:33Z</time>
</trkpt>
<trkpt lat="39.5752947" lon="3.1181612">
<ele>69.73</ele>
<time>2016-10-14T11:37:35Z</time>
</trkpt>
<trkpt lat="39.5753282" lon="3.1185126">
<ele>71.15</ele>
<time>2016-10-14T11:37:38Z</time>
</trkpt>
<trkpt lat="39.5753528" lon="3.1187474">
<ele>71.84</ele>
<time>2016-10-14T11:37:40Z</time>
</trkpt>
<trkpt lat="39.5753782" lon="3.1189903">
<ele>72.12</ele>
<time>2016-10-14T11:37:42Z</time>
</trkpt>
<trkpt lat="39.5754035" lon="3.1192414">
<ele>72.09</ele>
<time>2016-10-14T11:37:44Z</time>
</trkpt>
<trkpt lat="39.5754212" lon="3.1194790">
<ele>72.23</ele>
<time>2016-10-14T11:37:46Z</time>
</trkpt>
<trkpt lat="39.5754349" lon="3.1197206">
<ele>71.95</ele>
<time>2016-10-14T11:37:48Z</time>
</trkpt>
<trkpt lat="39.5754467" lon="3.1199535">
<ele>71.47</ele>
<time>2016-10-14T11:37:50Z</time>
</trkpt>
<trkpt lat="39.5754677" lon="3.1202570">
<ele>70.94</ele>
<time>2016-10-14T11:37:53Z</time>
</trkpt>
<trkpt lat="39.5755399" lon="3.1204746">
<ele>71.23</ele>
<time>2016-10-14T11:37:56Z</time>
</trkpt>
<trkpt lat="39.5757279" lon="3.1205943">
<ele>71.12</ele>
<time>2016-10-14T11:38:00Z</time>
</trkpt>
<trkpt lat="39.5759303" lon="3.1206881">
<ele>71.34</ele>
<time>2016-10-14T11:38:07Z</time>
</trkpt>
<trkpt lat="39.5761203" lon="3.1206918">
<ele>70.11</ele>
<time>2016-10-14T11:38:11Z</time>
</trkpt>
<trkpt lat="39.5763032" lon="3.1206732">
<ele>68.99</ele>
<time>2016-10-14T11:38:14Z</time>
</trkpt>
<trkpt lat="39.5765009" lon="3.1206682">
<ele>69.04</ele>
<time>2016-10-14T11:38:18Z</time>
</trkpt>
<trkpt lat="39.5767083" lon="3.1206726">
<ele>68.99</ele>
<time>2016-10-14T11:38:21Z</time>
</trkpt>
<trkpt lat="39.5769300" lon="3.1206755">
<ele>68.09</ele>
<time>2016-10-14T11:38:24Z</time>
</trkpt>
<trkpt lat="39.5771231" lon="3.1206563">
<ele>69.84</ele>
<time>2016-10-14T11:38:27Z</time>
</trkpt>
<trkpt lat="39.5773126" lon="3.1206439">
<ele>72.38</ele>
<time>2016-10-14T11:38:30Z</time>
</trkpt>
<trkpt lat="39.5775144" lon="3.1206254">
<ele>75.55</ele>
<time>2016-10-14T11:38:33Z</time>
</trkpt>
<trkpt lat="39.5777058" lon="3.1206240">
<ele>78.09</ele>
<time>2016-10-14T11:38:36Z</time>
</trkpt>
<trkpt lat="39.5779039" lon="3.1206258">
<ele>80.81</ele>
<time>2016-10-14T11:38:39Z</time>
</trkpt>
<trkpt lat="39.5780967" lon="3.1206264">
<ele>82.72</ele>
<time>2016-10-14T11:38:42Z</time>
</trkpt>
<trkpt lat="39.5783130" lon="3.1206345">
<ele>83.28</ele>
<time>2016-10-14T11:38:45Z</time>
</trkpt>
<trkpt lat="39.5785121" lon="3.1206692">
<ele>83.92</ele>
<time>2016-10-14T11:38:48Z</time>
</trkpt>
<trkpt lat="39.5787428" lon="3.1206818">
<ele>84.35</ele>
<time>2016-10-14T11:38:51Z</time>
</trkpt>
<trkpt lat="39.5789772" lon="3.1206835">
<ele>85.17</ele>
<time>2016-10-14T11:38:54Z</time>
</trkpt>
<trkpt lat="39.5791882" lon="3.1206885">
<ele>85.90</ele>
<time>2016-10-14T11:38:57Z</time>
</trkpt>
<trkpt lat="39.5793984" lon="3.1206957">
<ele>86.33</ele>
<time>2016-10-14T11:39:00Z</time>
</trkpt>
<trkpt lat="39.5796206" lon="3.1207066">
<ele>86.58</ele>
<time>2016-10-14T11:39:02Z</time>
</trkpt>
<trkpt lat="39.5798219" lon="3.1207180">
<ele>87.29</ele>
<time>2016-10-14T11:39:05Z</time>
</trkpt>
<trkpt lat="39.5800200" lon="3.1207263">
<ele>87.54</ele>
<time>2016-10-14T11:39:08Z</time>
</trkpt>
<trkpt lat="39.5802035" lon="3.1207337">
<ele>87.61</ele>
<time>2016-10-14T11:39:11Z</time>
</trkpt>
<trkpt lat="39.5804110" lon="3.1207240">
<ele>87.03</ele>
<time>2016-10-14T11:39:14Z</time>
</trkpt>
<trkpt lat="39.5806360" lon="3.1207139">
<ele>87.58</ele>
<time>2016-10-14T11:39:18Z</time>
</trkpt>
<trkpt lat="39.5808197" lon="3.1207008">
<ele>88.40</ele>
<time>2016-10-14T11:39:21Z</time>
</trkpt>
<trkpt lat="39.5810194" lon="3.1206676">
<ele>88.88</ele>
<time>2016-10-14T11:39:24Z</time>
</trkpt>
<trkpt lat="39.5812133" lon="3.1206197">
<ele>89.26</ele>
<time>2016-10-14T11:39:27Z</time>
</trkpt>
<trkpt lat="39.5814031" lon="3.1205741">
<ele>89.28</ele>
<time>2016-10-14T11:39:30Z</time>
</trkpt>
<trkpt lat="39.5816323" lon="3.1205403">
<ele>90.35</ele>
<time>2016-10-14T11:39:34Z</time>
</trkpt>
<trkpt lat="39.5818505" lon="3.1204806">
<ele>89.33</ele>
<time>2016-10-14T11:39:37Z</time>
</trkpt>
<trkpt lat="39.5820524" lon="3.1204121">
<ele>88.21</ele>
<time>2016-10-14T11:39:40Z</time>
</trkpt>
<trkpt lat="39.5822421" lon="3.1203449">
<ele>89.23</ele>
<time>2016-10-14T11:39:43Z</time>
</trkpt>
<trkpt lat="39.5824229" lon="3.1202849">
<ele>90.43</ele>
<time>2016-10-14T11:39:46Z</time>
</trkpt>
<trkpt lat="39.5826607" lon="3.1202072">
<ele>90.90</ele>
<time>2016-10-14T11:39:50Z</time>
</trkpt>
<trkpt lat="39.5829070" lon="3.1201359">
<ele>89.52</ele>
<time>2016-10-14T11:39:54Z</time>
</trkpt>
<trkpt lat="39.5831099" lon="3.1200787">
<ele>87.27</ele>
<time>2016-10-14T11:39:57Z</time>
</trkpt>
<trkpt lat="39.5833158" lon="3.1199865">
<ele>86.96</ele>
<time>2016-10-14T11:40:00Z</time>
</trkpt>
<trkpt lat="39.5835004" lon="3.1198943">
<ele>87.53</ele>
<time>2016-10-14T11:40:03Z</time>
</trkpt>
<trkpt lat="39.5836934" lon="3.1197985">
<ele>87.95</ele>
<time>2016-10-14T11:40:06Z</time>
</trkpt>
<trkpt lat="39.5839189" lon="3.1196765">
<ele>88.10</ele>
<time>2016-10-14T11:40:09Z</time>
</trkpt>
<trkpt lat="39.5841043" lon="3.1195719">
<ele>87.91</ele>
<time>2016-10-14T11:40:12Z</time>
</trkpt>
<trkpt lat="39.5842903" lon="3.1194583">
<ele>88.04</ele>
<time>2016-10-14T11:40:15Z</time>
</trkpt>
<trkpt lat="39.5844668" lon="3.1193534">
<ele>87.92</ele>
<time>2016-10-14T11:40:18Z</time>
</trkpt>
<trkpt lat="39.5846503" lon="3.1192465">
<ele>88.82</ele>
<time>2016-10-14T11:40:21Z</time>
</trkpt>
<trkpt lat="39.5848417" lon="3.1191291">
<ele>90.41</ele>
<time>2016-10-14T11:40:24Z</time>
</trkpt>
<trkpt lat="39.5850238" lon="3.1190154">
<ele>91.41</ele>
<time>2016-10-14T11:40:27Z</time>
</trkpt>
<trkpt lat="39.5852091" lon="3.1188939">
<ele>91.26</ele>
<time>2016-10-14T11:40:30Z</time>
</trkpt>
<trkpt lat="39.5854153" lon="3.1187604">
<ele>90.12</ele>
<time>2016-10-14T11:40:33Z</time>
</trkpt>
<trkpt lat="39.5856178" lon="3.1186417">
<ele>90.46</ele>
<time>2016-10-14T11:40:36Z</time>
</trkpt>
<trkpt lat="39.5857944" lon="3.1185493">
<ele>90.42</ele>
<time>2016-10-14T11:40:39Z</time>
</trkpt>
<trkpt lat="39.5859852" lon="3.1184608">
<ele>91.01</ele>
<time>2016-10-14T11:40:42Z</time>
</trkpt>
<trkpt lat="39.5861636" lon="3.1183889">
<ele>91.73</ele>
<time>2016-10-14T11:40:45Z</time>
</trkpt>
<trkpt lat="39.5863354" lon="3.1183172">
<ele>91.78</ele>
<time>2016-10-14T11:40:48Z</time>
</trkpt>
<trkpt lat="39.5865148" lon="3.1182540">
<ele>92.05</ele>
<time>2016-10-14T11:40:51Z</time>
</trkpt>
<trkpt lat="39.5866926" lon="3.1181887">
<ele>92.52</ele>
<time>2016-10-14T11:40:54Z</time>
</trkpt>
<trkpt lat="39.5868981" lon="3.1181031">
<ele>92.86</ele>
<time>2016-10-14T11:40:58Z</time>
</trkpt>
<trkpt lat="39.5871231" lon="3.1180228">
<ele>93.31</ele>
<time>2016-10-14T11:41:02Z</time>
</trkpt>
<trkpt lat="39.5873367" lon="3.1179255">
<ele>93.71</ele>
<time>2016-10-14T11:41:06Z</time>
</trkpt>
<trkpt lat="39.5875625" lon="3.1178322">
<ele>93.25</ele>
<time>2016-10-14T11:41:10Z</time>
</trkpt>
<trkpt lat="39.5877406" lon="3.1177436">
<ele>93.21</ele>
<time>2016-10-14T11:41:13Z</time>
</trkpt>
<trkpt lat="39.5879411" lon="3.1176399">
<ele>93.55</ele>
<time>2016-10-14T11:41:17Z</time>
</trkpt>
<trkpt lat="39.5881317" lon="3.1175345">
<ele>93.91</ele>
<time>2016-10-14T11:41:20Z</time>
</trkpt>
<trkpt lat="39.5883042" lon="3.1174511">
<ele>93.86</ele>
<time>2016-10-14T11:41:23Z</time>
</trkpt>
<trkpt lat="39.5884919" lon="3.1173687">
<ele>94.16</ele>
<time>2016-10-14T11:41:26Z</time>
</trkpt>
<trkpt lat="39.5886677" lon="3.1172763">
<ele>93.93</ele>
<time>2016-10-14T11:41:29Z</time>
</trkpt>
<trkpt lat="39.5888341" lon="3.1171786">
<ele>94.53</ele>
<time>2016-10-14T11:41:32Z</time>
</trkpt>
<trkpt lat="39.5890550" lon="3.1170431">
<ele>95.56</ele>
<time>2016-10-14T11:41:36Z</time>
</trkpt>
<trkpt lat="39.5892756" lon="3.1169191">
<ele>96.17</ele>
<time>2016-10-14T11:41:40Z</time>
</trkpt>
<trkpt lat="39.5894472" lon="3.1168357">
<ele>96.50</ele>
<time>2016-10-14T11:41:43Z</time>
</trkpt>
<trkpt lat="39.5896259" lon="3.1167375">
<ele>97.09</ele>
<time>2016-10-14T11:41:46Z</time>
</trkpt>
<trkpt lat="39.5898428" lon="3.1165869">
<ele>98.72</ele>
<time>2016-10-14T11:41:50Z</time>
</trkpt>
<trkpt lat="39.5900155" lon="3.1164302">
<ele>99.48</ele>
<time>2016-10-14T11:41:53Z</time>
</trkpt>
<trkpt lat="39.5901698" lon="3.1162304">
<ele>100.32</ele>
<time>2016-10-14T11:41:57Z</time>
</trkpt>
<trkpt lat="39.5902968" lon="3.1160437">
<ele>101.17</ele>
<time>2016-10-14T11:42:00Z</time>
</trkpt>
<trkpt lat="39.5904252" lon="3.1158181">
<ele>101.07</ele>
<time>2016-10-14T11:42:04Z</time>
</trkpt>
<trkpt lat="39.5905490" lon="3.1155776">
<ele>102.94</ele>
<time>2016-10-14T11:42:08Z</time>
</trkpt>
<trkpt lat="39.5906721" lon="3.1153457">
<ele>103.54</ele>
<time>2016-10-14T11:42:13Z</time>
</trkpt>
<trkpt lat="39.5907887" lon="3.1151649">
<ele>104.80</ele>
<time>2016-10-14T11:42:16Z</time>
</trkpt>
<trkpt lat="39.5909363" lon="3.1149991">
<ele>105.02</ele>
<time>2016-10-14T11:42:20Z</time>
</trkpt>
<trkpt lat="39.5911027" lon="3.1149026">
<ele>103.92</ele>
<time>2016-10-14T11:42:23Z</time>
</trkpt>
<trkpt lat="39.5913245" lon="3.1148227">
<ele>101.16</ele>
<time>2016-10-14T11:42:27Z</time>
</trkpt>
<trkpt lat="39.5915092" lon="3.1147995">
<ele>99.69</ele>
<time>2016-10-14T11:42:30Z</time>
</trkpt>
<trkpt lat="39.5917000" lon="3.1148122">
<ele>100.24</ele>
<time>2016-10-14T11:42:33Z</time>
</trkpt>
<trkpt lat="39.5919146" lon="3.1148967">
<ele>100.99</ele>
<time>2016-10-14T11:42:37Z</time>
</trkpt>
<trkpt lat="39.5920875" lon="3.1149647">
<ele>101.39</ele>
<time>2016-10-14T11:42:40Z</time>
</trkpt>
<trkpt lat="39.5922762" lon="3.1150287">
<ele>102.46</ele>
<time>2016-10-14T11:42:43Z</time>
</trkpt>
<trkpt lat="39.5924677" lon="3.1150968">
<ele>103.18</ele>
<time>2016-10-14T11:42:46Z</time>
</trkpt>
<trkpt lat="39.5926716" lon="3.1151495">
<ele>103.70</ele>
<time>2016-10-14T11:42:49Z</time>
</trkpt>
<trkpt lat="39.5928857" lon="3.1151854">
<ele>104.34</ele>
<time>2016-10-14T11:42:52Z</time>
</trkpt>
<trkpt lat="39.5931197" lon="3.1152178">
<ele>103.92</ele>
<time>2016-10-14T11:42:55Z</time>
</trkpt>
<trkpt lat="39.5933695" lon="3.1152115">
<ele>102.66</ele>
<time>2016-10-14T11:42:58Z</time>
</trkpt>
<trkpt lat="39.5936068" lon="3.1151731">
<ele>100.99</ele>
<time>2016-10-14T11:43:01Z</time>
</trkpt>
<trkpt lat="39.5937956" lon="3.1151225">
<ele>100.55</ele>
<time>2016-10-14T11:43:03Z</time>
</trkpt>
<trkpt lat="39.5939797" lon="3.1150585">
<ele>100.46</ele>
<time>2016-10-14T11:43:05Z</time>
</trkpt>
<trkpt lat="39.5941744" lon="3.1149833">
<ele>100.60</ele>
<time>2016-10-14T11:43:07Z</time>
</trkpt>
<trkpt lat="39.5943456" lon="3.1149091">
<ele>100.44</ele>
<time>2016-10-14T11:43:09Z</time>
</trkpt>
<trkpt lat="39.5945181" lon="3.1148316">
<ele>100.20</ele>
<time>2016-10-14T11:43:11Z</time>
</trkpt>
<trkpt lat="39.5946972" lon="3.1147538">
<ele>99.68</ele>
<time>2016-10-14T11:43:13Z</time>
</trkpt>
<trkpt lat="39.5949218" lon="3.1146520">
<ele>99.31</ele>
<time>2016-10-14T11:43:16Z</time>
</trkpt>
<trkpt lat="39.5951381" lon="3.1145603">
<ele>99.64</ele>
<time>2016-10-14T11:43:19Z</time>
</trkpt>
<trkpt lat="39.5953585" lon="3.1144770">
<ele>98.50</ele>
<time>2016-10-14T11:43:23Z</time>
</trkpt>
<trkpt lat="39.5955687" lon="3.1143787">
<ele>98.49</ele>
<time>2016-10-14T11:43:27Z</time>
</trkpt>
<trkpt lat="39.5957512" lon="3.1142683">
<ele>101.24</ele>
<time>2016-10-14T11:43:30Z</time>
</trkpt>
<trkpt lat="39.5959161" lon="3.1141561">
<ele>103.13</ele>
<time>2016-10-14T11:43:33Z</time>
</trkpt>
<trkpt lat="39.5961211" lon="3.1140078">
<ele>102.70</ele>
<time>2016-10-14T11:43:37Z</time>
</trkpt>
<trkpt lat="39.5963207" lon="3.1138711">
<ele>102.72</ele>
<time>2016-10-14T11:43:41Z</time>
</trkpt>
<trkpt lat="39.5965068" lon="3.1137167">
<ele>103.25</ele>
<time>2016-10-14T11:43:45Z</time>
</trkpt>
<trkpt lat="39.5966748" lon="3.1135658">
<ele>104.46</ele>
<time>2016-10-14T11:43:49Z</time>
</trkpt>
<trkpt lat="39.5968552" lon="3.1134066">
<ele>105.40</ele>
<time>2016-10-14T11:43:54Z</time>
</trkpt>
<trkpt lat="39.5970098" lon="3.1132760">
<ele>103.38</ele>
<time>2016-10-14T11:43:58Z</time>
</trkpt>
<trkpt lat="39.5971618" lon="3.1131357">
<ele>104.01</ele>
<time>2016-10-14T11:44:02Z</time>
</trkpt>
<trkpt lat="39.5973161" lon="3.1130038">
<ele>103.97</ele>
<time>2016-10-14T11:44:06Z</time>
</trkpt>
<trkpt lat="39.5974907" lon="3.1128575">
<ele>105.82</ele>
<time>2016-10-14T11:44:11Z</time>
</trkpt>
<trkpt lat="39.5976603" lon="3.1127192">
<ele>107.66</ele>
<time>2016-10-14T11:44:16Z</time>
</trkpt>
<trkpt lat="39.5978152" lon="3.1125773">
<ele>109.14</ele>
<time>2016-10-14T11:44:20Z</time>
</trkpt>
<trkpt lat="39.5979696" lon="3.1124087">
<ele>110.51</ele>
<time>2016-10-14T11:44:26Z</time>
</trkpt>
<trkpt lat="39.5981268" lon="3.1122318">
<ele>112.47</ele>
<time>2016-10-14T11:44:31Z</time>
</trkpt>
<trkpt lat="39.5982531" lon="3.1120531">
<ele>113.45</ele>
<time>2016-10-14T11:44:36Z</time>
</trkpt>
<trkpt lat="39.5983732" lon="3.1118717">
<ele>114.57</ele>
<time>2016-10-14T11:44:40Z</time>
</trkpt>
<trkpt lat="39.5985365" lon="3.1116572">
<ele>114.84</ele>
<time>2016-10-14T11:44:44Z</time>
</trkpt>
<trkpt lat="39.5986843" lon="3.1114509">
<ele>115.10</ele>
<time>2016-10-14T11:44:47Z</time>
</trkpt>
<trkpt lat="39.5988271" lon="3.1112658">
<ele>113.25</ele>
<time>2016-10-14T11:44:50Z</time>
</trkpt>
<trkpt lat="39.5990242" lon="3.1111064">
<ele>110.50</ele>
<time>2016-10-14T11:44:54Z</time>
</trkpt>
<trkpt lat="39.5992307" lon="3.1109847">
<ele>108.78</ele>
<time>2016-10-14T11:44:58Z</time>
</trkpt>
<trkpt lat="39.5994541" lon="3.1108874">
<ele>108.41</ele>
<time>2016-10-14T11:45:01Z</time>
</trkpt>
<trkpt lat="39.5996426" lon="3.1108123">
<ele>107.97</ele>
<time>2016-10-14T11:45:03Z</time>
</trkpt>
<trkpt lat="39.5998191" lon="3.1107361">
<ele>107.63</ele>
<time>2016-10-14T11:45:05Z</time>
</trkpt>
<trkpt lat="39.6000523" lon="3.1106366">
<ele>106.15</ele>
<time>2016-10-14T11:45:08Z</time>
</trkpt>
<trkpt lat="39.6002975" lon="3.1105415">
<ele>105.65</ele>
<time>2016-10-14T11:45:11Z</time>
</trkpt>
<trkpt lat="39.6004752" lon="3.1104693">
<ele>105.42</ele>
<time>2016-10-14T11:45:13Z</time>
</trkpt>
<trkpt lat="39.6006551" lon="3.1104122">
<ele>105.09</ele>
<time>2016-10-14T11:45:15Z</time>
</trkpt>
<trkpt lat="39.6009177" lon="3.1103625">
<ele>105.37</ele>
<time>2016-10-14T11:45:18Z</time>
</trkpt>
<trkpt lat="39.6011504" lon="3.1103408">
<ele>106.09</ele>
<time>2016-10-14T11:45:21Z</time>
</trkpt>
<trkpt lat="39.6013559" lon="3.1103431">
<ele>106.38</ele>
<time>2016-10-14T11:45:24Z</time>
</trkpt>
<trkpt lat="39.6015769" lon="3.1103433">
<ele>105.26</ele>
<time>2016-10-14T11:45:28Z</time>
</trkpt>
<trkpt lat="39.6017716" lon="3.1103549">
<ele>104.12</ele>
<time>2016-10-14T11:45:32Z</time>
</trkpt>
<trkpt lat="39.6019646" lon="3.1103645">
<ele>105.43</ele>
<time>2016-10-14T11:45:36Z</time>
</trkpt>
<trkpt lat="39.6021896" lon="3.1103604">
<ele>108.62</ele>
<time>2016-10-14T11:45:41Z</time>
</trkpt>
<trkpt lat="39.6023800" lon="3.1103540">
<ele>112.56</ele>
<time>2016-10-14T11:45:46Z</time>
</trkpt>
<trkpt lat="39.6025734" lon="3.1103546">
<ele>113.68</ele>
<time>2016-10-14T11:45:52Z</time>
</trkpt>
<trkpt lat="39.6027620" lon="3.1103366">
<ele>114.11</ele>
<time>2016-10-14T11:45:58Z</time>
</trkpt>
<trkpt lat="39.6029651" lon="3.1103256">
<ele>115.37</ele>
<time>2016-10-14T11:46:06Z</time>
</trkpt>
<trkpt lat="39.6031720" lon="3.1103136">
<ele>117.03</ele>
<time>2016-10-14T11:46:12Z</time>
</trkpt>
<trkpt lat="39.6033514" lon="3.1102849">
<ele>119.96</ele>
<time>2016-10-14T11:46:18Z</time>
</trkpt>
<trkpt lat="39.6035391" lon="3.1102507">
<ele>120.19</ele>
<time>2016-10-14T11:46:23Z</time>
</trkpt>
<trkpt lat="39.6037188" lon="3.1102258">
<ele>120.67</ele>
<time>2016-10-14T11:46:28Z</time>
</trkpt>
<trkpt lat="39.6039194" lon="3.1102079">
<ele>120.53</ele>
<time>2016-10-14T11:46:32Z</time>
</trkpt>
<trkpt lat="39.6041124" lon="3.1101969">
<ele>122.52</ele>
<time>2016-10-14T11:46:36Z</time>
</trkpt>
<trkpt lat="39.6042951" lon="3.1102153">
<ele>122.05</ele>
<time>2016-10-14T11:46:39Z</time>
</trkpt>
<trkpt lat="39.6045175" lon="3.1102559">
<ele>121.93</ele>
<time>2016-10-14T11:46:42Z</time>
</trkpt>
<trkpt lat="39.6047419" lon="3.1103067">
<ele>122.27</ele>
<time>2016-10-14T11:46:45Z</time>
</trkpt>
<trkpt lat="39.6049573" lon="3.1103502">
<ele>120.29</ele>
<time>2016-10-14T11:46:48Z</time>
</trkpt>
<trkpt lat="39.6051545" lon="3.1103969">
<ele>118.99</ele>
<time>2016-10-14T11:46:51Z</time>
</trkpt>
<trkpt lat="39.6053548" lon="3.1104452">
<ele>119.35</ele>
<time>2016-10-14T11:46:54Z</time>
</trkpt>
<trkpt lat="39.6055314" lon="3.1105052">
<ele>120.24</ele>
<time>2016-10-14T11:46:57Z</time>
</trkpt>
<trkpt lat="39.6057472" lon="3.1105900">
<ele>119.86</ele>
<time>2016-10-14T11:47:01Z</time>
</trkpt>
<trkpt lat="39.6059627" lon="3.1106774">
<ele>118.20</ele>
<time>2016-10-14T11:47:05Z</time>
</trkpt>
<trkpt lat="39.6061690" lon="3.1107418">
<ele>117.88</ele>
<time>2016-10-14T11:47:09Z</time>
</trkpt>
<trkpt lat="39.6063774" lon="3.1107962">
<ele>117.27</ele>
<time>2016-10-14T11:47:13Z</time>
</trkpt>
<trkpt lat="39.6065699" lon="3.1108873">
<ele>116.75</ele>
<time>2016-10-14T11:47:17Z</time>
</trkpt>
<trkpt lat="39.6067746" lon="3.1110070">
<ele>115.72</ele>
<time>2016-10-14T11:47:21Z</time>
</trkpt>
<trkpt lat="39.6070062" lon="3.1111399">
<ele>115.75</ele>
<time>2016-10-14T11:47:26Z</time>
</trkpt>
<trkpt lat="39.6071938" lon="3.1112609">
<ele>113.32</ele>
<time>2016-10-14T11:47:29Z</time>
</trkpt>
<trkpt lat="39.6073799" lon="3.1113688">
<ele>110.55</ele>
<time>2016-10-14T11:47:32Z</time>
</trkpt>
<trkpt lat="39.6075567" lon="3.1114672">
<ele>109.30</ele>
<time>2016-10-14T11:47:35Z</time>
</trkpt>
<trkpt lat="39.6077309" lon="3.1115616">
<ele>108.78</ele>
<time>2016-10-14T11:47:38Z</time>
</trkpt>
<trkpt lat="39.6079279" lon="3.1116685">
<ele>108.83</ele>
<time>2016-10-14T11:47:42Z</time>
</trkpt>
<trkpt lat="39.6081020" lon="3.1117582">
<ele>109.02</ele>
<time>2016-10-14T11:47:46Z</time>
</trkpt>
<trkpt lat="39.6083157" lon="3.1118673">
<ele>109.78</ele>
<time>2016-10-14T11:47:50Z</time>
</trkpt>
<trkpt lat="39.6085127" lon="3.1119520">
<ele>110.13</ele>
<time>2016-10-14T11:47:54Z</time>
</trkpt>
<trkpt lat="39.6086787" lon="3.1120475">
<ele>110.88</ele>
<time>2016-10-14T11:47:58Z</time>
</trkpt>
<trkpt lat="39.6088374" lon="3.1121734">
<ele>111.86</ele>
<time>2016-10-14T11:48:03Z</time>
</trkpt>
<trkpt lat="39.6090291" lon="3.1123434">
<ele>112.26</ele>
<time>2016-10-14T11:48:08Z</time>
</trkpt>
<trkpt lat="39.6092067" lon="3.1124806">
<ele>111.62</ele>
<time>2016-10-14T11:48:12Z</time>
</trkpt>
<trkpt lat="39.6093920" lon="3.1125891">
<ele>111.05</ele>
<time>2016-10-14T11:48:16Z</time>
</trkpt>
<trkpt lat="39.6095793" lon="3.1126867">
<ele>110.92</ele>
<time>2016-10-14T11:48:20Z</time>
</trkpt>
<trkpt lat="39.6097646" lon="3.1127842">
<ele>110.28</ele>
<time>2016-10-14T11:48:24Z</time>
</trkpt>
<trkpt lat="39.6099730" lon="3.1128108">
<ele>110.08</ele>
<time>2016-10-14T11:48:28Z</time>
</trkpt>
<trkpt lat="39.6101551" lon="3.1127405">
<ele>109.99</ele>
<time>2016-10-14T11:48:32Z</time>
</trkpt>
<trkpt lat="39.6103749" lon="3.1126905">
<ele>109.44</ele>
<time>2016-10-14T11:48:36Z</time>
</trkpt>
<trkpt lat="39.6105869" lon="3.1126349">
<ele>107.61</ele>
<time>2016-10-14T11:48:40Z</time>
</trkpt>
<trkpt lat="39.6107981" lon="3.1125902">
<ele>104.62</ele>
<time>2016-10-14T11:48:45Z</time>
</trkpt>
<trkpt lat="39.6109944" lon="3.1125434">
<ele>101.89</ele>
<time>2016-10-14T11:48:49Z</time>
</trkpt>
<trkpt lat="39.6111842" lon="3.1124780">
<ele>100.70</ele>
<time>2016-10-14T11:48:52Z</time>
</trkpt>
<trkpt lat="39.6113670" lon="3.1124038">
<ele>100.61</ele>
<time>2016-10-14T11:48:55Z</time>
</trkpt>
<trkpt lat="39.6116062" lon="3.1123335">
<ele>100.83</ele>
<time>2016-10-14T11:48:59Z</time>
</trkpt>
<trkpt lat="39.6118312" lon="3.1122529">
<ele>101.26</ele>
<time>2016-10-14T11:49:03Z</time>
</trkpt>
<trkpt lat="39.6120280" lon="3.1121823">
<ele>101.53</ele>
<time>2016-10-14T11:49:06Z</time>
</trkpt>
<trkpt lat="39.6122168" lon="3.1121333">
<ele>101.09</ele>
<time>2016-10-14T11:49:09Z</time>
</trkpt>
<trkpt lat="39.6124211" lon="3.1120756">
<ele>100.23</ele>
<time>2016-10-14T11:49:12Z</time>
</trkpt>
<trkpt lat="39.6126087" lon="3.1119985">
<ele>98.50</ele>
<time>2016-10-14T11:49:15Z</time>
</trkpt>
<trkpt lat="39.6128070" lon="3.1119317">
<ele>96.94</ele>
<time>2016-10-14T11:49:18Z</time>
</trkpt>
<trkpt lat="39.6130386" lon="3.1118696">
<ele>96.90</ele>
<time>2016-10-14T11:49:22Z</time>
</trkpt>
<trkpt lat="39.6132196" lon="3.1118040">
<ele>97.64</ele>
<time>2016-10-14T11:49:25Z</time>
</trkpt>
<trkpt lat="39.6134106" lon="3.1116863">
<ele>98.88</ele>
<time>2016-10-14T11:49:29Z</time>
</trkpt>
<trkpt lat="39.6136303" lon="3.1115940">
<ele>103.01</ele>
<time>2016-10-14T11:49:33Z</time>
</trkpt>
<trkpt lat="39.6138483" lon="3.1115183">
<ele>105.50</ele>
<time>2016-10-14T11:49:37Z</time>
</trkpt>
<trkpt lat="39.6140291" lon="3.1114648">
<ele>108.36</ele>
<time>2016-10-14T11:49:41Z</time>
</trkpt>
<trkpt lat="39.6142336" lon="3.1114294">
<ele>108.82</ele>
<time>2016-10-14T11:49:47Z</time>
</trkpt>
<trkpt lat="39.6144314" lon="3.1113905">
<ele>109.42</ele>
<time>2016-10-14T11:49:54Z</time>
</trkpt>
<trkpt lat="39.6146448" lon="3.1113081">
<ele>110.08</ele>
<time>2016-10-14T11:50:02Z</time>
</trkpt>
<trkpt lat="39.6148537" lon="3.1112212">
<ele>110.38</ele>
<time>2016-10-14T11:50:07Z</time>
</trkpt>
<trkpt lat="39.6148977" lon="3.1109815">
<ele>109.03</ele>
<time>2016-10-14T11:50:15Z</time>
</trkpt>
<trkpt lat="39.6148701" lon="3.1107283">
<ele>108.01</ele>
<time>2016-10-14T11:50:22Z</time>
</trkpt>
<trkpt lat="39.6150198" lon="3.1105757">
<ele>108.57</ele>
<time>2016-10-14T11:50:30Z</time>
</trkpt>
<trkpt lat="39.6152165" lon="3.1106205">
<ele>106.07</ele>
<time>2016-10-14T11:50:34Z</time>
</trkpt>
<trkpt lat="39.6153378" lon="3.1108058">
<ele>102.96</ele>
<time>2016-10-14T11:50:39Z</time>
</trkpt>
<trkpt lat="39.6154309" lon="3.1110465">
<ele>99.38</ele>
<time>2016-10-14T11:50:45Z</time>
</trkpt>
<trkpt lat="39.6155331" lon="3.1112567">
<ele>96.41</ele>
<time>2016-10-14T11:50:50Z</time>
</trkpt>
<trkpt lat="39.6156343" lon="3.1114544">
<ele>93.22</ele>
<time>2016-10-14T11:50:55Z</time>
</trkpt>
<trkpt lat="39.6157381" lon="3.1116593">
<ele>92.74</ele>
<time>2016-10-14T11:50:59Z</time>
</trkpt>
<trkpt lat="39.6158310" lon="3.1118859">
<ele>92.79</ele>
<time>2016-10-14T11:51:06Z</time>
</trkpt>
<trkpt lat="39.6156408" lon="3.1120034">
<ele>92.30</ele>
<time>2016-10-14T11:51:14Z</time>
</trkpt>
<trkpt lat="39.6154723" lon="3.1118208">
<ele>90.01</ele>
<time>2016-10-14T11:52:39Z</time>
</trkpt>
<trkpt lat="39.6152762" lon="3.1118375">
<ele>89.89</ele>
<time>2016-10-14T11:52:49Z</time>
</trkpt>
<trkpt lat="39.6150588" lon="3.1118989">
<ele>91.26</ele>
<time>2016-10-14T11:52:57Z</time>
</trkpt>
<trkpt lat="39.6148461" lon="3.1119414">
<ele>94.32</ele>
<time>2016-10-14T11:53:02Z</time>
</trkpt>
<trkpt lat="39.6146430" lon="3.1120139">
<ele>96.74</ele>
<time>2016-10-14T11:53:08Z</time>
</trkpt>
<trkpt lat="39.6144000" lon="3.1121409">
<ele>98.59</ele>
<time>2016-10-14T11:53:21Z</time>
</trkpt>
<trkpt lat="39.6143328" lon="3.1124789">
<ele>100.36</ele>
<time>2016-10-14T11:53:52Z</time>
</trkpt>
<trkpt lat="39.6142072" lon="3.1126468">
<ele>95.09</ele>
<time>2016-10-14T11:54:46Z</time>
</trkpt>
<trkpt lat="39.6140403" lon="3.1127350">
<ele>96.57</ele>
<time>2016-10-14T11:55:19Z</time>
</trkpt>
<trkpt lat="39.6141832" lon="3.1125927">
<ele>114.57</ele>
<time>2016-10-14T12:08:47Z</time>
</trkpt>
<trkpt lat="39.6139800" lon="3.1126962">
<ele>121.43</ele>
<time>2016-10-14T12:32:25Z</time>
</trkpt>
<trkpt lat="39.6141823" lon="3.1126200">
<ele>92.64</ele>
<time>2016-10-14T12:54:38Z</time>
</trkpt>
<trkpt lat="39.6140069" lon="3.1126887">
<ele>89.39</ele>
<time>2016-10-14T12:57:29Z</time>
</trkpt>
<trkpt lat="39.6141359" lon="3.1128585">
<ele>94.21</ele>
<time>2016-10-14T13:07:21Z</time>
</trkpt>
<trkpt lat="39.6143242" lon="3.1129354">
<ele>93.79</ele>
<time>2016-10-14T13:07:30Z</time>
</trkpt>
<trkpt lat="39.6145048" lon="3.1129244">
<ele>93.52</ele>
<time>2016-10-14T13:07:37Z</time>
</trkpt>
<trkpt lat="39.6146620" lon="3.1130739">
<ele>93.17</ele>
<time>2016-10-14T13:07:52Z</time>
</trkpt>
<trkpt lat="39.6147503" lon="3.1132888">
<ele>92.36</ele>
<time>2016-10-14T13:07:58Z</time>
</trkpt>
<trkpt lat="39.6148439" lon="3.1135077">
<ele>91.49</ele>
<time>2016-10-14T13:08:04Z</time>
</trkpt>
<trkpt lat="39.6150421" lon="3.1135035">
<ele>91.00</ele>
<time>2016-10-14T13:08:15Z</time>
</trkpt>
<trkpt lat="39.6152363" lon="3.1134466">
<ele>90.12</ele>
<time>2016-10-14T13:08:23Z</time>
</trkpt>
<trkpt lat="39.6154220" lon="3.1134004">
<ele>88.10</ele>
<time>2016-10-14T13:08:36Z</time>
</trkpt>
<trkpt lat="39.6156214" lon="3.1133383">
<ele>87.50</ele>
<time>2016-10-14T13:08:43Z</time>
</trkpt>
<trkpt lat="39.6158155" lon="3.1132928">
<ele>87.78</ele>
<time>2016-10-14T13:08:50Z</time>
</trkpt>
<trkpt lat="39.6160059" lon="3.1132042">
<ele>87.87</ele>
<time>2016-10-14T13:08:56Z</time>
</trkpt>
<trkpt lat="39.6161877" lon="3.1131662">
<ele>88.25</ele>
<time>2016-10-14T13:09:02Z</time>
</trkpt>
<trkpt lat="39.6163728" lon="3.1130754">
<ele>88.70</ele>
<time>2016-10-14T13:09:07Z</time>
</trkpt>
<trkpt lat="39.6165551" lon="3.1129865">
<ele>89.44</ele>
<time>2016-10-14T13:09:12Z</time>
</trkpt>
<trkpt lat="39.6167578" lon="3.1129138">
<ele>89.27</ele>
<time>2016-10-14T13:09:17Z</time>
</trkpt>
<trkpt lat="39.6168084" lon="3.1126572">
<ele>88.07</ele>
<time>2016-10-14T13:09:22Z</time>
</trkpt>
<trkpt lat="39.6168197" lon="3.1123984">
<ele>87.19</ele>
<time>2016-10-14T13:09:29Z</time>
</trkpt>
<trkpt lat="39.6168277" lon="3.1121592">
<ele>86.63</ele>
<time>2016-10-14T13:09:34Z</time>
</trkpt>
<trkpt lat="39.6168038" lon="3.1119152">
<ele>85.91</ele>
<time>2016-10-14T13:09:40Z</time>
</trkpt>
<trkpt lat="39.6167363" lon="3.1116819">
<ele>85.23</ele>
<time>2016-10-14T13:09:45Z</time>
</trkpt>
<trkpt lat="39.6166481" lon="3.1114478">
<ele>84.05</ele>
<time>2016-10-14T13:09:50Z</time>
</trkpt>
<trkpt lat="39.6166015" lon="3.1112099">
<ele>82.54</ele>
<time>2016-10-14T13:09:56Z</time>
</trkpt>
<trkpt lat="39.6167631" lon="3.1110908">
<ele>78.61</ele>
<time>2016-10-14T13:10:03Z</time>
</trkpt>
<trkpt lat="39.6169195" lon="3.1109342">
<ele>75.21</ele>
<time>2016-10-14T13:10:07Z</time>
</trkpt>
<trkpt lat="39.6170687" lon="3.1107553">
<ele>74.28</ele>
<time>2016-10-14T13:10:11Z</time>
</trkpt>
<trkpt lat="39.6172216" lon="3.1105697">
<ele>73.74</ele>
<time>2016-10-14T13:10:16Z</time>
</trkpt>
<trkpt lat="39.6173813" lon="3.1103501">
<ele>73.85</ele>
<time>2016-10-14T13:10:20Z</time>
</trkpt>
<trkpt lat="39.6175379" lon="3.1101618">
<ele>71.53</ele>
<time>2016-10-14T13:10:24Z</time>
</trkpt>
<trkpt lat="39.6176671" lon="3.1099882">
<ele>71.45</ele>
<time>2016-10-14T13:10:28Z</time>
</trkpt>
<trkpt lat="39.6178099" lon="3.1098069">
<ele>71.53</ele>
<time>2016-10-14T13:10:32Z</time>
</trkpt>
<trkpt lat="39.6179567" lon="3.1096294">
<ele>71.28</ele>
<time>2016-10-14T13:10:36Z</time>
</trkpt>
<trkpt lat="39.6181070" lon="3.1094128">
<ele>71.65</ele>
<time>2016-10-14T13:10:40Z</time>
</trkpt>
<trkpt lat="39.6182677" lon="3.1092000">
<ele>71.97</ele>
<time>2016-10-14T13:10:44Z</time>
</trkpt>
<trkpt lat="39.6184874" lon="3.1090881">
<ele>70.15</ele>
<time>2016-10-14T13:10:48Z</time>
</trkpt>
<trkpt lat="39.6186787" lon="3.1091306">
<ele>69.09</ele>
<time>2016-10-14T13:10:51Z</time>
</trkpt>
<trkpt lat="39.6188745" lon="3.1091978">
<ele>67.20</ele>
<time>2016-10-14T13:10:54Z</time>
</trkpt>
<trkpt lat="39.6190591" lon="3.1092544">
<ele>66.46</ele>
<time>2016-10-14T13:10:57Z</time>
</trkpt>
<trkpt lat="39.6192477" lon="3.1093118">
<ele>65.24</ele>
<time>2016-10-14T13:11:00Z</time>
</trkpt>
<trkpt lat="39.6194377" lon="3.1093662">
<ele>64.76</ele>
<time>2016-10-14T13:11:03Z</time>
</trkpt>
<trkpt lat="39.6196208" lon="3.1094292">
<ele>64.81</ele>
<time>2016-10-14T13:11:06Z</time>
</trkpt>
<trkpt lat="39.6198048" lon="3.1095170">
<ele>65.36</ele>
<time>2016-10-14T13:11:09Z</time>
</trkpt>
<trkpt lat="39.6199942" lon="3.1096009">
<ele>65.84</ele>
<time>2016-10-14T13:11:12Z</time>
</trkpt>
<trkpt lat="39.6201915" lon="3.1096864">
<ele>66.88</ele>
<time>2016-10-14T13:11:15Z</time>
</trkpt>
<trkpt lat="39.6203324" lon="3.1098330">
<ele>66.61</ele>
<time>2016-10-14T13:11:18Z</time>
</trkpt>
<trkpt lat="39.6205077" lon="3.1100247">
<ele>64.66</ele>
<time>2016-10-14T13:11:22Z</time>
</trkpt>
<trkpt lat="39.6207243" lon="3.1101278">
<ele>64.57</ele>
<time>2016-10-14T13:11:26Z</time>
</trkpt>
<trkpt lat="39.6209054" lon="3.1102002">
<ele>64.13</ele>
<time>2016-10-14T13:11:29Z</time>
</trkpt>
<trkpt lat="39.6210803" lon="3.1102645">
<ele>62.92</ele>
<time>2016-10-14T13:11:32Z</time>
</trkpt>
<trkpt lat="39.6212505" lon="3.1103472">
<ele>61.53</ele>
<time>2016-10-14T13:11:36Z</time>
</trkpt>
<trkpt lat="39.6214021" lon="3.1105023">
<ele>61.10</ele>
<time>2016-10-14T13:11:41Z</time>
</trkpt>
<trkpt lat="39.6216093" lon="3.1105128">
<ele>61.47</ele>
<time>2016-10-14T13:11:45Z</time>
</trkpt>
<trkpt lat="39.6218355" lon="3.1104290">
<ele>60.90</ele>
<time>2016-10-14T13:11:49Z</time>
</trkpt>
<trkpt lat="39.6220645" lon="3.1103456">
<ele>60.29</ele>
<time>2016-10-14T13:11:53Z</time>
</trkpt>
<trkpt lat="39.6222486" lon="3.1102901">
<ele>59.09</ele>
<time>2016-10-14T13:11:56Z</time>
</trkpt>
<trkpt lat="39.6224361" lon="3.1102630">
<ele>58.30</ele>
<time>2016-10-14T13:11:59Z</time>
</trkpt>
<trkpt lat="39.6226403" lon="3.1102565">
<ele>70.15</ele>
<time>2016-10-14T13:12:02Z</time>
</trkpt>
<trkpt lat="39.6228286" lon="3.1102262">
<ele>81.97</ele>
<time>2016-10-14T13:12:05Z</time>
</trkpt>
<trkpt lat="39.6230622" lon="3.1101955">
<ele>93.78</ele>
<time>2016-10-14T13:12:09Z</time>
</trkpt>
<trkpt lat="39.6232701" lon="3.1101754">
<ele>101.76</ele>
<time>2016-10-14T13:12:13Z</time>
</trkpt>
<trkpt lat="39.6234616" lon="3.1101410">
<ele>104.40</ele>
<time>2016-10-14T13:12:16Z</time>
</trkpt>
<trkpt lat="39.6236899" lon="3.1100825">
<ele>101.93</ele>
<time>2016-10-14T13:12:19Z</time>
</trkpt>
<trkpt lat="39.6239103" lon="3.1100134">
<ele>96.57</ele>
<time>2016-10-14T13:12:22Z</time>
</trkpt>
<trkpt lat="39.6241153" lon="3.1099440">
<ele>91.66</ele>
<time>2016-10-14T13:12:25Z</time>
</trkpt>
<trkpt lat="39.6243102" lon="3.1098743">
<ele>86.18</ele>
<time>2016-10-14T13:12:28Z</time>
</trkpt>
<trkpt lat="39.6245184" lon="3.1098002">
<ele>84.93</ele>
<time>2016-10-14T13:12:32Z</time>
</trkpt>
<trkpt lat="39.6247003" lon="3.1097052">
<ele>90.88</ele>
<time>2016-10-14T13:12:36Z</time>
</trkpt>
<trkpt lat="39.6248739" lon="3.1095825">
<ele>102.19</ele>
<time>2016-10-14T13:12:40Z</time>
</trkpt>
<trkpt lat="39.6250617" lon="3.1094838">
<ele>106.84</ele>
<time>2016-10-14T13:12:43Z</time>
</trkpt>
<trkpt lat="39.6252510" lon="3.1093827">
<ele>108.02</ele>
<time>2016-10-14T13:12:46Z</time>
</trkpt>
<trkpt lat="39.6254387" lon="3.1092887">
<ele>108.01</ele>
<time>2016-10-14T13:12:49Z</time>
</trkpt>
<trkpt lat="39.6256582" lon="3.1091875">
<ele>107.41</ele>
<time>2016-10-14T13:12:53Z</time>
</trkpt>
<trkpt lat="39.6258390" lon="3.1091129">
<ele>107.97</ele>
<time>2016-10-14T13:12:56Z</time>
</trkpt>
<trkpt lat="39.6260435" lon="3.1090102">
<ele>107.96</ele>
<time>2016-10-14T13:12:59Z</time>
</trkpt>
<trkpt lat="39.6262631" lon="3.1089095">
<ele>109.78</ele>
<time>2016-10-14T13:13:03Z</time>
</trkpt>
<trkpt lat="39.6264672" lon="3.1088021">
<ele>111.48</ele>
<time>2016-10-14T13:13:06Z</time>
</trkpt>
<trkpt lat="39.6266702" lon="3.1086983">
<ele>110.66</ele>
<time>2016-10-14T13:13:09Z</time>
</trkpt>
<trkpt lat="39.6268864" lon="3.1085787">
<ele>108.53</ele>
<time>2016-10-14T13:13:12Z</time>
</trkpt>
<trkpt lat="39.6270889" lon="3.1084625">
<ele>106.07</ele>
<time>2016-10-14T13:13:15Z</time>
</trkpt>
<trkpt lat="39.6272801" lon="3.1083682">
<ele>104.24</ele>
<time>2016-10-14T13:13:18Z</time>
</trkpt>
<trkpt lat="39.6274646" lon="3.1082692">
<ele>103.08</ele>
<time>2016-10-14T13:13:21Z</time>
</trkpt>
<trkpt lat="39.6276546" lon="3.1081660">
<ele>101.41</ele>
<time>2016-10-14T13:13:24Z</time>
</trkpt>
<trkpt lat="39.6278484" lon="3.1080672">
<ele>100.87</ele>
<time>2016-10-14T13:13:27Z</time>
</trkpt>
<trkpt lat="39.6280568" lon="3.1079754">
<ele>100.93</ele>
<time>2016-10-14T13:13:30Z</time>
</trkpt>
<trkpt lat="39.6282477" lon="3.1078932">
<ele>101.27</ele>
<time>2016-10-14T13:13:33Z</time>
</trkpt>
<trkpt lat="39.6284708" lon="3.1077807">
<ele>101.30</ele>
<time>2016-10-14T13:13:36Z</time>
</trkpt>
<trkpt lat="39.6286862" lon="3.1076723">
<ele>101.42</ele>
<time>2016-10-14T13:13:39Z</time>
</trkpt>
<trkpt lat="39.6289134" lon="3.1075415">
<ele>100.53</ele>
<time>2016-10-14T13:13:42Z</time>
</trkpt>
<trkpt lat="39.6291032" lon="3.1074246">
<ele>99.69</ele>
<time>2016-10-14T13:13:45Z</time>
</trkpt>
<trkpt lat="39.6293236" lon="3.1072988">
<ele>99.00</ele>
<time>2016-10-14T13:13:48Z</time>
</trkpt>
<trkpt lat="39.6295340" lon="3.1071690">
<ele>98.24</ele>
<time>2016-10-14T13:13:51Z</time>
</trkpt>
<trkpt lat="39.6297544" lon="3.1070167">
<ele>96.30</ele>
<time>2016-10-14T13:13:54Z</time>
</trkpt>
<trkpt lat="39.6299844" lon="3.1068563">
<ele>93.01</ele>
<time>2016-10-14T13:13:57Z</time>
</trkpt>
<trkpt lat="39.6301877" lon="3.1067117">
<ele>88.87</ele>
<time>2016-10-14T13:14:00Z</time>
</trkpt>
<trkpt lat="39.6303852" lon="3.1065960">
<ele>86.54</ele>
<time>2016-10-14T13:14:03Z</time>
</trkpt>
<trkpt lat="39.6305883" lon="3.1064931">
<ele>84.11</ele>
<time>2016-10-14T13:14:06Z</time>
</trkpt>
<trkpt lat="39.6307967" lon="3.1064141">
<ele>82.36</ele>
<time>2016-10-14T13:14:09Z</time>
</trkpt>
<trkpt lat="39.6309938" lon="3.1063627">
<ele>80.45</ele>
<time>2016-10-14T13:14:12Z</time>
</trkpt>
<trkpt lat="39.6311835" lon="3.1063361">
<ele>76.80</ele>
<time>2016-10-14T13:14:15Z</time>
</trkpt>
<trkpt lat="39.6313860" lon="3.1063084">
<ele>73.27</ele>
<time>2016-10-14T13:14:18Z</time>
</trkpt>
<trkpt lat="39.6315908" lon="3.1062813">
<ele>70.48</ele>
<time>2016-10-14T13:14:21Z</time>
</trkpt>
<trkpt lat="39.6317794" lon="3.1062600">
<ele>69.25</ele>
<time>2016-10-14T13:14:24Z</time>
</trkpt>
<trkpt lat="39.6319765" lon="3.1062256">
<ele>69.29</ele>
<time>2016-10-14T13:14:27Z</time>
</trkpt>
<trkpt lat="39.6321614" lon="3.1061859">
<ele>71.23</ele>
<time>2016-10-14T13:14:30Z</time>
</trkpt>
<trkpt lat="39.6323493" lon="3.1061269">
<ele>75.54</ele>
<time>2016-10-14T13:14:33Z</time>
</trkpt>
<trkpt lat="39.6325632" lon="3.1060554">
<ele>80.99</ele>
<time>2016-10-14T13:14:36Z</time>
</trkpt>
<trkpt lat="39.6328124" lon="3.1059539">
<ele>81.66</ele>
<time>2016-10-14T13:14:39Z</time>
</trkpt>
<trkpt lat="39.6329902" lon="3.1058776">
<ele>79.34</ele>
<time>2016-10-14T13:14:41Z</time>
</trkpt>
<trkpt lat="39.6332030" lon="3.1057768">
<ele>76.92</ele>
<time>2016-10-14T13:14:44Z</time>
</trkpt>
<trkpt lat="39.6334067" lon="3.1056612">
<ele>77.44</ele>
<time>2016-10-14T13:14:47Z</time>
</trkpt>
<trkpt lat="39.6336092" lon="3.1055239">
<ele>78.88</ele>
<time>2016-10-14T13:14:50Z</time>
</trkpt>
<trkpt lat="39.6338431" lon="3.1053480">
<ele>75.93</ele>
<time>2016-10-14T13:14:53Z</time>
</trkpt>
<trkpt lat="39.6339984" lon="3.1052301">
<ele>72.13</ele>
<time>2016-10-14T13:14:55Z</time>
</trkpt>
<trkpt lat="39.6342190" lon="3.1050676">
<ele>65.87</ele>
<time>2016-10-14T13:14:58Z</time>
</trkpt>
<trkpt lat="39.6344315" lon="3.1049211">
<ele>60.19</ele>
<time>2016-10-14T13:15:01Z</time>
</trkpt>
<trkpt lat="39.6346351" lon="3.1047817">
<ele>55.95</ele>
<time>2016-10-14T13:15:04Z</time>
</trkpt>
<trkpt lat="39.6348447" lon="3.1046540">
<ele>53.44</ele>
<time>2016-10-14T13:15:07Z</time>
</trkpt>
<trkpt lat="39.6350371" lon="3.1045383">
<ele>52.30</ele>
<time>2016-10-14T13:15:10Z</time>
</trkpt>
<trkpt lat="39.6352361" lon="3.1044089">
<ele>51.49</ele>
<time>2016-10-14T13:15:13Z</time>
</trkpt>
<trkpt lat="39.6353963" lon="3.1042848">
<ele>49.99</ele>
<time>2016-10-14T13:15:16Z</time>
</trkpt>
<trkpt lat="39.6355874" lon="3.1041438">
<ele>51.25</ele>
<time>2016-10-14T13:15:19Z</time>
</trkpt>
<trkpt lat="39.6357634" lon="3.1039840">
<ele>55.52</ele>
<time>2016-10-14T13:15:22Z</time>
</trkpt>
<trkpt lat="39.6359162" lon="3.1037716">
<ele>64.82</ele>
<time>2016-10-14T13:15:25Z</time>
</trkpt>
<trkpt lat="39.6360786" lon="3.1035847">
<ele>70.42</ele>
<time>2016-10-14T13:15:28Z</time>
</trkpt>
<trkpt lat="39.6362374" lon="3.1034695">
<ele>72.78</ele>
<time>2016-10-14T13:15:31Z</time>
</trkpt>
<trkpt lat="39.6364294" lon="3.1033427">
<ele>73.61</ele>
<time>2016-10-14T13:15:34Z</time>
</trkpt>
<trkpt lat="39.6366471" lon="3.1032310">
<ele>73.58</ele>
<time>2016-10-14T13:15:37Z</time>
</trkpt>
<trkpt lat="39.6368528" lon="3.1031528">
<ele>71.75</ele>
<time>2016-10-14T13:15:40Z</time>
</trkpt>
<trkpt lat="39.6370532" lon="3.1031023">
<ele>67.85</ele>
<time>2016-10-14T13:15:43Z</time>
</trkpt>
<trkpt lat="39.6372715" lon="3.1030568">
<ele>64.01</ele>
<time>2016-10-14T13:15:46Z</time>
</trkpt>
<trkpt lat="39.6375129" lon="3.1030159">
<ele>60.67</ele>
<time>2016-10-14T13:15:49Z</time>
</trkpt>
<trkpt lat="39.6377576" lon="3.1029804">
<ele>57.56</ele>
<time>2016-10-14T13:15:52Z</time>
</trkpt>
<trkpt lat="39.6380080" lon="3.1029564">
<ele>55.09</ele>
<time>2016-10-14T13:15:55Z</time>
</trkpt>
<trkpt lat="39.6382627" lon="3.1029389">
<ele>52.93</ele>
<time>2016-10-14T13:15:58Z</time>
</trkpt>
<trkpt lat="39.6385141" lon="3.1029126">
<ele>52.55</ele>
<time>2016-10-14T13:16:01Z</time>
</trkpt>
<trkpt lat="39.6387608" lon="3.1028877">
<ele>55.28</ele>
<time>2016-10-14T13:16:04Z</time>
</trkpt>
<trkpt lat="39.6389341" lon="3.1027859">
<ele>67.53</ele>
<time>2016-10-14T13:16:07Z</time>
</trkpt>
<trkpt lat="39.6391292" lon="3.1026857">
<ele>78.01</ele>
<time>2016-10-14T13:16:10Z</time>
</trkpt>
<trkpt lat="39.6393346" lon="3.1026001">
<ele>84.37</ele>
<time>2016-10-14T13:16:13Z</time>
</trkpt>
<trkpt lat="39.6395547" lon="3.1025191">
<ele>88.40</ele>
<time>2016-10-14T13:16:16Z</time>
</trkpt>
<trkpt lat="39.6397766" lon="3.1024475">
<ele>89.96</ele>
<time>2016-10-14T13:16:19Z</time>
</trkpt>
<trkpt lat="39.6400269" lon="3.1023356">
<ele>88.49</ele>
<time>2016-10-14T13:16:22Z</time>
</trkpt>
<trkpt lat="39.6402394" lon="3.1022219">
<ele>88.94</ele>
<time>2016-10-14T13:16:25Z</time>
</trkpt>
<trkpt lat="39.6404611" lon="3.1020787">
<ele>87.69</ele>
<time>2016-10-14T13:16:28Z</time>
</trkpt>
<trkpt lat="39.6406628" lon="3.1019306">
<ele>82.17</ele>
<time>2016-10-14T13:16:31Z</time>
</trkpt>
<trkpt lat="39.6408204" lon="3.1017824">
<ele>74.75</ele>
<time>2016-10-14T13:16:34Z</time>
</trkpt>
<trkpt lat="39.6410052" lon="3.1016229">
<ele>69.69</ele>
<time>2016-10-14T13:16:37Z</time>
</trkpt>
<trkpt lat="39.6412073" lon="3.1014507">
<ele>65.55</ele>
<time>2016-10-14T13:16:40Z</time>
</trkpt>
<trkpt lat="39.6414060" lon="3.1012902">
<ele>62.63</ele>
<time>2016-10-14T13:16:43Z</time>
</trkpt>
<trkpt lat="39.6416011" lon="3.1011410">
<ele>61.58</ele>
<time>2016-10-14T13:16:46Z</time>
</trkpt>
<trkpt lat="39.6417892" lon="3.1010034">
<ele>61.68</ele>
<time>2016-10-14T13:16:49Z</time>
</trkpt>
<trkpt lat="39.6419670" lon="3.1008688">
<ele>62.73</ele>
<time>2016-10-14T13:16:52Z</time>
</trkpt>
<trkpt lat="39.6421482" lon="3.1007322">
<ele>63.44</ele>
<time>2016-10-14T13:16:55Z</time>
</trkpt>
<trkpt lat="39.6423337" lon="3.1005942">
<ele>63.78</ele>
<time>2016-10-14T13:16:58Z</time>
</trkpt>
<trkpt lat="39.6425254" lon="3.1004695">
<ele>62.56</ele>
<time>2016-10-14T13:17:01Z</time>
</trkpt>
<trkpt lat="39.6427032" lon="3.1003682">
<ele>62.48</ele>
<time>2016-10-14T13:17:04Z</time>
</trkpt>
<trkpt lat="39.6428832" lon="3.1002759">
<ele>62.66</ele>
<time>2016-10-14T13:17:07Z</time>
</trkpt>
<trkpt lat="39.6430780" lon="3.1002124">
<ele>62.67</ele>
<time>2016-10-14T13:17:10Z</time>
</trkpt>
<trkpt lat="39.6432731" lon="3.1001613">
<ele>61.68</ele>
<time>2016-10-14T13:17:13Z</time>
</trkpt>
<trkpt lat="39.6434651" lon="3.1001353">
<ele>61.15</ele>
<time>2016-10-14T13:17:16Z</time>
</trkpt>
<trkpt lat="39.6436461" lon="3.1001380">
<ele>61.99</ele>
<time>2016-10-14T13:17:19Z</time>
</trkpt>
<trkpt lat="39.6438355" lon="3.1001537">
<ele>63.15</ele>
<time>2016-10-14T13:17:22Z</time>
</trkpt>
<trkpt lat="39.6440384" lon="3.1001796">
<ele>64.20</ele>
<time>2016-10-14T13:17:25Z</time>
</trkpt>
<trkpt lat="39.6442351" lon="3.1002186">
<ele>64.86</ele>
<time>2016-10-14T13:17:28Z</time>
</trkpt>
<trkpt lat="39.6444385" lon="3.1002729">
<ele>65.60</ele>
<time>2016-10-14T13:17:31Z</time>
</trkpt>
<trkpt lat="39.6446366" lon="3.1003325">
<ele>65.90</ele>
<time>2016-10-14T13:17:34Z</time>
</trkpt>
<trkpt lat="39.6448343" lon="3.1003890">
<ele>65.54</ele>
<time>2016-10-14T13:17:37Z</time>
</trkpt>
<trkpt lat="39.6450291" lon="3.1004305">
<ele>65.16</ele>
<time>2016-10-14T13:17:40Z</time>
</trkpt>
<trkpt lat="39.6452589" lon="3.1004570">
<ele>64.26</ele>
<time>2016-10-14T13:17:44Z</time>
</trkpt>
<trkpt lat="39.6454605" lon="3.1004656">
<ele>65.50</ele>
<time>2016-10-14T13:17:48Z</time>
</trkpt>
<trkpt lat="39.6456850" lon="3.1005323">
<ele>67.60</ele>
<time>2016-10-14T13:17:52Z</time>
</trkpt>
<trkpt lat="39.6458387" lon="3.1006727">
<ele>68.08</ele>
<time>2016-10-14T13:17:55Z</time>
</trkpt>
<trkpt lat="39.6460220" lon="3.1007033">
<ele>66.57</ele>
<time>2016-10-14T13:17:58Z</time>
</trkpt>
<trkpt lat="39.6462353" lon="3.1005456">
<ele>64.54</ele>
<time>2016-10-14T13:18:02Z</time>
</trkpt>
<trkpt lat="39.6464255" lon="3.1004257">
<ele>64.30</ele>
<time>2016-10-14T13:18:05Z</time>
</trkpt>
<trkpt lat="39.6466234" lon="3.1004220">
<ele>65.21</ele>
<time>2016-10-14T13:18:08Z</time>
</trkpt>
<trkpt lat="39.6468397" lon="3.1004186">
<ele>66.96</ele>
<time>2016-10-14T13:18:11Z</time>
</trkpt>
<trkpt lat="39.6470437" lon="3.1004213">
<ele>71.82</ele>
<time>2016-10-14T13:18:14Z</time>
</trkpt>
<trkpt lat="39.6472560" lon="3.1004239">
<ele>77.27</ele>
<time>2016-10-14T13:18:17Z</time>
</trkpt>
<trkpt lat="39.6474725" lon="3.1004101">
<ele>79.77</ele>
<time>2016-10-14T13:18:19Z</time>
</trkpt>
<trkpt lat="39.6476977" lon="3.1003959">
<ele>80.99</ele>
<time>2016-10-14T13:18:22Z</time>
</trkpt>
<trkpt lat="39.6479355" lon="3.1004003">
<ele>80.79</ele>
<time>2016-10-14T13:18:25Z</time>
</trkpt>
<trkpt lat="39.6481786" lon="3.1004367">
<ele>80.06</ele>
<time>2016-10-14T13:18:28Z</time>
</trkpt>
<trkpt lat="39.6484108" lon="3.1004983">
<ele>78.25</ele>
<time>2016-10-14T13:18:31Z</time>
</trkpt>
<trkpt lat="39.6486432" lon="3.1005908">
<ele>76.43</ele>
<time>2016-10-14T13:18:34Z</time>
</trkpt>
<trkpt lat="39.6488783" lon="3.1007000">
<ele>74.24</ele>
<time>2016-10-14T13:18:37Z</time>
</trkpt>
<trkpt lat="39.6491057" lon="3.1008109">
<ele>73.06</ele>
<time>2016-10-14T13:18:40Z</time>
</trkpt>
<trkpt lat="39.6493088" lon="3.1009005">
<ele>72.45</ele>
<time>2016-10-14T13:18:43Z</time>
</trkpt>
<trkpt lat="39.6495016" lon="3.1009736">
<ele>73.73</ele>
<time>2016-10-14T13:18:46Z</time>
</trkpt>
<trkpt lat="39.6497021" lon="3.1010323">
<ele>73.12</ele>
<time>2016-10-14T13:18:49Z</time>
</trkpt>
<trkpt lat="39.6499185" lon="3.1010817">
<ele>71.17</ele>
<time>2016-10-14T13:18:53Z</time>
</trkpt>
<trkpt lat="39.6501022" lon="3.1010977">
<ele>70.55</ele>
<time>2016-10-14T13:18:57Z</time>
</trkpt>
<trkpt lat="39.6503148" lon="3.1011029">
<ele>72.92</ele>
<time>2016-10-14T13:19:02Z</time>
</trkpt>
<trkpt lat="39.6505245" lon="3.1010620">
<ele>73.29</ele>
<time>2016-10-14T13:19:07Z</time>
</trkpt>
<trkpt lat="39.6507053" lon="3.1010159">
<ele>74.72</ele>
<time>2016-10-14T13:19:11Z</time>
</trkpt>
<trkpt lat="39.6508865" lon="3.1009678">
<ele>74.88</ele>
<time>2016-10-14T13:19:15Z</time>
</trkpt>
<trkpt lat="39.6510647" lon="3.1009101">
<ele>75.33</ele>
<time>2016-10-14T13:19:19Z</time>
</trkpt>
<trkpt lat="39.6512684" lon="3.1008380">
<ele>76.10</ele>
<time>2016-10-14T13:19:23Z</time>
</trkpt>
<trkpt lat="39.6514806" lon="3.1007327">
<ele>85.08</ele>
<time>2016-10-14T13:19:28Z</time>
</trkpt>
<trkpt lat="39.6517014" lon="3.1006112">
<ele>90.24</ele>
<time>2016-10-14T13:19:32Z</time>
</trkpt>
<trkpt lat="39.6518773" lon="3.1005056">
<ele>91.65</ele>
<time>2016-10-14T13:19:35Z</time>
</trkpt>
<trkpt lat="39.6520579" lon="3.1003759">
<ele>91.65</ele>
<time>2016-10-14T13:19:38Z</time>
</trkpt>
<trkpt lat="39.6522459" lon="3.1002298">
<ele>89.00</ele>
<time>2016-10-14T13:19:41Z</time>
</trkpt>
<trkpt lat="39.6524466" lon="3.1000666">
<ele>85.71</ele>
<time>2016-10-14T13:19:44Z</time>
</trkpt>
<trkpt lat="39.6526574" lon="3.0998954">
<ele>82.15</ele>
<time>2016-10-14T13:19:47Z</time>
</trkpt>
<trkpt lat="39.6528143" lon="3.0997642">
<ele>79.32</ele>
<time>2016-10-14T13:19:49Z</time>
</trkpt>
<trkpt lat="39.6529735" lon="3.0996287">
<ele>77.04</ele>
<time>2016-10-14T13:19:51Z</time>
</trkpt>
<trkpt lat="39.6531318" lon="3.0995015">
<ele>75.43</ele>
<time>2016-10-14T13:19:53Z</time>
</trkpt>
<trkpt lat="39.6533044" lon="3.0993653">
<ele>73.71</ele>
<time>2016-10-14T13:19:55Z</time>
</trkpt>
<trkpt lat="39.6534821" lon="3.0992354">
<ele>73.21</ele>
<time>2016-10-14T13:19:57Z</time>
</trkpt>
<trkpt lat="39.6536706" lon="3.0990988">
<ele>72.96</ele>
<time>2016-10-14T13:19:59Z</time>
</trkpt>
<trkpt lat="39.6538792" lon="3.0989461">
<ele>71.66</ele>
<time>2016-10-14T13:20:01Z</time>
</trkpt>
<trkpt lat="39.6540820" lon="3.0987997">
<ele>70.76</ele>
<time>2016-10-14T13:20:03Z</time>
</trkpt>
<trkpt lat="39.6543024" lon="3.0986488">
<ele>69.53</ele>
<time>2016-10-14T13:20:05Z</time>
</trkpt>
<trkpt lat="39.6545272" lon="3.0985019">
<ele>67.48</ele>
<time>2016-10-14T13:20:07Z</time>
</trkpt>
<trkpt lat="39.6547579" lon="3.0983597">
<ele>65.24</ele>
<time>2016-10-14T13:20:09Z</time>
</trkpt>
<trkpt lat="39.6549944" lon="3.0982231">
<ele>62.80</ele>
<time>2016-10-14T13:20:11Z</time>
</trkpt>
<trkpt lat="39.6552336" lon="3.0980962">
<ele>60.64</ele>
<time>2016-10-14T13:20:13Z</time>
</trkpt>
<trkpt lat="39.6554738" lon="3.0979805">
<ele>58.67</ele>
<time>2016-10-14T13:20:15Z</time>
</trkpt>
<trkpt lat="39.6557179" lon="3.0978684">
<ele>56.61</ele>
<time>2016-10-14T13:20:17Z</time>
</trkpt>
<trkpt lat="39.6559715" lon="3.0977554">
<ele>54.06</ele>
<time>2016-10-14T13:20:19Z</time>
</trkpt>
<trkpt lat="39.6562158" lon="3.0976612">
<ele>52.46</ele>
<time>2016-10-14T13:20:21Z</time>
</trkpt>
<trkpt lat="39.6564551" lon="3.0975805">
<ele>51.76</ele>
<time>2016-10-14T13:20:23Z</time>
</trkpt>
<trkpt lat="39.6566873" lon="3.0975082">
<ele>51.69</ele>
<time>2016-10-14T13:20:25Z</time>
</trkpt>
<trkpt lat="39.6569146" lon="3.0974389">
<ele>51.16</ele>
<time>2016-10-14T13:20:27Z</time>
</trkpt>
<trkpt lat="39.6571331" lon="3.0973684">
<ele>49.99</ele>
<time>2016-10-14T13:20:29Z</time>
</trkpt>
<trkpt lat="39.6573354" lon="3.0973017">
<ele>49.16</ele>
<time>2016-10-14T13:20:31Z</time>
</trkpt>
<trkpt lat="39.6575205" lon="3.0972439">
<ele>49.42</ele>
<time>2016-10-14T13:20:33Z</time>
</trkpt>
<trkpt lat="39.6577061" lon="3.0971843">
<ele>50.00</ele>
<time>2016-10-14T13:20:35Z</time>
</trkpt>
<trkpt lat="39.6578934" lon="3.0971297">
<ele>49.45</ele>
<time>2016-10-14T13:20:37Z</time>
</trkpt>
<trkpt lat="39.6580845" lon="3.0970789">
<ele>47.72</ele>
<time>2016-10-14T13:20:39Z</time>
</trkpt>
<trkpt lat="39.6582681" lon="3.0970326">
<ele>46.11</ele>
<time>2016-10-14T13:20:41Z</time>
</trkpt>
<trkpt lat="39.6585317" lon="3.0969979">
<ele>46.20</ele>
<time>2016-10-14T13:20:44Z</time>
</trkpt>
<trkpt lat="39.6587626" lon="3.0969956">
<ele>49.83</ele>
<time>2016-10-14T13:20:47Z</time>
</trkpt>
<trkpt lat="39.6589677" lon="3.0970073">
<ele>52.42</ele>
<time>2016-10-14T13:20:49Z</time>
</trkpt>
<trkpt lat="39.6591605" lon="3.0970384">
<ele>53.68</ele>
<time>2016-10-14T13:20:51Z</time>
</trkpt>
<trkpt lat="39.6593535" lon="3.0970714">
<ele>54.16</ele>
<time>2016-10-14T13:20:53Z</time>
</trkpt>
<trkpt lat="39.6595518" lon="3.0971093">
<ele>54.53</ele>
<time>2016-10-14T13:20:55Z</time>
</trkpt>
<trkpt lat="39.6598110" lon="3.0971681">
<ele>56.02</ele>
<time>2016-10-14T13:20:58Z</time>
</trkpt>
<trkpt lat="39.6600709" lon="3.0972214">
<ele>58.14</ele>
<time>2016-10-14T13:21:01Z</time>
</trkpt>
<trkpt lat="39.6602503" lon="3.0972583">
<ele>59.57</ele>
<time>2016-10-14T13:21:03Z</time>
</trkpt>
<trkpt lat="39.6604385" lon="3.0973012">
<ele>60.47</ele>
<time>2016-10-14T13:21:05Z</time>
</trkpt>
<trkpt lat="39.6606980" lon="3.0973530">
<ele>60.58</ele>
<time>2016-10-14T13:21:08Z</time>
</trkpt>
<trkpt lat="39.6609582" lon="3.0973992">
<ele>60.59</ele>
<time>2016-10-14T13:21:11Z</time>
</trkpt>
<trkpt lat="39.6612093" lon="3.0974410">
<ele>61.27</ele>
<time>2016-10-14T13:21:14Z</time>
</trkpt>
<trkpt lat="39.6613955" lon="3.0974766">
<ele>61.97</ele>
<time>2016-10-14T13:21:16Z</time>
</trkpt>
<trkpt lat="39.6615859" lon="3.0975203">
<ele>63.38</ele>
<time>2016-10-14T13:21:18Z</time>
</trkpt>
<trkpt lat="39.6618300" lon="3.0975673">
<ele>64.22</ele>
<time>2016-10-14T13:21:21Z</time>
</trkpt>
<trkpt lat="39.6620782" lon="3.0976124">
<ele>63.77</ele>
<time>2016-10-14T13:21:24Z</time>
</trkpt>
<trkpt lat="39.6623464" lon="3.0976572">
<ele>63.50</ele>
<time>2016-10-14T13:21:27Z</time>
</trkpt>
<trkpt lat="39.6625254" lon="3.0976896">
<ele>63.66</ele>
<time>2016-10-14T13:21:29Z</time>
</trkpt>
<trkpt lat="39.6627170" lon="3.0977281">
<ele>64.14</ele>
<time>2016-10-14T13:21:31Z</time>
</trkpt>
<trkpt lat="39.6628963" lon="3.0977632">
<ele>64.65</ele>
<time>2016-10-14T13:21:33Z</time>
</trkpt>
<trkpt lat="39.6630764" lon="3.0977989">
<ele>64.94</ele>
<time>2016-10-14T13:21:35Z</time>
</trkpt>
<trkpt lat="39.6632926" lon="3.0978298">
<ele>66.20</ele>
<time>2016-10-14T13:21:37Z</time>
</trkpt>
<trkpt lat="39.6634780" lon="3.0978375">
<ele>68.90</ele>
<time>2016-10-14T13:21:39Z</time>
</trkpt>
<trkpt lat="39.6637281" lon="3.0978488">
<ele>72.04</ele>
<time>2016-10-14T13:21:42Z</time>
</trkpt>
<trkpt lat="39.6639781" lon="3.0978653">
<ele>74.39</ele>
<time>2016-10-14T13:21:45Z</time>
</trkpt>
<trkpt lat="39.6642310" lon="3.0978875">
<ele>76.29</ele>
<time>2016-10-14T13:21:48Z</time>
</trkpt>
<trkpt lat="39.6644772" lon="3.0979212">
<ele>76.57</ele>
<time>2016-10-14T13:21:51Z</time>
</trkpt>
<trkpt lat="39.6646634" lon="3.0979476">
<ele>76.51</ele>
<time>2016-10-14T13:21:53Z</time>
</trkpt>
<trkpt lat="39.6649299" lon="3.0979855">
<ele>76.63</ele>
<time>2016-10-14T13:21:56Z</time>
</trkpt>
<trkpt lat="39.6651134" lon="3.0980214">
<ele>76.71</ele>
<time>2016-10-14T13:21:58Z</time>
</trkpt>
<trkpt lat="39.6652997" lon="3.0980568">
<ele>76.95</ele>
<time>2016-10-14T13:22:00Z</time>
</trkpt>
<trkpt lat="39.6654839" lon="3.0980910">
<ele>77.25</ele>
<time>2016-10-14T13:22:02Z</time>
</trkpt>
<trkpt lat="39.6657205" lon="3.0981345">
<ele>75.98</ele>
<time>2016-10-14T13:22:05Z</time>
</trkpt>
<trkpt lat="39.6659060" lon="3.0981630">
<ele>75.53</ele>
<time>2016-10-14T13:22:07Z</time>
</trkpt>
<trkpt lat="39.6661624" lon="3.0982042">
<ele>74.59</ele>
<time>2016-10-14T13:22:10Z</time>
</trkpt>
<trkpt lat="39.6663501" lon="3.0982349">
<ele>74.15</ele>
<time>2016-10-14T13:22:12Z</time>
</trkpt>
<trkpt lat="39.6665453" lon="3.0982702">
<ele>73.89</ele>
<time>2016-10-14T13:22:14Z</time>
</trkpt>
<trkpt lat="39.6668081" lon="3.0983026">
<ele>74.44</ele>
<time>2016-10-14T13:22:17Z</time>
</trkpt>
<trkpt lat="39.6670622" lon="3.0983455">
<ele>74.65</ele>
<time>2016-10-14T13:22:20Z</time>
</trkpt>
<trkpt lat="39.6673106" lon="3.0983830">
<ele>74.74</ele>
<time>2016-10-14T13:22:23Z</time>
</trkpt>
<trkpt lat="39.6675453" lon="3.0984152">
<ele>75.45</ele>
<time>2016-10-14T13:22:26Z</time>
</trkpt>
<trkpt lat="39.6677825" lon="3.0984706">
<ele>75.50</ele>
<time>2016-10-14T13:22:29Z</time>
</trkpt>
<trkpt lat="39.6680102" lon="3.0985252">
<ele>74.56</ele>
<time>2016-10-14T13:22:32Z</time>
</trkpt>
<trkpt lat="39.6682294" lon="3.0985795">
<ele>73.36</ele>
<time>2016-10-14T13:22:35Z</time>
</trkpt>
<trkpt lat="39.6684505" lon="3.0986093">
<ele>73.88</ele>
<time>2016-10-14T13:22:38Z</time>
</trkpt>
<trkpt lat="39.6686626" lon="3.0986371">
<ele>74.47</ele>
<time>2016-10-14T13:22:41Z</time>
</trkpt>
<trkpt lat="39.6688605" lon="3.0986693">
<ele>74.35</ele>
<time>2016-10-14T13:22:44Z</time>
</trkpt>
<trkpt lat="39.6691031" lon="3.0987331">
<ele>71.95</ele>
<time>2016-10-14T13:22:48Z</time>
</trkpt>
<trkpt lat="39.6693141" lon="3.0987719">
<ele>70.77</ele>
<time>2016-10-14T13:22:51Z</time>
</trkpt>
<trkpt lat="39.6695152" lon="3.0988060">
<ele>71.08</ele>
<time>2016-10-14T13:22:54Z</time>
</trkpt>
<trkpt lat="39.6697136" lon="3.0988245">
<ele>72.65</ele>
<time>2016-10-14T13:22:57Z</time>
</trkpt>
<trkpt lat="39.6699164" lon="3.0988497">
<ele>73.62</ele>
<time>2016-10-14T13:23:00Z</time>
</trkpt>
<trkpt lat="39.6701180" lon="3.0988863">
<ele>72.94</ele>
<time>2016-10-14T13:23:03Z</time>
</trkpt>
<trkpt lat="39.6703237" lon="3.0989182">
<ele>71.33</ele>
<time>2016-10-14T13:23:06Z</time>
</trkpt>
<trkpt lat="39.6705176" lon="3.0989426">
<ele>69.65</ele>
<time>2016-10-14T13:23:09Z</time>
</trkpt>
<trkpt lat="39.6707013" lon="3.0989980">
<ele>68.87</ele>
<time>2016-10-14T13:23:12Z</time>
</trkpt>
<trkpt lat="39.6708942" lon="3.0990459">
<ele>70.61</ele>
<time>2016-10-14T13:23:15Z</time>
</trkpt>
<trkpt lat="39.6710716" lon="3.0990921">
<ele>73.74</ele>
<time>2016-10-14T13:23:18Z</time>
</trkpt>
<trkpt lat="39.6712527" lon="3.0991476">
<ele>75.16</ele>
<time>2016-10-14T13:23:21Z</time>
</trkpt>
<trkpt lat="39.6714893" lon="3.0992073">
<ele>72.79</ele>
<time>2016-10-14T13:23:25Z</time>
</trkpt>
<trkpt lat="39.6716739" lon="3.0992501">
<ele>72.20</ele>
<time>2016-10-14T13:23:29Z</time>
</trkpt>
<trkpt lat="39.6718570" lon="3.0992633">
<ele>72.84</ele>
<time>2016-10-14T13:23:33Z</time>
</trkpt>
<trkpt lat="39.6720695" lon="3.0992650">
<ele>75.82</ele>
<time>2016-10-14T13:23:37Z</time>
</trkpt>
<trkpt lat="39.6722673" lon="3.0992697">
<ele>78.90</ele>
<time>2016-10-14T13:23:41Z</time>
</trkpt>
<trkpt lat="39.6724789" lon="3.0992855">
<ele>79.89</ele>
<time>2016-10-14T13:23:45Z</time>
</trkpt>
<trkpt lat="39.6726920" lon="3.0992998">
<ele>79.74</ele>
<time>2016-10-14T13:23:49Z</time>
</trkpt>
<trkpt lat="39.6728952" lon="3.0993338">
<ele>79.01</ele>
<time>2016-10-14T13:23:53Z</time>
</trkpt>
<trkpt lat="39.6730772" lon="3.0993873">
<ele>80.04</ele>
<time>2016-10-14T13:23:57Z</time>
</trkpt>
<trkpt lat="39.6732778" lon="3.0994182">
<ele>80.48</ele>
<time>2016-10-14T13:24:01Z</time>
</trkpt>
<trkpt lat="39.6734820" lon="3.0994236">
<ele>81.66</ele>
<time>2016-10-14T13:24:05Z</time>
</trkpt>
<trkpt lat="39.6736998" lon="3.0994386">
<ele>81.82</ele>
<time>2016-10-14T13:24:09Z</time>
</trkpt>
<trkpt lat="39.6739077" lon="3.0994591">
<ele>84.89</ele>
<time>2016-10-14T13:24:13Z</time>
</trkpt>
<trkpt lat="39.6741383" lon="3.0994918">
<ele>86.32</ele>
<time>2016-10-14T13:24:17Z</time>
</trkpt>
<trkpt lat="39.6743751" lon="3.0995195">
<ele>87.16</ele>
<time>2016-10-14T13:24:21Z</time>
</trkpt>
<trkpt lat="39.6745533" lon="3.0995601">
<ele>86.42</ele>
<time>2016-10-14T13:24:24Z</time>
</trkpt>
<trkpt lat="39.6747904" lon="3.0996084">
<ele>85.78</ele>
<time>2016-10-14T13:24:28Z</time>
</trkpt>
<trkpt lat="39.6749786" lon="3.0996272">
<ele>86.27</ele>
<time>2016-10-14T13:24:31Z</time>
</trkpt>
<trkpt lat="39.6751627" lon="3.0996661">
<ele>85.21</ele>
<time>2016-10-14T13:24:34Z</time>
</trkpt>
<trkpt lat="39.6753602" lon="3.0996946">
<ele>84.87</ele>
<time>2016-10-14T13:24:37Z</time>
</trkpt>
<trkpt lat="39.6755418" lon="3.0997288">
<ele>84.50</ele>
<time>2016-10-14T13:24:40Z</time>
</trkpt>
<trkpt lat="39.6757355" lon="3.0997567">
<ele>84.41</ele>
<time>2016-10-14T13:24:43Z</time>
</trkpt>
<trkpt lat="39.6759159" lon="3.0997768">
<ele>85.11</ele>
<time>2016-10-14T13:24:46Z</time>
</trkpt>
<trkpt lat="39.6760988" lon="3.0998009">
<ele>85.68</ele>
<time>2016-10-14T13:24:49Z</time>
</trkpt>
<trkpt lat="39.6762799" lon="3.0998236">
<ele>86.18</ele>
<time>2016-10-14T13:24:52Z</time>
</trkpt>
<trkpt lat="39.6764680" lon="3.0998668">
<ele>85.26</ele>
<time>2016-10-14T13:24:55Z</time>
</trkpt>
<trkpt lat="39.6766470" lon="3.0998943">
<ele>85.39</ele>
<time>2016-10-14T13:24:58Z</time>
</trkpt>
<trkpt lat="39.6768720" lon="3.0999375">
<ele>85.13</ele>
<time>2016-10-14T13:25:02Z</time>
</trkpt>
<trkpt lat="39.6771181" lon="3.0999669">
<ele>85.74</ele>
<time>2016-10-14T13:25:06Z</time>
</trkpt>
<trkpt lat="39.6773544" lon="3.1000215">
<ele>86.80</ele>
<time>2016-10-14T13:25:10Z</time>
</trkpt>
<trkpt lat="39.6775815" lon="3.1000616">
<ele>88.76</ele>
<time>2016-10-14T13:25:14Z</time>
</trkpt>
<trkpt lat="39.6778147" lon="3.1000860">
<ele>89.73</ele>
<time>2016-10-14T13:25:18Z</time>
</trkpt>
<trkpt lat="39.6780486" lon="3.1001045">
<ele>91.33</ele>
<time>2016-10-14T13:25:22Z</time>
</trkpt>
<trkpt lat="39.6782502" lon="3.1001070">
<ele>92.22</ele>
<time>2016-10-14T13:25:25Z</time>
</trkpt>
<trkpt lat="39.6784439" lon="3.1000920">
<ele>90.36</ele>
<time>2016-10-14T13:25:28Z</time>
</trkpt>
<trkpt lat="39.6786453" lon="3.1000701">
<ele>88.89</ele>
<time>2016-10-14T13:25:31Z</time>
</trkpt>
<trkpt lat="39.6788606" lon="3.1000574">
<ele>86.24</ele>
<time>2016-10-14T13:25:35Z</time>
</trkpt>
<trkpt lat="39.6790510" lon="3.1000500">
<ele>86.72</ele>
<time>2016-10-14T13:25:38Z</time>
</trkpt>
<trkpt lat="39.6792307" lon="3.1000328">
<ele>88.44</ele>
<time>2016-10-14T13:25:41Z</time>
</trkpt>
<trkpt lat="39.6794315" lon="3.1000182">
<ele>89.27</ele>
<time>2016-10-14T13:25:44Z</time>
</trkpt>
<trkpt lat="39.6796705" lon="3.0999931">
<ele>89.99</ele>
<time>2016-10-14T13:25:48Z</time>
</trkpt>
<trkpt lat="39.6798635" lon="3.0999751">
<ele>89.83</ele>
<time>2016-10-14T13:25:51Z</time>
</trkpt>
<trkpt lat="39.6800699" lon="3.0999540">
<ele>89.76</ele>
<time>2016-10-14T13:25:54Z</time>
</trkpt>
<trkpt lat="39.6802518" lon="3.0999514">
<ele>89.04</ele>
<time>2016-10-14T13:25:57Z</time>
</trkpt>
<trkpt lat="39.6804487" lon="3.0999488">
<ele>90.48</ele>
<time>2016-10-14T13:26:00Z</time>
</trkpt>
<trkpt lat="39.6806636" lon="3.0999687">
<ele>90.89</ele>
<time>2016-10-14T13:26:03Z</time>
</trkpt>
<trkpt lat="39.6808789" lon="3.1000003">
<ele>91.57</ele>
<time>2016-10-14T13:26:06Z</time>
</trkpt>
<trkpt lat="39.6811065" lon="3.1000370">
<ele>93.36</ele>
<time>2016-10-14T13:26:09Z</time>
</trkpt>
<trkpt lat="39.6813257" lon="3.1000830">
<ele>93.58</ele>
<time>2016-10-14T13:26:12Z</time>
</trkpt>
<trkpt lat="39.6815377" lon="3.1001264">
<ele>93.53</ele>
<time>2016-10-14T13:26:15Z</time>
</trkpt>
<trkpt lat="39.6817637" lon="3.1001812">
<ele>93.45</ele>
<time>2016-10-14T13:26:19Z</time>
</trkpt>
<trkpt lat="39.6819928" lon="3.1002500">
<ele>93.05</ele>
<time>2016-10-14T13:26:22Z</time>
</trkpt>
<trkpt lat="39.6822150" lon="3.1003138">
<ele>92.67</ele>
<time>2016-10-14T13:26:25Z</time>
</trkpt>
<trkpt lat="39.6824334" lon="3.1003673">
<ele>92.48</ele>
<time>2016-10-14T13:26:28Z</time>
</trkpt>
<trkpt lat="39.6826558" lon="3.1004371">
<ele>90.47</ele>
<time>2016-10-14T13:26:31Z</time>
</trkpt>
<trkpt lat="39.6828853" lon="3.1004878">
<ele>89.55</ele>
<time>2016-10-14T13:26:34Z</time>
</trkpt>
<trkpt lat="39.6831182" lon="3.1005246">
<ele>89.13</ele>
<time>2016-10-14T13:26:37Z</time>
</trkpt>
<trkpt lat="39.6833151" lon="3.1005764">
<ele>88.75</ele>
<time>2016-10-14T13:26:40Z</time>
</trkpt>
<trkpt lat="39.6835377" lon="3.1006330">
<ele>88.55</ele>
<time>2016-10-14T13:26:43Z</time>
</trkpt>
<trkpt lat="39.6837400" lon="3.1006701">
<ele>88.65</ele>
<time>2016-10-14T13:26:46Z</time>
</trkpt>
<trkpt lat="39.6839201" lon="3.1007165">
<ele>87.34</ele>
<time>2016-10-14T13:26:49Z</time>
</trkpt>
<trkpt lat="39.6841235" lon="3.1007923">
<ele>84.25</ele>
<time>2016-10-14T13:26:52Z</time>
</trkpt>
<trkpt lat="39.6843556" lon="3.1008720">
<ele>80.67</ele>
<time>2016-10-14T13:26:55Z</time>
</trkpt>
<trkpt lat="39.6846041" lon="3.1009433">
<ele>75.59</ele>
<time>2016-10-14T13:26:58Z</time>
</trkpt>
<trkpt lat="39.6848388" lon="3.1009767">
<ele>71.74</ele>
<time>2016-10-14T13:27:01Z</time>
</trkpt>
<trkpt lat="39.6850598" lon="3.1010253">
<ele>67.61</ele>
<time>2016-10-14T13:27:04Z</time>
</trkpt>
<trkpt lat="39.6853083" lon="3.1011011">
<ele>61.51</ele>
<time>2016-10-14T13:27:07Z</time>
</trkpt>
<trkpt lat="39.6855499" lon="3.1011874">
<ele>53.73</ele>
<time>2016-10-14T13:27:10Z</time>
</trkpt>
<trkpt lat="39.6857255" lon="3.1012480">
<ele>47.63</ele>
<time>2016-10-14T13:27:12Z</time>
</trkpt>
<trkpt lat="39.6859839" lon="3.1013255">
<ele>38.49</ele>
<time>2016-10-14T13:27:15Z</time>
</trkpt>
<trkpt lat="39.6862334" lon="3.1013929">
<ele>29.69</ele>
<time>2016-10-14T13:27:18Z</time>
</trkpt>
<trkpt lat="39.6864632" lon="3.1014533">
<ele>22.93</ele>
<time>2016-10-14T13:27:21Z</time>
</trkpt>
<trkpt lat="39.6866810" lon="3.1015000">
<ele>18.45</ele>
<time>2016-10-14T13:27:24Z</time>
</trkpt>
<trkpt lat="39.6868944" lon="3.1015472">
<ele>16.06</ele>
<time>2016-10-14T13:27:27Z</time>
</trkpt>
<trkpt lat="39.6871079" lon="3.1016071">
<ele>14.38</ele>
<time>2016-10-14T13:27:30Z</time>
</trkpt>
<trkpt lat="39.6873256" lon="3.1016630">
<ele>13.26</ele>
<time>2016-10-14T13:27:33Z</time>
</trkpt>
<trkpt lat="39.6875395" lon="3.1017187">
<ele>10.91</ele>
<time>2016-10-14T13:27:36Z</time>
</trkpt>
<trkpt lat="39.6877562" lon="3.1017860">
<ele>6.70</ele>
<time>2016-10-14T13:27:39Z</time>
</trkpt>
<trkpt lat="39.6879728" lon="3.1018503">
<ele>3.19</ele>
<time>2016-10-14T13:27:42Z</time>
</trkpt>
<trkpt lat="39.6881956" lon="3.1019164">
<ele>1.66</ele>
<time>2016-10-14T13:27:45Z</time>
</trkpt>
<trkpt lat="39.6884304" lon="3.1019785">
<ele>1.37</ele>
<time>2016-10-14T13:27:48Z</time>
</trkpt>
<trkpt lat="39.6886619" lon="3.1020216">
<ele>2.33</ele>
<time>2016-10-14T13:27:51Z</time>
</trkpt>
<trkpt lat="39.6888817" lon="3.1020565">
<ele>2.45</ele>
<time>2016-10-14T13:27:54Z</time>
</trkpt>
<trkpt lat="39.6890865" lon="3.1021014">
<ele>0.71</ele>
<time>2016-10-14T13:27:57Z</time>
</trkpt>
<trkpt lat="39.6892818" lon="3.1021274">
<ele>2.00</ele>
<time>2016-10-14T13:28:00Z</time>
</trkpt>
<trkpt lat="39.6894863" lon="3.1021685">
<ele>5.92</ele>
<time>2016-10-14T13:28:03Z</time>
</trkpt>
<trkpt lat="39.6896987" lon="3.1022054">
<ele>8.70</ele>
<time>2016-10-14T13:28:06Z</time>
</trkpt>
<trkpt lat="39.6899089" lon="3.1022359">
<ele>11.03</ele>
<time>2016-10-14T13:28:09Z</time>
</trkpt>
<trkpt lat="39.6901195" lon="3.1022695">
<ele>13.56</ele>
<time>2016-10-14T13:28:12Z</time>
</trkpt>
<trkpt lat="39.6903281" lon="3.1023081">
<ele>13.45</ele>
<time>2016-10-14T13:28:15Z</time>
</trkpt>
<trkpt lat="39.6905264" lon="3.1023490">
<ele>13.86</ele>
<time>2016-10-14T13:28:18Z</time>
</trkpt>
<trkpt lat="39.6907202" lon="3.1023893">
<ele>15.13</ele>
<time>2016-10-14T13:28:21Z</time>
</trkpt>
<trkpt lat="39.6909162" lon="3.1024267">
<ele>16.88</ele>
<time>2016-10-14T13:28:24Z</time>
</trkpt>
<trkpt lat="39.6911158" lon="3.1024810">
<ele>16.45</ele>
<time>2016-10-14T13:28:27Z</time>
</trkpt>
<trkpt lat="39.6913225" lon="3.1025290">
<ele>16.54</ele>
<time>2016-10-14T13:28:30Z</time>
</trkpt>
<trkpt lat="39.6915410" lon="3.1025687">
<ele>16.57</ele>
<time>2016-10-14T13:28:33Z</time>
</trkpt>
<trkpt lat="39.6917667" lon="3.1026134">
<ele>15.71</ele>
<time>2016-10-14T13:28:36Z</time>
</trkpt>
<trkpt lat="39.6919865" lon="3.1026731">
<ele>15.37</ele>
<time>2016-10-14T13:28:39Z</time>
</trkpt>
<trkpt lat="39.6922101" lon="3.1027376">
<ele>13.88</ele>
<time>2016-10-14T13:28:42Z</time>
</trkpt>
<trkpt lat="39.6924279" lon="3.1027911">
<ele>13.01</ele>
<time>2016-10-14T13:28:45Z</time>
</trkpt>
<trkpt lat="39.6926325" lon="3.1028320">
<ele>13.88</ele>
<time>2016-10-14T13:28:48Z</time>
</trkpt>
<trkpt lat="39.6928335" lon="3.1028769">
<ele>14.18</ele>
<time>2016-10-14T13:28:51Z</time>
</trkpt>
<trkpt lat="39.6930457" lon="3.1029359">
<ele>12.28</ele>
<time>2016-10-14T13:28:54Z</time>
</trkpt>
<trkpt lat="39.6932514" lon="3.1029805">
<ele>10.29</ele>
<time>2016-10-14T13:28:57Z</time>
</trkpt>
<trkpt lat="39.6934537" lon="3.1030073">
<ele>9.82</ele>
<time>2016-10-14T13:29:00Z</time>
</trkpt>
<trkpt lat="39.6936563" lon="3.1030372">
<ele>9.48</ele>
<time>2016-10-14T13:29:03Z</time>
</trkpt>
<trkpt lat="39.6938712" lon="3.1030699">
<ele>9.32</ele>
<time>2016-10-14T13:29:06Z</time>
</trkpt>
<trkpt lat="39.6940889" lon="3.1031045">
<ele>8.62</ele>
<time>2016-10-14T13:29:09Z</time>
</trkpt>
<trkpt lat="39.6942991" lon="3.1031331">
<ele>10.52</ele>
<time>2016-10-14T13:29:12Z</time>
</trkpt>
<trkpt lat="39.6944962" lon="3.1031659">
<ele>12.88</ele>
<time>2016-10-14T13:29:15Z</time>
</trkpt>
<trkpt lat="39.6946850" lon="3.1031805">
<ele>14.53</ele>
<time>2016-10-14T13:29:18Z</time>
</trkpt>
<trkpt lat="39.6948659" lon="3.1031315">
<ele>17.67</ele>
<time>2016-10-14T13:29:21Z</time>
</trkpt>
<trkpt lat="39.6950262" lon="3.1029985">
<ele>23.66</ele>
<time>2016-10-14T13:29:24Z</time>
</trkpt>
<trkpt lat="39.6951209" lon="3.1027616">
<ele>53.76</ele>
<time>2016-10-14T13:29:28Z</time>
</trkpt>
<trkpt lat="39.6952655" lon="3.1025540">
<ele>68.85</ele>
<time>2016-10-14T13:29:31Z</time>
</trkpt>
<trkpt lat="39.6954372" lon="3.1023247">
<ele>72.55</ele>
<time>2016-10-14T13:29:34Z</time>
</trkpt>
<trkpt lat="39.6956196" lon="3.1021116">
<ele>72.11</ele>
<time>2016-10-14T13:29:37Z</time>
</trkpt>
<trkpt lat="39.6957961" lon="3.1019273">
<ele>68.63</ele>
<time>2016-10-14T13:29:40Z</time>
</trkpt>
<trkpt lat="39.6959601" lon="3.1017657">
<ele>66.33</ele>
<time>2016-10-14T13:29:43Z</time>
</trkpt>
<trkpt lat="39.6961208" lon="3.1015988">
<ele>70.02</ele>
<time>2016-10-14T13:29:46Z</time>
</trkpt>
<trkpt lat="39.6962788" lon="3.1014374">
<ele>74.00</ele>
<time>2016-10-14T13:29:49Z</time>
</trkpt>
<trkpt lat="39.6964407" lon="3.1012693">
<ele>77.69</ele>
<time>2016-10-14T13:29:52Z</time>
</trkpt>
<trkpt lat="39.6966080" lon="3.1010904">
<ele>79.99</ele>
<time>2016-10-14T13:29:55Z</time>
</trkpt>
<trkpt lat="39.6967799" lon="3.1009259">
<ele>79.02</ele>
<time>2016-10-14T13:29:58Z</time>
</trkpt>
<trkpt lat="39.6969392" lon="3.1007813">
<ele>73.25</ele>
<time>2016-10-14T13:30:01Z</time>
</trkpt>
<trkpt lat="39.6971376" lon="3.1006684">
<ele>68.79</ele>
<time>2016-10-14T13:30:04Z</time>
</trkpt>
<trkpt lat="39.6973514" lon="3.1006108">
<ele>70.06</ele>
<time>2016-10-14T13:30:07Z</time>
</trkpt>
<trkpt lat="39.6975665" lon="3.1006164">
<ele>79.63</ele>
<time>2016-10-14T13:30:11Z</time>
</trkpt>
<trkpt lat="39.6977454" lon="3.1006677">
<ele>83.74</ele>
<time>2016-10-14T13:30:14Z</time>
</trkpt>
<trkpt lat="39.6979586" lon="3.1007527">
<ele>87.04</ele>
<time>2016-10-14T13:30:17Z</time>
</trkpt>
<trkpt lat="39.6981459" lon="3.1008484">
<ele>88.53</ele>
<time>2016-10-14T13:30:20Z</time>
</trkpt>
<trkpt lat="39.6983134" lon="3.1009440">
<ele>87.14</ele>
<time>2016-10-14T13:30:23Z</time>
</trkpt>
<trkpt lat="39.6984936" lon="3.1010315">
<ele>85.50</ele>
<time>2016-10-14T13:30:26Z</time>
</trkpt>
<trkpt lat="39.6987201" lon="3.1011402">
<ele>85.65</ele>
<time>2016-10-14T13:30:29Z</time>
</trkpt>
<trkpt lat="39.6989527" lon="3.1012105">
<ele>87.85</ele>
<time>2016-10-14T13:30:32Z</time>
</trkpt>
<trkpt lat="39.6991884" lon="3.1012502">
<ele>89.41</ele>
<time>2016-10-14T13:30:35Z</time>
</trkpt>
<trkpt lat="39.6993869" lon="3.1012662">
<ele>90.30</ele>
<time>2016-10-14T13:30:38Z</time>
</trkpt>
<trkpt lat="39.6995873" lon="3.1012668">
<ele>89.55</ele>
<time>2016-10-14T13:30:41Z</time>
</trkpt>
<trkpt lat="39.6997899" lon="3.1012633">
<ele>88.59</ele>
<time>2016-10-14T13:30:44Z</time>
</trkpt>
<trkpt lat="39.7000157" lon="3.1012718">
<ele>88.22</ele>
<time>2016-10-14T13:30:47Z</time>
</trkpt>
<trkpt lat="39.7002343" lon="3.1012701">
<ele>87.59</ele>
<time>2016-10-14T13:30:50Z</time>
</trkpt>
<trkpt lat="39.7004501" lon="3.1012726">
<ele>87.40</ele>
<time>2016-10-14T13:30:53Z</time>
</trkpt>
<trkpt lat="39.7006464" lon="3.1012741">
<ele>86.89</ele>
<time>2016-10-14T13:30:56Z</time>
</trkpt>
<trkpt lat="39.7008880" lon="3.1012708">
<ele>85.26</ele>
<time>2016-10-14T13:31:00Z</time>
</trkpt>
<trkpt lat="39.7011039" lon="3.1012709">
<ele>83.94</ele>
<time>2016-10-14T13:31:03Z</time>
</trkpt>
<trkpt lat="39.7013279" lon="3.1012486">
<ele>84.97</ele>
<time>2016-10-14T13:31:07Z</time>
</trkpt>
<trkpt lat="39.7015333" lon="3.1012441">
<ele>83.61</ele>
<time>2016-10-14T13:31:11Z</time>
</trkpt>
<trkpt lat="39.7017201" lon="3.1012331">
<ele>83.45</ele>
<time>2016-10-14T13:31:14Z</time>
</trkpt>
<trkpt lat="39.7019153" lon="3.1012069">
<ele>84.18</ele>
<time>2016-10-14T13:31:17Z</time>
</trkpt>
<trkpt lat="39.7021182" lon="3.1011685">
<ele>83.78</ele>
<time>2016-10-14T13:31:20Z</time>
</trkpt>
<trkpt lat="39.7023525" lon="3.1011068">
<ele>79.33</ele>
<time>2016-10-14T13:31:23Z</time>
</trkpt>
<trkpt lat="39.7025971" lon="3.1010400">
<ele>75.71</ele>
<time>2016-10-14T13:31:26Z</time>
</trkpt>
<trkpt lat="39.7027895" lon="3.1009736">
<ele>73.84</ele>
<time>2016-10-14T13:31:28Z</time>
</trkpt>
<trkpt lat="39.7030516" lon="3.1008680">
<ele>71.54</ele>
<time>2016-10-14T13:31:31Z</time>
</trkpt>
<trkpt lat="39.7032504" lon="3.1007745">
<ele>71.99</ele>
<time>2016-10-14T13:31:33Z</time>
</trkpt>
<trkpt lat="39.7034240" lon="3.1006863">
<ele>72.79</ele>
<time>2016-10-14T13:31:35Z</time>
</trkpt>
<trkpt lat="39.7036857" lon="3.1005866">
<ele>71.27</ele>
<time>2016-10-14T13:31:38Z</time>
</trkpt>
<trkpt lat="39.7039304" lon="3.1005601">
<ele>69.77</ele>
<time>2016-10-14T13:31:40Z</time>
</trkpt>
<trkpt lat="39.7041396" lon="3.1005847">
<ele>68.50</ele>
<time>2016-10-14T13:31:42Z</time>
</trkpt>
<trkpt lat="39.7043293" lon="3.1006297">
<ele>66.64</ele>
<time>2016-10-14T13:31:44Z</time>
</trkpt>
<trkpt lat="39.7046161" lon="3.1007258">
<ele>64.36</ele>
<time>2016-10-14T13:31:47Z</time>
</trkpt>
<trkpt lat="39.7048011" lon="3.1007925">
<ele>61.90</ele>
<time>2016-10-14T13:31:49Z</time>
</trkpt>
<trkpt lat="39.7050037" lon="3.1008423">
<ele>57.78</ele>
<time>2016-10-14T13:31:51Z</time>
</trkpt>
<trkpt lat="39.7052300" lon="3.1008187">
<ele>52.75</ele>
<time>2016-10-14T13:31:53Z</time>
</trkpt>
<trkpt lat="39.7054108" lon="3.1007565">
<ele>51.26</ele>
<time>2016-10-14T13:31:55Z</time>
</trkpt>
<trkpt lat="39.7056248" lon="3.1005768">
<ele>54.05</ele>
<time>2016-10-14T13:31:58Z</time>
</trkpt>
<trkpt lat="39.7057609" lon="3.1003912">
<ele>57.39</ele>
<time>2016-10-14T13:32:00Z</time>
</trkpt>
<trkpt lat="39.7058820" lon="3.1002110">
<ele>60.72</ele>
<time>2016-10-14T13:32:02Z</time>
</trkpt>
<trkpt lat="39.7060064" lon="3.1000300">
<ele>62.87</ele>
<time>2016-10-14T13:32:04Z</time>
</trkpt>
<trkpt lat="39.7061289" lon="3.0997873">
<ele>57.65</ele>
<time>2016-10-14T13:32:07Z</time>
</trkpt>
<trkpt lat="39.7063446" lon="3.0998203">
<ele>43.14</ele>
<time>2016-10-14T13:32:13Z</time>
</trkpt>
<trkpt lat="39.7064367" lon="3.1000883">
<ele>37.83</ele>
<time>2016-10-14T13:32:17Z</time>
</trkpt>
<trkpt lat="39.7064894" lon="3.1003130">
<ele>36.76</ele>
<time>2016-10-14T13:32:20Z</time>
</trkpt>
<trkpt lat="39.7065450" lon="3.1005450">
<ele>36.98</ele>
<time>2016-10-14T13:32:23Z</time>
</trkpt>
<trkpt lat="39.7066017" lon="3.1007846">
<ele>37.50</ele>
<time>2016-10-14T13:32:26Z</time>
</trkpt>
<trkpt lat="39.7066521" lon="3.1010300">
<ele>37.66</ele>
<time>2016-10-14T13:32:29Z</time>
</trkpt>
<trkpt lat="39.7066921" lon="3.1012708">
<ele>38.30</ele>
<time>2016-10-14T13:32:32Z</time>
</trkpt>
<trkpt lat="39.7067324" lon="3.1015223">
<ele>39.11</ele>
<time>2016-10-14T13:32:35Z</time>
</trkpt>
<trkpt lat="39.7067721" lon="3.1017740">
<ele>39.60</ele>
<time>2016-10-14T13:32:38Z</time>
</trkpt>
<trkpt lat="39.7068081" lon="3.1020306">
<ele>40.11</ele>
<time>2016-10-14T13:32:41Z</time>
</trkpt>
<trkpt lat="39.7068483" lon="3.1023146">
<ele>43.13</ele>
<time>2016-10-14T13:32:44Z</time>
</trkpt>
<trkpt lat="39.7068840" lon="3.1025525">
<ele>46.64</ele>
<time>2016-10-14T13:32:47Z</time>
</trkpt>
<trkpt lat="39.7069432" lon="3.1028549">
<ele>50.16</ele>
<time>2016-10-14T13:32:51Z</time>
</trkpt>
<trkpt lat="39.7070031" lon="3.1031192">
<ele>53.07</ele>
<time>2016-10-14T13:32:55Z</time>
</trkpt>
<trkpt lat="39.7070646" lon="3.1033455">
<ele>53.98</ele>
<time>2016-10-14T13:32:58Z</time>
</trkpt>
<trkpt lat="39.7071394" lon="3.1035811">
<ele>52.43</ele>
<time>2016-10-14T13:33:01Z</time>
</trkpt>
<trkpt lat="39.7072359" lon="3.1038025">
<ele>52.09</ele>
<time>2016-10-14T13:33:04Z</time>
</trkpt>
<trkpt lat="39.7073758" lon="3.1040557">
<ele>53.29</ele>
<time>2016-10-14T13:33:07Z</time>
</trkpt>
<trkpt lat="39.7075140" lon="3.1042668">
<ele>55.35</ele>
<time>2016-10-14T13:33:10Z</time>
</trkpt>
<trkpt lat="39.7076624" lon="3.1044612">
<ele>56.79</ele>
<time>2016-10-14T13:33:13Z</time>
</trkpt>
<trkpt lat="39.7078208" lon="3.1046524">
<ele>57.04</ele>
<time>2016-10-14T13:33:16Z</time>
</trkpt>
<trkpt lat="39.7079915" lon="3.1048288">
<ele>57.76</ele>
<time>2016-10-14T13:33:19Z</time>
</trkpt>
<trkpt lat="39.7081553" lon="3.1050114">
<ele>59.11</ele>
<time>2016-10-14T13:33:22Z</time>
</trkpt>
<trkpt lat="39.7083130" lon="3.1052065">
<ele>60.16</ele>
<time>2016-10-14T13:33:25Z</time>
</trkpt>
<trkpt lat="39.7084615" lon="3.1053905">
<ele>60.34</ele>
<time>2016-10-14T13:33:28Z</time>
</trkpt>
<trkpt lat="39.7086227" lon="3.1055928">
<ele>60.71</ele>
<time>2016-10-14T13:33:31Z</time>
</trkpt>
<trkpt lat="39.7087772" lon="3.1057881">
<ele>60.69</ele>
<time>2016-10-14T13:33:34Z</time>
</trkpt>
<trkpt lat="39.7089242" lon="3.1059706">
<ele>61.43</ele>
<time>2016-10-14T13:33:37Z</time>
</trkpt>
<trkpt lat="39.7090698" lon="3.1061357">
<ele>61.12</ele>
<time>2016-10-14T13:33:40Z</time>
</trkpt>
<trkpt lat="39.7092463" lon="3.1063413">
<ele>60.59</ele>
<time>2016-10-14T13:33:44Z</time>
</trkpt>
<trkpt lat="39.7093921" lon="3.1065023">
<ele>59.71</ele>
<time>2016-10-14T13:33:48Z</time>
</trkpt>
<trkpt lat="39.7095798" lon="3.1066627">
<ele>58.67</ele>
<time>2016-10-14T13:33:53Z</time>
</trkpt>
<trkpt lat="39.7097374" lon="3.1067970">
<ele>57.60</ele>
<time>2016-10-14T13:33:57Z</time>
</trkpt>
<trkpt lat="39.7099195" lon="3.1069202">
<ele>54.74</ele>
<time>2016-10-14T13:34:02Z</time>
</trkpt>
<trkpt lat="39.7100996" lon="3.1070298">
<ele>54.07</ele>
<time>2016-10-14T13:34:05Z</time>
</trkpt>
<trkpt lat="39.7102864" lon="3.1071339">
<ele>57.89</ele>
<time>2016-10-14T13:34:11Z</time>
</trkpt>
<trkpt lat="39.7104684" lon="3.1072160">
<ele>59.90</ele>
<time>2016-10-14T13:34:15Z</time>
</trkpt>
<trkpt lat="39.7106422" lon="3.1073124">
<ele>60.33</ele>
<time>2016-10-14T13:34:18Z</time>
</trkpt>
<trkpt lat="39.7108453" lon="3.1074442">
<ele>61.55</ele>
<time>2016-10-14T13:34:22Z</time>
</trkpt>
<trkpt lat="39.7110506" lon="3.1075691">
<ele>62.33</ele>
<time>2016-10-14T13:34:26Z</time>
</trkpt>
<trkpt lat="39.7112400" lon="3.1076947">
<ele>62.44</ele>
<time>2016-10-14T13:34:29Z</time>
</trkpt>
<trkpt lat="39.7114282" lon="3.1078149">
<ele>60.55</ele>
<time>2016-10-14T13:34:32Z</time>
</trkpt>
<trkpt lat="39.7116253" lon="3.1079367">
<ele>57.33</ele>
<time>2016-10-14T13:34:35Z</time>
</trkpt>
<trkpt lat="39.7118499" lon="3.1080840">
<ele>53.04</ele>
<time>2016-10-14T13:34:38Z</time>
</trkpt>
<trkpt lat="39.7120143" lon="3.1081994">
<ele>50.15</ele>
<time>2016-10-14T13:34:40Z</time>
</trkpt>
<trkpt lat="39.7121785" lon="3.1083201">
<ele>46.93</ele>
<time>2016-10-14T13:34:42Z</time>
</trkpt>
<trkpt lat="39.7123341" lon="3.1084396">
<ele>44.21</ele>
<time>2016-10-14T13:34:44Z</time>
</trkpt>
<trkpt lat="39.7125515" lon="3.1086130">
<ele>41.17</ele>
<time>2016-10-14T13:34:47Z</time>
</trkpt>
<trkpt lat="39.7127657" lon="3.1087854">
<ele>39.16</ele>
<time>2016-10-14T13:34:50Z</time>
</trkpt>
<trkpt lat="39.7129781" lon="3.1089415">
<ele>38.31</ele>
<time>2016-10-14T13:34:53Z</time>
</trkpt>
<trkpt lat="39.7131808" lon="3.1090719">
<ele>38.01</ele>
<time>2016-10-14T13:34:56Z</time>
</trkpt>
<trkpt lat="39.7133928" lon="3.1091943">
<ele>37.64</ele>
<time>2016-10-14T13:34:59Z</time>
</trkpt>
<trkpt lat="39.7136190" lon="3.1092997">
<ele>36.66</ele>
<time>2016-10-14T13:35:02Z</time>
</trkpt>
<trkpt lat="39.7138566" lon="3.1093830">
<ele>35.49</ele>
<time>2016-10-14T13:35:05Z</time>
</trkpt>
<trkpt lat="39.7141151" lon="3.1094416">
<ele>34.31</ele>
<time>2016-10-14T13:35:08Z</time>
</trkpt>
<trkpt lat="39.7143845" lon="3.1094835">
<ele>33.17</ele>
<time>2016-10-14T13:35:11Z</time>
</trkpt>
<trkpt lat="39.7146109" lon="3.1095364">
<ele>34.37</ele>
<time>2016-10-14T13:35:13Z</time>
</trkpt>
<trkpt lat="39.7148115" lon="3.1095513">
<ele>35.38</ele>
<time>2016-10-14T13:35:15Z</time>
</trkpt>
<trkpt lat="39.7150270" lon="3.1095554">
<ele>35.61</ele>
<time>2016-10-14T13:35:17Z</time>
</trkpt>
<trkpt lat="39.7152634" lon="3.1095645">
<ele>35.61</ele>
<time>2016-10-14T13:35:19Z</time>
</trkpt>
<trkpt lat="39.7155054" lon="3.1095867">
<ele>36.91</ele>
<time>2016-10-14T13:35:21Z</time>
</trkpt>
<trkpt lat="39.7157605" lon="3.1096107">
<ele>39.95</ele>
<time>2016-10-14T13:35:23Z</time>
</trkpt>
<trkpt lat="39.7160050" lon="3.1096261">
<ele>45.44</ele>
<time>2016-10-14T13:35:25Z</time>
</trkpt>
<trkpt lat="39.7162666" lon="3.1096468">
<ele>51.35</ele>
<time>2016-10-14T13:35:27Z</time>
</trkpt>
<trkpt lat="39.7165126" lon="3.1096826">
<ele>56.15</ele>
<time>2016-10-14T13:35:29Z</time>
</trkpt>
<trkpt lat="39.7167440" lon="3.1097452">
<ele>59.73</ele>
<time>2016-10-14T13:35:31Z</time>
</trkpt>
<trkpt lat="39.7169510" lon="3.1098183">
<ele>61.59</ele>
<time>2016-10-14T13:35:33Z</time>
</trkpt>
<trkpt lat="39.7171642" lon="3.1098988">
<ele>62.85</ele>
<time>2016-10-14T13:35:35Z</time>
</trkpt>
<trkpt lat="39.7173381" lon="3.1099779">
<ele>62.74</ele>
<time>2016-10-14T13:35:37Z</time>
</trkpt>
<trkpt lat="39.7175615" lon="3.1100801">
<ele>61.72</ele>
<time>2016-10-14T13:35:39Z</time>
</trkpt>
<trkpt lat="39.7177740" lon="3.1101661">
<ele>61.93</ele>
<time>2016-10-14T13:35:41Z</time>
</trkpt>
<trkpt lat="39.7179695" lon="3.1102382">
<ele>62.72</ele>
<time>2016-10-14T13:35:43Z</time>
</trkpt>
<trkpt lat="39.7181888" lon="3.1103316">
<ele>63.66</ele>
<time>2016-10-14T13:35:45Z</time>
</trkpt>
<trkpt lat="39.7184118" lon="3.1104359">
<ele>64.48</ele>
<time>2016-10-14T13:35:47Z</time>
</trkpt>
<trkpt lat="39.7186249" lon="3.1105625">
<ele>64.56</ele>
<time>2016-10-14T13:35:49Z</time>
</trkpt>
<trkpt lat="39.7188299" lon="3.1107131">
<ele>63.08</ele>
<time>2016-10-14T13:35:51Z</time>
</trkpt>
<trkpt lat="39.7190443" lon="3.1108713">
<ele>60.43</ele>
<time>2016-10-14T13:35:53Z</time>
</trkpt>
<trkpt lat="39.7192347" lon="3.1110156">
<ele>58.16</ele>
<time>2016-10-14T13:35:55Z</time>
</trkpt>
<trkpt lat="39.7194170" lon="3.1111618">
<ele>57.42</ele>
<time>2016-10-14T13:35:57Z</time>
</trkpt>
<trkpt lat="39.7196084" lon="3.1113157">
<ele>56.65</ele>
<time>2016-10-14T13:35:59Z</time>
</trkpt>
<trkpt lat="39.7197831" lon="3.1114417">
<ele>56.67</ele>
<time>2016-10-14T13:36:01Z</time>
</trkpt>
<trkpt lat="39.7199521" lon="3.1115663">
<ele>57.78</ele>
<time>2016-10-14T13:36:03Z</time>
</trkpt>
<trkpt lat="39.7201096" lon="3.1117278">
<ele>56.33</ele>
<time>2016-10-14T13:36:05Z</time>
</trkpt>
<trkpt lat="39.7203013" lon="3.1118871">
<ele>55.76</ele>
<time>2016-10-14T13:36:07Z</time>
</trkpt>
<trkpt lat="39.7204818" lon="3.1120200">
<ele>56.73</ele>
<time>2016-10-14T13:36:09Z</time>
</trkpt>
<trkpt lat="39.7206615" lon="3.1121668">
<ele>56.40</ele>
<time>2016-10-14T13:36:11Z</time>
</trkpt>
<trkpt lat="39.7208564" lon="3.1123220">
<ele>56.56</ele>
<time>2016-10-14T13:36:13Z</time>
</trkpt>
<trkpt lat="39.7210322" lon="3.1124581">
<ele>57.38</ele>
<time>2016-10-14T13:36:15Z</time>
</trkpt>
<trkpt lat="39.7212015" lon="3.1125857">
<ele>58.77</ele>
<time>2016-10-14T13:36:17Z</time>
</trkpt>
<trkpt lat="39.7213790" lon="3.1127167">
<ele>60.10</ele>
<time>2016-10-14T13:36:19Z</time>
</trkpt>
<trkpt lat="39.7215515" lon="3.1128436">
<ele>61.55</ele>
<time>2016-10-14T13:36:21Z</time>
</trkpt>
<trkpt lat="39.7217260" lon="3.1129746">
<ele>62.08</ele>
<time>2016-10-14T13:36:23Z</time>
</trkpt>
<trkpt lat="39.7219047" lon="3.1131155">
<ele>61.15</ele>
<time>2016-10-14T13:36:25Z</time>
</trkpt>
<trkpt lat="39.7220762" lon="3.1132574">
<ele>59.83</ele>
<time>2016-10-14T13:36:27Z</time>
</trkpt>
<trkpt lat="39.7222399" lon="3.1134099">
<ele>57.09</ele>
<time>2016-10-14T13:36:29Z</time>
</trkpt>
<trkpt lat="39.7224125" lon="3.1135536">
<ele>54.10</ele>
<time>2016-10-14T13:36:31Z</time>
</trkpt>
<trkpt lat="39.7226462" lon="3.1137200">
<ele>51.48</ele>
<time>2016-10-14T13:36:34Z</time>
</trkpt>
<trkpt lat="39.7228679" lon="3.1138915">
<ele>47.54</ele>
<time>2016-10-14T13:36:37Z</time>
</trkpt>
<trkpt lat="39.7230913" lon="3.1140720">
<ele>38.71</ele>
<time>2016-10-14T13:36:40Z</time>
</trkpt>
<trkpt lat="39.7233064" lon="3.1142614">
<ele>25.77</ele>
<time>2016-10-14T13:36:43Z</time>
</trkpt>
<trkpt lat="39.7234992" lon="3.1144206">
<ele>13.31</ele>
<time>2016-10-14T13:36:46Z</time>
</trkpt>
<trkpt lat="39.7236771" lon="3.1145587">
<ele>3.30</ele>
<time>2016-10-14T13:36:49Z</time>
</trkpt>
<trkpt lat="39.7238618" lon="3.1146742">
<ele>-3.99</ele>
<time>2016-10-14T13:36:53Z</time>
</trkpt>
<trkpt lat="39.7240383" lon="3.1148029">
<ele>-5.75</ele>
<time>2016-10-14T13:36:59Z</time>
</trkpt>
<trkpt lat="39.7242099" lon="3.1149465">
<ele>9.77</ele>
<time>2016-10-14T13:37:07Z</time>
</trkpt>
<trkpt lat="39.7243628" lon="3.1150751">
<ele>16.79</ele>
<time>2016-10-14T13:37:12Z</time>
</trkpt>
<trkpt lat="39.7245330" lon="3.1152062">
<ele>21.95</ele>
<time>2016-10-14T13:37:18Z</time>
</trkpt>
<trkpt lat="39.7247159" lon="3.1153423">
<ele>27.69</ele>
<time>2016-10-14T13:37:24Z</time>
</trkpt>
<trkpt lat="39.7248891" lon="3.1154972">
<ele>29.25</ele>
<time>2016-10-14T13:37:30Z</time>
</trkpt>
<trkpt lat="39.7250634" lon="3.1155903">
<ele>30.86</ele>
<time>2016-10-14T13:37:36Z</time>
</trkpt>
<trkpt lat="39.7252533" lon="3.1156750">
<ele>33.37</ele>
<time>2016-10-14T13:37:41Z</time>
</trkpt>
<trkpt lat="39.7254401" lon="3.1157436">
<ele>36.08</ele>
<time>2016-10-14T13:37:46Z</time>
</trkpt>
<trkpt lat="39.7256232" lon="3.1157794">
<ele>39.05</ele>
<time>2016-10-14T13:37:51Z</time>
</trkpt>
<trkpt lat="39.7258119" lon="3.1158002">
<ele>39.89</ele>
<time>2016-10-14T13:37:57Z</time>
</trkpt>
<trkpt lat="39.7259994" lon="3.1158298">
<ele>42.08</ele>
<time>2016-10-14T13:38:02Z</time>
</trkpt>
<trkpt lat="39.7261970" lon="3.1158784">
<ele>46.86</ele>
<time>2016-10-14T13:38:07Z</time>
</trkpt>
<trkpt lat="39.7263959" lon="3.1159304">
<ele>46.18</ele>
<time>2016-10-14T13:38:12Z</time>
</trkpt>
<trkpt lat="39.7266172" lon="3.1159965">
<ele>46.57</ele>
<time>2016-10-14T13:38:17Z</time>
</trkpt>
<trkpt lat="39.7267917" lon="3.1160579">
<ele>48.04</ele>
<time>2016-10-14T13:38:21Z</time>
</trkpt>
<trkpt lat="39.7269840" lon="3.1161569">
<ele>47.75</ele>
<time>2016-10-14T13:38:25Z</time>
</trkpt>
<trkpt lat="39.7271950" lon="3.1162877">
<ele>48.03</ele>
<time>2016-10-14T13:38:29Z</time>
</trkpt>
<trkpt lat="39.7273652" lon="3.1163936">
<ele>46.77</ele>
<time>2016-10-14T13:38:32Z</time>
</trkpt>
<trkpt lat="39.7275357" lon="3.1165016">
<ele>45.33</ele>
<time>2016-10-14T13:38:35Z</time>
</trkpt>
<trkpt lat="39.7277051" lon="3.1166134">
<ele>45.25</ele>
<time>2016-10-14T13:38:38Z</time>
</trkpt>
<trkpt lat="39.7278756" lon="3.1167279">
<ele>44.59</ele>
<time>2016-10-14T13:38:41Z</time>
</trkpt>
<trkpt lat="39.7280528" lon="3.1168367">
<ele>43.37</ele>
<time>2016-10-14T13:38:44Z</time>
</trkpt>
<trkpt lat="39.7282286" lon="3.1169422">
<ele>42.95</ele>
<time>2016-10-14T13:38:47Z</time>
</trkpt>
<trkpt lat="39.7283953" lon="3.1170454">
<ele>42.63</ele>
<time>2016-10-14T13:38:50Z</time>
</trkpt>
<trkpt lat="39.7285633" lon="3.1171489">
<ele>42.56</ele>
<time>2016-10-14T13:38:53Z</time>
</trkpt>
<trkpt lat="39.7287271" lon="3.1172495">
<ele>43.27</ele>
<time>2016-10-14T13:38:56Z</time>
</trkpt>
<trkpt lat="39.7288950" lon="3.1173490">
<ele>44.03</ele>
<time>2016-10-14T13:38:59Z</time>
</trkpt>
<trkpt lat="39.7290682" lon="3.1174550">
<ele>44.38</ele>
<time>2016-10-14T13:39:02Z</time>
</trkpt>
<trkpt lat="39.7292411" lon="3.1175579">
<ele>44.47</ele>
<time>2016-10-14T13:39:05Z</time>
</trkpt>
<trkpt lat="39.7294145" lon="3.1176649">
<ele>44.96</ele>
<time>2016-10-14T13:39:08Z</time>
</trkpt>
<trkpt lat="39.7295901" lon="3.1177703">
<ele>45.07</ele>
<time>2016-10-14T13:39:11Z</time>
</trkpt>
<trkpt lat="39.7297690" lon="3.1178789">
<ele>44.39</ele>
<time>2016-10-14T13:39:14Z</time>
</trkpt>
<trkpt lat="39.7299486" lon="3.1179920">
<ele>43.83</ele>
<time>2016-10-14T13:39:17Z</time>
</trkpt>
<trkpt lat="39.7301372" lon="3.1181080">
<ele>43.79</ele>
<time>2016-10-14T13:39:20Z</time>
</trkpt>
<trkpt lat="39.7303227" lon="3.1182248">
<ele>44.22</ele>
<time>2016-10-14T13:39:23Z</time>
</trkpt>
<trkpt lat="39.7305113" lon="3.1183418">
<ele>44.19</ele>
<time>2016-10-14T13:39:26Z</time>
</trkpt>
<trkpt lat="39.7307066" lon="3.1184613">
<ele>43.42</ele>
<time>2016-10-14T13:39:29Z</time>
</trkpt>
<trkpt lat="39.7309005" lon="3.1185756">
<ele>41.68</ele>
<time>2016-10-14T13:39:32Z</time>
</trkpt>
<trkpt lat="39.7311066" lon="3.1186908">
<ele>40.96</ele>
<time>2016-10-14T13:39:35Z</time>
</trkpt>
<trkpt lat="39.7313172" lon="3.1188051">
<ele>40.60</ele>
<time>2016-10-14T13:39:38Z</time>
</trkpt>
<trkpt lat="39.7315478" lon="3.1189371">
<ele>40.71</ele>
<time>2016-10-14T13:39:41Z</time>
</trkpt>
<trkpt lat="39.7317159" lon="3.1190308">
<ele>40.13</ele>
<time>2016-10-14T13:39:43Z</time>
</trkpt>
<trkpt lat="39.7319616" lon="3.1191518">
<ele>39.31</ele>
<time>2016-10-14T13:39:46Z</time>
</trkpt>
<trkpt lat="39.7322105" lon="3.1192776">
<ele>40.17</ele>
<time>2016-10-14T13:39:49Z</time>
</trkpt>
<trkpt lat="39.7323797" lon="3.1193748">
<ele>41.51</ele>
<time>2016-10-14T13:39:51Z</time>
</trkpt>
<trkpt lat="39.7326176" lon="3.1195185">
<ele>46.58</ele>
<time>2016-10-14T13:39:54Z</time>
</trkpt>
<trkpt lat="39.7327836" lon="3.1196183">
<ele>50.82</ele>
<time>2016-10-14T13:39:56Z</time>
</trkpt>
<trkpt lat="39.7329607" lon="3.1197171">
<ele>55.60</ele>
<time>2016-10-14T13:39:58Z</time>
</trkpt>
<trkpt lat="39.7331680" lon="3.1198273">
<ele>60.06</ele>
<time>2016-10-14T13:40:00Z</time>
</trkpt>
<trkpt lat="39.7333596" lon="3.1199227">
<ele>65.80</ele>
<time>2016-10-14T13:40:02Z</time>
</trkpt>
<trkpt lat="39.7335321" lon="3.1200036">
<ele>71.25</ele>
<time>2016-10-14T13:40:04Z</time>
</trkpt>
<trkpt lat="39.7337848" lon="3.1201264">
<ele>77.20</ele>
<time>2016-10-14T13:40:07Z</time>
</trkpt>
<trkpt lat="39.7339532" lon="3.1202126">
<ele>79.23</ele>
<time>2016-10-14T13:40:09Z</time>
</trkpt>
<trkpt lat="39.7341242" lon="3.1203052">
<ele>80.73</ele>
<time>2016-10-14T13:40:11Z</time>
</trkpt>
<trkpt lat="39.7342986" lon="3.1204010">
<ele>81.26</ele>
<time>2016-10-14T13:40:13Z</time>
</trkpt>
<trkpt lat="39.7344807" lon="3.1205055">
<ele>80.90</ele>
<time>2016-10-14T13:40:15Z</time>
</trkpt>
<trkpt lat="39.7346618" lon="3.1206035">
<ele>80.26</ele>
<time>2016-10-14T13:40:17Z</time>
</trkpt>
<trkpt lat="39.7348450" lon="3.1207037">
<ele>79.62</ele>
<time>2016-10-14T13:40:19Z</time>
</trkpt>
<trkpt lat="39.7350245" lon="3.1208046">
<ele>79.32</ele>
<time>2016-10-14T13:40:21Z</time>
</trkpt>
<trkpt lat="39.7352078" lon="3.1209065">
<ele>79.03</ele>
<time>2016-10-14T13:40:23Z</time>
</trkpt>
<trkpt lat="39.7353906" lon="3.1210251">
<ele>78.43</ele>
<time>2016-10-14T13:40:25Z</time>
</trkpt>
<trkpt lat="39.7355876" lon="3.1211557">
<ele>76.61</ele>
<time>2016-10-14T13:40:27Z</time>
</trkpt>
<trkpt lat="39.7357885" lon="3.1212919">
<ele>73.77</ele>
<time>2016-10-14T13:40:29Z</time>
</trkpt>
<trkpt lat="39.7359964" lon="3.1214303">
<ele>69.66</ele>
<time>2016-10-14T13:40:31Z</time>
</trkpt>
<trkpt lat="39.7362099" lon="3.1215677">
<ele>64.15</ele>
<time>2016-10-14T13:40:33Z</time>
</trkpt>
<trkpt lat="39.7364464" lon="3.1217225">
<ele>53.58</ele>
<time>2016-10-14T13:40:35Z</time>
</trkpt>
<trkpt lat="39.7367091" lon="3.1218745">
<ele>39.34</ele>
<time>2016-10-14T13:40:37Z</time>
</trkpt>
<trkpt lat="39.7369446" lon="3.1220211">
<ele>26.46</ele>
<time>2016-10-14T13:40:39Z</time>
</trkpt>
<trkpt lat="39.7371608" lon="3.1221691">
<ele>15.18</ele>
<time>2016-10-14T13:40:41Z</time>
</trkpt>
<trkpt lat="39.7373668" lon="3.1223014">
<ele>6.75</ele>
<time>2016-10-14T13:40:43Z</time>
</trkpt>
<trkpt lat="39.7375589" lon="3.1224249">
<ele>0.24</ele>
<time>2016-10-14T13:40:45Z</time>
</trkpt>
<trkpt lat="39.7377507" lon="3.1225473">
<ele>-4.71</ele>
<time>2016-10-14T13:40:47Z</time>
</trkpt>
<trkpt lat="39.7379556" lon="3.1226741">
<ele>-9.60</ele>
<time>2016-10-14T13:40:49Z</time>
</trkpt>
<trkpt lat="39.7381543" lon="3.1228000">
<ele>-14.72</ele>
<time>2016-10-14T13:40:51Z</time>
</trkpt>
<trkpt lat="39.7383479" lon="3.1229233">
<ele>-19.87</ele>
<time>2016-10-14T13:40:53Z</time>
</trkpt>
<trkpt lat="39.7385269" lon="3.1230410">
<ele>-24.29</ele>
<time>2016-10-14T13:40:55Z</time>
</trkpt>
<trkpt lat="39.7386929" lon="3.1231451">
<ele>-26.98</ele>
<time>2016-10-14T13:40:57Z</time>
</trkpt>
<trkpt lat="39.7389254" lon="3.1232833">
<ele>-28.48</ele>
<time>2016-10-14T13:41:00Z</time>
</trkpt>
<trkpt lat="39.7391598" lon="3.1234190">
<ele>-28.07</ele>
<time>2016-10-14T13:41:03Z</time>
</trkpt>
<trkpt lat="39.7393875" lon="3.1235628">
<ele>-27.38</ele>
<time>2016-10-14T13:41:06Z</time>
</trkpt>
<trkpt lat="39.7396085" lon="3.1236997">
<ele>-27.34</ele>
<time>2016-10-14T13:41:09Z</time>
</trkpt>
<trkpt lat="39.7398367" lon="3.1238335">
<ele>-27.41</ele>
<time>2016-10-14T13:41:12Z</time>
</trkpt>
<trkpt lat="39.7400701" lon="3.1239553">
<ele>-26.87</ele>
<time>2016-10-14T13:41:15Z</time>
</trkpt>
<trkpt lat="39.7402977" lon="3.1240889">
<ele>-26.50</ele>
<time>2016-10-14T13:41:18Z</time>
</trkpt>
<trkpt lat="39.7404750" lon="3.1242734">
<ele>-26.57</ele>
<time>2016-10-14T13:41:21Z</time>
</trkpt>
<trkpt lat="39.7405470" lon="3.1245074">
<ele>-25.71</ele>
<time>2016-10-14T13:41:24Z</time>
</trkpt>
<trkpt lat="39.7406072" lon="3.1247654">
<ele>-24.59</ele>
<time>2016-10-14T13:41:27Z</time>
</trkpt>
<trkpt lat="39.7406768" lon="3.1250720">
<ele>-23.96</ele>
<time>2016-10-14T13:41:30Z</time>
</trkpt>
<trkpt lat="39.7407257" lon="3.1253175">
<ele>-22.70</ele>
<time>2016-10-14T13:41:33Z</time>
</trkpt>
<trkpt lat="39.7407829" lon="3.1255805">
<ele>-16.56</ele>
<time>2016-10-14T13:41:36Z</time>
</trkpt>
<trkpt lat="39.7407754" lon="3.1259265">
<ele>0.71</ele>
<time>2016-10-14T13:41:39Z</time>
</trkpt>
<trkpt lat="39.7407936" lon="3.1261673">
<ele>11.51</ele>
<time>2016-10-14T13:41:41Z</time>
</trkpt>
<trkpt lat="39.7408378" lon="3.1265071">
<ele>28.31</ele>
<time>2016-10-14T13:41:44Z</time>
</trkpt>
<trkpt lat="39.7408976" lon="3.1267653">
<ele>37.42</ele>
<time>2016-10-14T13:41:47Z</time>
</trkpt>
<trkpt lat="39.7409575" lon="3.1270441">
<ele>43.62</ele>
<time>2016-10-14T13:41:49Z</time>
</trkpt>
<trkpt lat="39.7410189" lon="3.1273202">
<ele>47.11</ele>
<time>2016-10-14T13:41:51Z</time>
</trkpt>
<trkpt lat="39.7410730" lon="3.1275905">
<ele>48.75</ele>
<time>2016-10-14T13:41:53Z</time>
</trkpt>
<trkpt lat="39.7411356" lon="3.1278318">
<ele>48.99</ele>
<time>2016-10-14T13:41:55Z</time>
</trkpt>
<trkpt lat="39.7412037" lon="3.1280678">
<ele>48.68</ele>
<time>2016-10-14T13:41:57Z</time>
</trkpt>
<trkpt lat="39.7412731" lon="3.1283010">
<ele>47.95</ele>
<time>2016-10-14T13:41:59Z</time>
</trkpt>
<trkpt lat="39.7413392" lon="3.1285367">
<ele>47.40</ele>
<time>2016-10-14T13:42:01Z</time>
</trkpt>
<trkpt lat="39.7414234" lon="3.1288572">
<ele>46.52</ele>
<time>2016-10-14T13:42:04Z</time>
</trkpt>
<trkpt lat="39.7415073" lon="3.1291967">
<ele>45.46</ele>
<time>2016-10-14T13:42:07Z</time>
</trkpt>
<trkpt lat="39.7415865" lon="3.1295146">
<ele>46.86</ele>
<time>2016-10-14T13:42:10Z</time>
</trkpt>
<trkpt lat="39.7416571" lon="3.1297927">
<ele>47.44</ele>
<time>2016-10-14T13:42:13Z</time>
</trkpt>
<trkpt lat="39.7417344" lon="3.1300765">
<ele>48.21</ele>
<time>2016-10-14T13:42:16Z</time>
</trkpt>
<trkpt lat="39.7418127" lon="3.1303673">
<ele>48.91</ele>
<time>2016-10-14T13:42:19Z</time>
</trkpt>
<trkpt lat="39.7419000" lon="3.1306994">
<ele>48.01</ele>
<time>2016-10-14T13:42:22Z</time>
</trkpt>
<trkpt lat="39.7419673" lon="3.1309303">
<ele>47.56</ele>
<time>2016-10-14T13:42:24Z</time>
</trkpt>
<trkpt lat="39.7420336" lon="3.1311735">
<ele>46.96</ele>
<time>2016-10-14T13:42:26Z</time>
</trkpt>
<trkpt lat="39.7420951" lon="3.1314351">
<ele>46.70</ele>
<time>2016-10-14T13:42:28Z</time>
</trkpt>
<trkpt lat="39.7421586" lon="3.1316896">
<ele>46.68</ele>
<time>2016-10-14T13:42:30Z</time>
</trkpt>
<trkpt lat="39.7422313" lon="3.1319367">
<ele>46.96</ele>
<time>2016-10-14T13:42:32Z</time>
</trkpt>
<trkpt lat="39.7423066" lon="3.1321781">
<ele>46.82</ele>
<time>2016-10-14T13:42:34Z</time>
</trkpt>
<trkpt lat="39.7423737" lon="3.1324057">
<ele>47.08</ele>
<time>2016-10-14T13:42:36Z</time>
</trkpt>
<trkpt lat="39.7424656" lon="3.1327036">
<ele>48.26</ele>
<time>2016-10-14T13:42:39Z</time>
</trkpt>
<trkpt lat="39.7425469" lon="3.1330051">
<ele>49.41</ele>
<time>2016-10-14T13:42:42Z</time>
</trkpt>
<trkpt lat="39.7426275" lon="3.1333039">
<ele>49.51</ele>
<time>2016-10-14T13:42:45Z</time>
</trkpt>
<trkpt lat="39.7427159" lon="3.1336386">
<ele>48.18</ele>
<time>2016-10-14T13:42:48Z</time>
</trkpt>
<trkpt lat="39.7427803" lon="3.1338832">
<ele>47.47</ele>
<time>2016-10-14T13:42:50Z</time>
</trkpt>
<trkpt lat="39.7428508" lon="3.1341361">
<ele>46.64</ele>
<time>2016-10-14T13:42:52Z</time>
</trkpt>
<trkpt lat="39.7429325" lon="3.1343983">
<ele>45.05</ele>
<time>2016-10-14T13:42:54Z</time>
</trkpt>
<trkpt lat="39.7430078" lon="3.1346781">
<ele>43.92</ele>
<time>2016-10-14T13:42:56Z</time>
</trkpt>
<trkpt lat="39.7430885" lon="3.1349694">
<ele>42.85</ele>
<time>2016-10-14T13:42:58Z</time>
</trkpt>
<trkpt lat="39.7431681" lon="3.1352670">
<ele>41.51</ele>
<time>2016-10-14T13:43:00Z</time>
</trkpt>
<trkpt lat="39.7432499" lon="3.1355882">
<ele>41.05</ele>
<time>2016-10-14T13:43:02Z</time>
</trkpt>
<trkpt lat="39.7433304" lon="3.1358900">
<ele>41.19</ele>
<time>2016-10-14T13:43:04Z</time>
</trkpt>
<trkpt lat="39.7434108" lon="3.1361910">
<ele>41.75</ele>
<time>2016-10-14T13:43:06Z</time>
</trkpt>
<trkpt lat="39.7434834" lon="3.1364616">
<ele>41.87</ele>
<time>2016-10-14T13:43:08Z</time>
</trkpt>
<trkpt lat="39.7435522" lon="3.1367161">
<ele>41.58</ele>
<time>2016-10-14T13:43:10Z</time>
</trkpt>
<trkpt lat="39.7436181" lon="3.1369792">
<ele>41.15</ele>
<time>2016-10-14T13:43:12Z</time>
</trkpt>
<trkpt lat="39.7436847" lon="3.1372329">
<ele>41.18</ele>
<time>2016-10-14T13:43:14Z</time>
</trkpt>
<trkpt lat="39.7437469" lon="3.1374934">
<ele>42.07</ele>
<time>2016-10-14T13:43:16Z</time>
</trkpt>
<trkpt lat="39.7438122" lon="3.1377336">
<ele>42.27</ele>
<time>2016-10-14T13:43:18Z</time>
</trkpt>
<trkpt lat="39.7438793" lon="3.1379764">
<ele>41.31</ele>
<time>2016-10-14T13:43:20Z</time>
</trkpt>
<trkpt lat="39.7439482" lon="3.1382219">
<ele>40.61</ele>
<time>2016-10-14T13:43:22Z</time>
</trkpt>
<trkpt lat="39.7440163" lon="3.1384749">
<ele>39.62</ele>
<time>2016-10-14T13:43:24Z</time>
</trkpt>
<trkpt lat="39.7440826" lon="3.1387074">
<ele>38.66</ele>
<time>2016-10-14T13:43:26Z</time>
</trkpt>
<trkpt lat="39.7441818" lon="3.1390180">
<ele>38.08</ele>
<time>2016-10-14T13:43:29Z</time>
</trkpt>
<trkpt lat="39.7443014" lon="3.1392117">
<ele>38.20</ele>
<time>2016-10-14T13:43:31Z</time>
</trkpt>
<trkpt lat="39.7444788" lon="3.1394854">
<ele>36.55</ele>
<time>2016-10-14T13:43:34Z</time>
</trkpt>
<trkpt lat="39.7445927" lon="3.1396840">
<ele>34.60</ele>
<time>2016-10-14T13:43:36Z</time>
</trkpt>
<trkpt lat="39.7447084" lon="3.1398643">
<ele>33.76</ele>
<time>2016-10-14T13:43:38Z</time>
</trkpt>
<trkpt lat="39.7448258" lon="3.1400430">
<ele>32.60</ele>
<time>2016-10-14T13:43:40Z</time>
</trkpt>
<trkpt lat="39.7449894" lon="3.1403008">
<ele>29.39</ele>
<time>2016-10-14T13:43:43Z</time>
</trkpt>
<trkpt lat="39.7451071" lon="3.1404902">
<ele>24.12</ele>
<time>2016-10-14T13:43:45Z</time>
</trkpt>
<trkpt lat="39.7452712" lon="3.1407258">
<ele>17.49</ele>
<time>2016-10-14T13:43:48Z</time>
</trkpt>
<trkpt lat="39.7454055" lon="3.1409325">
<ele>13.83</ele>
<time>2016-10-14T13:43:51Z</time>
</trkpt>
<trkpt lat="39.7455196" lon="3.1411544">
<ele>10.21</ele>
<time>2016-10-14T13:43:54Z</time>
</trkpt>
<trkpt lat="39.7456255" lon="3.1414132">
<ele>3.96</ele>
<time>2016-10-14T13:43:57Z</time>
</trkpt>
<trkpt lat="39.7457390" lon="3.1416828">
<ele>-1.17</ele>
<time>2016-10-14T13:44:00Z</time>
</trkpt>
<trkpt lat="39.7458367" lon="3.1419357">
<ele>-3.96</ele>
<time>2016-10-14T13:44:03Z</time>
</trkpt>
<trkpt lat="39.7459162" lon="3.1421927">
<ele>-4.68</ele>
<time>2016-10-14T13:44:06Z</time>
</trkpt>
<trkpt lat="39.7459929" lon="3.1424700">
<ele>-4.35</ele>
<time>2016-10-14T13:44:09Z</time>
</trkpt>
<trkpt lat="39.7460811" lon="3.1427402">
<ele>-3.98</ele>
<time>2016-10-14T13:44:12Z</time>
</trkpt>
<trkpt lat="39.7461705" lon="3.1429854">
<ele>-4.41</ele>
<time>2016-10-14T13:44:15Z</time>
</trkpt>
<trkpt lat="39.7462381" lon="3.1432410">
<ele>-4.23</ele>
<time>2016-10-14T13:44:18Z</time>
</trkpt>
<trkpt lat="39.7462824" lon="3.1434854">
<ele>-0.52</ele>
<time>2016-10-14T13:44:21Z</time>
</trkpt>
<trkpt lat="39.7463443" lon="3.1437578">
<ele>3.25</ele>
<time>2016-10-14T13:44:24Z</time>
</trkpt>
<trkpt lat="39.7464141" lon="3.1440482">
<ele>4.78</ele>
<time>2016-10-14T13:44:27Z</time>
</trkpt>
<trkpt lat="39.7464962" lon="3.1443261">
<ele>4.82</ele>
<time>2016-10-14T13:44:30Z</time>
</trkpt>
<trkpt lat="39.7465694" lon="3.1445860">
<ele>5.78</ele>
<time>2016-10-14T13:44:33Z</time>
</trkpt>
<trkpt lat="39.7466479" lon="3.1448598">
<ele>7.59</ele>
<time>2016-10-14T13:44:36Z</time>
</trkpt>
<trkpt lat="39.7467505" lon="3.1451566">
<ele>9.37</ele>
<time>2016-10-14T13:44:39Z</time>
</trkpt>
<trkpt lat="39.7468513" lon="3.1454325">
<ele>11.41</ele>
<time>2016-10-14T13:44:42Z</time>
</trkpt>
<trkpt lat="39.7469606" lon="3.1456803">
<ele>16.37</ele>
<time>2016-10-14T13:44:45Z</time>
</trkpt>
<trkpt lat="39.7471365" lon="3.1458849">
<ele>20.78</ele>
<time>2016-10-14T13:44:48Z</time>
</trkpt>
<trkpt lat="39.7473060" lon="3.1460852">
<ele>21.33</ele>
<time>2016-10-14T13:44:51Z</time>
</trkpt>
<trkpt lat="39.7474646" lon="3.1462825">
<ele>20.15</ele>
<time>2016-10-14T13:44:54Z</time>
</trkpt>
<trkpt lat="39.7476435" lon="3.1464750">
<ele>15.73</ele>
<time>2016-10-14T13:44:57Z</time>
</trkpt>
<trkpt lat="39.7478102" lon="3.1466747">
<ele>10.51</ele>
<time>2016-10-14T13:45:00Z</time>
</trkpt>
<trkpt lat="39.7479977" lon="3.1469114">
<ele>8.70</ele>
<time>2016-10-14T13:45:03Z</time>
</trkpt>
<trkpt lat="39.7481874" lon="3.1471553">
<ele>8.12</ele>
<time>2016-10-14T13:45:06Z</time>
</trkpt>
<trkpt lat="39.7483795" lon="3.1473862">
<ele>7.38</ele>
<time>2016-10-14T13:45:09Z</time>
</trkpt>
<trkpt lat="39.7485210" lon="3.1475564">
<ele>8.04</ele>
<time>2016-10-14T13:45:11Z</time>
</trkpt>
<trkpt lat="39.7486747" lon="3.1477477">
<ele>12.03</ele>
<time>2016-10-14T13:45:14Z</time>
</trkpt>
<trkpt lat="39.7488683" lon="3.1479771">
<ele>14.99</ele>
<time>2016-10-14T13:45:17Z</time>
</trkpt>
<trkpt lat="39.7489998" lon="3.1481486">
<ele>15.42</ele>
<time>2016-10-14T13:45:19Z</time>
</trkpt>
<trkpt lat="39.7491422" lon="3.1483390">
<ele>15.75</ele>
<time>2016-10-14T13:45:21Z</time>
</trkpt>
<trkpt lat="39.7492797" lon="3.1485156">
<ele>14.87</ele>
<time>2016-10-14T13:45:23Z</time>
</trkpt>
<trkpt lat="39.7494110" lon="3.1486883">
<ele>13.07</ele>
<time>2016-10-14T13:45:25Z</time>
</trkpt>
<trkpt lat="39.7495449" lon="3.1488762">
<ele>10.26</ele>
<time>2016-10-14T13:45:27Z</time>
</trkpt>
<trkpt lat="39.7496923" lon="3.1490870">
<ele>5.21</ele>
<time>2016-10-14T13:45:29Z</time>
</trkpt>
<trkpt lat="39.7498458" lon="3.1492897">
<ele>-0.11</ele>
<time>2016-10-14T13:45:31Z</time>
</trkpt>
<trkpt lat="39.7499806" lon="3.1494753">
<ele>-4.47</ele>
<time>2016-10-14T13:45:33Z</time>
</trkpt>
<trkpt lat="39.7501258" lon="3.1496650">
<ele>-7.86</ele>
<time>2016-10-14T13:45:35Z</time>
</trkpt>
<trkpt lat="39.7502695" lon="3.1498566">
<ele>-10.07</ele>
<time>2016-10-14T13:45:37Z</time>
</trkpt>
<trkpt lat="39.7504051" lon="3.1500338">
<ele>-12.05</ele>
<time>2016-10-14T13:45:39Z</time>
</trkpt>
<trkpt lat="39.7505455" lon="3.1502247">
<ele>-14.48</ele>
<time>2016-10-14T13:45:41Z</time>
</trkpt>
<trkpt lat="39.7506774" lon="3.1504057">
<ele>-17.55</ele>
<time>2016-10-14T13:45:43Z</time>
</trkpt>
<trkpt lat="39.7508029" lon="3.1505795">
<ele>-21.00</ele>
<time>2016-10-14T13:45:45Z</time>
</trkpt>
<trkpt lat="39.7509419" lon="3.1507555">
<ele>-23.20</ele>
<time>2016-10-14T13:45:47Z</time>
</trkpt>
<trkpt lat="39.7510957" lon="3.1509401">
<ele>-26.42</ele>
<time>2016-10-14T13:45:49Z</time>
</trkpt>
<trkpt lat="39.7512493" lon="3.1511324">
<ele>-30.54</ele>
<time>2016-10-14T13:45:51Z</time>
</trkpt>
<trkpt lat="39.7514014" lon="3.1513193">
<ele>-34.29</ele>
<time>2016-10-14T13:45:53Z</time>
</trkpt>
<trkpt lat="39.7515466" lon="3.1514961">
<ele>-38.03</ele>
<time>2016-10-14T13:45:55Z</time>
</trkpt>
<trkpt lat="39.7516813" lon="3.1516598">
<ele>-41.11</ele>
<time>2016-10-14T13:45:57Z</time>
</trkpt>
<trkpt lat="39.7518124" lon="3.1518208">
<ele>-43.77</ele>
<time>2016-10-14T13:45:59Z</time>
</trkpt>
<trkpt lat="39.7519484" lon="3.1519988">
<ele>-45.81</ele>
<time>2016-10-14T13:46:01Z</time>
</trkpt>
<trkpt lat="39.7520860" lon="3.1521782">
<ele>-46.64</ele>
<time>2016-10-14T13:46:03Z</time>
</trkpt>
<trkpt lat="39.7522207" lon="3.1523484">
<ele>-47.27</ele>
<time>2016-10-14T13:46:05Z</time>
</trkpt>
<trkpt lat="39.7523539" lon="3.1525160">
<ele>-47.50</ele>
<time>2016-10-14T13:46:07Z</time>
</trkpt>
<trkpt lat="39.7524850" lon="3.1526822">
<ele>-46.87</ele>
<time>2016-10-14T13:46:09Z</time>
</trkpt>
<trkpt lat="39.7526180" lon="3.1528643">
<ele>-46.56</ele>
<time>2016-10-14T13:46:11Z</time>
</trkpt>
<trkpt lat="39.7527553" lon="3.1530460">
<ele>-46.49</ele>
<time>2016-10-14T13:46:13Z</time>
</trkpt>
<trkpt lat="39.7528924" lon="3.1532207">
<ele>-46.19</ele>
<time>2016-10-14T13:46:15Z</time>
</trkpt>
<trkpt lat="39.7530655" lon="3.1534497">
<ele>-44.88</ele>
<time>2016-10-14T13:46:18Z</time>
</trkpt>
<trkpt lat="39.7532236" lon="3.1536489">
<ele>-39.63</ele>
<time>2016-10-14T13:46:21Z</time>
</trkpt>
<trkpt lat="39.7533901" lon="3.1538298">
<ele>-33.83</ele>
<time>2016-10-14T13:46:24Z</time>
</trkpt>
<trkpt lat="39.7535767" lon="3.1539962">
<ele>-30.63</ele>
<time>2016-10-14T13:46:27Z</time>
</trkpt>
<trkpt lat="39.7537674" lon="3.1541612">
<ele>-27.92</ele>
<time>2016-10-14T13:46:30Z</time>
</trkpt>
<trkpt lat="39.7539429" lon="3.1543145">
<ele>-23.41</ele>
<time>2016-10-14T13:46:33Z</time>
</trkpt>
<trkpt lat="39.7541079" lon="3.1545209">
<ele>-10.99</ele>
<time>2016-10-14T13:46:37Z</time>
</trkpt>
<trkpt lat="39.7542657" lon="3.1546564">
<ele>-7.83</ele>
<time>2016-10-14T13:46:40Z</time>
</trkpt>
<trkpt lat="39.7544332" lon="3.1548025">
<ele>-8.31</ele>
<time>2016-10-14T13:46:43Z</time>
</trkpt>
<trkpt lat="39.7546293" lon="3.1549619">
<ele>-10.25</ele>
<time>2016-10-14T13:46:46Z</time>
</trkpt>
<trkpt lat="39.7548329" lon="3.1551426">
<ele>-13.22</ele>
<time>2016-10-14T13:46:49Z</time>
</trkpt>
<trkpt lat="39.7549877" lon="3.1552780">
<ele>-15.60</ele>
<time>2016-10-14T13:46:51Z</time>
</trkpt>
<trkpt lat="39.7551372" lon="3.1554084">
<ele>-18.22</ele>
<time>2016-10-14T13:46:53Z</time>
</trkpt>
<trkpt lat="39.7553441" lon="3.1555901">
<ele>-20.28</ele>
<time>2016-10-14T13:46:56Z</time>
</trkpt>
<trkpt lat="39.7555497" lon="3.1557794">
<ele>-20.66</ele>
<time>2016-10-14T13:46:59Z</time>
</trkpt>
<trkpt lat="39.7557002" lon="3.1559292">
<ele>-21.25</ele>
<time>2016-10-14T13:47:01Z</time>
</trkpt>
<trkpt lat="39.7558479" lon="3.1560713">
<ele>-22.44</ele>
<time>2016-10-14T13:47:03Z</time>
</trkpt>
<trkpt lat="39.7560603" lon="3.1562718">
<ele>-23.81</ele>
<time>2016-10-14T13:47:06Z</time>
</trkpt>
<trkpt lat="39.7562395" lon="3.1564360">
<ele>-23.14</ele>
<time>2016-10-14T13:47:09Z</time>
</trkpt>
<trkpt lat="39.7564283" lon="3.1566121">
<ele>-21.30</ele>
<time>2016-10-14T13:47:12Z</time>
</trkpt>
<trkpt lat="39.7566508" lon="3.1568045">
<ele>-18.27</ele>
<time>2016-10-14T13:47:15Z</time>
</trkpt>
<trkpt lat="39.7568565" lon="3.1569938">
<ele>-16.99</ele>
<time>2016-10-14T13:47:18Z</time>
</trkpt>
<trkpt lat="39.7570414" lon="3.1571752">
<ele>-21.37</ele>
<time>2016-10-14T13:47:22Z</time>
</trkpt>
<trkpt lat="39.7571540" lon="3.1573608">
<ele>-27.47</ele>
<time>2016-10-14T13:47:25Z</time>
</trkpt>
<trkpt lat="39.7571744" lon="3.1576012">
<ele>-28.85</ele>
<time>2016-10-14T13:47:30Z</time>
</trkpt>
<trkpt lat="39.7570241" lon="3.1577698">
<ele>-18.92</ele>
<time>2016-10-14T13:47:34Z</time>
</trkpt>
<trkpt lat="39.7568428" lon="3.1578664">
<ele>-6.13</ele>
<time>2016-10-14T13:47:38Z</time>
</trkpt>
<trkpt lat="39.7569867" lon="3.1577119">
<ele>19.49</ele>
<time>2016-10-14T13:48:19Z</time>
</trkpt>
<trkpt lat="39.7571696" lon="3.1576749">
<ele>28.49</ele>
<time>2016-10-14T13:48:22Z</time>
</trkpt>
<trkpt lat="39.7573958" lon="3.1576758">
<ele>34.79</ele>
<time>2016-10-14T13:48:26Z</time>
</trkpt>
<trkpt lat="39.7575794" lon="3.1577985">
<ele>36.00</ele>
<time>2016-10-14T13:48:30Z</time>
</trkpt>
<trkpt lat="39.7577587" lon="3.1579392">
<ele>35.34</ele>
<time>2016-10-14T13:48:34Z</time>
</trkpt>
<trkpt lat="39.7578920" lon="3.1581048">
<ele>34.74</ele>
<time>2016-10-14T13:48:41Z</time>
</trkpt>
<trkpt lat="39.7577223" lon="3.1579286">
<ele>31.14</ele>
<time>2016-10-14T13:49:20Z</time>
</trkpt>
<trkpt lat="39.7575460" lon="3.1577751">
<ele>29.39</ele>
<time>2016-10-14T13:49:26Z</time>
</trkpt>
<trkpt lat="39.7574670" lon="3.1575277">
<ele>29.95</ele>
<time>2016-10-14T13:49:31Z</time>
</trkpt>
<trkpt lat="39.7574854" lon="3.1572899">
<ele>29.91</ele>
<time>2016-10-14T13:49:34Z</time>
</trkpt>
<trkpt lat="39.7576118" lon="3.1570584">
<ele>26.59</ele>
<time>2016-10-14T13:49:38Z</time>
</trkpt>
<trkpt lat="39.7577960" lon="3.1569088">
<ele>27.05</ele>
<time>2016-10-14T13:49:43Z</time>
</trkpt>
<trkpt lat="39.7579640" lon="3.1567521">
<ele>28.34</ele>
<time>2016-10-14T13:49:47Z</time>
</trkpt>
<trkpt lat="39.7581047" lon="3.1565958">
<ele>31.98</ele>
<time>2016-10-14T13:49:51Z</time>
</trkpt>
<trkpt lat="39.7582498" lon="3.1564416">
<ele>34.87</ele>
<time>2016-10-14T13:49:55Z</time>
</trkpt>
<trkpt lat="39.7584098" lon="3.1562897">
<ele>37.06</ele>
<time>2016-10-14T13:49:59Z</time>
</trkpt>
<trkpt lat="39.7585817" lon="3.1561082">
<ele>36.71</ele>
<time>2016-10-14T13:50:03Z</time>
</trkpt>
<trkpt lat="39.7587639" lon="3.1559145">
<ele>34.67</ele>
<time>2016-10-14T13:50:07Z</time>
</trkpt>
<trkpt lat="39.7589037" lon="3.1557633">
<ele>34.76</ele>
<time>2016-10-14T13:50:10Z</time>
</trkpt>
<trkpt lat="39.7590604" lon="3.1556064">
<ele>34.06</ele>
<time>2016-10-14T13:50:13Z</time>
</trkpt>
<trkpt lat="39.7592205" lon="3.1554362">
<ele>33.51</ele>
<time>2016-10-14T13:50:16Z</time>
</trkpt>
<trkpt lat="39.7593902" lon="3.1552398">
<ele>34.68</ele>
<time>2016-10-14T13:50:19Z</time>
</trkpt>
<trkpt lat="39.7595656" lon="3.1550300">
<ele>36.73</ele>
<time>2016-10-14T13:50:22Z</time>
</trkpt>
<trkpt lat="39.7597405" lon="3.1548366">
<ele>37.49</ele>
<time>2016-10-14T13:50:25Z</time>
</trkpt>
<trkpt lat="39.7599164" lon="3.1546512">
<ele>37.34</ele>
<time>2016-10-14T13:50:28Z</time>
</trkpt>
<trkpt lat="39.7600856" lon="3.1544905">
<ele>32.97</ele>
<time>2016-10-14T13:50:31Z</time>
</trkpt>
<trkpt lat="39.7602851" lon="3.1542894">
<ele>29.27</ele>
<time>2016-10-14T13:50:34Z</time>
</trkpt>
<trkpt lat="39.7604845" lon="3.1540741">
<ele>30.22</ele>
<time>2016-10-14T13:50:37Z</time>
</trkpt>
<trkpt lat="39.7606688" lon="3.1538852">
<ele>30.41</ele>
<time>2016-10-14T13:50:40Z</time>
</trkpt>
<trkpt lat="39.7608174" lon="3.1537486">
<ele>28.08</ele>
<time>2016-10-14T13:50:43Z</time>
</trkpt>
<trkpt lat="39.7609842" lon="3.1536012">
<ele>26.99</ele>
<time>2016-10-14T13:50:46Z</time>
</trkpt>
<trkpt lat="39.7611299" lon="3.1534573">
<ele>18.60</ele>
<time>2016-10-14T13:50:50Z</time>
</trkpt>
<trkpt lat="39.7613170" lon="3.1532932">
<ele>11.49</ele>
<time>2016-10-14T13:50:53Z</time>
</trkpt>
<trkpt lat="39.7615001" lon="3.1531367">
<ele>5.30</ele>
<time>2016-10-14T13:50:56Z</time>
</trkpt>
<trkpt lat="39.7616751" lon="3.1529779">
<ele>1.53</ele>
<time>2016-10-14T13:50:59Z</time>
</trkpt>
<trkpt lat="39.7618419" lon="3.1528157">
<ele>-0.57</ele>
<time>2016-10-14T13:51:02Z</time>
</trkpt>
<trkpt lat="39.7620024" lon="3.1526572">
<ele>-2.09</ele>
<time>2016-10-14T13:51:05Z</time>
</trkpt>
<trkpt lat="39.7622010" lon="3.1524837">
<ele>-6.33</ele>
<time>2016-10-14T13:51:09Z</time>
</trkpt>
<trkpt lat="39.7623669" lon="3.1523491">
<ele>-7.64</ele>
<time>2016-10-14T13:51:12Z</time>
</trkpt>
<trkpt lat="39.7625412" lon="3.1521927">
<ele>-7.70</ele>
<time>2016-10-14T13:51:15Z</time>
</trkpt>
<trkpt lat="39.7627150" lon="3.1520119">
<ele>-8.01</ele>
<time>2016-10-14T13:51:18Z</time>
</trkpt>
<trkpt lat="39.7628825" lon="3.1518586">
<ele>-10.62</ele>
<time>2016-10-14T13:51:21Z</time>
</trkpt>
<trkpt lat="39.7630337" lon="3.1517135">
<ele>-13.59</ele>
<time>2016-10-14T13:51:24Z</time>
</trkpt>
<trkpt lat="39.7631974" lon="3.1515374">
<ele>-11.33</ele>
<time>2016-10-14T13:51:27Z</time>
</trkpt>
<trkpt lat="39.7633683" lon="3.1513762">
<ele>-6.98</ele>
<time>2016-10-14T13:51:30Z</time>
</trkpt>
<trkpt lat="39.7635480" lon="3.1512265">
<ele>-4.92</ele>
<time>2016-10-14T13:51:33Z</time>
</trkpt>
<trkpt lat="39.7637301" lon="3.1510744">
<ele>-4.06</ele>
<time>2016-10-14T13:51:36Z</time>
</trkpt>
<trkpt lat="39.7639162" lon="3.1509190">
<ele>-4.75</ele>
<time>2016-10-14T13:51:39Z</time>
</trkpt>
<trkpt lat="39.7640992" lon="3.1507520">
<ele>-4.59</ele>
<time>2016-10-14T13:51:42Z</time>
</trkpt>
<trkpt lat="39.7642654" lon="3.1505914">
<ele>-5.40</ele>
<time>2016-10-14T13:51:45Z</time>
</trkpt>
<trkpt lat="39.7644309" lon="3.1504266">
<ele>-6.04</ele>
<time>2016-10-14T13:51:48Z</time>
</trkpt>
<trkpt lat="39.7645984" lon="3.1502639">
<ele>-5.43</ele>
<time>2016-10-14T13:51:51Z</time>
</trkpt>
<trkpt lat="39.7647581" lon="3.1500980">
<ele>-5.01</ele>
<time>2016-10-14T13:51:54Z</time>
</trkpt>
<trkpt lat="39.7649212" lon="3.1499224">
<ele>-4.91</ele>
<time>2016-10-14T13:51:57Z</time>
</trkpt>
<trkpt lat="39.7650690" lon="3.1497766">
<ele>-4.77</ele>
<time>2016-10-14T13:52:00Z</time>
</trkpt>
<trkpt lat="39.7652198" lon="3.1496101">
<ele>-7.18</ele>
<time>2016-10-14T13:52:03Z</time>
</trkpt>
<trkpt lat="39.7653676" lon="3.1493919">
<ele>-12.91</ele>
<time>2016-10-14T13:52:07Z</time>
</trkpt>
<trkpt lat="39.7655374" lon="3.1492213">
<ele>-10.45</ele>
<time>2016-10-14T13:52:11Z</time>
</trkpt>
<trkpt lat="39.7655566" lon="3.1489249">
<ele>-9.17</ele>
<time>2016-10-14T13:52:15Z</time>
</trkpt>
<trkpt lat="39.7655136" lon="3.1486854">
<ele>-9.19</ele>
<time>2016-10-14T13:52:17Z</time>
</trkpt>
<trkpt lat="39.7655435" lon="3.1484436">
<ele>-7.96</ele>
<time>2016-10-14T13:52:25Z</time>
</trkpt>
<trkpt lat="39.7655154" lon="3.1482080">
<ele>13.87</ele>
<time>2016-10-14T13:56:38Z</time>
</trkpt>
<trkpt lat="39.7653267" lon="3.1480239">
<ele>13.40</ele>
<time>2016-10-14T13:57:00Z</time>
</trkpt>
</trkseg>
</trk>
</gpx>
